<?xml version="1.0" encoding="UTF-8" standalone="no" ?>
<gpx xmlns="http://www.topografix.com/GPX/1/1" xmlns:xsi="http://www.w3.org/2001/XMLSchema-instance" xsi:schemaLocation="http://www.topografix.com/GPX/1/1 http://www.topografix.com/GPX/1/1/gpx.xsd" version="1.1" creator="VisuGPX - https://www.visugpx.com">
  <metadata>
    <name>Paradiski J2-2016 (JLo)</name>
    <desc><![CDATA[La Plagne - Les Arcs 
Deuxième jour]]></desc>
  </metadata>
  <trk>
    <name><![CDATA[2016-03-21 09:02]]></name>
    <desc><![CDATA[<p>Temps de départ: 03/21/2016 09:02</p><p>Temps d'arrivée: 03/21/2016 16:56</p><p>Distance: 95 km (07:54)</p><p>Temps déplacement: 06:23</p><p>Vitesse moyenne: 12 km/h</p><p>Vitesse moyenne mouvement: 14,9 km/h</p><p>Vitess Max.: 101,2km/h</p><p>Altitude minimale: 1202 m</p><p>Altitude maximale: 3213 m</p><p>Vitesse d'élévation: 2574,9 m/h</p><p>Vitesse de descente: -3125,1 m/h</p><p>Gain Altitude: 9660 m</p><p>Perte Altitude: -9759 m</p><p>Temps d'élévation: 03:45</p><p>Temps de descente: 03:07</p><hr align="center" width="480" style="height: 2px; width: 517px"/>]]></desc>
    <trkseg>
      <trkpt lat="45.51211" lon="6.66694">
        <ele>2056.24</ele>
        <time>2016-03-21T08:02:20Z</time>
      </trkpt>
      <trkpt lat="45.51232" lon="6.66692">
        <ele>2062.57</ele>
        <time>2016-03-21T08:03:36Z</time>
      </trkpt>
      <trkpt lat="45.51251" lon="6.66693">
        <ele>2057.83</ele>
        <time>2016-03-21T08:03:39Z</time>
      </trkpt>
      <trkpt lat="45.51272" lon="6.66696">
        <ele>2056.74</ele>
        <time>2016-03-21T08:03:41Z</time>
      </trkpt>
      <trkpt lat="45.51295" lon="6.66688">
        <ele>2050.07</ele>
        <time>2016-03-21T08:03:44Z</time>
      </trkpt>
      <trkpt lat="45.51312" lon="6.6671">
        <ele>2043.87</ele>
        <time>2016-03-21T08:03:47Z</time>
      </trkpt>
      <trkpt lat="45.51328" lon="6.66726">
        <ele>2040.82</ele>
        <time>2016-03-21T08:03:49Z</time>
      </trkpt>
      <trkpt lat="45.51341" lon="6.66743">
        <ele>2038.94</ele>
        <time>2016-03-21T08:03:51Z</time>
      </trkpt>
      <trkpt lat="45.51356" lon="6.66758">
        <ele>2036.79</ele>
        <time>2016-03-21T08:03:53Z</time>
      </trkpt>
      <trkpt lat="45.51376" lon="6.66782">
        <ele>2032.82</ele>
        <time>2016-03-21T08:03:56Z</time>
      </trkpt>
      <trkpt lat="45.51398" lon="6.66798">
        <ele>2030.77</ele>
        <time>2016-03-21T08:03:59Z</time>
      </trkpt>
      <trkpt lat="45.51419" lon="6.66812">
        <ele>2026.02</ele>
        <time>2016-03-21T08:04:02Z</time>
      </trkpt>
      <trkpt lat="45.51435" lon="6.66827">
        <ele>2022.99</ele>
        <time>2016-03-21T08:04:04Z</time>
      </trkpt>
      <trkpt lat="45.51455" lon="6.66842">
        <ele>2020.63</ele>
        <time>2016-03-21T08:04:06Z</time>
      </trkpt>
      <trkpt lat="45.51472" lon="6.66862">
        <ele>2017.01</ele>
        <time>2016-03-21T08:04:08Z</time>
      </trkpt>
      <trkpt lat="45.51497" lon="6.66875">
        <ele>2012.79</ele>
        <time>2016-03-21T08:04:11Z</time>
      </trkpt>
      <trkpt lat="45.51515" lon="6.66881">
        <ele>1999.73</ele>
        <time>2016-03-21T08:04:30Z</time>
      </trkpt>
      <trkpt lat="45.51506" lon="6.66856">
        <ele>1999.48</ele>
        <time>2016-03-21T08:05:08Z</time>
      </trkpt>
      <trkpt lat="45.51492" lon="6.6684">
        <ele>2004.28</ele>
        <time>2016-03-21T08:05:18Z</time>
      </trkpt>
      <trkpt lat="45.51475" lon="6.66825">
        <ele>2010.49</ele>
        <time>2016-03-21T08:05:30Z</time>
      </trkpt>
      <trkpt lat="45.5146" lon="6.66808">
        <ele>2014.32</ele>
        <time>2016-03-21T08:05:40Z</time>
      </trkpt>
      <trkpt lat="45.51445" lon="6.66793">
        <ele>2017.34</ele>
        <time>2016-03-21T08:05:52Z</time>
      </trkpt>
      <trkpt lat="45.5143" lon="6.66778">
        <ele>2024.29</ele>
        <time>2016-03-21T08:06:05Z</time>
      </trkpt>
      <trkpt lat="45.51414" lon="6.66763">
        <ele>2029.29</ele>
        <time>2016-03-21T08:06:15Z</time>
      </trkpt>
      <trkpt lat="45.51398" lon="6.66748">
        <ele>2032.33</ele>
        <time>2016-03-21T08:06:28Z</time>
      </trkpt>
      <trkpt lat="45.51383" lon="6.66733">
        <ele>2036.49</ele>
        <time>2016-03-21T08:06:39Z</time>
      </trkpt>
      <trkpt lat="45.51368" lon="6.66718">
        <ele>2044.29</ele>
        <time>2016-03-21T08:06:49Z</time>
      </trkpt>
      <trkpt lat="45.51354" lon="6.667">
        <ele>2048.32</ele>
        <time>2016-03-21T08:07:00Z</time>
      </trkpt>
      <trkpt lat="45.51339" lon="6.66683">
        <ele>2051.33</ele>
        <time>2016-03-21T08:07:12Z</time>
      </trkpt>
      <trkpt lat="45.51323" lon="6.6667">
        <ele>2058.32</ele>
        <time>2016-03-21T08:07:23Z</time>
      </trkpt>
      <trkpt lat="45.51307" lon="6.66655">
        <ele>2066.32</ele>
        <time>2016-03-21T08:07:36Z</time>
      </trkpt>
      <trkpt lat="45.51293" lon="6.66636">
        <ele>2071.33</ele>
        <time>2016-03-21T08:07:46Z</time>
      </trkpt>
      <trkpt lat="45.51276" lon="6.66621">
        <ele>2077.29</ele>
        <time>2016-03-21T08:07:58Z</time>
      </trkpt>
      <trkpt lat="45.5126" lon="6.66605">
        <ele>2080.5</ele>
        <time>2016-03-21T08:08:10Z</time>
      </trkpt>
      <trkpt lat="45.51246" lon="6.66587">
        <ele>2086.33</ele>
        <time>2016-03-21T08:08:22Z</time>
      </trkpt>
      <trkpt lat="45.51231" lon="6.66572">
        <ele>2090.33</ele>
        <time>2016-03-21T08:08:33Z</time>
      </trkpt>
      <trkpt lat="45.51217" lon="6.66556">
        <ele>2096.49</ele>
        <time>2016-03-21T08:08:44Z</time>
      </trkpt>
      <trkpt lat="45.51202" lon="6.6654">
        <ele>2103.48</ele>
        <time>2016-03-21T08:08:55Z</time>
      </trkpt>
      <trkpt lat="45.51187" lon="6.66525">
        <ele>2107.48</ele>
        <time>2016-03-21T08:09:06Z</time>
      </trkpt>
      <trkpt lat="45.51172" lon="6.6651">
        <ele>2111.41</ele>
        <time>2016-03-21T08:09:17Z</time>
      </trkpt>
      <trkpt lat="45.51156" lon="6.66496">
        <ele>2117.29</ele>
        <time>2016-03-21T08:09:32Z</time>
      </trkpt>
      <trkpt lat="45.51142" lon="6.66478">
        <ele>2122.29</ele>
        <time>2016-03-21T08:09:47Z</time>
      </trkpt>
      <trkpt lat="45.51127" lon="6.66462">
        <ele>2126.33</ele>
        <time>2016-03-21T08:10:02Z</time>
      </trkpt>
      <trkpt lat="45.51112" lon="6.66447">
        <ele>2128.49</ele>
        <time>2016-03-21T08:10:14Z</time>
      </trkpt>
      <trkpt lat="45.51097" lon="6.6643">
        <ele>2130.72</ele>
        <time>2016-03-21T08:10:25Z</time>
      </trkpt>
      <trkpt lat="45.51081" lon="6.66414">
        <ele>2130.53</ele>
        <time>2016-03-21T08:10:37Z</time>
      </trkpt>
      <trkpt lat="45.51065" lon="6.66397">
        <ele>2130.56</ele>
        <time>2016-03-21T08:10:49Z</time>
      </trkpt>
      <trkpt lat="45.51046" lon="6.66398">
        <ele>2129.57</ele>
        <time>2016-03-21T08:10:59Z</time>
      </trkpt>
      <trkpt lat="45.51042" lon="6.66423">
        <ele>2126.33</ele>
        <time>2016-03-21T08:11:23Z</time>
      </trkpt>
      <trkpt lat="45.51035" lon="6.66451">
        <ele>2126.53</ele>
        <time>2016-03-21T08:11:30Z</time>
      </trkpt>
      <trkpt lat="45.51024" lon="6.66474">
        <ele>2124.74</ele>
        <time>2016-03-21T08:11:34Z</time>
      </trkpt>
      <trkpt lat="45.51012" lon="6.66498">
        <ele>2124.5</ele>
        <time>2016-03-21T08:11:38Z</time>
      </trkpt>
      <trkpt lat="45.51" lon="6.66519">
        <ele>2125.49</ele>
        <time>2016-03-21T08:11:42Z</time>
      </trkpt>
      <trkpt lat="45.50988" lon="6.66545">
        <ele>2123.53</ele>
        <time>2016-03-21T08:11:47Z</time>
      </trkpt>
      <trkpt lat="45.50975" lon="6.66574">
        <ele>2121.73</ele>
        <time>2016-03-21T08:11:51Z</time>
      </trkpt>
      <trkpt lat="45.50959" lon="6.66601">
        <ele>2120.54</ele>
        <time>2016-03-21T08:11:54Z</time>
      </trkpt>
      <trkpt lat="45.50945" lon="6.66621">
        <ele>2119.57</ele>
        <time>2016-03-21T08:11:56Z</time>
      </trkpt>
      <trkpt lat="45.50929" lon="6.66651">
        <ele>2113.29</ele>
        <time>2016-03-21T08:11:59Z</time>
      </trkpt>
      <trkpt lat="45.50914" lon="6.6667">
        <ele>2111.76</ele>
        <time>2016-03-21T08:12:01Z</time>
      </trkpt>
      <trkpt lat="45.50902" lon="6.66692">
        <ele>2109.78</ele>
        <time>2016-03-21T08:12:03Z</time>
      </trkpt>
      <trkpt lat="45.50892" lon="6.66718">
        <ele>2108.74</ele>
        <time>2016-03-21T08:12:05Z</time>
      </trkpt>
      <trkpt lat="45.50884" lon="6.66746">
        <ele>2107.74</ele>
        <time>2016-03-21T08:12:07Z</time>
      </trkpt>
      <trkpt lat="45.50875" lon="6.66771">
        <ele>2107.54</ele>
        <time>2016-03-21T08:12:09Z</time>
      </trkpt>
      <trkpt lat="45.5087" lon="6.66803">
        <ele>2099.82</ele>
        <time>2016-03-21T08:12:12Z</time>
      </trkpt>
      <trkpt lat="45.50858" lon="6.6683">
        <ele>2098.54</ele>
        <time>2016-03-21T08:12:15Z</time>
      </trkpt>
      <trkpt lat="45.50857" lon="6.66862">
        <ele>2093.6</ele>
        <time>2016-03-21T08:12:18Z</time>
      </trkpt>
      <trkpt lat="45.50844" lon="6.66884">
        <ele>2091.73</ele>
        <time>2016-03-21T08:12:22Z</time>
      </trkpt>
      <trkpt lat="45.50832" lon="6.66904">
        <ele>2085.77</ele>
        <time>2016-03-21T08:12:42Z</time>
      </trkpt>
      <trkpt lat="45.5081" lon="6.66915">
        <ele>2083.77</ele>
        <time>2016-03-21T08:12:45Z</time>
      </trkpt>
      <trkpt lat="45.50789" lon="6.66924">
        <ele>2081.9</ele>
        <time>2016-03-21T08:12:48Z</time>
      </trkpt>
      <trkpt lat="45.5077" lon="6.66931">
        <ele>2075.87</ele>
        <time>2016-03-21T08:12:51Z</time>
      </trkpt>
      <trkpt lat="45.50749" lon="6.66952">
        <ele>2073.58</ele>
        <time>2016-03-21T08:12:54Z</time>
      </trkpt>
      <trkpt lat="45.50733" lon="6.66966">
        <ele>2073.37</ele>
        <time>2016-03-21T08:12:56Z</time>
      </trkpt>
      <trkpt lat="45.50715" lon="6.66971">
        <ele>2072.56</ele>
        <time>2016-03-21T08:12:58Z</time>
      </trkpt>
      <trkpt lat="45.50696" lon="6.66968">
        <ele>2071.57</ele>
        <time>2016-03-21T08:13:00Z</time>
      </trkpt>
      <trkpt lat="45.50675" lon="6.6697">
        <ele>2071.53</ele>
        <time>2016-03-21T08:13:02Z</time>
      </trkpt>
      <trkpt lat="45.50653" lon="6.66974">
        <ele>2070.57</ele>
        <time>2016-03-21T08:13:04Z</time>
      </trkpt>
      <trkpt lat="45.50635" lon="6.66984">
        <ele>2066.05</ele>
        <time>2016-03-21T08:13:06Z</time>
      </trkpt>
      <trkpt lat="45.50618" lon="6.66996">
        <ele>2062.83</ele>
        <time>2016-03-21T08:13:08Z</time>
      </trkpt>
      <trkpt lat="45.50598" lon="6.67002">
        <ele>2060.74</ele>
        <time>2016-03-21T08:13:11Z</time>
      </trkpt>
      <trkpt lat="45.50579" lon="6.67005">
        <ele>2055.95</ele>
        <time>2016-03-21T08:13:15Z</time>
      </trkpt>
      <trkpt lat="45.50572" lon="6.67036">
        <ele>2050.67</ele>
        <time>2016-03-21T08:13:18Z</time>
      </trkpt>
      <trkpt lat="45.50563" lon="6.67062">
        <ele>2049.58</ele>
        <time>2016-03-21T08:13:20Z</time>
      </trkpt>
      <trkpt lat="45.50558" lon="6.67097">
        <ele>2043.45</ele>
        <time>2016-03-21T08:13:22Z</time>
      </trkpt>
      <trkpt lat="45.50551" lon="6.67132">
        <ele>2038.09</ele>
        <time>2016-03-21T08:13:24Z</time>
      </trkpt>
      <trkpt lat="45.50546" lon="6.67161">
        <ele>2033.23</ele>
        <time>2016-03-21T08:13:26Z</time>
      </trkpt>
      <trkpt lat="45.50528" lon="6.67187">
        <ele>2029.36</ele>
        <time>2016-03-21T08:13:28Z</time>
      </trkpt>
      <trkpt lat="45.50512" lon="6.67212">
        <ele>2026.8</ele>
        <time>2016-03-21T08:13:30Z</time>
      </trkpt>
      <trkpt lat="45.50507" lon="6.67238">
        <ele>2021.42</ele>
        <time>2016-03-21T08:13:32Z</time>
      </trkpt>
      <trkpt lat="45.50501" lon="6.6727">
        <ele>2018.01</ele>
        <time>2016-03-21T08:13:34Z</time>
      </trkpt>
      <trkpt lat="45.505" lon="6.67298">
        <ele>2014.03</ele>
        <time>2016-03-21T08:13:36Z</time>
      </trkpt>
      <trkpt lat="45.50491" lon="6.67336">
        <ele>2012.75</ele>
        <time>2016-03-21T08:13:38Z</time>
      </trkpt>
      <trkpt lat="45.50485" lon="6.67367">
        <ele>2010.78</ele>
        <time>2016-03-21T08:13:40Z</time>
      </trkpt>
      <trkpt lat="45.50483" lon="6.67394">
        <ele>2006.86</ele>
        <time>2016-03-21T08:13:42Z</time>
      </trkpt>
      <trkpt lat="45.50482" lon="6.6742">
        <ele>2006.54</ele>
        <time>2016-03-21T08:13:44Z</time>
      </trkpt>
      <trkpt lat="45.50481" lon="6.67454">
        <ele>2001.99</ele>
        <time>2016-03-21T08:13:47Z</time>
      </trkpt>
      <trkpt lat="45.50483" lon="6.67482">
        <ele>1999.74</ele>
        <time>2016-03-21T08:13:50Z</time>
      </trkpt>
      <trkpt lat="45.50492" lon="6.6751">
        <ele>1997.7</ele>
        <time>2016-03-21T08:13:54Z</time>
      </trkpt>
      <trkpt lat="45.50497" lon="6.67535">
        <ele>1997.49</ele>
        <time>2016-03-21T08:13:58Z</time>
      </trkpt>
      <trkpt lat="45.50504" lon="6.67561">
        <ele>1995.58</ele>
        <time>2016-03-21T08:14:03Z</time>
      </trkpt>
      <trkpt lat="45.50507" lon="6.67591">
        <ele>1994.58</ele>
        <time>2016-03-21T08:14:08Z</time>
      </trkpt>
      <trkpt lat="45.5051" lon="6.67618">
        <ele>1994.56</ele>
        <time>2016-03-21T08:14:13Z</time>
      </trkpt>
      <trkpt lat="45.50515" lon="6.67643">
        <ele>1994.53</ele>
        <time>2016-03-21T08:14:19Z</time>
      </trkpt>
      <trkpt lat="45.50525" lon="6.67668">
        <ele>1993.53</ele>
        <time>2016-03-21T08:14:27Z</time>
      </trkpt>
      <trkpt lat="45.50535" lon="6.67691">
        <ele>1990.57</ele>
        <time>2016-03-21T08:14:40Z</time>
      </trkpt>
      <trkpt lat="45.5054" lon="6.67716">
        <ele>1993.48</ele>
        <time>2016-03-21T08:14:48Z</time>
      </trkpt>
      <trkpt lat="45.50529" lon="6.67738">
        <ele>1991.56</ele>
        <time>2016-03-21T08:15:04Z</time>
      </trkpt>
      <trkpt lat="45.50512" lon="6.67727">
        <ele>1992.36</ele>
        <time>2016-03-21T08:17:52Z</time>
      </trkpt>
      <trkpt lat="45.5049" lon="6.67735">
        <ele>1995.28</ele>
        <time>2016-03-21T08:17:56Z</time>
      </trkpt>
      <trkpt lat="45.50472" lon="6.67743">
        <ele>1998.09</ele>
        <time>2016-03-21T08:17:59Z</time>
      </trkpt>
      <trkpt lat="45.50453" lon="6.67755">
        <ele>2000.13</ele>
        <time>2016-03-21T08:18:02Z</time>
      </trkpt>
      <trkpt lat="45.50436" lon="6.67766">
        <ele>2004.05</ele>
        <time>2016-03-21T08:18:05Z</time>
      </trkpt>
      <trkpt lat="45.50419" lon="6.67775">
        <ele>2005.52</ele>
        <time>2016-03-21T08:18:08Z</time>
      </trkpt>
      <trkpt lat="45.50396" lon="6.67784">
        <ele>2006.52</ele>
        <time>2016-03-21T08:18:12Z</time>
      </trkpt>
      <trkpt lat="45.50375" lon="6.67793">
        <ele>2009.49</ele>
        <time>2016-03-21T08:18:16Z</time>
      </trkpt>
      <trkpt lat="45.50355" lon="6.67805">
        <ele>2015.96</ele>
        <time>2016-03-21T08:18:20Z</time>
      </trkpt>
      <trkpt lat="45.50335" lon="6.67817">
        <ele>2022.07</ele>
        <time>2016-03-21T08:18:24Z</time>
      </trkpt>
      <trkpt lat="45.50315" lon="6.67825">
        <ele>2025.47</ele>
        <time>2016-03-21T08:18:28Z</time>
      </trkpt>
      <trkpt lat="45.50295" lon="6.67837">
        <ele>2026.33</ele>
        <time>2016-03-21T08:18:32Z</time>
      </trkpt>
      <trkpt lat="45.50277" lon="6.67847">
        <ele>2029.31</ele>
        <time>2016-03-21T08:18:35Z</time>
      </trkpt>
      <trkpt lat="45.50255" lon="6.67858">
        <ele>2033.53</ele>
        <time>2016-03-21T08:18:40Z</time>
      </trkpt>
      <trkpt lat="45.50236" lon="6.67866">
        <ele>2038.88</ele>
        <time>2016-03-21T08:18:44Z</time>
      </trkpt>
      <trkpt lat="45.50219" lon="6.67877">
        <ele>2046.96</ele>
        <time>2016-03-21T08:18:48Z</time>
      </trkpt>
      <trkpt lat="45.50199" lon="6.67885">
        <ele>2051.31</ele>
        <time>2016-03-21T08:18:52Z</time>
      </trkpt>
      <trkpt lat="45.50181" lon="6.67894">
        <ele>2055.27</ele>
        <time>2016-03-21T08:18:56Z</time>
      </trkpt>
      <trkpt lat="45.50161" lon="6.67906">
        <ele>2063.99</ele>
        <time>2016-03-21T08:19:00Z</time>
      </trkpt>
      <trkpt lat="45.50142" lon="6.67917">
        <ele>2069.27</ele>
        <time>2016-03-21T08:19:04Z</time>
      </trkpt>
      <trkpt lat="45.50121" lon="6.67928">
        <ele>2073.28</ele>
        <time>2016-03-21T08:19:08Z</time>
      </trkpt>
      <trkpt lat="45.50103" lon="6.67935">
        <ele>2077.12</ele>
        <time>2016-03-21T08:19:12Z</time>
      </trkpt>
      <trkpt lat="45.50085" lon="6.67944">
        <ele>2080.41</ele>
        <time>2016-03-21T08:19:16Z</time>
      </trkpt>
      <trkpt lat="45.50063" lon="6.67955">
        <ele>2083.32</ele>
        <time>2016-03-21T08:19:20Z</time>
      </trkpt>
      <trkpt lat="45.50042" lon="6.67966">
        <ele>2088.5</ele>
        <time>2016-03-21T08:19:24Z</time>
      </trkpt>
      <trkpt lat="45.50021" lon="6.67977">
        <ele>2095.46</ele>
        <time>2016-03-21T08:19:28Z</time>
      </trkpt>
      <trkpt lat="45.50001" lon="6.67988">
        <ele>2102.6</ele>
        <time>2016-03-21T08:19:32Z</time>
      </trkpt>
      <trkpt lat="45.4998" lon="6.68002">
        <ele>2108.28</ele>
        <time>2016-03-21T08:19:36Z</time>
      </trkpt>
      <trkpt lat="45.49961" lon="6.68013">
        <ele>2116.03</ele>
        <time>2016-03-21T08:19:40Z</time>
      </trkpt>
      <trkpt lat="45.49941" lon="6.68023">
        <ele>2120.11</ele>
        <time>2016-03-21T08:19:44Z</time>
      </trkpt>
      <trkpt lat="45.49924" lon="6.68034">
        <ele>2132.78</ele>
        <time>2016-03-21T08:19:48Z</time>
      </trkpt>
      <trkpt lat="45.49905" lon="6.68043">
        <ele>2142.98</ele>
        <time>2016-03-21T08:19:52Z</time>
      </trkpt>
      <trkpt lat="45.49887" lon="6.68051">
        <ele>2147.28</ele>
        <time>2016-03-21T08:19:56Z</time>
      </trkpt>
      <trkpt lat="45.49868" lon="6.68059">
        <ele>2152.28</ele>
        <time>2016-03-21T08:20:00Z</time>
      </trkpt>
      <trkpt lat="45.4985" lon="6.68069">
        <ele>2155.32</ele>
        <time>2016-03-21T08:20:04Z</time>
      </trkpt>
      <trkpt lat="45.49829" lon="6.68082">
        <ele>2156.52</ele>
        <time>2016-03-21T08:20:08Z</time>
      </trkpt>
      <trkpt lat="45.4981" lon="6.68091">
        <ele>2164.23</ele>
        <time>2016-03-21T08:20:12Z</time>
      </trkpt>
      <trkpt lat="45.4979" lon="6.68102">
        <ele>2170.89</ele>
        <time>2016-03-21T08:20:16Z</time>
      </trkpt>
      <trkpt lat="45.4977" lon="6.68113">
        <ele>2180.21</ele>
        <time>2016-03-21T08:20:20Z</time>
      </trkpt>
      <trkpt lat="45.49752" lon="6.68123">
        <ele>2189.03</ele>
        <time>2016-03-21T08:20:24Z</time>
      </trkpt>
      <trkpt lat="45.49734" lon="6.68133">
        <ele>2193.32</ele>
        <time>2016-03-21T08:20:28Z</time>
      </trkpt>
      <trkpt lat="45.49715" lon="6.68143">
        <ele>2196.32</ele>
        <time>2016-03-21T08:20:32Z</time>
      </trkpt>
      <trkpt lat="45.49695" lon="6.68155">
        <ele>2199.25</ele>
        <time>2016-03-21T08:20:36Z</time>
      </trkpt>
      <trkpt lat="45.49675" lon="6.68165">
        <ele>2206.26</ele>
        <time>2016-03-21T08:20:40Z</time>
      </trkpt>
      <trkpt lat="45.49657" lon="6.68174">
        <ele>2218.01</ele>
        <time>2016-03-21T08:20:44Z</time>
      </trkpt>
      <trkpt lat="45.49637" lon="6.68188">
        <ele>2226.92</ele>
        <time>2016-03-21T08:20:49Z</time>
      </trkpt>
      <trkpt lat="45.49618" lon="6.68199">
        <ele>2236.79</ele>
        <time>2016-03-21T08:20:53Z</time>
      </trkpt>
      <trkpt lat="45.49595" lon="6.68208">
        <ele>2246.22</ele>
        <time>2016-03-21T08:20:57Z</time>
      </trkpt>
      <trkpt lat="45.49577" lon="6.68217">
        <ele>2255.98</ele>
        <time>2016-03-21T08:21:01Z</time>
      </trkpt>
      <trkpt lat="45.49558" lon="6.68226">
        <ele>2264.79</ele>
        <time>2016-03-21T08:21:05Z</time>
      </trkpt>
      <trkpt lat="45.49538" lon="6.68234">
        <ele>2275.02</ele>
        <time>2016-03-21T08:21:09Z</time>
      </trkpt>
      <trkpt lat="45.49518" lon="6.68245">
        <ele>2282.84</ele>
        <time>2016-03-21T08:21:13Z</time>
      </trkpt>
      <trkpt lat="45.49498" lon="6.68254">
        <ele>2290.07</ele>
        <time>2016-03-21T08:21:17Z</time>
      </trkpt>
      <trkpt lat="45.49479" lon="6.68265">
        <ele>2297.67</ele>
        <time>2016-03-21T08:21:21Z</time>
      </trkpt>
      <trkpt lat="45.49461" lon="6.68273">
        <ele>2310.18</ele>
        <time>2016-03-21T08:21:25Z</time>
      </trkpt>
      <trkpt lat="45.49443" lon="6.68282">
        <ele>2323.01</ele>
        <time>2016-03-21T08:21:29Z</time>
      </trkpt>
      <trkpt lat="45.49423" lon="6.68291">
        <ele>2329.07</ele>
        <time>2016-03-21T08:21:33Z</time>
      </trkpt>
      <trkpt lat="45.49404" lon="6.683">
        <ele>2336.71</ele>
        <time>2016-03-21T08:21:37Z</time>
      </trkpt>
      <trkpt lat="45.49386" lon="6.68309">
        <ele>2343.28</ele>
        <time>2016-03-21T08:21:41Z</time>
      </trkpt>
      <trkpt lat="45.49369" lon="6.68318">
        <ele>2351</ele>
        <time>2016-03-21T08:21:45Z</time>
      </trkpt>
      <trkpt lat="45.49353" lon="6.68331">
        <ele>2375.09</ele>
        <time>2016-03-21T08:21:49Z</time>
      </trkpt>
      <trkpt lat="45.49336" lon="6.6834">
        <ele>2393.71</ele>
        <time>2016-03-21T08:21:53Z</time>
      </trkpt>
      <trkpt lat="45.49318" lon="6.6835">
        <ele>2416.19</ele>
        <time>2016-03-21T08:21:58Z</time>
      </trkpt>
      <trkpt lat="45.49301" lon="6.68361">
        <ele>2435.51</ele>
        <time>2016-03-21T08:22:02Z</time>
      </trkpt>
      <trkpt lat="45.49281" lon="6.68369">
        <ele>2444.68</ele>
        <time>2016-03-21T08:22:06Z</time>
      </trkpt>
      <trkpt lat="45.49259" lon="6.68378">
        <ele>2449.52</ele>
        <time>2016-03-21T08:22:11Z</time>
      </trkpt>
      <trkpt lat="45.49242" lon="6.68388">
        <ele>2454.07</ele>
        <time>2016-03-21T08:22:14Z</time>
      </trkpt>
      <trkpt lat="45.49221" lon="6.68398">
        <ele>2472.35</ele>
        <time>2016-03-21T08:22:19Z</time>
      </trkpt>
      <trkpt lat="45.49201" lon="6.68409">
        <ele>2479.05</ele>
        <time>2016-03-21T08:22:23Z</time>
      </trkpt>
      <trkpt lat="45.49181" lon="6.68418">
        <ele>2481.76</ele>
        <time>2016-03-21T08:22:28Z</time>
      </trkpt>
      <trkpt lat="45.49163" lon="6.68425">
        <ele>2490.29</ele>
        <time>2016-03-21T08:23:06Z</time>
      </trkpt>
      <trkpt lat="45.49148" lon="6.68442">
        <ele>2502.53</ele>
        <time>2016-03-21T08:23:45Z</time>
      </trkpt>
      <trkpt lat="45.49151" lon="6.68467">
        <ele>2500.53</ele>
        <time>2016-03-21T08:24:30Z</time>
      </trkpt>
      <trkpt lat="45.49162" lon="6.68492">
        <ele>2497.77</ele>
        <time>2016-03-21T08:24:35Z</time>
      </trkpt>
      <trkpt lat="45.49166" lon="6.68522">
        <ele>2493.82</ele>
        <time>2016-03-21T08:24:38Z</time>
      </trkpt>
      <trkpt lat="45.49166" lon="6.68549">
        <ele>2489.86</ele>
        <time>2016-03-21T08:24:40Z</time>
      </trkpt>
      <trkpt lat="45.49171" lon="6.68578">
        <ele>2486.82</ele>
        <time>2016-03-21T08:24:42Z</time>
      </trkpt>
      <trkpt lat="45.49172" lon="6.68607">
        <ele>2482.06</ele>
        <time>2016-03-21T08:24:44Z</time>
      </trkpt>
      <trkpt lat="45.49171" lon="6.68641">
        <ele>2481.55</ele>
        <time>2016-03-21T08:24:46Z</time>
      </trkpt>
      <trkpt lat="45.49168" lon="6.68669">
        <ele>2473.53</ele>
        <time>2016-03-21T08:24:48Z</time>
      </trkpt>
      <trkpt lat="45.49168" lon="6.68702">
        <ele>2465.5</ele>
        <time>2016-03-21T08:24:51Z</time>
      </trkpt>
      <trkpt lat="45.49168" lon="6.68736">
        <ele>2460.79</ele>
        <time>2016-03-21T08:24:54Z</time>
      </trkpt>
      <trkpt lat="45.49158" lon="6.68764">
        <ele>2456.82</ele>
        <time>2016-03-21T08:24:57Z</time>
      </trkpt>
      <trkpt lat="45.49154" lon="6.68796">
        <ele>2449.21</ele>
        <time>2016-03-21T08:25:00Z</time>
      </trkpt>
      <trkpt lat="45.4915" lon="6.68823">
        <ele>2444.08</ele>
        <time>2016-03-21T08:25:02Z</time>
      </trkpt>
      <trkpt lat="45.49151" lon="6.68854">
        <ele>2435.71</ele>
        <time>2016-03-21T08:25:04Z</time>
      </trkpt>
      <trkpt lat="45.49156" lon="6.68887">
        <ele>2430.1</ele>
        <time>2016-03-21T08:25:06Z</time>
      </trkpt>
      <trkpt lat="45.49165" lon="6.68922">
        <ele>2418.83</ele>
        <time>2016-03-21T08:25:08Z</time>
      </trkpt>
      <trkpt lat="45.49171" lon="6.68959">
        <ele>2411.34</ele>
        <time>2016-03-21T08:25:10Z</time>
      </trkpt>
      <trkpt lat="45.4918" lon="6.68997">
        <ele>2407.84</ele>
        <time>2016-03-21T08:25:12Z</time>
      </trkpt>
      <trkpt lat="45.4919" lon="6.69028">
        <ele>2406.58</ele>
        <time>2016-03-21T08:25:14Z</time>
      </trkpt>
      <trkpt lat="45.49197" lon="6.69055">
        <ele>2405.57</ele>
        <time>2016-03-21T08:25:16Z</time>
      </trkpt>
      <trkpt lat="45.49203" lon="6.69088">
        <ele>2402.65</ele>
        <time>2016-03-21T08:25:19Z</time>
      </trkpt>
      <trkpt lat="45.49202" lon="6.69118">
        <ele>2402.53</ele>
        <time>2016-03-21T08:25:22Z</time>
      </trkpt>
      <trkpt lat="45.49203" lon="6.69145">
        <ele>2400.61</ele>
        <time>2016-03-21T08:25:25Z</time>
      </trkpt>
      <trkpt lat="45.49207" lon="6.69172">
        <ele>2399.7</ele>
        <time>2016-03-21T08:25:28Z</time>
      </trkpt>
      <trkpt lat="45.49216" lon="6.69198">
        <ele>2398.69</ele>
        <time>2016-03-21T08:25:32Z</time>
      </trkpt>
      <trkpt lat="45.4923" lon="6.69218">
        <ele>2396.54</ele>
        <time>2016-03-21T08:25:37Z</time>
      </trkpt>
      <trkpt lat="45.49244" lon="6.69239">
        <ele>2392.37</ele>
        <time>2016-03-21T08:25:42Z</time>
      </trkpt>
      <trkpt lat="45.49248" lon="6.69266">
        <ele>2391.73</ele>
        <time>2016-03-21T08:25:46Z</time>
      </trkpt>
      <trkpt lat="45.49245" lon="6.69296">
        <ele>2391.53</ele>
        <time>2016-03-21T08:25:50Z</time>
      </trkpt>
      <trkpt lat="45.49245" lon="6.6933">
        <ele>2388.74</ele>
        <time>2016-03-21T08:25:54Z</time>
      </trkpt>
      <trkpt lat="45.49256" lon="6.69361">
        <ele>2387.54</ele>
        <time>2016-03-21T08:25:58Z</time>
      </trkpt>
      <trkpt lat="45.49264" lon="6.69386">
        <ele>2385.74</ele>
        <time>2016-03-21T08:26:01Z</time>
      </trkpt>
      <trkpt lat="45.4927" lon="6.69421">
        <ele>2383.74</ele>
        <time>2016-03-21T08:26:04Z</time>
      </trkpt>
      <trkpt lat="45.49268" lon="6.6945">
        <ele>2379.86</ele>
        <time>2016-03-21T08:26:06Z</time>
      </trkpt>
      <trkpt lat="45.49273" lon="6.69485">
        <ele>2378.54</ele>
        <time>2016-03-21T08:26:09Z</time>
      </trkpt>
      <trkpt lat="45.49265" lon="6.69513">
        <ele>2377.8</ele>
        <time>2016-03-21T08:26:12Z</time>
      </trkpt>
      <trkpt lat="45.49247" lon="6.69506">
        <ele>2373.63</ele>
        <time>2016-03-21T08:26:15Z</time>
      </trkpt>
      <trkpt lat="45.4925" lon="6.69533">
        <ele>2371.74</ele>
        <time>2016-03-21T08:26:18Z</time>
      </trkpt>
      <trkpt lat="45.49268" lon="6.69541">
        <ele>2368.82</ele>
        <time>2016-03-21T08:26:20Z</time>
      </trkpt>
      <trkpt lat="45.49285" lon="6.69554">
        <ele>2366.78</ele>
        <time>2016-03-21T08:26:22Z</time>
      </trkpt>
      <trkpt lat="45.49295" lon="6.69576">
        <ele>2360.97</ele>
        <time>2016-03-21T08:26:25Z</time>
      </trkpt>
      <trkpt lat="45.49302" lon="6.69605">
        <ele>2356.87</ele>
        <time>2016-03-21T08:26:27Z</time>
      </trkpt>
      <trkpt lat="45.49313" lon="6.69629">
        <ele>2353.02</ele>
        <time>2016-03-21T08:26:29Z</time>
      </trkpt>
      <trkpt lat="45.49325" lon="6.69651">
        <ele>2348.87</ele>
        <time>2016-03-21T08:26:31Z</time>
      </trkpt>
      <trkpt lat="45.49339" lon="6.6967">
        <ele>2346.78</ele>
        <time>2016-03-21T08:26:33Z</time>
      </trkpt>
      <trkpt lat="45.4936" lon="6.69688">
        <ele>2341.06</ele>
        <time>2016-03-21T08:26:36Z</time>
      </trkpt>
      <trkpt lat="45.49372" lon="6.6971">
        <ele>2336.98</ele>
        <time>2016-03-21T08:26:39Z</time>
      </trkpt>
      <trkpt lat="45.49381" lon="6.69737">
        <ele>2333.81</ele>
        <time>2016-03-21T08:26:42Z</time>
      </trkpt>
      <trkpt lat="45.49389" lon="6.6977">
        <ele>2331.93</ele>
        <time>2016-03-21T08:26:45Z</time>
      </trkpt>
      <trkpt lat="45.49401" lon="6.698">
        <ele>2328.59</ele>
        <time>2016-03-21T08:26:48Z</time>
      </trkpt>
      <trkpt lat="45.49416" lon="6.69816">
        <ele>2326.77</ele>
        <time>2016-03-21T08:26:50Z</time>
      </trkpt>
      <trkpt lat="45.49434" lon="6.69835">
        <ele>2324.78</ele>
        <time>2016-03-21T08:26:52Z</time>
      </trkpt>
      <trkpt lat="45.49449" lon="6.69849">
        <ele>2320.54</ele>
        <time>2016-03-21T08:26:54Z</time>
      </trkpt>
      <trkpt lat="45.49462" lon="6.6988">
        <ele>2314.64</ele>
        <time>2016-03-21T08:26:57Z</time>
      </trkpt>
      <trkpt lat="45.49449" lon="6.699">
        <ele>2311.59</ele>
        <time>2016-03-21T08:27:00Z</time>
      </trkpt>
      <trkpt lat="45.4943" lon="6.69907">
        <ele>2310.73</ele>
        <time>2016-03-21T08:27:02Z</time>
      </trkpt>
      <trkpt lat="45.49416" lon="6.69925">
        <ele>2302.08</ele>
        <time>2016-03-21T08:27:05Z</time>
      </trkpt>
      <trkpt lat="45.49423" lon="6.69951">
        <ele>2300.59</ele>
        <time>2016-03-21T08:27:07Z</time>
      </trkpt>
      <trkpt lat="45.49438" lon="6.69974">
        <ele>2297.97</ele>
        <time>2016-03-21T08:27:09Z</time>
      </trkpt>
      <trkpt lat="45.49453" lon="6.70004">
        <ele>2295.95</ele>
        <time>2016-03-21T08:27:11Z</time>
      </trkpt>
      <trkpt lat="45.49466" lon="6.70025">
        <ele>2292.83</ele>
        <time>2016-03-21T08:27:13Z</time>
      </trkpt>
      <trkpt lat="45.49482" lon="6.70039">
        <ele>2289.98</ele>
        <time>2016-03-21T08:27:15Z</time>
      </trkpt>
      <trkpt lat="45.49499" lon="6.70026">
        <ele>2281.6</ele>
        <time>2016-03-21T08:27:19Z</time>
      </trkpt>
      <trkpt lat="45.49514" lon="6.70048">
        <ele>2270.74</ele>
        <time>2016-03-21T08:27:47Z</time>
      </trkpt>
      <trkpt lat="45.49528" lon="6.70066">
        <ele>2268.58</ele>
        <time>2016-03-21T08:27:50Z</time>
      </trkpt>
      <trkpt lat="45.4955" lon="6.70084">
        <ele>2267.73</ele>
        <time>2016-03-21T08:27:53Z</time>
      </trkpt>
      <trkpt lat="45.49573" lon="6.70088">
        <ele>2263.98</ele>
        <time>2016-03-21T08:27:56Z</time>
      </trkpt>
      <trkpt lat="45.49598" lon="6.70097">
        <ele>2260.78</ele>
        <time>2016-03-21T08:27:59Z</time>
      </trkpt>
      <trkpt lat="45.49618" lon="6.70107">
        <ele>2258.78</ele>
        <time>2016-03-21T08:28:01Z</time>
      </trkpt>
      <trkpt lat="45.49639" lon="6.70117">
        <ele>2258.54</ele>
        <time>2016-03-21T08:28:03Z</time>
      </trkpt>
      <trkpt lat="45.49661" lon="6.7013">
        <ele>2257.73</ele>
        <time>2016-03-21T08:28:05Z</time>
      </trkpt>
      <trkpt lat="45.49678" lon="6.70128">
        <ele>2253.54</ele>
        <time>2016-03-21T08:28:07Z</time>
      </trkpt>
      <trkpt lat="45.49699" lon="6.70138">
        <ele>2249.85</ele>
        <time>2016-03-21T08:28:09Z</time>
      </trkpt>
      <trkpt lat="45.49722" lon="6.70147">
        <ele>2248.74</ele>
        <time>2016-03-21T08:28:11Z</time>
      </trkpt>
      <trkpt lat="45.49743" lon="6.70163">
        <ele>2247.58</ele>
        <time>2016-03-21T08:28:13Z</time>
      </trkpt>
      <trkpt lat="45.49761" lon="6.70186">
        <ele>2246.57</ele>
        <time>2016-03-21T08:28:15Z</time>
      </trkpt>
      <trkpt lat="45.49784" lon="6.702">
        <ele>2244.77</ele>
        <time>2016-03-21T08:28:17Z</time>
      </trkpt>
      <trkpt lat="45.49808" lon="6.70208">
        <ele>2240.86</ele>
        <time>2016-03-21T08:28:19Z</time>
      </trkpt>
      <trkpt lat="45.49831" lon="6.7022">
        <ele>2238.78</ele>
        <time>2016-03-21T08:28:21Z</time>
      </trkpt>
      <trkpt lat="45.49858" lon="6.70229">
        <ele>2237.58</ele>
        <time>2016-03-21T08:28:23Z</time>
      </trkpt>
      <trkpt lat="45.49879" lon="6.702">
        <ele>2227.77</ele>
        <time>2016-03-21T08:28:25Z</time>
      </trkpt>
      <trkpt lat="45.49896" lon="6.70172">
        <ele>2220.98</ele>
        <time>2016-03-21T08:28:27Z</time>
      </trkpt>
      <trkpt lat="45.4991" lon="6.70142">
        <ele>2217.99</ele>
        <time>2016-03-21T08:28:29Z</time>
      </trkpt>
      <trkpt lat="45.49919" lon="6.70113">
        <ele>2215.95</ele>
        <time>2016-03-21T08:28:31Z</time>
      </trkpt>
      <trkpt lat="45.49929" lon="6.70089">
        <ele>2209.15</ele>
        <time>2016-03-21T08:28:33Z</time>
      </trkpt>
      <trkpt lat="45.49945" lon="6.7007">
        <ele>2202.48</ele>
        <time>2016-03-21T08:28:35Z</time>
      </trkpt>
      <trkpt lat="45.49964" lon="6.70055">
        <ele>2197.09</ele>
        <time>2016-03-21T08:28:37Z</time>
      </trkpt>
      <trkpt lat="45.49988" lon="6.70045">
        <ele>2194.95</ele>
        <time>2016-03-21T08:28:39Z</time>
      </trkpt>
      <trkpt lat="45.5001" lon="6.70035">
        <ele>2190.87</ele>
        <time>2016-03-21T08:28:41Z</time>
      </trkpt>
      <trkpt lat="45.50036" lon="6.70028">
        <ele>2188.62</ele>
        <time>2016-03-21T08:28:43Z</time>
      </trkpt>
      <trkpt lat="45.50055" lon="6.70024">
        <ele>2183.41</ele>
        <time>2016-03-21T08:28:45Z</time>
      </trkpt>
      <trkpt lat="45.50075" lon="6.70024">
        <ele>2180.97</ele>
        <time>2016-03-21T08:28:47Z</time>
      </trkpt>
      <trkpt lat="45.50093" lon="6.70021">
        <ele>2178.79</ele>
        <time>2016-03-21T08:28:49Z</time>
      </trkpt>
      <trkpt lat="45.50098" lon="6.69996">
        <ele>2172.87</ele>
        <time>2016-03-21T08:28:52Z</time>
      </trkpt>
      <trkpt lat="45.50116" lon="6.6999">
        <ele>2171.57</ele>
        <time>2016-03-21T08:28:55Z</time>
      </trkpt>
      <trkpt lat="45.50136" lon="6.69995">
        <ele>2172.53</ele>
        <time>2016-03-21T08:29:01Z</time>
      </trkpt>
      <trkpt lat="45.50158" lon="6.70005">
        <ele>2170.73</ele>
        <time>2016-03-21T08:29:07Z</time>
      </trkpt>
      <trkpt lat="45.50178" lon="6.70014">
        <ele>2168.58</ele>
        <time>2016-03-21T08:29:11Z</time>
      </trkpt>
      <trkpt lat="45.50199" lon="6.7002">
        <ele>2165.81</ele>
        <time>2016-03-21T08:29:14Z</time>
      </trkpt>
      <trkpt lat="45.50218" lon="6.70024">
        <ele>2163.78</ele>
        <time>2016-03-21T08:29:16Z</time>
      </trkpt>
      <trkpt lat="45.50239" lon="6.70019">
        <ele>2162.74</ele>
        <time>2016-03-21T08:29:18Z</time>
      </trkpt>
      <trkpt lat="45.50257" lon="6.70006">
        <ele>2159.02</ele>
        <time>2016-03-21T08:29:20Z</time>
      </trkpt>
      <trkpt lat="45.50285" lon="6.70007">
        <ele>2154.66</ele>
        <time>2016-03-21T08:29:23Z</time>
      </trkpt>
      <trkpt lat="45.50303" lon="6.70014">
        <ele>2153.74</ele>
        <time>2016-03-21T08:29:25Z</time>
      </trkpt>
      <trkpt lat="45.50324" lon="6.70038">
        <ele>2149.82</ele>
        <time>2016-03-21T08:29:28Z</time>
      </trkpt>
      <trkpt lat="45.50338" lon="6.70061">
        <ele>2147.78</ele>
        <time>2016-03-21T08:29:30Z</time>
      </trkpt>
      <trkpt lat="45.50354" lon="6.70087">
        <ele>2145.78</ele>
        <time>2016-03-21T08:29:32Z</time>
      </trkpt>
      <trkpt lat="45.50374" lon="6.7011">
        <ele>2143.78</ele>
        <time>2016-03-21T08:29:34Z</time>
      </trkpt>
      <trkpt lat="45.50392" lon="6.70127">
        <ele>2141.78</ele>
        <time>2016-03-21T08:29:36Z</time>
      </trkpt>
      <trkpt lat="45.50413" lon="6.70138">
        <ele>2140.74</ele>
        <time>2016-03-21T08:29:38Z</time>
      </trkpt>
      <trkpt lat="45.50422" lon="6.7011">
        <ele>2132.57</ele>
        <time>2016-03-21T08:29:39Z</time>
      </trkpt>
      <trkpt lat="45.50448" lon="6.701">
        <ele>2126.77</ele>
        <time>2016-03-21T08:29:41Z</time>
      </trkpt>
      <trkpt lat="45.50468" lon="6.7008">
        <ele>2121.58</ele>
        <time>2016-03-21T08:29:43Z</time>
      </trkpt>
      <trkpt lat="45.50489" lon="6.70072">
        <ele>2118.81</ele>
        <time>2016-03-21T08:29:45Z</time>
      </trkpt>
      <trkpt lat="45.50507" lon="6.70062">
        <ele>2115.82</ele>
        <time>2016-03-21T08:29:47Z</time>
      </trkpt>
      <trkpt lat="45.50526" lon="6.70064">
        <ele>2113.77</ele>
        <time>2016-03-21T08:29:51Z</time>
      </trkpt>
      <trkpt lat="45.50541" lon="6.70086">
        <ele>2102.57</ele>
        <time>2016-03-21T08:30:34Z</time>
      </trkpt>
      <trkpt lat="45.50551" lon="6.70112">
        <ele>2100.93</ele>
        <time>2016-03-21T08:30:36Z</time>
      </trkpt>
      <trkpt lat="45.50563" lon="6.70133">
        <ele>2098.79</ele>
        <time>2016-03-21T08:30:38Z</time>
      </trkpt>
      <trkpt lat="45.50587" lon="6.70149">
        <ele>2096.62</ele>
        <time>2016-03-21T08:30:40Z</time>
      </trkpt>
      <trkpt lat="45.50611" lon="6.70158">
        <ele>2092.05</ele>
        <time>2016-03-21T08:30:42Z</time>
      </trkpt>
      <trkpt lat="45.50631" lon="6.70171">
        <ele>2088.67</ele>
        <time>2016-03-21T08:30:44Z</time>
      </trkpt>
      <trkpt lat="45.50648" lon="6.7018">
        <ele>2082.9</ele>
        <time>2016-03-21T08:30:47Z</time>
      </trkpt>
      <trkpt lat="45.50669" lon="6.70204">
        <ele>2079.78</ele>
        <time>2016-03-21T08:30:50Z</time>
      </trkpt>
      <trkpt lat="45.50696" lon="6.70241">
        <ele>2073.46</ele>
        <time>2016-03-21T08:30:52Z</time>
      </trkpt>
      <trkpt lat="45.50722" lon="6.70215">
        <ele>2067.13</ele>
        <time>2016-03-21T08:30:54Z</time>
      </trkpt>
      <trkpt lat="45.5075" lon="6.70218">
        <ele>2064.64</ele>
        <time>2016-03-21T08:30:56Z</time>
      </trkpt>
      <trkpt lat="45.50772" lon="6.70214">
        <ele>2058.3</ele>
        <time>2016-03-21T08:30:58Z</time>
      </trkpt>
      <trkpt lat="45.50794" lon="6.702">
        <ele>2050.36</ele>
        <time>2016-03-21T08:31:00Z</time>
      </trkpt>
      <trkpt lat="45.50817" lon="6.70189">
        <ele>2047.8</ele>
        <time>2016-03-21T08:31:02Z</time>
      </trkpt>
      <trkpt lat="45.50827" lon="6.70162">
        <ele>2044.02</ele>
        <time>2016-03-21T08:31:04Z</time>
      </trkpt>
      <trkpt lat="45.50841" lon="6.7014">
        <ele>2042.43</ele>
        <time>2016-03-21T08:31:06Z</time>
      </trkpt>
      <trkpt lat="45.50863" lon="6.70112">
        <ele>2039.97</ele>
        <time>2016-03-21T08:31:08Z</time>
      </trkpt>
      <trkpt lat="45.50889" lon="6.70096">
        <ele>2035.23</ele>
        <time>2016-03-21T08:31:10Z</time>
      </trkpt>
      <trkpt lat="45.50917" lon="6.70082">
        <ele>2032</ele>
        <time>2016-03-21T08:31:12Z</time>
      </trkpt>
      <trkpt lat="45.50935" lon="6.7006">
        <ele>2021.47</ele>
        <time>2016-03-21T08:31:14Z</time>
      </trkpt>
      <trkpt lat="45.50962" lon="6.7005">
        <ele>2014.33</ele>
        <time>2016-03-21T08:31:16Z</time>
      </trkpt>
      <trkpt lat="45.50989" lon="6.70046">
        <ele>2009.88</ele>
        <time>2016-03-21T08:31:18Z</time>
      </trkpt>
      <trkpt lat="45.5101" lon="6.70029">
        <ele>1999.63</ele>
        <time>2016-03-21T08:31:20Z</time>
      </trkpt>
      <trkpt lat="45.51032" lon="6.70018">
        <ele>1994.89</ele>
        <time>2016-03-21T08:31:22Z</time>
      </trkpt>
      <trkpt lat="45.51051" lon="6.70006">
        <ele>1992.15</ele>
        <time>2016-03-21T08:31:24Z</time>
      </trkpt>
      <trkpt lat="45.51073" lon="6.70008">
        <ele>1985.48</ele>
        <time>2016-03-21T08:31:26Z</time>
      </trkpt>
      <trkpt lat="45.51098" lon="6.70002">
        <ele>1979.13</ele>
        <time>2016-03-21T08:31:28Z</time>
      </trkpt>
      <trkpt lat="45.51121" lon="6.69986">
        <ele>1973.59</ele>
        <time>2016-03-21T08:31:30Z</time>
      </trkpt>
      <trkpt lat="45.51142" lon="6.69962">
        <ele>1968.09</ele>
        <time>2016-03-21T08:31:32Z</time>
      </trkpt>
      <trkpt lat="45.51162" lon="6.69941">
        <ele>1964.03</ele>
        <time>2016-03-21T08:31:34Z</time>
      </trkpt>
      <trkpt lat="45.51181" lon="6.69921">
        <ele>1962.59</ele>
        <time>2016-03-21T08:31:36Z</time>
      </trkpt>
      <trkpt lat="45.51196" lon="6.69899">
        <ele>1958.85</ele>
        <time>2016-03-21T08:31:38Z</time>
      </trkpt>
      <trkpt lat="45.51213" lon="6.6988">
        <ele>1953.86</ele>
        <time>2016-03-21T08:31:41Z</time>
      </trkpt>
      <trkpt lat="45.51229" lon="6.69866">
        <ele>1946.59</ele>
        <time>2016-03-21T08:31:46Z</time>
      </trkpt>
      <trkpt lat="45.51244" lon="6.69881">
        <ele>1937.57</ele>
        <time>2016-03-21T08:32:10Z</time>
      </trkpt>
      <trkpt lat="45.51254" lon="6.69903">
        <ele>1931.94</ele>
        <time>2016-03-21T08:32:47Z</time>
      </trkpt>
      <trkpt lat="45.51266" lon="6.69924">
        <ele>1922.53</ele>
        <time>2016-03-21T08:33:02Z</time>
      </trkpt>
      <trkpt lat="45.51282" lon="6.69942">
        <ele>1926.29</ele>
        <time>2016-03-21T08:33:07Z</time>
      </trkpt>
      <trkpt lat="45.51295" lon="6.69965">
        <ele>1935.27</ele>
        <time>2016-03-21T08:33:12Z</time>
      </trkpt>
      <trkpt lat="45.5131" lon="6.69987">
        <ele>1941.08</ele>
        <time>2016-03-21T08:33:17Z</time>
      </trkpt>
      <trkpt lat="45.51323" lon="6.70005">
        <ele>1943.52</ele>
        <time>2016-03-21T08:33:22Z</time>
      </trkpt>
      <trkpt lat="45.51338" lon="6.70023">
        <ele>1947.32</ele>
        <time>2016-03-21T08:33:27Z</time>
      </trkpt>
      <trkpt lat="45.51351" lon="6.70042">
        <ele>1948.33</ele>
        <time>2016-03-21T08:33:32Z</time>
      </trkpt>
      <trkpt lat="45.51365" lon="6.70061">
        <ele>1953.12</ele>
        <time>2016-03-21T08:33:37Z</time>
      </trkpt>
      <trkpt lat="45.51377" lon="6.7008">
        <ele>1959.08</ele>
        <time>2016-03-21T08:33:42Z</time>
      </trkpt>
      <trkpt lat="45.5139" lon="6.701">
        <ele>1965.24</ele>
        <time>2016-03-21T08:33:47Z</time>
      </trkpt>
      <trkpt lat="45.51402" lon="6.70121">
        <ele>1972.43</ele>
        <time>2016-03-21T08:33:52Z</time>
      </trkpt>
      <trkpt lat="45.51414" lon="6.70141">
        <ele>1980.44</ele>
        <time>2016-03-21T08:33:57Z</time>
      </trkpt>
      <trkpt lat="45.51429" lon="6.70163">
        <ele>1993.83</ele>
        <time>2016-03-21T08:34:03Z</time>
      </trkpt>
      <trkpt lat="45.51443" lon="6.70186">
        <ele>2006.04</ele>
        <time>2016-03-21T08:34:09Z</time>
      </trkpt>
      <trkpt lat="45.51457" lon="6.70207">
        <ele>2017.83</ele>
        <time>2016-03-21T08:34:15Z</time>
      </trkpt>
      <trkpt lat="45.51459" lon="6.70233">
        <ele>2049.33</ele>
        <time>2016-03-21T08:35:05Z</time>
      </trkpt>
      <trkpt lat="45.51472" lon="6.70253">
        <ele>2063.28</ele>
        <time>2016-03-21T08:35:22Z</time>
      </trkpt>
      <trkpt lat="45.51488" lon="6.70271">
        <ele>2073.32</ele>
        <time>2016-03-21T08:35:30Z</time>
      </trkpt>
      <trkpt lat="45.51499" lon="6.70292">
        <ele>2083.01</ele>
        <time>2016-03-21T08:35:35Z</time>
      </trkpt>
      <trkpt lat="45.51508" lon="6.70313">
        <ele>2092.23</ele>
        <time>2016-03-21T08:35:40Z</time>
      </trkpt>
      <trkpt lat="45.51521" lon="6.70335">
        <ele>2099.08</ele>
        <time>2016-03-21T08:35:45Z</time>
      </trkpt>
      <trkpt lat="45.51532" lon="6.70357">
        <ele>2107.04</ele>
        <time>2016-03-21T08:35:50Z</time>
      </trkpt>
      <trkpt lat="45.51545" lon="6.70376">
        <ele>2112.09</ele>
        <time>2016-03-21T08:35:55Z</time>
      </trkpt>
      <trkpt lat="45.51557" lon="6.70396">
        <ele>2121.04</ele>
        <time>2016-03-21T08:36:00Z</time>
      </trkpt>
      <trkpt lat="45.51568" lon="6.70418">
        <ele>2131</ele>
        <time>2016-03-21T08:36:05Z</time>
      </trkpt>
      <trkpt lat="45.51579" lon="6.7044">
        <ele>2138.44</ele>
        <time>2016-03-21T08:36:10Z</time>
      </trkpt>
      <trkpt lat="45.5159" lon="6.70465">
        <ele>2144.27</ele>
        <time>2016-03-21T08:36:15Z</time>
      </trkpt>
      <trkpt lat="45.51603" lon="6.70488">
        <ele>2150.24</ele>
        <time>2016-03-21T08:36:20Z</time>
      </trkpt>
      <trkpt lat="45.51615" lon="6.7051">
        <ele>2155.24</ele>
        <time>2016-03-21T08:36:25Z</time>
      </trkpt>
      <trkpt lat="45.51627" lon="6.70531">
        <ele>2161.28</ele>
        <time>2016-03-21T08:36:30Z</time>
      </trkpt>
      <trkpt lat="45.51639" lon="6.70553">
        <ele>2168.07</ele>
        <time>2016-03-21T08:36:35Z</time>
      </trkpt>
      <trkpt lat="45.51651" lon="6.70574">
        <ele>2170.33</ele>
        <time>2016-03-21T08:36:40Z</time>
      </trkpt>
      <trkpt lat="45.51663" lon="6.70598">
        <ele>2173.49</ele>
        <time>2016-03-21T08:36:45Z</time>
      </trkpt>
      <trkpt lat="45.51675" lon="6.70622">
        <ele>2178.28</ele>
        <time>2016-03-21T08:36:50Z</time>
      </trkpt>
      <trkpt lat="45.51687" lon="6.70645">
        <ele>2178.53</ele>
        <time>2016-03-21T08:36:55Z</time>
      </trkpt>
      <trkpt lat="45.51699" lon="6.70669">
        <ele>2179.53</ele>
        <time>2016-03-21T08:37:00Z</time>
      </trkpt>
      <trkpt lat="45.51711" lon="6.70693">
        <ele>2181.33</ele>
        <time>2016-03-21T08:37:05Z</time>
      </trkpt>
      <trkpt lat="45.51724" lon="6.70716">
        <ele>2183.48</ele>
        <time>2016-03-21T08:37:10Z</time>
      </trkpt>
      <trkpt lat="45.51736" lon="6.70737">
        <ele>2185.33</ele>
        <time>2016-03-21T08:37:15Z</time>
      </trkpt>
      <trkpt lat="45.51748" lon="6.70759">
        <ele>2187.49</ele>
        <time>2016-03-21T08:37:20Z</time>
      </trkpt>
      <trkpt lat="45.51762" lon="6.70781">
        <ele>2190.48</ele>
        <time>2016-03-21T08:37:25Z</time>
      </trkpt>
      <trkpt lat="45.51773" lon="6.70805">
        <ele>2195.28</ele>
        <time>2016-03-21T08:37:30Z</time>
      </trkpt>
      <trkpt lat="45.51785" lon="6.70829">
        <ele>2198.52</ele>
        <time>2016-03-21T08:37:35Z</time>
      </trkpt>
      <trkpt lat="45.51797" lon="6.70851">
        <ele>2200.33</ele>
        <time>2016-03-21T08:37:40Z</time>
      </trkpt>
      <trkpt lat="45.51809" lon="6.70874">
        <ele>2202.49</ele>
        <time>2016-03-21T08:37:45Z</time>
      </trkpt>
      <trkpt lat="45.51822" lon="6.70897">
        <ele>2205.29</ele>
        <time>2016-03-21T08:37:50Z</time>
      </trkpt>
      <trkpt lat="45.51835" lon="6.70919">
        <ele>2208.29</ele>
        <time>2016-03-21T08:37:55Z</time>
      </trkpt>
      <trkpt lat="45.51847" lon="6.70941">
        <ele>2212.28</ele>
        <time>2016-03-21T08:38:00Z</time>
      </trkpt>
      <trkpt lat="45.5186" lon="6.70961">
        <ele>2214.52</ele>
        <time>2016-03-21T08:38:05Z</time>
      </trkpt>
      <trkpt lat="45.51873" lon="6.70983">
        <ele>2219.32</ele>
        <time>2016-03-21T08:38:10Z</time>
      </trkpt>
      <trkpt lat="45.51886" lon="6.71002">
        <ele>2224.28</ele>
        <time>2016-03-21T08:38:15Z</time>
      </trkpt>
      <trkpt lat="45.51898" lon="6.71023">
        <ele>2229.28</ele>
        <time>2016-03-21T08:38:20Z</time>
      </trkpt>
      <trkpt lat="45.5191" lon="6.71044">
        <ele>2236.24</ele>
        <time>2016-03-21T08:38:25Z</time>
      </trkpt>
      <trkpt lat="45.51923" lon="6.71065">
        <ele>2243.24</ele>
        <time>2016-03-21T08:38:30Z</time>
      </trkpt>
      <trkpt lat="45.51936" lon="6.71085">
        <ele>2250.24</ele>
        <time>2016-03-21T08:38:35Z</time>
      </trkpt>
      <trkpt lat="45.51949" lon="6.71104">
        <ele>2256.27</ele>
        <time>2016-03-21T08:38:40Z</time>
      </trkpt>
      <trkpt lat="45.51958" lon="6.71131">
        <ele>2266.27</ele>
        <time>2016-03-21T08:38:45Z</time>
      </trkpt>
      <trkpt lat="45.51971" lon="6.71152">
        <ele>2273.08</ele>
        <time>2016-03-21T08:38:50Z</time>
      </trkpt>
      <trkpt lat="45.51984" lon="6.71172">
        <ele>2280.08</ele>
        <time>2016-03-21T08:38:55Z</time>
      </trkpt>
      <trkpt lat="45.51999" lon="6.71194">
        <ele>2283.52</ele>
        <time>2016-03-21T08:39:01Z</time>
      </trkpt>
      <trkpt lat="45.52012" lon="6.71216">
        <ele>2287.29</ele>
        <time>2016-03-21T08:39:06Z</time>
      </trkpt>
      <trkpt lat="45.52024" lon="6.7124">
        <ele>2291.28</ele>
        <time>2016-03-21T08:39:11Z</time>
      </trkpt>
      <trkpt lat="45.52037" lon="6.71262">
        <ele>2296.28</ele>
        <time>2016-03-21T08:39:16Z</time>
      </trkpt>
      <trkpt lat="45.52049" lon="6.71284">
        <ele>2301.28</ele>
        <time>2016-03-21T08:39:21Z</time>
      </trkpt>
      <trkpt lat="45.52061" lon="6.71305">
        <ele>2306.28</ele>
        <time>2016-03-21T08:39:26Z</time>
      </trkpt>
      <trkpt lat="45.52074" lon="6.71325">
        <ele>2309.84</ele>
        <time>2016-03-21T08:39:31Z</time>
      </trkpt>
      <trkpt lat="45.52086" lon="6.71348">
        <ele>2313.32</ele>
        <time>2016-03-21T08:39:36Z</time>
      </trkpt>
      <trkpt lat="45.52098" lon="6.71372">
        <ele>2315.33</ele>
        <time>2016-03-21T08:39:41Z</time>
      </trkpt>
      <trkpt lat="45.52111" lon="6.71395">
        <ele>2319.32</ele>
        <time>2016-03-21T08:39:46Z</time>
      </trkpt>
      <trkpt lat="45.52123" lon="6.71417">
        <ele>2322.32</ele>
        <time>2016-03-21T08:39:51Z</time>
      </trkpt>
      <trkpt lat="45.52136" lon="6.71441">
        <ele>2325.52</ele>
        <time>2016-03-21T08:39:56Z</time>
      </trkpt>
      <trkpt lat="45.52147" lon="6.71465">
        <ele>2327.52</ele>
        <time>2016-03-21T08:40:01Z</time>
      </trkpt>
      <trkpt lat="45.5216" lon="6.71487">
        <ele>2328.52</ele>
        <time>2016-03-21T08:40:06Z</time>
      </trkpt>
      <trkpt lat="45.52173" lon="6.71508">
        <ele>2330.33</ele>
        <time>2016-03-21T08:40:11Z</time>
      </trkpt>
      <trkpt lat="45.52186" lon="6.7153">
        <ele>2332.29</ele>
        <time>2016-03-21T08:40:16Z</time>
      </trkpt>
      <trkpt lat="45.52199" lon="6.71551">
        <ele>2333.52</ele>
        <time>2016-03-21T08:40:21Z</time>
      </trkpt>
      <trkpt lat="45.52212" lon="6.71573">
        <ele>2336.32</ele>
        <time>2016-03-21T08:40:26Z</time>
      </trkpt>
      <trkpt lat="45.52224" lon="6.71595">
        <ele>2339.32</ele>
        <time>2016-03-21T08:40:31Z</time>
      </trkpt>
      <trkpt lat="45.52236" lon="6.71618">
        <ele>2344.29</ele>
        <time>2016-03-21T08:40:36Z</time>
      </trkpt>
      <trkpt lat="45.52249" lon="6.71641">
        <ele>2345.52</ele>
        <time>2016-03-21T08:40:41Z</time>
      </trkpt>
      <trkpt lat="45.52258" lon="6.71664">
        <ele>2346.53</ele>
        <time>2016-03-21T08:40:50Z</time>
      </trkpt>
      <trkpt lat="45.52268" lon="6.71686">
        <ele>2346.57</ele>
        <time>2016-03-21T08:40:58Z</time>
      </trkpt>
      <trkpt lat="45.52285" lon="6.71698">
        <ele>2344.77</ele>
        <time>2016-03-21T08:41:09Z</time>
      </trkpt>
      <trkpt lat="45.52305" lon="6.71701">
        <ele>2339.58</ele>
        <time>2016-03-21T08:41:15Z</time>
      </trkpt>
      <trkpt lat="45.52322" lon="6.71729">
        <ele>2335.82</ele>
        <time>2016-03-21T08:41:18Z</time>
      </trkpt>
      <trkpt lat="45.52337" lon="6.71753">
        <ele>2335.7</ele>
        <time>2016-03-21T08:41:20Z</time>
      </trkpt>
      <trkpt lat="45.52351" lon="6.7179">
        <ele>2335.54</ele>
        <time>2016-03-21T08:41:22Z</time>
      </trkpt>
      <trkpt lat="45.52361" lon="6.7183">
        <ele>2333.93</ele>
        <time>2016-03-21T08:41:24Z</time>
      </trkpt>
      <trkpt lat="45.52372" lon="6.71866">
        <ele>2332.59</ele>
        <time>2016-03-21T08:41:26Z</time>
      </trkpt>
      <trkpt lat="45.52388" lon="6.71898">
        <ele>2330.13</ele>
        <time>2016-03-21T08:41:28Z</time>
      </trkpt>
      <trkpt lat="45.52404" lon="6.71928">
        <ele>2326.68</ele>
        <time>2016-03-21T08:41:30Z</time>
      </trkpt>
      <trkpt lat="45.52431" lon="6.71939">
        <ele>2318.38</ele>
        <time>2016-03-21T08:41:32Z</time>
      </trkpt>
      <trkpt lat="45.52451" lon="6.71954">
        <ele>2315</ele>
        <time>2016-03-21T08:41:34Z</time>
      </trkpt>
      <trkpt lat="45.52469" lon="6.71967">
        <ele>2313.75</ele>
        <time>2016-03-21T08:41:36Z</time>
      </trkpt>
      <trkpt lat="45.52491" lon="6.71985">
        <ele>2309.79</ele>
        <time>2016-03-21T08:41:39Z</time>
      </trkpt>
      <trkpt lat="45.52512" lon="6.71997">
        <ele>2309.69</ele>
        <time>2016-03-21T08:41:42Z</time>
      </trkpt>
      <trkpt lat="45.52529" lon="6.72006">
        <ele>2305.14</ele>
        <time>2016-03-21T08:41:46Z</time>
      </trkpt>
      <trkpt lat="45.52548" lon="6.7201">
        <ele>2299.73</ele>
        <time>2016-03-21T08:41:52Z</time>
      </trkpt>
      <trkpt lat="45.52567" lon="6.72023">
        <ele>2298.73</ele>
        <time>2016-03-21T08:41:58Z</time>
      </trkpt>
      <trkpt lat="45.5258" lon="6.72041">
        <ele>2300.33</ele>
        <time>2016-03-21T08:42:02Z</time>
      </trkpt>
      <trkpt lat="45.52594" lon="6.7206">
        <ele>2298.69</ele>
        <time>2016-03-21T08:42:07Z</time>
      </trkpt>
      <trkpt lat="45.52608" lon="6.72079">
        <ele>2297.54</ele>
        <time>2016-03-21T08:42:14Z</time>
      </trkpt>
      <trkpt lat="45.52622" lon="6.72099">
        <ele>2297.53</ele>
        <time>2016-03-21T08:42:20Z</time>
      </trkpt>
      <trkpt lat="45.52634" lon="6.7212">
        <ele>2298.49</ele>
        <time>2016-03-21T08:42:26Z</time>
      </trkpt>
      <trkpt lat="45.52648" lon="6.72143">
        <ele>2297.74</ele>
        <time>2016-03-21T08:42:33Z</time>
      </trkpt>
      <trkpt lat="45.52663" lon="6.72161">
        <ele>2297.53</ele>
        <time>2016-03-21T08:42:38Z</time>
      </trkpt>
      <trkpt lat="45.52677" lon="6.72179">
        <ele>2297.37</ele>
        <time>2016-03-21T08:42:44Z</time>
      </trkpt>
      <trkpt lat="45.52691" lon="6.72195">
        <ele>2294.52</ele>
        <time>2016-03-21T08:42:57Z</time>
      </trkpt>
      <trkpt lat="45.52706" lon="6.72212">
        <ele>2295.37</ele>
        <time>2016-03-21T08:43:09Z</time>
      </trkpt>
      <trkpt lat="45.52719" lon="6.72231">
        <ele>2294.73</ele>
        <time>2016-03-21T08:43:21Z</time>
      </trkpt>
      <trkpt lat="45.52732" lon="6.72251">
        <ele>2294.53</ele>
        <time>2016-03-21T08:43:31Z</time>
      </trkpt>
      <trkpt lat="45.52749" lon="6.72266">
        <ele>2294.53</ele>
        <time>2016-03-21T08:43:38Z</time>
      </trkpt>
      <trkpt lat="45.52765" lon="6.72278">
        <ele>2293.53</ele>
        <time>2016-03-21T08:43:43Z</time>
      </trkpt>
      <trkpt lat="45.52782" lon="6.7229">
        <ele>2293.53</ele>
        <time>2016-03-21T08:43:49Z</time>
      </trkpt>
      <trkpt lat="45.528" lon="6.72301">
        <ele>2293.52</ele>
        <time>2016-03-21T08:44:02Z</time>
      </trkpt>
      <trkpt lat="45.52818" lon="6.72312">
        <ele>2292.73</ele>
        <time>2016-03-21T08:44:19Z</time>
      </trkpt>
      <trkpt lat="45.52835" lon="6.72327">
        <ele>2288.78</ele>
        <time>2016-03-21T08:44:24Z</time>
      </trkpt>
      <trkpt lat="45.52849" lon="6.72353">
        <ele>2285.77</ele>
        <time>2016-03-21T08:44:28Z</time>
      </trkpt>
      <trkpt lat="45.52861" lon="6.72378">
        <ele>2283.77</ele>
        <time>2016-03-21T08:44:31Z</time>
      </trkpt>
      <trkpt lat="45.52874" lon="6.72406">
        <ele>2282.73</ele>
        <time>2016-03-21T08:44:34Z</time>
      </trkpt>
      <trkpt lat="45.52885" lon="6.72439">
        <ele>2280.77</ele>
        <time>2016-03-21T08:44:37Z</time>
      </trkpt>
      <trkpt lat="45.52902" lon="6.72469">
        <ele>2275.86</ele>
        <time>2016-03-21T08:44:40Z</time>
      </trkpt>
      <trkpt lat="45.52916" lon="6.72494">
        <ele>2273.78</ele>
        <time>2016-03-21T08:44:42Z</time>
      </trkpt>
      <trkpt lat="45.5293" lon="6.72527">
        <ele>2272.74</ele>
        <time>2016-03-21T08:44:44Z</time>
      </trkpt>
      <trkpt lat="45.52943" lon="6.72559">
        <ele>2270.14</ele>
        <time>2016-03-21T08:44:46Z</time>
      </trkpt>
      <trkpt lat="45.52957" lon="6.72585">
        <ele>2267.64</ele>
        <time>2016-03-21T08:44:48Z</time>
      </trkpt>
      <trkpt lat="45.52973" lon="6.72612">
        <ele>2261.14</ele>
        <time>2016-03-21T08:44:50Z</time>
      </trkpt>
      <trkpt lat="45.52987" lon="6.72641">
        <ele>2257.04</ele>
        <time>2016-03-21T08:44:52Z</time>
      </trkpt>
      <trkpt lat="45.53006" lon="6.72675">
        <ele>2252.23</ele>
        <time>2016-03-21T08:44:54Z</time>
      </trkpt>
      <trkpt lat="45.53017" lon="6.72701">
        <ele>2247.88</ele>
        <time>2016-03-21T08:44:56Z</time>
      </trkpt>
      <trkpt lat="45.53034" lon="6.72724">
        <ele>2244.98</ele>
        <time>2016-03-21T08:44:58Z</time>
      </trkpt>
      <trkpt lat="45.53049" lon="6.72752">
        <ele>2242.79</ele>
        <time>2016-03-21T08:45:00Z</time>
      </trkpt>
      <trkpt lat="45.53069" lon="6.72779">
        <ele>2240.78</ele>
        <time>2016-03-21T08:45:02Z</time>
      </trkpt>
      <trkpt lat="45.53084" lon="6.7281">
        <ele>2237.98</ele>
        <time>2016-03-21T08:45:04Z</time>
      </trkpt>
      <trkpt lat="45.53102" lon="6.72827">
        <ele>2230.19</ele>
        <time>2016-03-21T08:45:06Z</time>
      </trkpt>
      <trkpt lat="45.53121" lon="6.72829">
        <ele>2220.76</ele>
        <time>2016-03-21T08:45:08Z</time>
      </trkpt>
      <trkpt lat="45.53141" lon="6.72856">
        <ele>2217.02</ele>
        <time>2016-03-21T08:45:10Z</time>
      </trkpt>
      <trkpt lat="45.53162" lon="6.72882">
        <ele>2214.79</ele>
        <time>2016-03-21T08:45:12Z</time>
      </trkpt>
      <trkpt lat="45.53177" lon="6.72905">
        <ele>2210.86</ele>
        <time>2016-03-21T08:45:14Z</time>
      </trkpt>
      <trkpt lat="45.53194" lon="6.72935">
        <ele>2210.54</ele>
        <time>2016-03-21T08:45:16Z</time>
      </trkpt>
      <trkpt lat="45.53205" lon="6.72958">
        <ele>2207.17</ele>
        <time>2016-03-21T08:45:18Z</time>
      </trkpt>
      <trkpt lat="45.53223" lon="6.72982">
        <ele>2202.82</ele>
        <time>2016-03-21T08:45:21Z</time>
      </trkpt>
      <trkpt lat="45.53242" lon="6.73001">
        <ele>2198.02</ele>
        <time>2016-03-21T08:45:24Z</time>
      </trkpt>
      <trkpt lat="45.53263" lon="6.73018">
        <ele>2195.95</ele>
        <time>2016-03-21T08:45:26Z</time>
      </trkpt>
      <trkpt lat="45.53286" lon="6.73005">
        <ele>2182.35</ele>
        <time>2016-03-21T08:45:29Z</time>
      </trkpt>
      <trkpt lat="45.53314" lon="6.73014">
        <ele>2177.08</ele>
        <time>2016-03-21T08:45:31Z</time>
      </trkpt>
      <trkpt lat="45.53334" lon="6.73002">
        <ele>2168.23</ele>
        <time>2016-03-21T08:45:33Z</time>
      </trkpt>
      <trkpt lat="45.53352" lon="6.73007">
        <ele>2166.07</ele>
        <time>2016-03-21T08:45:34Z</time>
      </trkpt>
      <trkpt lat="45.53376" lon="6.72992">
        <ele>2158.19</ele>
        <time>2016-03-21T08:45:36Z</time>
      </trkpt>
      <trkpt lat="45.53402" lon="6.72995">
        <ele>2152.12</ele>
        <time>2016-03-21T08:45:38Z</time>
      </trkpt>
      <trkpt lat="45.53429" lon="6.73002">
        <ele>2147.87</ele>
        <time>2016-03-21T08:45:40Z</time>
      </trkpt>
      <trkpt lat="45.53451" lon="6.73006">
        <ele>2145.62</ele>
        <time>2016-03-21T08:45:42Z</time>
      </trkpt>
      <trkpt lat="45.53472" lon="6.73015">
        <ele>2138.88</ele>
        <time>2016-03-21T08:45:45Z</time>
      </trkpt>
      <trkpt lat="45.53483" lon="6.73044">
        <ele>2133.99</ele>
        <time>2016-03-21T08:45:48Z</time>
      </trkpt>
      <trkpt lat="45.53496" lon="6.73062">
        <ele>2123.94</ele>
        <time>2016-03-21T08:45:57Z</time>
      </trkpt>
      <trkpt lat="45.53514" lon="6.73076">
        <ele>2118.78</ele>
        <time>2016-03-21T08:46:05Z</time>
      </trkpt>
      <trkpt lat="45.53532" lon="6.73084">
        <ele>2113.19</ele>
        <time>2016-03-21T08:46:08Z</time>
      </trkpt>
      <trkpt lat="45.53558" lon="6.73089">
        <ele>2109.78</ele>
        <time>2016-03-21T08:46:11Z</time>
      </trkpt>
      <trkpt lat="45.53575" lon="6.73079">
        <ele>2105.38</ele>
        <time>2016-03-21T08:46:13Z</time>
      </trkpt>
      <trkpt lat="45.53583" lon="6.73053">
        <ele>2099.28</ele>
        <time>2016-03-21T08:46:15Z</time>
      </trkpt>
      <trkpt lat="45.53593" lon="6.73027">
        <ele>2095.04</ele>
        <time>2016-03-21T08:46:17Z</time>
      </trkpt>
      <trkpt lat="45.53602" lon="6.73">
        <ele>2091.99</ele>
        <time>2016-03-21T08:46:19Z</time>
      </trkpt>
      <trkpt lat="45.53606" lon="6.72972">
        <ele>2089.79</ele>
        <time>2016-03-21T08:46:21Z</time>
      </trkpt>
      <trkpt lat="45.53611" lon="6.72945">
        <ele>2089.54</ele>
        <time>2016-03-21T08:46:23Z</time>
      </trkpt>
      <trkpt lat="45.53618" lon="6.72911">
        <ele>2082.94</ele>
        <time>2016-03-21T08:46:26Z</time>
      </trkpt>
      <trkpt lat="45.53619" lon="6.72884">
        <ele>2080.79</ele>
        <time>2016-03-21T08:46:28Z</time>
      </trkpt>
      <trkpt lat="45.53624" lon="6.72855">
        <ele>2073.59</ele>
        <time>2016-03-21T08:46:31Z</time>
      </trkpt>
      <trkpt lat="45.53635" lon="6.72823">
        <ele>2068.83</ele>
        <time>2016-03-21T08:46:34Z</time>
      </trkpt>
      <trkpt lat="45.53646" lon="6.728">
        <ele>2063.42</ele>
        <time>2016-03-21T08:46:36Z</time>
      </trkpt>
      <trkpt lat="45.53654" lon="6.72776">
        <ele>2054.57</ele>
        <time>2016-03-21T08:46:38Z</time>
      </trkpt>
      <trkpt lat="45.53663" lon="6.7274">
        <ele>2049.99</ele>
        <time>2016-03-21T08:46:41Z</time>
      </trkpt>
      <trkpt lat="45.53676" lon="6.72714">
        <ele>2046.03</ele>
        <time>2016-03-21T08:46:43Z</time>
      </trkpt>
      <trkpt lat="45.53692" lon="6.72685">
        <ele>2040.03</ele>
        <time>2016-03-21T08:46:46Z</time>
      </trkpt>
      <trkpt lat="45.53715" lon="6.72681">
        <ele>2035.87</ele>
        <time>2016-03-21T08:46:48Z</time>
      </trkpt>
      <trkpt lat="45.5374" lon="6.72671">
        <ele>2033.1</ele>
        <time>2016-03-21T08:46:51Z</time>
      </trkpt>
      <trkpt lat="45.53763" lon="6.72665">
        <ele>2028.87</ele>
        <time>2016-03-21T08:46:53Z</time>
      </trkpt>
      <trkpt lat="45.53784" lon="6.72647">
        <ele>2025.82</ele>
        <time>2016-03-21T08:46:55Z</time>
      </trkpt>
      <trkpt lat="45.53792" lon="6.72614">
        <ele>2020.26</ele>
        <time>2016-03-21T08:46:57Z</time>
      </trkpt>
      <trkpt lat="45.53779" lon="6.72581">
        <ele>2010.6</ele>
        <time>2016-03-21T08:46:59Z</time>
      </trkpt>
      <trkpt lat="45.53778" lon="6.72551">
        <ele>2004.93</ele>
        <time>2016-03-21T08:47:01Z</time>
      </trkpt>
      <trkpt lat="45.53779" lon="6.72521">
        <ele>2001.03</ele>
        <time>2016-03-21T08:47:03Z</time>
      </trkpt>
      <trkpt lat="45.53773" lon="6.72483">
        <ele>1988.07</ele>
        <time>2016-03-21T08:47:05Z</time>
      </trkpt>
      <trkpt lat="45.53771" lon="6.72444">
        <ele>1983.23</ele>
        <time>2016-03-21T08:47:07Z</time>
      </trkpt>
      <trkpt lat="45.53776" lon="6.72404">
        <ele>1967.69</ele>
        <time>2016-03-21T08:47:11Z</time>
      </trkpt>
      <trkpt lat="45.53782" lon="6.72368">
        <ele>1963.06</ele>
        <time>2016-03-21T08:47:13Z</time>
      </trkpt>
      <trkpt lat="45.53784" lon="6.72339">
        <ele>1957.43</ele>
        <time>2016-03-21T08:47:15Z</time>
      </trkpt>
      <trkpt lat="45.53781" lon="6.72303">
        <ele>1953.85</ele>
        <time>2016-03-21T08:47:17Z</time>
      </trkpt>
      <trkpt lat="45.53782" lon="6.72271">
        <ele>1946.88</ele>
        <time>2016-03-21T08:47:20Z</time>
      </trkpt>
      <trkpt lat="45.53792" lon="6.72249">
        <ele>1937.54</ele>
        <time>2016-03-21T08:47:23Z</time>
      </trkpt>
      <trkpt lat="45.53811" lon="6.7227">
        <ele>1930.08</ele>
        <time>2016-03-21T08:47:26Z</time>
      </trkpt>
      <trkpt lat="45.5383" lon="6.72284">
        <ele>1927.63</ele>
        <time>2016-03-21T08:47:28Z</time>
      </trkpt>
      <trkpt lat="45.53855" lon="6.72298">
        <ele>1924.98</ele>
        <time>2016-03-21T08:47:30Z</time>
      </trkpt>
      <trkpt lat="45.53881" lon="6.72305">
        <ele>1922.79</ele>
        <time>2016-03-21T08:47:32Z</time>
      </trkpt>
      <trkpt lat="45.53902" lon="6.72296">
        <ele>1919.82</ele>
        <time>2016-03-21T08:47:34Z</time>
      </trkpt>
      <trkpt lat="45.53916" lon="6.72313">
        <ele>1898.99</ele>
        <time>2016-03-21T08:47:57Z</time>
      </trkpt>
      <trkpt lat="45.53931" lon="6.72331">
        <ele>1897.22</ele>
        <time>2016-03-21T08:48:00Z</time>
      </trkpt>
      <trkpt lat="45.53944" lon="6.72353">
        <ele>1895.74</ele>
        <time>2016-03-21T08:48:04Z</time>
      </trkpt>
      <trkpt lat="45.53946" lon="6.72379">
        <ele>1888.62</ele>
        <time>2016-03-21T08:48:09Z</time>
      </trkpt>
      <trkpt lat="45.53945" lon="6.7241">
        <ele>1884.98</ele>
        <time>2016-03-21T08:48:12Z</time>
      </trkpt>
      <trkpt lat="45.53956" lon="6.72445">
        <ele>1883.57</ele>
        <time>2016-03-21T08:48:15Z</time>
      </trkpt>
      <trkpt lat="45.53957" lon="6.7248">
        <ele>1883.53</ele>
        <time>2016-03-21T08:48:17Z</time>
      </trkpt>
      <trkpt lat="45.53963" lon="6.72518">
        <ele>1881.35</ele>
        <time>2016-03-21T08:48:20Z</time>
      </trkpt>
      <trkpt lat="45.53982" lon="6.72541">
        <ele>1876.06</ele>
        <time>2016-03-21T08:48:23Z</time>
      </trkpt>
      <trkpt lat="45.54006" lon="6.72555">
        <ele>1875.71</ele>
        <time>2016-03-21T08:48:25Z</time>
      </trkpt>
      <trkpt lat="45.54021" lon="6.72573">
        <ele>1875.54</ele>
        <time>2016-03-21T08:48:27Z</time>
      </trkpt>
      <trkpt lat="45.54045" lon="6.72571">
        <ele>1872.78</ele>
        <time>2016-03-21T08:48:30Z</time>
      </trkpt>
      <trkpt lat="45.54064" lon="6.72556">
        <ele>1864.98</ele>
        <time>2016-03-21T08:48:33Z</time>
      </trkpt>
      <trkpt lat="45.54088" lon="6.72545">
        <ele>1860.98</ele>
        <time>2016-03-21T08:48:36Z</time>
      </trkpt>
      <trkpt lat="45.54112" lon="6.72538">
        <ele>1851.41</ele>
        <time>2016-03-21T08:48:39Z</time>
      </trkpt>
      <trkpt lat="45.54134" lon="6.72536">
        <ele>1848.01</ele>
        <time>2016-03-21T08:48:41Z</time>
      </trkpt>
      <trkpt lat="45.54155" lon="6.72558">
        <ele>1841.87</ele>
        <time>2016-03-21T08:48:44Z</time>
      </trkpt>
      <trkpt lat="45.54173" lon="6.72582">
        <ele>1836.83</ele>
        <time>2016-03-21T08:48:47Z</time>
      </trkpt>
      <trkpt lat="45.54186" lon="6.72602">
        <ele>1834.62</ele>
        <time>2016-03-21T08:48:49Z</time>
      </trkpt>
      <trkpt lat="45.54205" lon="6.72625">
        <ele>1827.94</ele>
        <time>2016-03-21T08:48:52Z</time>
      </trkpt>
      <trkpt lat="45.54227" lon="6.72608">
        <ele>1827.55</ele>
        <time>2016-03-21T08:48:54Z</time>
      </trkpt>
      <trkpt lat="45.5425" lon="6.72611">
        <ele>1822</ele>
        <time>2016-03-21T08:48:57Z</time>
      </trkpt>
      <trkpt lat="45.54276" lon="6.7262">
        <ele>1817.66</ele>
        <time>2016-03-21T08:49:00Z</time>
      </trkpt>
      <trkpt lat="45.54291" lon="6.72655">
        <ele>1814.02</ele>
        <time>2016-03-21T08:49:02Z</time>
      </trkpt>
      <trkpt lat="45.54302" lon="6.72685">
        <ele>1811.79</ele>
        <time>2016-03-21T08:49:04Z</time>
      </trkpt>
      <trkpt lat="45.54316" lon="6.72711">
        <ele>1808.02</ele>
        <time>2016-03-21T08:49:06Z</time>
      </trkpt>
      <trkpt lat="45.54333" lon="6.72736">
        <ele>1801.81</ele>
        <time>2016-03-21T08:49:09Z</time>
      </trkpt>
      <trkpt lat="45.54342" lon="6.72762">
        <ele>1795.29</ele>
        <time>2016-03-21T08:49:12Z</time>
      </trkpt>
      <trkpt lat="45.54354" lon="6.7279">
        <ele>1790.79</ele>
        <time>2016-03-21T08:49:15Z</time>
      </trkpt>
      <trkpt lat="45.54374" lon="6.72815">
        <ele>1786.82</ele>
        <time>2016-03-21T08:49:18Z</time>
      </trkpt>
      <trkpt lat="45.54391" lon="6.72831">
        <ele>1783.98</ele>
        <time>2016-03-21T08:49:20Z</time>
      </trkpt>
      <trkpt lat="45.54409" lon="6.72829">
        <ele>1781.15</ele>
        <time>2016-03-21T08:49:22Z</time>
      </trkpt>
      <trkpt lat="45.54435" lon="6.72815">
        <ele>1771.96</ele>
        <time>2016-03-21T08:49:25Z</time>
      </trkpt>
      <trkpt lat="45.54455" lon="6.72797">
        <ele>1770.75</ele>
        <time>2016-03-21T08:49:27Z</time>
      </trkpt>
      <trkpt lat="45.54482" lon="6.72796">
        <ele>1763.14</ele>
        <time>2016-03-21T08:49:30Z</time>
      </trkpt>
      <trkpt lat="45.54499" lon="6.72809">
        <ele>1755.68</ele>
        <time>2016-03-21T08:49:32Z</time>
      </trkpt>
      <trkpt lat="45.54523" lon="6.72828">
        <ele>1743.12</ele>
        <time>2016-03-21T08:49:35Z</time>
      </trkpt>
      <trkpt lat="45.54537" lon="6.72849">
        <ele>1738.87</ele>
        <time>2016-03-21T08:49:37Z</time>
      </trkpt>
      <trkpt lat="45.54549" lon="6.72875">
        <ele>1737.74</ele>
        <time>2016-03-21T08:49:39Z</time>
      </trkpt>
      <trkpt lat="45.54548" lon="6.72905">
        <ele>1734.98</ele>
        <time>2016-03-21T08:49:41Z</time>
      </trkpt>
      <trkpt lat="45.54549" lon="6.72938">
        <ele>1731.03</ele>
        <time>2016-03-21T08:49:43Z</time>
      </trkpt>
      <trkpt lat="45.54552" lon="6.72973">
        <ele>1729.59</ele>
        <time>2016-03-21T08:49:45Z</time>
      </trkpt>
      <trkpt lat="45.54553" lon="6.73011">
        <ele>1727.77</ele>
        <time>2016-03-21T08:49:47Z</time>
      </trkpt>
      <trkpt lat="45.54566" lon="6.7304">
        <ele>1723.86</ele>
        <time>2016-03-21T08:49:49Z</time>
      </trkpt>
      <trkpt lat="45.54584" lon="6.73061">
        <ele>1715.22</ele>
        <time>2016-03-21T08:49:51Z</time>
      </trkpt>
      <trkpt lat="45.546" lon="6.731">
        <ele>1708.48</ele>
        <time>2016-03-21T08:49:53Z</time>
      </trkpt>
      <trkpt lat="45.5462" lon="6.73121">
        <ele>1704.69</ele>
        <time>2016-03-21T08:49:55Z</time>
      </trkpt>
      <trkpt lat="45.54636" lon="6.73143">
        <ele>1698.74</ele>
        <time>2016-03-21T08:49:58Z</time>
      </trkpt>
      <trkpt lat="45.54636" lon="6.73172">
        <ele>1673.81</ele>
        <time>2016-03-21T08:50:28Z</time>
      </trkpt>
      <trkpt lat="45.54647" lon="6.73195">
        <ele>1671.74</ele>
        <time>2016-03-21T08:50:31Z</time>
      </trkpt>
      <trkpt lat="45.54657" lon="6.73231">
        <ele>1669.58</ele>
        <time>2016-03-21T08:50:34Z</time>
      </trkpt>
      <trkpt lat="45.5467" lon="6.73262">
        <ele>1666.59</ele>
        <time>2016-03-21T08:50:37Z</time>
      </trkpt>
      <trkpt lat="45.54686" lon="6.73275">
        <ele>1663.97</ele>
        <time>2016-03-21T08:50:39Z</time>
      </trkpt>
      <trkpt lat="45.54699" lon="6.73304">
        <ele>1657.26</ele>
        <time>2016-03-21T08:50:42Z</time>
      </trkpt>
      <trkpt lat="45.54711" lon="6.73334">
        <ele>1650.2</ele>
        <time>2016-03-21T08:50:45Z</time>
      </trkpt>
      <trkpt lat="45.5471" lon="6.73368">
        <ele>1646.78</ele>
        <time>2016-03-21T08:50:48Z</time>
      </trkpt>
      <trkpt lat="45.54706" lon="6.73403">
        <ele>1643.98</ele>
        <time>2016-03-21T08:50:50Z</time>
      </trkpt>
      <trkpt lat="45.54698" lon="6.73442">
        <ele>1642.91</ele>
        <time>2016-03-21T08:50:52Z</time>
      </trkpt>
      <trkpt lat="45.54692" lon="6.73481">
        <ele>1640.95</ele>
        <time>2016-03-21T08:50:54Z</time>
      </trkpt>
      <trkpt lat="45.54699" lon="6.73516">
        <ele>1637.75</ele>
        <time>2016-03-21T08:50:57Z</time>
      </trkpt>
      <trkpt lat="45.54704" lon="6.73546">
        <ele>1636.74</ele>
        <time>2016-03-21T08:50:59Z</time>
      </trkpt>
      <trkpt lat="45.54724" lon="6.73557">
        <ele>1633.82</ele>
        <time>2016-03-21T08:51:01Z</time>
      </trkpt>
      <trkpt lat="45.54735" lon="6.73587">
        <ele>1630.97</ele>
        <time>2016-03-21T08:51:04Z</time>
      </trkpt>
      <trkpt lat="45.54749" lon="6.73609">
        <ele>1629.77</ele>
        <time>2016-03-21T08:51:07Z</time>
      </trkpt>
      <trkpt lat="45.54749" lon="6.73637">
        <ele>1629.54</ele>
        <time>2016-03-21T08:51:09Z</time>
      </trkpt>
      <trkpt lat="45.54755" lon="6.73668">
        <ele>1629.53</ele>
        <time>2016-03-21T08:51:12Z</time>
      </trkpt>
      <trkpt lat="45.54767" lon="6.737">
        <ele>1627.77</ele>
        <time>2016-03-21T08:51:15Z</time>
      </trkpt>
      <trkpt lat="45.5478" lon="6.73723">
        <ele>1624.01</ele>
        <time>2016-03-21T08:51:18Z</time>
      </trkpt>
      <trkpt lat="45.5479" lon="6.73755">
        <ele>1618.22</ele>
        <time>2016-03-21T08:51:21Z</time>
      </trkpt>
      <trkpt lat="45.54812" lon="6.73772">
        <ele>1614.02</ele>
        <time>2016-03-21T08:51:24Z</time>
      </trkpt>
      <trkpt lat="45.54824" lon="6.73796">
        <ele>1611.79</ele>
        <time>2016-03-21T08:51:26Z</time>
      </trkpt>
      <trkpt lat="45.54839" lon="6.73813">
        <ele>1610.58</ele>
        <time>2016-03-21T08:51:28Z</time>
      </trkpt>
      <trkpt lat="45.54855" lon="6.73828">
        <ele>1607.97</ele>
        <time>2016-03-21T08:51:30Z</time>
      </trkpt>
      <trkpt lat="45.54867" lon="6.73848">
        <ele>1606.77</ele>
        <time>2016-03-21T08:51:33Z</time>
      </trkpt>
      <trkpt lat="45.54862" lon="6.73881">
        <ele>1605.57</ele>
        <time>2016-03-21T08:51:36Z</time>
      </trkpt>
      <trkpt lat="45.54854" lon="6.73912">
        <ele>1602.59</ele>
        <time>2016-03-21T08:51:39Z</time>
      </trkpt>
      <trkpt lat="45.54847" lon="6.73949">
        <ele>1596.45</ele>
        <time>2016-03-21T08:51:41Z</time>
      </trkpt>
      <trkpt lat="45.54853" lon="6.73976">
        <ele>1592.05</ele>
        <time>2016-03-21T08:51:43Z</time>
      </trkpt>
      <trkpt lat="45.5487" lon="6.7399">
        <ele>1587.23</ele>
        <time>2016-03-21T08:51:45Z</time>
      </trkpt>
      <trkpt lat="45.54896" lon="6.73966">
        <ele>1581.06</ele>
        <time>2016-03-21T08:51:48Z</time>
      </trkpt>
      <trkpt lat="45.54913" lon="6.73951">
        <ele>1579.84</ele>
        <time>2016-03-21T08:51:49Z</time>
      </trkpt>
      <trkpt lat="45.54917" lon="6.73925">
        <ele>1575.86</ele>
        <time>2016-03-21T08:51:51Z</time>
      </trkpt>
      <trkpt lat="45.54925" lon="6.739">
        <ele>1571.79</ele>
        <time>2016-03-21T08:51:54Z</time>
      </trkpt>
      <trkpt lat="45.54932" lon="6.73924">
        <ele>1554.75</ele>
        <time>2016-03-21T08:52:58Z</time>
      </trkpt>
      <trkpt lat="45.55124" lon="6.76274">
        <ele>1587.13</ele>
        <time>2016-03-21T08:56:36Z</time>
      </trkpt>
      <trkpt lat="45.55108" lon="6.76285">
        <ele>1584.47</ele>
        <time>2016-03-21T08:56:38Z</time>
      </trkpt>
      <trkpt lat="45.55126" lon="6.76283">
        <ele>1605.01</ele>
        <time>2016-03-21T08:56:40Z</time>
      </trkpt>
      <trkpt lat="45.55103" lon="6.76281">
        <ele>1560.65</ele>
        <time>2016-03-21T08:56:46Z</time>
      </trkpt>
      <trkpt lat="45.55111" lon="6.76306">
        <ele>1583.65</ele>
        <time>2016-03-21T08:57:01Z</time>
      </trkpt>
      <trkpt lat="45.55118" lon="6.76331">
        <ele>1591.73</ele>
        <time>2016-03-21T08:58:29Z</time>
      </trkpt>
      <trkpt lat="45.55121" lon="6.76358">
        <ele>1602.48</ele>
        <time>2016-03-21T08:58:52Z</time>
      </trkpt>
      <trkpt lat="45.55103" lon="6.76364">
        <ele>1604.74</ele>
        <time>2016-03-21T08:59:33Z</time>
      </trkpt>
      <trkpt lat="45.55084" lon="6.76357">
        <ele>1607.53</ele>
        <time>2016-03-21T09:00:11Z</time>
      </trkpt>
      <trkpt lat="45.55072" lon="6.76386">
        <ele>1606.32</ele>
        <time>2016-03-21T09:01:30Z</time>
      </trkpt>
      <trkpt lat="45.55063" lon="6.76414">
        <ele>1609.92</ele>
        <time>2016-03-21T09:01:35Z</time>
      </trkpt>
      <trkpt lat="45.55057" lon="6.76439">
        <ele>1620.86</ele>
        <time>2016-03-21T09:01:40Z</time>
      </trkpt>
      <trkpt lat="45.55053" lon="6.76468">
        <ele>1629.31</ele>
        <time>2016-03-21T09:01:46Z</time>
      </trkpt>
      <trkpt lat="45.55051" lon="6.76494">
        <ele>1637.28</ele>
        <time>2016-03-21T09:01:52Z</time>
      </trkpt>
      <trkpt lat="45.55047" lon="6.76523">
        <ele>1642.47</ele>
        <time>2016-03-21T09:01:58Z</time>
      </trkpt>
      <trkpt lat="45.55041" lon="6.7655">
        <ele>1646.45</ele>
        <time>2016-03-21T09:02:03Z</time>
      </trkpt>
      <trkpt lat="45.55036" lon="6.76579">
        <ele>1651.25</ele>
        <time>2016-03-21T09:02:09Z</time>
      </trkpt>
      <trkpt lat="45.55034" lon="6.76606">
        <ele>1659.51</ele>
        <time>2016-03-21T09:02:15Z</time>
      </trkpt>
      <trkpt lat="45.5503" lon="6.76635">
        <ele>1664.29</ele>
        <time>2016-03-21T09:02:21Z</time>
      </trkpt>
      <trkpt lat="45.55025" lon="6.76664">
        <ele>1671.51</ele>
        <time>2016-03-21T09:02:27Z</time>
      </trkpt>
      <trkpt lat="45.55021" lon="6.76693">
        <ele>1678.28</ele>
        <time>2016-03-21T09:02:33Z</time>
      </trkpt>
      <trkpt lat="45.55015" lon="6.76723">
        <ele>1686.28</ele>
        <time>2016-03-21T09:02:39Z</time>
      </trkpt>
      <trkpt lat="45.55015" lon="6.7675">
        <ele>1695.4</ele>
        <time>2016-03-21T09:02:46Z</time>
      </trkpt>
      <trkpt lat="45.55011" lon="6.76777">
        <ele>1701.08</ele>
        <time>2016-03-21T09:02:51Z</time>
      </trkpt>
      <trkpt lat="45.55008" lon="6.76806">
        <ele>1708.08</ele>
        <time>2016-03-21T09:02:57Z</time>
      </trkpt>
      <trkpt lat="45.55003" lon="6.76834">
        <ele>1715.28</ele>
        <time>2016-03-21T09:03:03Z</time>
      </trkpt>
      <trkpt lat="45.54998" lon="6.76863">
        <ele>1723.49</ele>
        <time>2016-03-21T09:03:10Z</time>
      </trkpt>
      <trkpt lat="45.54991" lon="6.76891">
        <ele>1730.08</ele>
        <time>2016-03-21T09:03:15Z</time>
      </trkpt>
      <trkpt lat="45.54989" lon="6.76923">
        <ele>1738.69</ele>
        <time>2016-03-21T09:03:23Z</time>
      </trkpt>
      <trkpt lat="45.5498" lon="6.76946">
        <ele>1746.42</ele>
        <time>2016-03-21T09:03:27Z</time>
      </trkpt>
      <trkpt lat="45.54975" lon="6.76977">
        <ele>1749.08</ele>
        <time>2016-03-21T09:03:33Z</time>
      </trkpt>
      <trkpt lat="45.5497" lon="6.77002">
        <ele>1754.24</ele>
        <time>2016-03-21T09:03:38Z</time>
      </trkpt>
      <trkpt lat="45.54966" lon="6.77028">
        <ele>1768.32</ele>
        <time>2016-03-21T09:03:47Z</time>
      </trkpt>
      <trkpt lat="45.54962" lon="6.77054">
        <ele>1786.28</ele>
        <time>2016-03-21T09:04:01Z</time>
      </trkpt>
      <trkpt lat="45.54957" lon="6.77081">
        <ele>1789.49</ele>
        <time>2016-03-21T09:04:07Z</time>
      </trkpt>
      <trkpt lat="45.54955" lon="6.7711">
        <ele>1797.24</ele>
        <time>2016-03-21T09:04:13Z</time>
      </trkpt>
      <trkpt lat="45.54948" lon="6.77136">
        <ele>1801.28</ele>
        <time>2016-03-21T09:04:18Z</time>
      </trkpt>
      <trkpt lat="45.5494" lon="6.77162">
        <ele>1802.33</ele>
        <time>2016-03-21T09:04:23Z</time>
      </trkpt>
      <trkpt lat="45.54934" lon="6.77187">
        <ele>1807.11</ele>
        <time>2016-03-21T09:04:28Z</time>
      </trkpt>
      <trkpt lat="45.5493" lon="6.77213">
        <ele>1820.26</ele>
        <time>2016-03-21T09:04:34Z</time>
      </trkpt>
      <trkpt lat="45.54927" lon="6.77241">
        <ele>1827.48</ele>
        <time>2016-03-21T09:04:40Z</time>
      </trkpt>
      <trkpt lat="45.54922" lon="6.7727">
        <ele>1834.28</ele>
        <time>2016-03-21T09:04:46Z</time>
      </trkpt>
      <trkpt lat="45.54916" lon="6.77295">
        <ele>1840.45</ele>
        <time>2016-03-21T09:04:51Z</time>
      </trkpt>
      <trkpt lat="45.54912" lon="6.77322">
        <ele>1845.48</ele>
        <time>2016-03-21T09:04:57Z</time>
      </trkpt>
      <trkpt lat="45.54909" lon="6.77349">
        <ele>1855.21</ele>
        <time>2016-03-21T09:05:03Z</time>
      </trkpt>
      <trkpt lat="45.54906" lon="6.77375">
        <ele>1862.47</ele>
        <time>2016-03-21T09:05:09Z</time>
      </trkpt>
      <trkpt lat="45.54902" lon="6.77405">
        <ele>1869.39</ele>
        <time>2016-03-21T09:05:15Z</time>
      </trkpt>
      <trkpt lat="45.549" lon="6.77432">
        <ele>1878.11</ele>
        <time>2016-03-21T09:05:21Z</time>
      </trkpt>
      <trkpt lat="45.54895" lon="6.77457">
        <ele>1885.48</ele>
        <time>2016-03-21T09:05:26Z</time>
      </trkpt>
      <trkpt lat="45.54892" lon="6.77483">
        <ele>1890.48</ele>
        <time>2016-03-21T09:05:32Z</time>
      </trkpt>
      <trkpt lat="45.54885" lon="6.77513">
        <ele>1894.33</ele>
        <time>2016-03-21T09:05:38Z</time>
      </trkpt>
      <trkpt lat="45.54884" lon="6.77539">
        <ele>1903.27</ele>
        <time>2016-03-21T09:05:44Z</time>
      </trkpt>
      <trkpt lat="45.5488" lon="6.77567">
        <ele>1911.07</ele>
        <time>2016-03-21T09:05:51Z</time>
      </trkpt>
      <trkpt lat="45.54875" lon="6.77592">
        <ele>1919.86</ele>
        <time>2016-03-21T09:05:56Z</time>
      </trkpt>
      <trkpt lat="45.5487" lon="6.77618">
        <ele>1929.99</ele>
        <time>2016-03-21T09:06:01Z</time>
      </trkpt>
      <trkpt lat="45.54864" lon="6.77642">
        <ele>1940.07</ele>
        <time>2016-03-21T09:06:06Z</time>
      </trkpt>
      <trkpt lat="45.54859" lon="6.77668">
        <ele>1949</ele>
        <time>2016-03-21T09:06:12Z</time>
      </trkpt>
      <trkpt lat="45.54857" lon="6.77699">
        <ele>1961.98</ele>
        <time>2016-03-21T09:06:19Z</time>
      </trkpt>
      <trkpt lat="45.54856" lon="6.77728">
        <ele>1972.27</ele>
        <time>2016-03-21T09:06:25Z</time>
      </trkpt>
      <trkpt lat="45.54852" lon="6.77758">
        <ele>1982.08</ele>
        <time>2016-03-21T09:06:32Z</time>
      </trkpt>
      <trkpt lat="45.54846" lon="6.77784">
        <ele>1990.23</ele>
        <time>2016-03-21T09:06:37Z</time>
      </trkpt>
      <trkpt lat="45.54841" lon="6.77813">
        <ele>1994.69</ele>
        <time>2016-03-21T09:06:43Z</time>
      </trkpt>
      <trkpt lat="45.54837" lon="6.77839">
        <ele>2002.08</ele>
        <time>2016-03-21T09:06:48Z</time>
      </trkpt>
      <trkpt lat="45.54831" lon="6.77867">
        <ele>2006.51</ele>
        <time>2016-03-21T09:06:54Z</time>
      </trkpt>
      <trkpt lat="45.54828" lon="6.77897">
        <ele>2012.12</ele>
        <time>2016-03-21T09:07:00Z</time>
      </trkpt>
      <trkpt lat="45.54823" lon="6.77925">
        <ele>2017.28</ele>
        <time>2016-03-21T09:07:06Z</time>
      </trkpt>
      <trkpt lat="45.5482" lon="6.77954">
        <ele>2021.33</ele>
        <time>2016-03-21T09:07:12Z</time>
      </trkpt>
      <trkpt lat="45.54816" lon="6.77983">
        <ele>2026.49</ele>
        <time>2016-03-21T09:07:18Z</time>
      </trkpt>
      <trkpt lat="45.54812" lon="6.78011">
        <ele>2033.24</ele>
        <time>2016-03-21T09:07:24Z</time>
      </trkpt>
      <trkpt lat="45.54808" lon="6.78039">
        <ele>2039.28</ele>
        <time>2016-03-21T09:07:30Z</time>
      </trkpt>
      <trkpt lat="45.54805" lon="6.78068">
        <ele>2046.27</ele>
        <time>2016-03-21T09:07:36Z</time>
      </trkpt>
      <trkpt lat="45.54799" lon="6.78097">
        <ele>2052.28</ele>
        <time>2016-03-21T09:07:42Z</time>
      </trkpt>
      <trkpt lat="45.54795" lon="6.78124">
        <ele>2059.28</ele>
        <time>2016-03-21T09:07:48Z</time>
      </trkpt>
      <trkpt lat="45.54791" lon="6.78152">
        <ele>2064.29</ele>
        <time>2016-03-21T09:07:54Z</time>
      </trkpt>
      <trkpt lat="45.54787" lon="6.78177">
        <ele>2067.32</ele>
        <time>2016-03-21T09:07:59Z</time>
      </trkpt>
      <trkpt lat="45.54784" lon="6.78206">
        <ele>2072.32</ele>
        <time>2016-03-21T09:08:05Z</time>
      </trkpt>
      <trkpt lat="45.54779" lon="6.78237">
        <ele>2074.48</ele>
        <time>2016-03-21T09:08:11Z</time>
      </trkpt>
      <trkpt lat="45.54775" lon="6.78262">
        <ele>2077.29</ele>
        <time>2016-03-21T09:08:16Z</time>
      </trkpt>
      <trkpt lat="45.54771" lon="6.78292">
        <ele>2079.68</ele>
        <time>2016-03-21T09:08:22Z</time>
      </trkpt>
      <trkpt lat="45.54766" lon="6.78319">
        <ele>2083.51</ele>
        <time>2016-03-21T09:08:27Z</time>
      </trkpt>
      <trkpt lat="45.5477" lon="6.78347">
        <ele>2087.37</ele>
        <time>2016-03-21T09:08:38Z</time>
      </trkpt>
      <trkpt lat="45.54786" lon="6.78363">
        <ele>2092.14</ele>
        <time>2016-03-21T09:09:16Z</time>
      </trkpt>
      <trkpt lat="45.54804" lon="6.78352">
        <ele>2090.53</ele>
        <time>2016-03-21T09:10:38Z</time>
      </trkpt>
      <trkpt lat="45.54822" lon="6.78343">
        <ele>2088.53</ele>
        <time>2016-03-21T09:10:47Z</time>
      </trkpt>
      <trkpt lat="45.54841" lon="6.78338">
        <ele>2088.53</ele>
        <time>2016-03-21T09:10:53Z</time>
      </trkpt>
      <trkpt lat="45.54861" lon="6.78325">
        <ele>2086.57</ele>
        <time>2016-03-21T09:10:58Z</time>
      </trkpt>
      <trkpt lat="45.54881" lon="6.78326">
        <ele>2086.53</ele>
        <time>2016-03-21T09:11:02Z</time>
      </trkpt>
      <trkpt lat="45.54906" lon="6.7833">
        <ele>2086.52</ele>
        <time>2016-03-21T09:11:06Z</time>
      </trkpt>
      <trkpt lat="45.54925" lon="6.78327">
        <ele>2078.56</ele>
        <time>2016-03-21T09:11:09Z</time>
      </trkpt>
      <trkpt lat="45.54942" lon="6.78312">
        <ele>2074.95</ele>
        <time>2016-03-21T09:11:12Z</time>
      </trkpt>
      <trkpt lat="45.54961" lon="6.78292">
        <ele>2070.6</ele>
        <time>2016-03-21T09:11:15Z</time>
      </trkpt>
      <trkpt lat="45.54976" lon="6.7827">
        <ele>2066.85</ele>
        <time>2016-03-21T09:11:17Z</time>
      </trkpt>
      <trkpt lat="45.54992" lon="6.78244">
        <ele>2062.76</ele>
        <time>2016-03-21T09:11:20Z</time>
      </trkpt>
      <trkpt lat="45.55013" lon="6.78224">
        <ele>2062.53</ele>
        <time>2016-03-21T09:11:23Z</time>
      </trkpt>
      <trkpt lat="45.55036" lon="6.78213">
        <ele>2056.23</ele>
        <time>2016-03-21T09:11:26Z</time>
      </trkpt>
      <trkpt lat="45.55049" lon="6.78181">
        <ele>2048.27</ele>
        <time>2016-03-21T09:11:29Z</time>
      </trkpt>
      <trkpt lat="45.55061" lon="6.78158">
        <ele>2042.92</ele>
        <time>2016-03-21T09:11:31Z</time>
      </trkpt>
      <trkpt lat="45.55064" lon="6.7813">
        <ele>2038.07</ele>
        <time>2016-03-21T09:11:33Z</time>
      </trkpt>
      <trkpt lat="45.55064" lon="6.78104">
        <ele>2035.79</ele>
        <time>2016-03-21T09:11:35Z</time>
      </trkpt>
      <trkpt lat="45.55071" lon="6.7808">
        <ele>2033.58</ele>
        <time>2016-03-21T09:11:39Z</time>
      </trkpt>
      <trkpt lat="45.55063" lon="6.78053">
        <ele>2028.82</ele>
        <time>2016-03-21T09:11:44Z</time>
      </trkpt>
      <trkpt lat="45.55061" lon="6.78024">
        <ele>2024.98</ele>
        <time>2016-03-21T09:11:47Z</time>
      </trkpt>
      <trkpt lat="45.55064" lon="6.77994">
        <ele>2020.82</ele>
        <time>2016-03-21T09:11:50Z</time>
      </trkpt>
      <trkpt lat="45.55083" lon="6.7799">
        <ele>2013.97</ele>
        <time>2016-03-21T09:11:57Z</time>
      </trkpt>
      <trkpt lat="45.55104" lon="6.77991">
        <ele>2009.18</ele>
        <time>2016-03-21T09:12:00Z</time>
      </trkpt>
      <trkpt lat="45.55124" lon="6.77996">
        <ele>2010.52</ele>
        <time>2016-03-21T09:12:03Z</time>
      </trkpt>
      <trkpt lat="45.55151" lon="6.78">
        <ele>2012.29</ele>
        <time>2016-03-21T09:12:06Z</time>
      </trkpt>
      <trkpt lat="45.55176" lon="6.78004">
        <ele>2011.57</ele>
        <time>2016-03-21T09:12:09Z</time>
      </trkpt>
      <trkpt lat="45.55199" lon="6.78016">
        <ele>2010.57</ele>
        <time>2016-03-21T09:12:12Z</time>
      </trkpt>
      <trkpt lat="45.55219" lon="6.78029">
        <ele>2005.09</ele>
        <time>2016-03-21T09:12:15Z</time>
      </trkpt>
      <trkpt lat="45.55238" lon="6.78035">
        <ele>1999.03</ele>
        <time>2016-03-21T09:12:18Z</time>
      </trkpt>
      <trkpt lat="45.55257" lon="6.78036">
        <ele>1996.36</ele>
        <time>2016-03-21T09:12:35Z</time>
      </trkpt>
      <trkpt lat="45.55269" lon="6.78017">
        <ele>1989.29</ele>
        <time>2016-03-21T09:12:42Z</time>
      </trkpt>
      <trkpt lat="45.55287" lon="6.77991">
        <ele>1984.99</ele>
        <time>2016-03-21T09:12:45Z</time>
      </trkpt>
      <trkpt lat="45.55304" lon="6.77973">
        <ele>1978.63</ele>
        <time>2016-03-21T09:12:47Z</time>
      </trkpt>
      <trkpt lat="45.55324" lon="6.77954">
        <ele>1973.09</ele>
        <time>2016-03-21T09:12:49Z</time>
      </trkpt>
      <trkpt lat="45.55343" lon="6.77933">
        <ele>1968.23</ele>
        <time>2016-03-21T09:12:51Z</time>
      </trkpt>
      <trkpt lat="45.55359" lon="6.77909">
        <ele>1960.36</ele>
        <time>2016-03-21T09:12:53Z</time>
      </trkpt>
      <trkpt lat="45.5538" lon="6.77887">
        <ele>1954.28</ele>
        <time>2016-03-21T09:12:55Z</time>
      </trkpt>
      <trkpt lat="45.554" lon="6.77859">
        <ele>1949.88</ele>
        <time>2016-03-21T09:12:57Z</time>
      </trkpt>
      <trkpt lat="45.55421" lon="6.77841">
        <ele>1944.43</ele>
        <time>2016-03-21T09:12:59Z</time>
      </trkpt>
      <trkpt lat="45.55437" lon="6.7781">
        <ele>1934.77</ele>
        <time>2016-03-21T09:13:01Z</time>
      </trkpt>
      <trkpt lat="45.55459" lon="6.7779">
        <ele>1927.66</ele>
        <time>2016-03-21T09:13:03Z</time>
      </trkpt>
      <trkpt lat="45.55477" lon="6.7777">
        <ele>1922.26</ele>
        <time>2016-03-21T09:13:05Z</time>
      </trkpt>
      <trkpt lat="45.555" lon="6.77757">
        <ele>1917.24</ele>
        <time>2016-03-21T09:13:07Z</time>
      </trkpt>
      <trkpt lat="45.55515" lon="6.77733">
        <ele>1912.08</ele>
        <time>2016-03-21T09:13:09Z</time>
      </trkpt>
      <trkpt lat="45.55535" lon="6.77722">
        <ele>1908.19</ele>
        <time>2016-03-21T09:13:11Z</time>
      </trkpt>
      <trkpt lat="45.55548" lon="6.77697">
        <ele>1901.23</ele>
        <time>2016-03-21T09:13:14Z</time>
      </trkpt>
      <trkpt lat="45.55556" lon="6.77674">
        <ele>1898.94</ele>
        <time>2016-03-21T09:13:17Z</time>
      </trkpt>
      <trkpt lat="45.55588" lon="6.77665">
        <ele>1896.53</ele>
        <time>2016-03-21T09:13:40Z</time>
      </trkpt>
      <trkpt lat="45.55613" lon="6.77646">
        <ele>1888.92</ele>
        <time>2016-03-21T09:13:43Z</time>
      </trkpt>
      <trkpt lat="45.55633" lon="6.77638">
        <ele>1884.23</ele>
        <time>2016-03-21T09:13:45Z</time>
      </trkpt>
      <trkpt lat="45.55651" lon="6.7762">
        <ele>1879.08</ele>
        <time>2016-03-21T09:13:47Z</time>
      </trkpt>
      <trkpt lat="45.55664" lon="6.77595">
        <ele>1873.11</ele>
        <time>2016-03-21T09:13:49Z</time>
      </trkpt>
      <trkpt lat="45.55677" lon="6.77564">
        <ele>1867.27</ele>
        <time>2016-03-21T09:13:51Z</time>
      </trkpt>
      <trkpt lat="45.55677" lon="6.77526">
        <ele>1854.63</ele>
        <time>2016-03-21T09:13:54Z</time>
      </trkpt>
      <trkpt lat="45.55687" lon="6.77501">
        <ele>1848.3</ele>
        <time>2016-03-21T09:13:56Z</time>
      </trkpt>
      <trkpt lat="45.55697" lon="6.77477">
        <ele>1844.04</ele>
        <time>2016-03-21T09:13:58Z</time>
      </trkpt>
      <trkpt lat="45.55695" lon="6.77447">
        <ele>1839.02</ele>
        <time>2016-03-21T09:14:01Z</time>
      </trkpt>
      <trkpt lat="45.55711" lon="6.77433">
        <ele>1823.98</ele>
        <time>2016-03-21T09:14:17Z</time>
      </trkpt>
      <trkpt lat="45.55709" lon="6.77403">
        <ele>1817.18</ele>
        <time>2016-03-21T09:14:21Z</time>
      </trkpt>
      <trkpt lat="45.55706" lon="6.77374">
        <ele>1811.38</ele>
        <time>2016-03-21T09:14:24Z</time>
      </trkpt>
      <trkpt lat="45.55705" lon="6.77346">
        <ele>1802.63</ele>
        <time>2016-03-21T09:14:27Z</time>
      </trkpt>
      <trkpt lat="45.55706" lon="6.77315">
        <ele>1797.1</ele>
        <time>2016-03-21T09:14:29Z</time>
      </trkpt>
      <trkpt lat="45.55705" lon="6.77287">
        <ele>1791.11</ele>
        <time>2016-03-21T09:14:31Z</time>
      </trkpt>
      <trkpt lat="45.55709" lon="6.77255">
        <ele>1787.67</ele>
        <time>2016-03-21T09:14:33Z</time>
      </trkpt>
      <trkpt lat="45.55719" lon="6.77222">
        <ele>1776.17</ele>
        <time>2016-03-21T09:14:36Z</time>
      </trkpt>
      <trkpt lat="45.55718" lon="6.77188">
        <ele>1771.88</ele>
        <time>2016-03-21T09:14:38Z</time>
      </trkpt>
      <trkpt lat="45.55724" lon="6.77156">
        <ele>1768.02</ele>
        <time>2016-03-21T09:14:40Z</time>
      </trkpt>
      <trkpt lat="45.55731" lon="6.77119">
        <ele>1760.27</ele>
        <time>2016-03-21T09:14:43Z</time>
      </trkpt>
      <trkpt lat="45.55741" lon="6.77083">
        <ele>1755.08</ele>
        <time>2016-03-21T09:14:45Z</time>
      </trkpt>
      <trkpt lat="45.55755" lon="6.77053">
        <ele>1752.63</ele>
        <time>2016-03-21T09:14:47Z</time>
      </trkpt>
      <trkpt lat="45.55771" lon="6.77027">
        <ele>1747.9</ele>
        <time>2016-03-21T09:14:49Z</time>
      </trkpt>
      <trkpt lat="45.55777" lon="6.77">
        <ele>1743.39</ele>
        <time>2016-03-21T09:14:51Z</time>
      </trkpt>
      <trkpt lat="45.55783" lon="6.7697">
        <ele>1740.97</ele>
        <time>2016-03-21T09:14:53Z</time>
      </trkpt>
      <trkpt lat="45.55793" lon="6.76938">
        <ele>1736.23</ele>
        <time>2016-03-21T09:14:55Z</time>
      </trkpt>
      <trkpt lat="45.55799" lon="6.76908">
        <ele>1728.36</ele>
        <time>2016-03-21T09:14:57Z</time>
      </trkpt>
      <trkpt lat="45.55805" lon="6.7687">
        <ele>1724.04</ele>
        <time>2016-03-21T09:14:59Z</time>
      </trkpt>
      <trkpt lat="45.55806" lon="6.76828">
        <ele>1720.03</ele>
        <time>2016-03-21T09:15:01Z</time>
      </trkpt>
      <trkpt lat="45.55805" lon="6.76795">
        <ele>1707.6</ele>
        <time>2016-03-21T09:15:04Z</time>
      </trkpt>
      <trkpt lat="45.55814" lon="6.76765">
        <ele>1701.13</ele>
        <time>2016-03-21T09:15:06Z</time>
      </trkpt>
      <trkpt lat="45.55816" lon="6.76723">
        <ele>1698.8</ele>
        <time>2016-03-21T09:15:08Z</time>
      </trkpt>
      <trkpt lat="45.55815" lon="6.76678">
        <ele>1696.78</ele>
        <time>2016-03-21T09:15:10Z</time>
      </trkpt>
      <trkpt lat="45.55809" lon="6.76641">
        <ele>1693.82</ele>
        <time>2016-03-21T09:15:12Z</time>
      </trkpt>
      <trkpt lat="45.55802" lon="6.76607">
        <ele>1691.78</ele>
        <time>2016-03-21T09:15:14Z</time>
      </trkpt>
      <trkpt lat="45.55794" lon="6.76574">
        <ele>1689.78</ele>
        <time>2016-03-21T09:15:16Z</time>
      </trkpt>
      <trkpt lat="45.55789" lon="6.76548">
        <ele>1686.18</ele>
        <time>2016-03-21T09:15:18Z</time>
      </trkpt>
      <trkpt lat="45.55778" lon="6.76525">
        <ele>1684.6</ele>
        <time>2016-03-21T09:15:20Z</time>
      </trkpt>
      <trkpt lat="45.55759" lon="6.76587">
        <ele>1662.14</ele>
        <time>2016-03-21T09:15:21Z</time>
      </trkpt>
      <trkpt lat="45.55752" lon="6.76558">
        <ele>1637.78</ele>
        <time>2016-03-21T09:15:42Z</time>
      </trkpt>
      <trkpt lat="45.55745" lon="6.76525">
        <ele>1635.78</ele>
        <time>2016-03-21T09:15:44Z</time>
      </trkpt>
      <trkpt lat="45.55739" lon="6.76494">
        <ele>1633.62</ele>
        <time>2016-03-21T09:15:46Z</time>
      </trkpt>
      <trkpt lat="45.55727" lon="6.76472">
        <ele>1628.57</ele>
        <time>2016-03-21T09:15:48Z</time>
      </trkpt>
      <trkpt lat="45.5572" lon="6.7644">
        <ele>1624.69</ele>
        <time>2016-03-21T09:15:50Z</time>
      </trkpt>
      <trkpt lat="45.55703" lon="6.76428">
        <ele>1622.14</ele>
        <time>2016-03-21T09:15:52Z</time>
      </trkpt>
      <trkpt lat="45.55679" lon="6.7642">
        <ele>1617.08</ele>
        <time>2016-03-21T09:15:54Z</time>
      </trkpt>
      <trkpt lat="45.55659" lon="6.76416">
        <ele>1612.23</ele>
        <time>2016-03-21T09:15:56Z</time>
      </trkpt>
      <trkpt lat="45.55642" lon="6.7639">
        <ele>1607.18</ele>
        <time>2016-03-21T09:15:59Z</time>
      </trkpt>
      <trkpt lat="45.55625" lon="6.76373">
        <ele>1604.55</ele>
        <time>2016-03-21T09:16:02Z</time>
      </trkpt>
      <trkpt lat="45.55617" lon="6.76345">
        <ele>1599.99</ele>
        <time>2016-03-21T09:16:05Z</time>
      </trkpt>
      <trkpt lat="45.55606" lon="6.76317">
        <ele>1594</ele>
        <time>2016-03-21T09:16:08Z</time>
      </trkpt>
      <trkpt lat="45.55597" lon="6.76292">
        <ele>1587.81</ele>
        <time>2016-03-21T09:16:11Z</time>
      </trkpt>
      <trkpt lat="45.55607" lon="6.76258">
        <ele>1585.26</ele>
        <time>2016-03-21T09:16:14Z</time>
      </trkpt>
      <trkpt lat="45.55625" lon="6.76252">
        <ele>1580.97</ele>
        <time>2016-03-21T09:16:18Z</time>
      </trkpt>
      <trkpt lat="45.55643" lon="6.76248">
        <ele>1576.53</ele>
        <time>2016-03-21T09:16:26Z</time>
      </trkpt>
      <trkpt lat="45.55654" lon="6.76269">
        <ele>1573.53</ele>
        <time>2016-03-21T09:18:17Z</time>
      </trkpt>
      <trkpt lat="45.55657" lon="6.76294">
        <ele>1561.17</ele>
        <time>2016-03-21T09:19:46Z</time>
      </trkpt>
      <trkpt lat="45.5565" lon="6.76321">
        <ele>1563.89</ele>
        <time>2016-03-21T09:19:51Z</time>
      </trkpt>
      <trkpt lat="45.55642" lon="6.76345">
        <ele>1573.18</ele>
        <time>2016-03-21T09:19:55Z</time>
      </trkpt>
      <trkpt lat="45.55635" lon="6.76372">
        <ele>1582.06</ele>
        <time>2016-03-21T09:20:00Z</time>
      </trkpt>
      <trkpt lat="45.55628" lon="6.76401">
        <ele>1585.48</ele>
        <time>2016-03-21T09:20:06Z</time>
      </trkpt>
      <trkpt lat="45.55622" lon="6.76426">
        <ele>1589.28</ele>
        <time>2016-03-21T09:20:11Z</time>
      </trkpt>
      <trkpt lat="45.55616" lon="6.76456">
        <ele>1595.12</ele>
        <time>2016-03-21T09:20:17Z</time>
      </trkpt>
      <trkpt lat="45.5561" lon="6.76483">
        <ele>1600.48</ele>
        <time>2016-03-21T09:20:23Z</time>
      </trkpt>
      <trkpt lat="45.55603" lon="6.76509">
        <ele>1609.28</ele>
        <time>2016-03-21T09:20:29Z</time>
      </trkpt>
      <trkpt lat="45.55596" lon="6.76534">
        <ele>1613.28</ele>
        <time>2016-03-21T09:20:34Z</time>
      </trkpt>
      <trkpt lat="45.5559" lon="6.76562">
        <ele>1618.45</ele>
        <time>2016-03-21T09:20:40Z</time>
      </trkpt>
      <trkpt lat="45.55583" lon="6.76589">
        <ele>1624.29</ele>
        <time>2016-03-21T09:20:46Z</time>
      </trkpt>
      <trkpt lat="45.55578" lon="6.76616">
        <ele>1629.28</ele>
        <time>2016-03-21T09:20:52Z</time>
      </trkpt>
      <trkpt lat="45.55574" lon="6.76643">
        <ele>1634.51</ele>
        <time>2016-03-21T09:20:58Z</time>
      </trkpt>
      <trkpt lat="45.5557" lon="6.76673">
        <ele>1637.33</ele>
        <time>2016-03-21T09:21:04Z</time>
      </trkpt>
      <trkpt lat="45.55563" lon="6.767">
        <ele>1644.28</ele>
        <time>2016-03-21T09:21:10Z</time>
      </trkpt>
      <trkpt lat="45.55557" lon="6.76727">
        <ele>1647.48</ele>
        <time>2016-03-21T09:21:16Z</time>
      </trkpt>
      <trkpt lat="45.55548" lon="6.76752">
        <ele>1650.73</ele>
        <time>2016-03-21T09:21:22Z</time>
      </trkpt>
      <trkpt lat="45.5554" lon="6.76779">
        <ele>1655.48</ele>
        <time>2016-03-21T09:21:28Z</time>
      </trkpt>
      <trkpt lat="45.55535" lon="6.76806">
        <ele>1661.29</ele>
        <time>2016-03-21T09:21:34Z</time>
      </trkpt>
      <trkpt lat="45.55531" lon="6.76831">
        <ele>1669.23</ele>
        <time>2016-03-21T09:21:39Z</time>
      </trkpt>
      <trkpt lat="45.55522" lon="6.76855">
        <ele>1672.49</ele>
        <time>2016-03-21T09:21:44Z</time>
      </trkpt>
      <trkpt lat="45.55523" lon="6.76883">
        <ele>1677.29</ele>
        <time>2016-03-21T09:21:51Z</time>
      </trkpt>
      <trkpt lat="45.55513" lon="6.76907">
        <ele>1685</ele>
        <time>2016-03-21T09:21:56Z</time>
      </trkpt>
      <trkpt lat="45.55507" lon="6.76932">
        <ele>1693.28</ele>
        <time>2016-03-21T09:22:01Z</time>
      </trkpt>
      <trkpt lat="45.55502" lon="6.76958">
        <ele>1700.44</ele>
        <time>2016-03-21T09:22:07Z</time>
      </trkpt>
      <trkpt lat="45.55494" lon="6.76985">
        <ele>1707.47</ele>
        <time>2016-03-21T09:22:13Z</time>
      </trkpt>
      <trkpt lat="45.55487" lon="6.7701">
        <ele>1715.03</ele>
        <time>2016-03-21T09:22:18Z</time>
      </trkpt>
      <trkpt lat="45.5548" lon="6.77035">
        <ele>1724.09</ele>
        <time>2016-03-21T09:22:24Z</time>
      </trkpt>
      <trkpt lat="45.5547" lon="6.77063">
        <ele>1733.27</ele>
        <time>2016-03-21T09:22:31Z</time>
      </trkpt>
      <trkpt lat="45.55467" lon="6.77091">
        <ele>1743.06</ele>
        <time>2016-03-21T09:22:37Z</time>
      </trkpt>
      <trkpt lat="45.55457" lon="6.77116">
        <ele>1749.11</ele>
        <time>2016-03-21T09:22:42Z</time>
      </trkpt>
      <trkpt lat="45.55455" lon="6.77145">
        <ele>1763.24</ele>
        <time>2016-03-21T09:22:51Z</time>
      </trkpt>
      <trkpt lat="45.55449" lon="6.77174">
        <ele>1773.07</ele>
        <time>2016-03-21T09:22:57Z</time>
      </trkpt>
      <trkpt lat="45.55442" lon="6.77198">
        <ele>1779.88</ele>
        <time>2016-03-21T09:23:02Z</time>
      </trkpt>
      <trkpt lat="45.55436" lon="6.77224">
        <ele>1785.1</ele>
        <time>2016-03-21T09:23:07Z</time>
      </trkpt>
      <trkpt lat="45.55435" lon="6.77251">
        <ele>1787.48</ele>
        <time>2016-03-21T09:23:14Z</time>
      </trkpt>
      <trkpt lat="45.55429" lon="6.77278">
        <ele>1797.09</ele>
        <time>2016-03-21T09:23:21Z</time>
      </trkpt>
      <trkpt lat="45.55423" lon="6.77305">
        <ele>1809.43</ele>
        <time>2016-03-21T09:23:28Z</time>
      </trkpt>
      <trkpt lat="45.55416" lon="6.7733">
        <ele>1816.05</ele>
        <time>2016-03-21T09:23:33Z</time>
      </trkpt>
      <trkpt lat="45.5541" lon="6.77354">
        <ele>1825.63</ele>
        <time>2016-03-21T09:23:38Z</time>
      </trkpt>
      <trkpt lat="45.55402" lon="6.77381">
        <ele>1833.24</ele>
        <time>2016-03-21T09:23:43Z</time>
      </trkpt>
      <trkpt lat="45.55398" lon="6.77408">
        <ele>1841.83</ele>
        <time>2016-03-21T09:23:50Z</time>
      </trkpt>
      <trkpt lat="45.55393" lon="6.77434">
        <ele>1850.07</ele>
        <time>2016-03-21T09:23:56Z</time>
      </trkpt>
      <trkpt lat="45.55386" lon="6.77461">
        <ele>1854.36</ele>
        <time>2016-03-21T09:24:02Z</time>
      </trkpt>
      <trkpt lat="45.5538" lon="6.77487">
        <ele>1861.09</ele>
        <time>2016-03-21T09:24:08Z</time>
      </trkpt>
      <trkpt lat="45.55373" lon="6.77513">
        <ele>1869.08</ele>
        <time>2016-03-21T09:24:14Z</time>
      </trkpt>
      <trkpt lat="45.55368" lon="6.77544">
        <ele>1872.52</ele>
        <time>2016-03-21T09:24:20Z</time>
      </trkpt>
      <trkpt lat="45.55363" lon="6.7757">
        <ele>1876.24</ele>
        <time>2016-03-21T09:24:25Z</time>
      </trkpt>
      <trkpt lat="45.55355" lon="6.77595">
        <ele>1881.47</ele>
        <time>2016-03-21T09:24:30Z</time>
      </trkpt>
      <trkpt lat="45.55349" lon="6.7762">
        <ele>1892.19</ele>
        <time>2016-03-21T09:24:36Z</time>
      </trkpt>
      <trkpt lat="45.55345" lon="6.77646">
        <ele>1895.33</ele>
        <time>2016-03-21T09:24:42Z</time>
      </trkpt>
      <trkpt lat="45.55337" lon="6.7767">
        <ele>1896.13</ele>
        <time>2016-03-21T09:24:47Z</time>
      </trkpt>
      <trkpt lat="45.55328" lon="6.77696">
        <ele>1901.91</ele>
        <time>2016-03-21T09:24:52Z</time>
      </trkpt>
      <trkpt lat="45.55322" lon="6.77723">
        <ele>1905.41</ele>
        <time>2016-03-21T09:24:58Z</time>
      </trkpt>
      <trkpt lat="45.55316" lon="6.77752">
        <ele>1906.72</ele>
        <time>2016-03-21T09:25:04Z</time>
      </trkpt>
      <trkpt lat="45.55309" lon="6.77779">
        <ele>1914.92</ele>
        <time>2016-03-21T09:25:10Z</time>
      </trkpt>
      <trkpt lat="45.55304" lon="6.77805">
        <ele>1922.27</ele>
        <time>2016-03-21T09:25:16Z</time>
      </trkpt>
      <trkpt lat="45.55299" lon="6.7783">
        <ele>1928.45</ele>
        <time>2016-03-21T09:25:22Z</time>
      </trkpt>
      <trkpt lat="45.55294" lon="6.77855">
        <ele>1938.99</ele>
        <time>2016-03-21T09:25:28Z</time>
      </trkpt>
      <trkpt lat="45.55288" lon="6.7788">
        <ele>1943.49</ele>
        <time>2016-03-21T09:25:33Z</time>
      </trkpt>
      <trkpt lat="45.55281" lon="6.77907">
        <ele>1950.45</ele>
        <time>2016-03-21T09:25:39Z</time>
      </trkpt>
      <trkpt lat="45.55273" lon="6.77935">
        <ele>1956.25</ele>
        <time>2016-03-21T09:25:45Z</time>
      </trkpt>
      <trkpt lat="45.55265" lon="6.77962">
        <ele>1966.31</ele>
        <time>2016-03-21T09:25:51Z</time>
      </trkpt>
      <trkpt lat="45.55259" lon="6.77987">
        <ele>1969.61</ele>
        <time>2016-03-21T09:25:56Z</time>
      </trkpt>
      <trkpt lat="45.55252" lon="6.78011">
        <ele>1974.28</ele>
        <time>2016-03-21T09:26:01Z</time>
      </trkpt>
      <trkpt lat="45.55246" lon="6.78039">
        <ele>1981.29</ele>
        <time>2016-03-21T09:26:07Z</time>
      </trkpt>
      <trkpt lat="45.55239" lon="6.78067">
        <ele>1988.32</ele>
        <time>2016-03-21T09:26:13Z</time>
      </trkpt>
      <trkpt lat="45.55231" lon="6.78096">
        <ele>1994.88</ele>
        <time>2016-03-21T09:26:19Z</time>
      </trkpt>
      <trkpt lat="45.55225" lon="6.78124">
        <ele>2001.92</ele>
        <time>2016-03-21T09:26:26Z</time>
      </trkpt>
      <trkpt lat="45.5522" lon="6.78152">
        <ele>2006.32</ele>
        <time>2016-03-21T09:26:32Z</time>
      </trkpt>
      <trkpt lat="45.5522" lon="6.78181">
        <ele>2011.7</ele>
        <time>2016-03-21T09:26:39Z</time>
      </trkpt>
      <trkpt lat="45.55215" lon="6.78209">
        <ele>2011.51</ele>
        <time>2016-03-21T09:26:45Z</time>
      </trkpt>
      <trkpt lat="45.55207" lon="6.78237">
        <ele>2017.22</ele>
        <time>2016-03-21T09:26:51Z</time>
      </trkpt>
      <trkpt lat="45.552" lon="6.78265">
        <ele>2022.53</ele>
        <time>2016-03-21T09:26:57Z</time>
      </trkpt>
      <trkpt lat="45.55195" lon="6.78291">
        <ele>2024.53</ele>
        <time>2016-03-21T09:27:03Z</time>
      </trkpt>
      <trkpt lat="45.55189" lon="6.78321">
        <ele>2029.43</ele>
        <time>2016-03-21T09:27:09Z</time>
      </trkpt>
      <trkpt lat="45.55183" lon="6.78348">
        <ele>2038.13</ele>
        <time>2016-03-21T09:27:15Z</time>
      </trkpt>
      <trkpt lat="45.55177" lon="6.78376">
        <ele>2042.25</ele>
        <time>2016-03-21T09:27:21Z</time>
      </trkpt>
      <trkpt lat="45.55169" lon="6.78403">
        <ele>2054.28</ele>
        <time>2016-03-21T09:27:27Z</time>
      </trkpt>
      <trkpt lat="45.55162" lon="6.78427">
        <ele>2062.29</ele>
        <time>2016-03-21T09:27:35Z</time>
      </trkpt>
      <trkpt lat="45.55154" lon="6.78453">
        <ele>2069.52</ele>
        <time>2016-03-21T09:27:44Z</time>
      </trkpt>
      <trkpt lat="45.55148" lon="6.78479">
        <ele>2076.29</ele>
        <time>2016-03-21T09:27:53Z</time>
      </trkpt>
      <trkpt lat="45.55142" lon="6.78507">
        <ele>2084.08</ele>
        <time>2016-03-21T09:28:01Z</time>
      </trkpt>
      <trkpt lat="45.55134" lon="6.78534">
        <ele>2095.87</ele>
        <time>2016-03-21T09:28:07Z</time>
      </trkpt>
      <trkpt lat="45.55129" lon="6.78559">
        <ele>2102.46</ele>
        <time>2016-03-21T09:28:13Z</time>
      </trkpt>
      <trkpt lat="45.55123" lon="6.78586">
        <ele>2106.48</ele>
        <time>2016-03-21T09:28:19Z</time>
      </trkpt>
      <trkpt lat="45.55117" lon="6.78613">
        <ele>2113.47</ele>
        <time>2016-03-21T09:28:25Z</time>
      </trkpt>
      <trkpt lat="45.55111" lon="6.7864">
        <ele>2119.28</ele>
        <time>2016-03-21T09:28:31Z</time>
      </trkpt>
      <trkpt lat="45.55104" lon="6.78668">
        <ele>2125.28</ele>
        <time>2016-03-21T09:28:37Z</time>
      </trkpt>
      <trkpt lat="45.55099" lon="6.78695">
        <ele>2130.28</ele>
        <time>2016-03-21T09:28:43Z</time>
      </trkpt>
      <trkpt lat="45.55091" lon="6.78723">
        <ele>2134.28</ele>
        <time>2016-03-21T09:28:49Z</time>
      </trkpt>
      <trkpt lat="45.55085" lon="6.78748">
        <ele>2135.12</ele>
        <time>2016-03-21T09:28:54Z</time>
      </trkpt>
      <trkpt lat="45.55085" lon="6.78775">
        <ele>2136.33</ele>
        <time>2016-03-21T09:29:07Z</time>
      </trkpt>
      <trkpt lat="45.55085" lon="6.788">
        <ele>2138.3</ele>
        <time>2016-03-21T09:29:27Z</time>
      </trkpt>
      <trkpt lat="45.55105" lon="6.78796">
        <ele>2138.37</ele>
        <time>2016-03-21T09:30:23Z</time>
      </trkpt>
      <trkpt lat="45.55127" lon="6.78789">
        <ele>2136.57</ele>
        <time>2016-03-21T09:30:29Z</time>
      </trkpt>
      <trkpt lat="45.55149" lon="6.78779">
        <ele>2133.73</ele>
        <time>2016-03-21T09:30:33Z</time>
      </trkpt>
      <trkpt lat="45.55169" lon="6.7878">
        <ele>2132.54</ele>
        <time>2016-03-21T09:30:36Z</time>
      </trkpt>
      <trkpt lat="45.55187" lon="6.78772">
        <ele>2129.75</ele>
        <time>2016-03-21T09:30:39Z</time>
      </trkpt>
      <trkpt lat="45.55213" lon="6.78761">
        <ele>2125.79</ele>
        <time>2016-03-21T09:30:42Z</time>
      </trkpt>
      <trkpt lat="45.55223" lon="6.78735">
        <ele>2121.06</ele>
        <time>2016-03-21T09:30:44Z</time>
      </trkpt>
      <trkpt lat="45.55234" lon="6.78712">
        <ele>2118.79</ele>
        <time>2016-03-21T09:30:46Z</time>
      </trkpt>
      <trkpt lat="45.55251" lon="6.78698">
        <ele>2115.98</ele>
        <time>2016-03-21T09:30:48Z</time>
      </trkpt>
      <trkpt lat="45.5526" lon="6.78666">
        <ele>2107.79</ele>
        <time>2016-03-21T09:30:51Z</time>
      </trkpt>
      <trkpt lat="45.55275" lon="6.78649">
        <ele>2103.22</ele>
        <time>2016-03-21T09:30:53Z</time>
      </trkpt>
      <trkpt lat="45.55284" lon="6.78625">
        <ele>2098.56</ele>
        <time>2016-03-21T09:30:55Z</time>
      </trkpt>
      <trkpt lat="45.55295" lon="6.78603">
        <ele>2096.77</ele>
        <time>2016-03-21T09:30:57Z</time>
      </trkpt>
      <trkpt lat="45.55314" lon="6.78593">
        <ele>2093.62</ele>
        <time>2016-03-21T09:31:00Z</time>
      </trkpt>
      <trkpt lat="45.55336" lon="6.7859">
        <ele>2090.97</ele>
        <time>2016-03-21T09:31:04Z</time>
      </trkpt>
      <trkpt lat="45.55355" lon="6.78586">
        <ele>2088.77</ele>
        <time>2016-03-21T09:31:08Z</time>
      </trkpt>
      <trkpt lat="45.55376" lon="6.7859">
        <ele>2085.59</ele>
        <time>2016-03-21T09:31:12Z</time>
      </trkpt>
      <trkpt lat="45.55393" lon="6.78598">
        <ele>2084.73</ele>
        <time>2016-03-21T09:31:15Z</time>
      </trkpt>
      <trkpt lat="45.55417" lon="6.78606">
        <ele>2084.53</ele>
        <time>2016-03-21T09:31:19Z</time>
      </trkpt>
      <trkpt lat="45.55442" lon="6.78619">
        <ele>2083.57</ele>
        <time>2016-03-21T09:31:23Z</time>
      </trkpt>
      <trkpt lat="45.55458" lon="6.7864">
        <ele>2084.49</ele>
        <time>2016-03-21T09:31:26Z</time>
      </trkpt>
      <trkpt lat="45.55478" lon="6.78638">
        <ele>2080.82</ele>
        <time>2016-03-21T09:31:29Z</time>
      </trkpt>
      <trkpt lat="45.55496" lon="6.78631">
        <ele>2073.85</ele>
        <time>2016-03-21T09:31:32Z</time>
      </trkpt>
      <trkpt lat="45.55514" lon="6.78615">
        <ele>2065.28</ele>
        <time>2016-03-21T09:31:35Z</time>
      </trkpt>
      <trkpt lat="45.55527" lon="6.78596">
        <ele>2061.84</ele>
        <time>2016-03-21T09:31:37Z</time>
      </trkpt>
      <trkpt lat="45.55544" lon="6.7857">
        <ele>2059.94</ele>
        <time>2016-03-21T09:31:39Z</time>
      </trkpt>
      <trkpt lat="45.55562" lon="6.78547">
        <ele>2057.79</ele>
        <time>2016-03-21T09:31:41Z</time>
      </trkpt>
      <trkpt lat="45.55576" lon="6.7852">
        <ele>2051.3</ele>
        <time>2016-03-21T09:31:43Z</time>
      </trkpt>
      <trkpt lat="45.55592" lon="6.78482">
        <ele>2044.32</ele>
        <time>2016-03-21T09:31:45Z</time>
      </trkpt>
      <trkpt lat="45.55604" lon="6.78441">
        <ele>2039.08</ele>
        <time>2016-03-21T09:31:47Z</time>
      </trkpt>
      <trkpt lat="45.55613" lon="6.78415">
        <ele>2034.07</ele>
        <time>2016-03-21T09:31:49Z</time>
      </trkpt>
      <trkpt lat="45.55624" lon="6.78388">
        <ele>2030.99</ele>
        <time>2016-03-21T09:31:51Z</time>
      </trkpt>
      <trkpt lat="45.55625" lon="6.78354">
        <ele>2022.98</ele>
        <time>2016-03-21T09:31:54Z</time>
      </trkpt>
      <trkpt lat="45.55631" lon="6.78328">
        <ele>2019.83</ele>
        <time>2016-03-21T09:31:56Z</time>
      </trkpt>
      <trkpt lat="45.55644" lon="6.78307">
        <ele>2012.88</ele>
        <time>2016-03-21T09:31:59Z</time>
      </trkpt>
      <trkpt lat="45.55662" lon="6.78293">
        <ele>2008.54</ele>
        <time>2016-03-21T09:32:01Z</time>
      </trkpt>
      <trkpt lat="45.5568" lon="6.78279">
        <ele>2005.01</ele>
        <time>2016-03-21T09:32:03Z</time>
      </trkpt>
      <trkpt lat="45.55699" lon="6.78269">
        <ele>2001.03</ele>
        <time>2016-03-21T09:32:05Z</time>
      </trkpt>
      <trkpt lat="45.55714" lon="6.78252">
        <ele>1995.91</ele>
        <time>2016-03-21T09:32:07Z</time>
      </trkpt>
      <trkpt lat="45.55719" lon="6.78227">
        <ele>1988.83</ele>
        <time>2016-03-21T09:32:09Z</time>
      </trkpt>
      <trkpt lat="45.55732" lon="6.78206">
        <ele>1985.82</ele>
        <time>2016-03-21T09:32:11Z</time>
      </trkpt>
      <trkpt lat="45.55744" lon="6.78183">
        <ele>1982.02</ele>
        <time>2016-03-21T09:32:13Z</time>
      </trkpt>
      <trkpt lat="45.55743" lon="6.78157">
        <ele>1979.79</ele>
        <time>2016-03-21T09:32:15Z</time>
      </trkpt>
      <trkpt lat="45.55741" lon="6.78128">
        <ele>1960.25</ele>
        <time>2016-03-21T09:32:45Z</time>
      </trkpt>
      <trkpt lat="45.55749" lon="6.78091">
        <ele>1955.63</ele>
        <time>2016-03-21T09:32:48Z</time>
      </trkpt>
      <trkpt lat="45.55755" lon="6.78062">
        <ele>1949.46</ele>
        <time>2016-03-21T09:32:50Z</time>
      </trkpt>
      <trkpt lat="45.55759" lon="6.78029">
        <ele>1945.85</ele>
        <time>2016-03-21T09:32:52Z</time>
      </trkpt>
      <trkpt lat="45.55761" lon="6.78001">
        <ele>1943.78</ele>
        <time>2016-03-21T09:32:54Z</time>
      </trkpt>
      <trkpt lat="45.5575" lon="6.77976">
        <ele>1940.14</ele>
        <time>2016-03-21T09:32:57Z</time>
      </trkpt>
      <trkpt lat="45.55765" lon="6.77994">
        <ele>1934.3</ele>
        <time>2016-03-21T09:33:22Z</time>
      </trkpt>
      <trkpt lat="45.55781" lon="6.78015">
        <ele>1932.93</ele>
        <time>2016-03-21T09:33:27Z</time>
      </trkpt>
      <trkpt lat="45.55798" lon="6.78032">
        <ele>1931.51</ele>
        <time>2016-03-21T09:33:31Z</time>
      </trkpt>
      <trkpt lat="45.55816" lon="6.78044">
        <ele>1931.5</ele>
        <time>2016-03-21T09:33:34Z</time>
      </trkpt>
      <trkpt lat="45.55835" lon="6.78054">
        <ele>1929.77</ele>
        <time>2016-03-21T09:33:37Z</time>
      </trkpt>
      <trkpt lat="45.55853" lon="6.78064">
        <ele>1931.29</ele>
        <time>2016-03-21T09:33:40Z</time>
      </trkpt>
      <trkpt lat="45.55872" lon="6.7807">
        <ele>1930.89</ele>
        <time>2016-03-21T09:33:43Z</time>
      </trkpt>
      <trkpt lat="45.55894" lon="6.78079">
        <ele>1931.46</ele>
        <time>2016-03-21T09:33:47Z</time>
      </trkpt>
      <trkpt lat="45.55917" lon="6.7809">
        <ele>1929.78</ele>
        <time>2016-03-21T09:33:51Z</time>
      </trkpt>
      <trkpt lat="45.55934" lon="6.78101">
        <ele>1925.56</ele>
        <time>2016-03-21T09:33:55Z</time>
      </trkpt>
      <trkpt lat="45.55949" lon="6.7812">
        <ele>1927.29</ele>
        <time>2016-03-21T09:33:58Z</time>
      </trkpt>
      <trkpt lat="45.55973" lon="6.78134">
        <ele>1925.68</ele>
        <time>2016-03-21T09:34:02Z</time>
      </trkpt>
      <trkpt lat="45.55995" lon="6.78148">
        <ele>1926.49</ele>
        <time>2016-03-21T09:34:05Z</time>
      </trkpt>
      <trkpt lat="45.56014" lon="6.78155">
        <ele>1924.77</ele>
        <time>2016-03-21T09:34:07Z</time>
      </trkpt>
      <trkpt lat="45.56031" lon="6.78165">
        <ele>1925.34</ele>
        <time>2016-03-21T09:34:09Z</time>
      </trkpt>
      <trkpt lat="45.56055" lon="6.78169">
        <ele>1917.4</ele>
        <time>2016-03-21T09:34:12Z</time>
      </trkpt>
      <trkpt lat="45.56077" lon="6.78183">
        <ele>1915.61</ele>
        <time>2016-03-21T09:34:14Z</time>
      </trkpt>
      <trkpt lat="45.56104" lon="6.78197">
        <ele>1913.77</ele>
        <time>2016-03-21T09:34:16Z</time>
      </trkpt>
      <trkpt lat="45.56121" lon="6.78213">
        <ele>1913.54</ele>
        <time>2016-03-21T09:34:18Z</time>
      </trkpt>
      <trkpt lat="45.56148" lon="6.78227">
        <ele>1909.85</ele>
        <time>2016-03-21T09:34:21Z</time>
      </trkpt>
      <trkpt lat="45.56169" lon="6.78245">
        <ele>1907.78</ele>
        <time>2016-03-21T09:34:23Z</time>
      </trkpt>
      <trkpt lat="45.5619" lon="6.78262">
        <ele>1906.74</ele>
        <time>2016-03-21T09:34:25Z</time>
      </trkpt>
      <trkpt lat="45.56209" lon="6.78276">
        <ele>1905.58</ele>
        <time>2016-03-21T09:34:27Z</time>
      </trkpt>
      <trkpt lat="45.56232" lon="6.78286">
        <ele>1888.18</ele>
        <time>2016-03-21T09:34:32Z</time>
      </trkpt>
      <trkpt lat="45.56255" lon="6.78295">
        <ele>1882.16</ele>
        <time>2016-03-21T09:34:35Z</time>
      </trkpt>
      <trkpt lat="45.56278" lon="6.78299">
        <ele>1877.6</ele>
        <time>2016-03-21T09:34:38Z</time>
      </trkpt>
      <trkpt lat="45.56301" lon="6.78302">
        <ele>1874.78</ele>
        <time>2016-03-21T09:34:41Z</time>
      </trkpt>
      <trkpt lat="45.56324" lon="6.78308">
        <ele>1873.54</ele>
        <time>2016-03-21T09:34:44Z</time>
      </trkpt>
      <trkpt lat="45.56348" lon="6.78317">
        <ele>1872.57</ele>
        <time>2016-03-21T09:34:47Z</time>
      </trkpt>
      <trkpt lat="45.56374" lon="6.78319">
        <ele>1867.06</ele>
        <time>2016-03-21T09:34:50Z</time>
      </trkpt>
      <trkpt lat="45.56394" lon="6.78323">
        <ele>1861.83</ele>
        <time>2016-03-21T09:34:53Z</time>
      </trkpt>
      <trkpt lat="45.5642" lon="6.78327">
        <ele>1861.53</ele>
        <time>2016-03-21T09:34:56Z</time>
      </trkpt>
      <trkpt lat="45.56443" lon="6.78321">
        <ele>1859.61</ele>
        <time>2016-03-21T09:34:58Z</time>
      </trkpt>
      <trkpt lat="45.56464" lon="6.78304">
        <ele>1856.97</ele>
        <time>2016-03-21T09:35:00Z</time>
      </trkpt>
      <trkpt lat="45.56485" lon="6.7828">
        <ele>1855.59</ele>
        <time>2016-03-21T09:35:02Z</time>
      </trkpt>
      <trkpt lat="45.56503" lon="6.78265">
        <ele>1853.77</ele>
        <time>2016-03-21T09:35:04Z</time>
      </trkpt>
      <trkpt lat="45.56522" lon="6.78251">
        <ele>1849.38</ele>
        <time>2016-03-21T09:35:06Z</time>
      </trkpt>
      <trkpt lat="45.56541" lon="6.78236">
        <ele>1845.05</ele>
        <time>2016-03-21T09:35:08Z</time>
      </trkpt>
      <trkpt lat="45.5656" lon="6.78217">
        <ele>1842.79</ele>
        <time>2016-03-21T09:35:10Z</time>
      </trkpt>
      <trkpt lat="45.56576" lon="6.78198">
        <ele>1841.58</ele>
        <time>2016-03-21T09:35:12Z</time>
      </trkpt>
      <trkpt lat="45.56593" lon="6.78183">
        <ele>1838.97</ele>
        <time>2016-03-21T09:35:14Z</time>
      </trkpt>
      <trkpt lat="45.5661" lon="6.78169">
        <ele>1833.75</ele>
        <time>2016-03-21T09:35:16Z</time>
      </trkpt>
      <trkpt lat="45.56631" lon="6.78155">
        <ele>1831.62</ele>
        <time>2016-03-21T09:35:18Z</time>
      </trkpt>
      <trkpt lat="45.5665" lon="6.78147">
        <ele>1825.45</ele>
        <time>2016-03-21T09:35:20Z</time>
      </trkpt>
      <trkpt lat="45.5667" lon="6.78139">
        <ele>1822.97</ele>
        <time>2016-03-21T09:35:22Z</time>
      </trkpt>
      <trkpt lat="45.5669" lon="6.78132">
        <ele>1819.19</ele>
        <time>2016-03-21T09:35:24Z</time>
      </trkpt>
      <trkpt lat="45.56709" lon="6.78125">
        <ele>1817.76</ele>
        <time>2016-03-21T09:35:26Z</time>
      </trkpt>
      <trkpt lat="45.56728" lon="6.78119">
        <ele>1814.82</ele>
        <time>2016-03-21T09:35:28Z</time>
      </trkpt>
      <trkpt lat="45.56746" lon="6.78114">
        <ele>1812.62</ele>
        <time>2016-03-21T09:35:30Z</time>
      </trkpt>
      <trkpt lat="45.56765" lon="6.78109">
        <ele>1803.77</ele>
        <time>2016-03-21T09:35:48Z</time>
      </trkpt>
      <trkpt lat="45.56785" lon="6.78096">
        <ele>1801.74</ele>
        <time>2016-03-21T09:35:52Z</time>
      </trkpt>
      <trkpt lat="45.56807" lon="6.78079">
        <ele>1801.5</ele>
        <time>2016-03-21T09:35:55Z</time>
      </trkpt>
      <trkpt lat="45.56831" lon="6.78075">
        <ele>1796.99</ele>
        <time>2016-03-21T09:35:58Z</time>
      </trkpt>
      <trkpt lat="45.56849" lon="6.78077">
        <ele>1794.63</ele>
        <time>2016-03-21T09:36:00Z</time>
      </trkpt>
      <trkpt lat="45.56876" lon="6.78075">
        <ele>1788.04</ele>
        <time>2016-03-21T09:36:03Z</time>
      </trkpt>
      <trkpt lat="45.56895" lon="6.78079">
        <ele>1786.59</ele>
        <time>2016-03-21T09:36:05Z</time>
      </trkpt>
      <trkpt lat="45.56916" lon="6.78079">
        <ele>1785.57</ele>
        <time>2016-03-21T09:36:07Z</time>
      </trkpt>
      <trkpt lat="45.56934" lon="6.78078">
        <ele>1782.17</ele>
        <time>2016-03-21T09:36:09Z</time>
      </trkpt>
      <trkpt lat="45.56953" lon="6.78083">
        <ele>1779.8</ele>
        <time>2016-03-21T09:36:11Z</time>
      </trkpt>
      <trkpt lat="45.56971" lon="6.7809">
        <ele>1778.58</ele>
        <time>2016-03-21T09:36:13Z</time>
      </trkpt>
      <trkpt lat="45.56995" lon="6.78103">
        <ele>1777.57</ele>
        <time>2016-03-21T09:36:16Z</time>
      </trkpt>
      <trkpt lat="45.5701" lon="6.78117">
        <ele>1777.53</ele>
        <time>2016-03-21T09:36:52Z</time>
      </trkpt>
      <trkpt lat="45.57033" lon="6.78116">
        <ele>1771.99</ele>
        <time>2016-03-21T09:36:57Z</time>
      </trkpt>
      <trkpt lat="45.57052" lon="6.78128">
        <ele>1768.74</ele>
        <time>2016-03-21T09:37:01Z</time>
      </trkpt>
      <trkpt lat="45.57075" lon="6.78113">
        <ele>1757.15</ele>
        <time>2016-03-21T09:37:05Z</time>
      </trkpt>
      <trkpt lat="45.57098" lon="6.78101">
        <ele>1754.8</ele>
        <time>2016-03-21T09:37:07Z</time>
      </trkpt>
      <trkpt lat="45.57118" lon="6.78095">
        <ele>1751.02</ele>
        <time>2016-03-21T09:37:09Z</time>
      </trkpt>
      <trkpt lat="45.57129" lon="6.78064">
        <ele>1743.83</ele>
        <time>2016-03-21T09:37:13Z</time>
      </trkpt>
      <trkpt lat="45.57143" lon="6.78039">
        <ele>1739.54</ele>
        <time>2016-03-21T09:37:25Z</time>
      </trkpt>
      <trkpt lat="45.5716" lon="6.78023">
        <ele>1738.57</ele>
        <time>2016-03-21T09:37:28Z</time>
      </trkpt>
      <trkpt lat="45.57179" lon="6.7801">
        <ele>1734.98</ele>
        <time>2016-03-21T09:37:31Z</time>
      </trkpt>
      <trkpt lat="45.57198" lon="6.7799">
        <ele>1731.75</ele>
        <time>2016-03-21T09:37:34Z</time>
      </trkpt>
      <trkpt lat="45.57218" lon="6.77969">
        <ele>1727.79</ele>
        <time>2016-03-21T09:37:37Z</time>
      </trkpt>
      <trkpt lat="45.5723" lon="6.77951">
        <ele>1726.58</ele>
        <time>2016-03-21T09:37:39Z</time>
      </trkpt>
      <trkpt lat="45.57244" lon="6.77933">
        <ele>1725.57</ele>
        <time>2016-03-21T09:37:41Z</time>
      </trkpt>
      <trkpt lat="45.57234" lon="6.7791">
        <ele>1720.02</ele>
        <time>2016-03-21T09:37:45Z</time>
      </trkpt>
      <trkpt lat="45.57217" lon="6.77902">
        <ele>1716.54</ele>
        <time>2016-03-21T09:37:51Z</time>
      </trkpt>
      <trkpt lat="45.57199" lon="6.77895">
        <ele>1700.57</ele>
        <time>2016-03-21T09:39:53Z</time>
      </trkpt>
      <trkpt lat="45.57199" lon="6.77922">
        <ele>1702.33</ele>
        <time>2016-03-21T09:40:59Z</time>
      </trkpt>
      <trkpt lat="45.57196" lon="6.77948">
        <ele>1704.42</ele>
        <time>2016-03-21T09:41:04Z</time>
      </trkpt>
      <trkpt lat="45.57189" lon="6.77975">
        <ele>1715.95</ele>
        <time>2016-03-21T09:41:10Z</time>
      </trkpt>
      <trkpt lat="45.57186" lon="6.78002">
        <ele>1725.47</ele>
        <time>2016-03-21T09:41:16Z</time>
      </trkpt>
      <trkpt lat="45.5718" lon="6.78031">
        <ele>1731.28</ele>
        <time>2016-03-21T09:41:22Z</time>
      </trkpt>
      <trkpt lat="45.57175" lon="6.78056">
        <ele>1736.29</ele>
        <time>2016-03-21T09:41:27Z</time>
      </trkpt>
      <trkpt lat="45.57171" lon="6.78086">
        <ele>1743.28</ele>
        <time>2016-03-21T09:41:33Z</time>
      </trkpt>
      <trkpt lat="45.57167" lon="6.78115">
        <ele>1751.27</ele>
        <time>2016-03-21T09:41:39Z</time>
      </trkpt>
      <trkpt lat="45.57164" lon="6.78144">
        <ele>1758.09</ele>
        <time>2016-03-21T09:41:45Z</time>
      </trkpt>
      <trkpt lat="45.57158" lon="6.78174">
        <ele>1765.27</ele>
        <time>2016-03-21T09:41:51Z</time>
      </trkpt>
      <trkpt lat="45.57155" lon="6.782">
        <ele>1773.08</ele>
        <time>2016-03-21T09:41:57Z</time>
      </trkpt>
      <trkpt lat="45.5715" lon="6.78229">
        <ele>1779.28</ele>
        <time>2016-03-21T09:42:03Z</time>
      </trkpt>
      <trkpt lat="45.57147" lon="6.78259">
        <ele>1786.27</ele>
        <time>2016-03-21T09:42:09Z</time>
      </trkpt>
      <trkpt lat="45.57143" lon="6.78288">
        <ele>1791.29</ele>
        <time>2016-03-21T09:42:15Z</time>
      </trkpt>
      <trkpt lat="45.57138" lon="6.78317">
        <ele>1798.28</ele>
        <time>2016-03-21T09:42:21Z</time>
      </trkpt>
      <trkpt lat="45.57134" lon="6.78346">
        <ele>1801.53</ele>
        <time>2016-03-21T09:42:27Z</time>
      </trkpt>
      <trkpt lat="45.5713" lon="6.78375">
        <ele>1804.52</ele>
        <time>2016-03-21T09:42:33Z</time>
      </trkpt>
      <trkpt lat="45.57127" lon="6.78404">
        <ele>1806.33</ele>
        <time>2016-03-21T09:42:39Z</time>
      </trkpt>
      <trkpt lat="45.57123" lon="6.78434">
        <ele>1806.53</ele>
        <time>2016-03-21T09:42:45Z</time>
      </trkpt>
      <trkpt lat="45.57118" lon="6.78463">
        <ele>1809.29</ele>
        <time>2016-03-21T09:42:51Z</time>
      </trkpt>
      <trkpt lat="45.57112" lon="6.78493">
        <ele>1815.32</ele>
        <time>2016-03-21T09:42:57Z</time>
      </trkpt>
      <trkpt lat="45.57107" lon="6.78521">
        <ele>1820.28</ele>
        <time>2016-03-21T09:43:03Z</time>
      </trkpt>
      <trkpt lat="45.57102" lon="6.78546">
        <ele>1821.53</ele>
        <time>2016-03-21T09:43:08Z</time>
      </trkpt>
      <trkpt lat="45.57098" lon="6.78572">
        <ele>1820.53</ele>
        <time>2016-03-21T09:43:13Z</time>
      </trkpt>
      <trkpt lat="45.57094" lon="6.78601">
        <ele>1822.33</ele>
        <time>2016-03-21T09:43:19Z</time>
      </trkpt>
      <trkpt lat="45.57088" lon="6.78626">
        <ele>1821.53</ele>
        <time>2016-03-21T09:43:26Z</time>
      </trkpt>
      <trkpt lat="45.57099" lon="6.78647">
        <ele>1826.52</ele>
        <time>2016-03-21T09:45:05Z</time>
      </trkpt>
      <trkpt lat="45.57116" lon="6.78656">
        <ele>1824.34</ele>
        <time>2016-03-21T09:45:15Z</time>
      </trkpt>
      <trkpt lat="45.57137" lon="6.7865">
        <ele>1823.5</ele>
        <time>2016-03-21T09:45:22Z</time>
      </trkpt>
      <trkpt lat="45.57155" lon="6.78654">
        <ele>1822.53</ele>
        <time>2016-03-21T09:45:26Z</time>
      </trkpt>
      <trkpt lat="45.57174" lon="6.78649">
        <ele>1821.34</ele>
        <time>2016-03-21T09:45:31Z</time>
      </trkpt>
      <trkpt lat="45.57193" lon="6.78647">
        <ele>1820.53</ele>
        <time>2016-03-21T09:45:39Z</time>
      </trkpt>
      <trkpt lat="45.57208" lon="6.78621">
        <ele>1818.57</ele>
        <time>2016-03-21T09:45:52Z</time>
      </trkpt>
      <trkpt lat="45.5722" lon="6.78594">
        <ele>1817.57</ele>
        <time>2016-03-21T09:45:55Z</time>
      </trkpt>
      <trkpt lat="45.57233" lon="6.78566">
        <ele>1814.97</ele>
        <time>2016-03-21T09:45:58Z</time>
      </trkpt>
      <trkpt lat="45.5724" lon="6.78535">
        <ele>1813.54</ele>
        <time>2016-03-21T09:46:01Z</time>
      </trkpt>
      <trkpt lat="45.5725" lon="6.7851">
        <ele>1812.57</ele>
        <time>2016-03-21T09:46:03Z</time>
      </trkpt>
      <trkpt lat="45.57261" lon="6.7849">
        <ele>1810.77</ele>
        <time>2016-03-21T09:46:05Z</time>
      </trkpt>
      <trkpt lat="45.57271" lon="6.78467">
        <ele>1807.18</ele>
        <time>2016-03-21T09:46:07Z</time>
      </trkpt>
      <trkpt lat="45.5728" lon="6.78443">
        <ele>1803.84</ele>
        <time>2016-03-21T09:46:09Z</time>
      </trkpt>
      <trkpt lat="45.57273" lon="6.78417">
        <ele>1801.54</ele>
        <time>2016-03-21T09:46:13Z</time>
      </trkpt>
      <trkpt lat="45.57262" lon="6.78396">
        <ele>1799.53</ele>
        <time>2016-03-21T09:46:28Z</time>
      </trkpt>
      <trkpt lat="45.57248" lon="6.78413">
        <ele>1788.64</ele>
        <time>2016-03-21T09:47:40Z</time>
      </trkpt>
      <trkpt lat="45.57246" lon="6.78445">
        <ele>1788.34</ele>
        <time>2016-03-21T09:47:45Z</time>
      </trkpt>
      <trkpt lat="45.57246" lon="6.78475">
        <ele>1790.32</ele>
        <time>2016-03-21T09:47:50Z</time>
      </trkpt>
      <trkpt lat="45.57245" lon="6.78505">
        <ele>1788.74</ele>
        <time>2016-03-21T09:47:55Z</time>
      </trkpt>
      <trkpt lat="45.57243" lon="6.78533">
        <ele>1788.57</ele>
        <time>2016-03-21T09:48:00Z</time>
      </trkpt>
      <trkpt lat="45.57242" lon="6.78561">
        <ele>1787.73</ele>
        <time>2016-03-21T09:48:05Z</time>
      </trkpt>
      <trkpt lat="45.57238" lon="6.78588">
        <ele>1792.13</ele>
        <time>2016-03-21T09:48:10Z</time>
      </trkpt>
      <trkpt lat="45.57237" lon="6.78617">
        <ele>1791.7</ele>
        <time>2016-03-21T09:48:15Z</time>
      </trkpt>
      <trkpt lat="45.57234" lon="6.78645">
        <ele>1795.44</ele>
        <time>2016-03-21T09:48:20Z</time>
      </trkpt>
      <trkpt lat="45.57231" lon="6.78672">
        <ele>1805.07</ele>
        <time>2016-03-21T09:48:25Z</time>
      </trkpt>
      <trkpt lat="45.57228" lon="6.787">
        <ele>1809.28</ele>
        <time>2016-03-21T09:48:30Z</time>
      </trkpt>
      <trkpt lat="45.57223" lon="6.78729">
        <ele>1813.33</ele>
        <time>2016-03-21T09:48:35Z</time>
      </trkpt>
      <trkpt lat="45.57219" lon="6.78756">
        <ele>1816.46</ele>
        <time>2016-03-21T09:48:40Z</time>
      </trkpt>
      <trkpt lat="45.57215" lon="6.78784">
        <ele>1822.29</ele>
        <time>2016-03-21T09:48:45Z</time>
      </trkpt>
      <trkpt lat="45.57211" lon="6.78812">
        <ele>1827.28</ele>
        <time>2016-03-21T09:48:50Z</time>
      </trkpt>
      <trkpt lat="45.57208" lon="6.78839">
        <ele>1830.93</ele>
        <time>2016-03-21T09:48:55Z</time>
      </trkpt>
      <trkpt lat="45.57205" lon="6.78867">
        <ele>1836.4</ele>
        <time>2016-03-21T09:49:00Z</time>
      </trkpt>
      <trkpt lat="45.57202" lon="6.78894">
        <ele>1838.48</ele>
        <time>2016-03-21T09:49:05Z</time>
      </trkpt>
      <trkpt lat="45.57198" lon="6.78923">
        <ele>1845.89</ele>
        <time>2016-03-21T09:49:10Z</time>
      </trkpt>
      <trkpt lat="45.57195" lon="6.78951">
        <ele>1848.29</ele>
        <time>2016-03-21T09:49:15Z</time>
      </trkpt>
      <trkpt lat="45.57192" lon="6.78979">
        <ele>1851.2</ele>
        <time>2016-03-21T09:49:20Z</time>
      </trkpt>
      <trkpt lat="45.57189" lon="6.79006">
        <ele>1857.24</ele>
        <time>2016-03-21T09:49:25Z</time>
      </trkpt>
      <trkpt lat="45.57186" lon="6.79033">
        <ele>1858.53</ele>
        <time>2016-03-21T09:49:30Z</time>
      </trkpt>
      <trkpt lat="45.57183" lon="6.79061">
        <ele>1863.89</ele>
        <time>2016-03-21T09:49:35Z</time>
      </trkpt>
      <trkpt lat="45.57179" lon="6.79089">
        <ele>1874.04</ele>
        <time>2016-03-21T09:49:40Z</time>
      </trkpt>
      <trkpt lat="45.57177" lon="6.79116">
        <ele>1881.84</ele>
        <time>2016-03-21T09:49:45Z</time>
      </trkpt>
      <trkpt lat="45.57173" lon="6.79143">
        <ele>1890.07</ele>
        <time>2016-03-21T09:49:50Z</time>
      </trkpt>
      <trkpt lat="45.57171" lon="6.7917">
        <ele>1896.28</ele>
        <time>2016-03-21T09:49:55Z</time>
      </trkpt>
      <trkpt lat="45.57169" lon="6.79196">
        <ele>1904.87</ele>
        <time>2016-03-21T09:50:00Z</time>
      </trkpt>
      <trkpt lat="45.57164" lon="6.79223">
        <ele>1911.72</ele>
        <time>2016-03-21T09:50:05Z</time>
      </trkpt>
      <trkpt lat="45.57163" lon="6.7925">
        <ele>1920.03</ele>
        <time>2016-03-21T09:50:10Z</time>
      </trkpt>
      <trkpt lat="45.57159" lon="6.79278">
        <ele>1927.28</ele>
        <time>2016-03-21T09:50:15Z</time>
      </trkpt>
      <trkpt lat="45.57158" lon="6.79307">
        <ele>1938.22</ele>
        <time>2016-03-21T09:50:21Z</time>
      </trkpt>
      <trkpt lat="45.57153" lon="6.79335">
        <ele>1952.46</ele>
        <time>2016-03-21T09:50:27Z</time>
      </trkpt>
      <trkpt lat="45.57153" lon="6.79361">
        <ele>1962.08</ele>
        <time>2016-03-21T09:50:32Z</time>
      </trkpt>
      <trkpt lat="45.57148" lon="6.79387">
        <ele>1971.02</ele>
        <time>2016-03-21T09:50:37Z</time>
      </trkpt>
      <trkpt lat="45.57146" lon="6.79414">
        <ele>1980.08</ele>
        <time>2016-03-21T09:50:42Z</time>
      </trkpt>
      <trkpt lat="45.57139" lon="6.79442">
        <ele>1994.82</ele>
        <time>2016-03-21T09:50:47Z</time>
      </trkpt>
      <trkpt lat="45.57136" lon="6.79472">
        <ele>2005.03</ele>
        <time>2016-03-21T09:50:53Z</time>
      </trkpt>
      <trkpt lat="45.57134" lon="6.79499">
        <ele>2011.04</ele>
        <time>2016-03-21T09:50:58Z</time>
      </trkpt>
      <trkpt lat="45.57131" lon="6.79528">
        <ele>2017.92</ele>
        <time>2016-03-21T09:51:03Z</time>
      </trkpt>
      <trkpt lat="45.57126" lon="6.79554">
        <ele>2031.2</ele>
        <time>2016-03-21T09:51:09Z</time>
      </trkpt>
      <trkpt lat="45.57123" lon="6.79584">
        <ele>2048.61</ele>
        <time>2016-03-21T09:51:15Z</time>
      </trkpt>
      <trkpt lat="45.57118" lon="6.7961">
        <ele>2061.22</ele>
        <time>2016-03-21T09:51:20Z</time>
      </trkpt>
      <trkpt lat="45.57117" lon="6.79637">
        <ele>2069.23</ele>
        <time>2016-03-21T09:51:25Z</time>
      </trkpt>
      <trkpt lat="45.57114" lon="6.79663">
        <ele>2074.28</ele>
        <time>2016-03-21T09:51:30Z</time>
      </trkpt>
      <trkpt lat="45.57111" lon="6.79689">
        <ele>2079.48</ele>
        <time>2016-03-21T09:51:35Z</time>
      </trkpt>
      <trkpt lat="45.57107" lon="6.79718">
        <ele>2082.3</ele>
        <time>2016-03-21T09:51:40Z</time>
      </trkpt>
      <trkpt lat="45.57104" lon="6.79745">
        <ele>2085.32</ele>
        <time>2016-03-21T09:51:45Z</time>
      </trkpt>
      <trkpt lat="45.571" lon="6.79774">
        <ele>2093.08</ele>
        <time>2016-03-21T09:51:50Z</time>
      </trkpt>
      <trkpt lat="45.57097" lon="6.79801">
        <ele>2101.23</ele>
        <time>2016-03-21T09:51:55Z</time>
      </trkpt>
      <trkpt lat="45.57094" lon="6.79828">
        <ele>2109.07</ele>
        <time>2016-03-21T09:52:00Z</time>
      </trkpt>
      <trkpt lat="45.5709" lon="6.79855">
        <ele>2116.08</ele>
        <time>2016-03-21T09:52:05Z</time>
      </trkpt>
      <trkpt lat="45.57086" lon="6.79882">
        <ele>2126.03</ele>
        <time>2016-03-21T09:52:10Z</time>
      </trkpt>
      <trkpt lat="45.57083" lon="6.79908">
        <ele>2136.03</ele>
        <time>2016-03-21T09:52:15Z</time>
      </trkpt>
      <trkpt lat="45.5708" lon="6.79934">
        <ele>2144.88</ele>
        <time>2016-03-21T09:52:20Z</time>
      </trkpt>
      <trkpt lat="45.57078" lon="6.79961">
        <ele>2153.23</ele>
        <time>2016-03-21T09:52:25Z</time>
      </trkpt>
      <trkpt lat="45.57074" lon="6.79986">
        <ele>2164.23</ele>
        <time>2016-03-21T09:52:30Z</time>
      </trkpt>
      <trkpt lat="45.5707" lon="6.80013">
        <ele>2174.99</ele>
        <time>2016-03-21T09:52:35Z</time>
      </trkpt>
      <trkpt lat="45.57067" lon="6.80039">
        <ele>2183.28</ele>
        <time>2016-03-21T09:52:40Z</time>
      </trkpt>
      <trkpt lat="45.57064" lon="6.80066">
        <ele>2192.23</ele>
        <time>2016-03-21T09:52:45Z</time>
      </trkpt>
      <trkpt lat="45.57061" lon="6.80092">
        <ele>2201.03</ele>
        <time>2016-03-21T09:52:50Z</time>
      </trkpt>
      <trkpt lat="45.57058" lon="6.80118">
        <ele>2210.99</ele>
        <time>2016-03-21T09:52:55Z</time>
      </trkpt>
      <trkpt lat="45.57055" lon="6.80149">
        <ele>2220.23</ele>
        <time>2016-03-21T09:53:01Z</time>
      </trkpt>
      <trkpt lat="45.57052" lon="6.80175">
        <ele>2228.87</ele>
        <time>2016-03-21T09:53:06Z</time>
      </trkpt>
      <trkpt lat="45.57049" lon="6.80202">
        <ele>2233.51</ele>
        <time>2016-03-21T09:53:11Z</time>
      </trkpt>
      <trkpt lat="45.57045" lon="6.80229">
        <ele>2241.24</ele>
        <time>2016-03-21T09:53:16Z</time>
      </trkpt>
      <trkpt lat="45.57042" lon="6.80256">
        <ele>2246.28</ele>
        <time>2016-03-21T09:53:21Z</time>
      </trkpt>
      <trkpt lat="45.57038" lon="6.80285">
        <ele>2248.53</ele>
        <time>2016-03-21T09:53:26Z</time>
      </trkpt>
      <trkpt lat="45.57036" lon="6.80312">
        <ele>2247.89</ele>
        <time>2016-03-21T09:53:31Z</time>
      </trkpt>
      <trkpt lat="45.57032" lon="6.80341">
        <ele>2246.53</ele>
        <time>2016-03-21T09:53:36Z</time>
      </trkpt>
      <trkpt lat="45.57029" lon="6.80369">
        <ele>2246.33</ele>
        <time>2016-03-21T09:53:41Z</time>
      </trkpt>
      <trkpt lat="45.57025" lon="6.80398">
        <ele>2247.72</ele>
        <time>2016-03-21T09:53:46Z</time>
      </trkpt>
      <trkpt lat="45.57023" lon="6.80425">
        <ele>2248.49</ele>
        <time>2016-03-21T09:53:51Z</time>
      </trkpt>
      <trkpt lat="45.57021" lon="6.80453">
        <ele>2249.3</ele>
        <time>2016-03-21T09:53:56Z</time>
      </trkpt>
      <trkpt lat="45.57016" lon="6.80482">
        <ele>2252.44</ele>
        <time>2016-03-21T09:54:01Z</time>
      </trkpt>
      <trkpt lat="45.57015" lon="6.80511">
        <ele>2255.31</ele>
        <time>2016-03-21T09:54:06Z</time>
      </trkpt>
      <trkpt lat="45.57013" lon="6.80541">
        <ele>2259.29</ele>
        <time>2016-03-21T09:54:11Z</time>
      </trkpt>
      <trkpt lat="45.57012" lon="6.80571">
        <ele>2263.29</ele>
        <time>2016-03-21T09:54:16Z</time>
      </trkpt>
      <trkpt lat="45.5701" lon="6.806">
        <ele>2269.24</ele>
        <time>2016-03-21T09:54:21Z</time>
      </trkpt>
      <trkpt lat="45.57008" lon="6.80628">
        <ele>2276.24</ele>
        <time>2016-03-21T09:54:26Z</time>
      </trkpt>
      <trkpt lat="45.57011" lon="6.80657">
        <ele>2285.03</ele>
        <time>2016-03-21T09:54:32Z</time>
      </trkpt>
      <trkpt lat="45.57015" lon="6.80687">
        <ele>2292.04</ele>
        <time>2016-03-21T09:54:38Z</time>
      </trkpt>
      <trkpt lat="45.57011" lon="6.80714">
        <ele>2309.01</ele>
        <time>2016-03-21T09:54:44Z</time>
      </trkpt>
      <trkpt lat="45.57011" lon="6.80741">
        <ele>2322.98</ele>
        <time>2016-03-21T09:54:50Z</time>
      </trkpt>
      <trkpt lat="45.57003" lon="6.80767">
        <ele>2343.97</ele>
        <time>2016-03-21T09:54:56Z</time>
      </trkpt>
      <trkpt lat="45.56996" lon="6.80792">
        <ele>2353.25</ele>
        <time>2016-03-21T09:55:01Z</time>
      </trkpt>
      <trkpt lat="45.56986" lon="6.80815">
        <ele>2367.01</ele>
        <time>2016-03-21T09:55:10Z</time>
      </trkpt>
      <trkpt lat="45.56971" lon="6.8083">
        <ele>2382.36</ele>
        <time>2016-03-21T09:57:25Z</time>
      </trkpt>
      <trkpt lat="45.56953" lon="6.80828">
        <ele>2381.54</ele>
        <time>2016-03-21T09:57:35Z</time>
      </trkpt>
      <trkpt lat="45.56934" lon="6.80826">
        <ele>2380.73</ele>
        <time>2016-03-21T09:57:42Z</time>
      </trkpt>
      <trkpt lat="45.56914" lon="6.80833">
        <ele>2383.32</ele>
        <time>2016-03-21T09:57:46Z</time>
      </trkpt>
      <trkpt lat="45.56899" lon="6.80853">
        <ele>2381.54</ele>
        <time>2016-03-21T09:57:50Z</time>
      </trkpt>
      <trkpt lat="45.56893" lon="6.80879">
        <ele>2378.58</ele>
        <time>2016-03-21T09:57:54Z</time>
      </trkpt>
      <trkpt lat="45.5689" lon="6.80905">
        <ele>2366.69</ele>
        <time>2016-03-21T09:58:16Z</time>
      </trkpt>
      <trkpt lat="45.56905" lon="6.80934">
        <ele>2366.53</ele>
        <time>2016-03-21T09:58:53Z</time>
      </trkpt>
      <trkpt lat="45.56901" lon="6.80959">
        <ele>2365.39</ele>
        <time>2016-03-21T09:58:57Z</time>
      </trkpt>
      <trkpt lat="45.56877" lon="6.80967">
        <ele>2362.97</ele>
        <time>2016-03-21T09:58:59Z</time>
      </trkpt>
      <trkpt lat="45.56856" lon="6.80972">
        <ele>2360.15</ele>
        <time>2016-03-21T09:59:01Z</time>
      </trkpt>
      <trkpt lat="45.56838" lon="6.80986">
        <ele>2358.6</ele>
        <time>2016-03-21T09:59:03Z</time>
      </trkpt>
      <trkpt lat="45.56817" lon="6.80997">
        <ele>2356.93</ele>
        <time>2016-03-21T09:59:05Z</time>
      </trkpt>
      <trkpt lat="45.56798" lon="6.81013">
        <ele>2352.07</ele>
        <time>2016-03-21T09:59:07Z</time>
      </trkpt>
      <trkpt lat="45.56777" lon="6.81022">
        <ele>2349.79</ele>
        <time>2016-03-21T09:59:09Z</time>
      </trkpt>
      <trkpt lat="45.56755" lon="6.81034">
        <ele>2346.82</ele>
        <time>2016-03-21T09:59:11Z</time>
      </trkpt>
      <trkpt lat="45.56733" lon="6.81041">
        <ele>2344.78</ele>
        <time>2016-03-21T09:59:13Z</time>
      </trkpt>
      <trkpt lat="45.56709" lon="6.81048">
        <ele>2341.82</ele>
        <time>2016-03-21T09:59:15Z</time>
      </trkpt>
      <trkpt lat="45.56687" lon="6.81052">
        <ele>2340.74</ele>
        <time>2016-03-21T09:59:17Z</time>
      </trkpt>
      <trkpt lat="45.56661" lon="6.81058">
        <ele>2339.58</ele>
        <time>2016-03-21T09:59:19Z</time>
      </trkpt>
      <trkpt lat="45.56635" lon="6.81069">
        <ele>2339.53</ele>
        <time>2016-03-21T09:59:21Z</time>
      </trkpt>
      <trkpt lat="45.56606" lon="6.8108">
        <ele>2337.93</ele>
        <time>2016-03-21T09:59:23Z</time>
      </trkpt>
      <trkpt lat="45.56581" lon="6.81087">
        <ele>2336.75</ele>
        <time>2016-03-21T09:59:25Z</time>
      </trkpt>
      <trkpt lat="45.56559" lon="6.81097">
        <ele>2332.98</ele>
        <time>2016-03-21T09:59:28Z</time>
      </trkpt>
      <trkpt lat="45.56561" lon="6.81131">
        <ele>2322.09</ele>
        <time>2016-03-21T09:59:32Z</time>
      </trkpt>
      <trkpt lat="45.5658" lon="6.81142">
        <ele>2305.95</ele>
        <time>2016-03-21T09:59:35Z</time>
      </trkpt>
      <trkpt lat="45.56593" lon="6.81161">
        <ele>2301.79</ele>
        <time>2016-03-21T09:59:38Z</time>
      </trkpt>
      <trkpt lat="45.56608" lon="6.81182">
        <ele>2296.99</ele>
        <time>2016-03-21T09:59:41Z</time>
      </trkpt>
      <trkpt lat="45.56629" lon="6.81185">
        <ele>2277.95</ele>
        <time>2016-03-21T09:59:47Z</time>
      </trkpt>
      <trkpt lat="45.56644" lon="6.81203">
        <ele>2265.21</ele>
        <time>2016-03-21T10:00:01Z</time>
      </trkpt>
      <trkpt lat="45.56658" lon="6.81221">
        <ele>2255.04</ele>
        <time>2016-03-21T10:00:07Z</time>
      </trkpt>
      <trkpt lat="45.56665" lon="6.81246">
        <ele>2247.78</ele>
        <time>2016-03-21T10:00:12Z</time>
      </trkpt>
      <trkpt lat="45.56669" lon="6.81275">
        <ele>2245.41</ele>
        <time>2016-03-21T10:00:16Z</time>
      </trkpt>
      <trkpt lat="45.56685" lon="6.81288">
        <ele>2241.58</ele>
        <time>2016-03-21T10:00:20Z</time>
      </trkpt>
      <trkpt lat="45.56703" lon="6.81294">
        <ele>2234.13</ele>
        <time>2016-03-21T10:00:25Z</time>
      </trkpt>
      <trkpt lat="45.56721" lon="6.81306">
        <ele>2230.55</ele>
        <time>2016-03-21T10:00:29Z</time>
      </trkpt>
      <trkpt lat="45.56739" lon="6.81319">
        <ele>2227.13</ele>
        <time>2016-03-21T10:00:33Z</time>
      </trkpt>
      <trkpt lat="45.56756" lon="6.81329">
        <ele>2224.58</ele>
        <time>2016-03-21T10:00:37Z</time>
      </trkpt>
      <trkpt lat="45.56764" lon="6.81357">
        <ele>2210.82</ele>
        <time>2016-03-21T10:00:44Z</time>
      </trkpt>
      <trkpt lat="45.56782" lon="6.81378">
        <ele>2205.83</ele>
        <time>2016-03-21T10:00:48Z</time>
      </trkpt>
      <trkpt lat="45.56797" lon="6.81405">
        <ele>2201.78</ele>
        <time>2016-03-21T10:00:52Z</time>
      </trkpt>
      <trkpt lat="45.5681" lon="6.81425">
        <ele>2198.74</ele>
        <time>2016-03-21T10:00:56Z</time>
      </trkpt>
      <trkpt lat="45.56817" lon="6.81454">
        <ele>2197.57</ele>
        <time>2016-03-21T10:00:59Z</time>
      </trkpt>
      <trkpt lat="45.5683" lon="6.81473">
        <ele>2193.02</ele>
        <time>2016-03-21T10:01:02Z</time>
      </trkpt>
      <trkpt lat="45.56817" lon="6.81496">
        <ele>2175.01</ele>
        <time>2016-03-21T10:01:07Z</time>
      </trkpt>
      <trkpt lat="45.56836" lon="6.81511">
        <ele>2161.7</ele>
        <time>2016-03-21T10:01:29Z</time>
      </trkpt>
      <trkpt lat="45.56846" lon="6.8155">
        <ele>2159.74</ele>
        <time>2016-03-21T10:01:32Z</time>
      </trkpt>
      <trkpt lat="45.56853" lon="6.81579">
        <ele>2157.78</ele>
        <time>2016-03-21T10:01:34Z</time>
      </trkpt>
      <trkpt lat="45.56859" lon="6.81607">
        <ele>2155.94</ele>
        <time>2016-03-21T10:01:36Z</time>
      </trkpt>
      <trkpt lat="45.56874" lon="6.8164">
        <ele>2153.74</ele>
        <time>2016-03-21T10:01:39Z</time>
      </trkpt>
      <trkpt lat="45.5689" lon="6.81665">
        <ele>2152.57</ele>
        <time>2016-03-21T10:01:42Z</time>
      </trkpt>
      <trkpt lat="45.56901" lon="6.81693">
        <ele>2145.17</ele>
        <time>2016-03-21T10:01:45Z</time>
      </trkpt>
      <trkpt lat="45.56918" lon="6.81719">
        <ele>2140.89</ele>
        <time>2016-03-21T10:01:48Z</time>
      </trkpt>
      <trkpt lat="45.56928" lon="6.81742">
        <ele>2137.83</ele>
        <time>2016-03-21T10:01:50Z</time>
      </trkpt>
      <trkpt lat="45.56933" lon="6.81774">
        <ele>2134.98</ele>
        <time>2016-03-21T10:01:52Z</time>
      </trkpt>
      <trkpt lat="45.56943" lon="6.818">
        <ele>2132.79</ele>
        <time>2016-03-21T10:01:54Z</time>
      </trkpt>
      <trkpt lat="45.56951" lon="6.81826">
        <ele>2130.14</ele>
        <time>2016-03-21T10:01:56Z</time>
      </trkpt>
      <trkpt lat="45.56963" lon="6.8186">
        <ele>2128.74</ele>
        <time>2016-03-21T10:01:59Z</time>
      </trkpt>
      <trkpt lat="45.56965" lon="6.81898">
        <ele>2116.98</ele>
        <time>2016-03-21T10:02:03Z</time>
      </trkpt>
      <trkpt lat="45.56966" lon="6.81934">
        <ele>2113.99</ele>
        <time>2016-03-21T10:02:05Z</time>
      </trkpt>
      <trkpt lat="45.56969" lon="6.81964">
        <ele>2111.79</ele>
        <time>2016-03-21T10:02:07Z</time>
      </trkpt>
      <trkpt lat="45.56973" lon="6.8199">
        <ele>2111.54</ele>
        <time>2016-03-21T10:02:09Z</time>
      </trkpt>
      <trkpt lat="45.56974" lon="6.82023">
        <ele>2110.57</ele>
        <time>2016-03-21T10:02:11Z</time>
      </trkpt>
      <trkpt lat="45.56979" lon="6.82056">
        <ele>2110.53</ele>
        <time>2016-03-21T10:02:13Z</time>
      </trkpt>
      <trkpt lat="45.56987" lon="6.82088">
        <ele>2109.73</ele>
        <time>2016-03-21T10:02:15Z</time>
      </trkpt>
      <trkpt lat="45.56993" lon="6.82124">
        <ele>2110.34</ele>
        <time>2016-03-21T10:02:17Z</time>
      </trkpt>
      <trkpt lat="45.57002" lon="6.82161">
        <ele>2109.56</ele>
        <time>2016-03-21T10:02:19Z</time>
      </trkpt>
      <trkpt lat="45.57017" lon="6.82187">
        <ele>2108.57</ele>
        <time>2016-03-21T10:02:21Z</time>
      </trkpt>
      <trkpt lat="45.57035" lon="6.82208">
        <ele>2106.77</ele>
        <time>2016-03-21T10:02:23Z</time>
      </trkpt>
      <trkpt lat="45.57057" lon="6.82222">
        <ele>2102.22</ele>
        <time>2016-03-21T10:02:25Z</time>
      </trkpt>
      <trkpt lat="45.57079" lon="6.82233">
        <ele>2097.88</ele>
        <time>2016-03-21T10:02:27Z</time>
      </trkpt>
      <trkpt lat="45.57098" lon="6.82231">
        <ele>2084.99</ele>
        <time>2016-03-21T10:02:30Z</time>
      </trkpt>
      <trkpt lat="45.57121" lon="6.82246">
        <ele>2081.78</ele>
        <time>2016-03-21T10:02:33Z</time>
      </trkpt>
      <trkpt lat="45.57138" lon="6.8227">
        <ele>2079.77</ele>
        <time>2016-03-21T10:02:36Z</time>
      </trkpt>
      <trkpt lat="45.5716" lon="6.8229">
        <ele>2076.84</ele>
        <time>2016-03-21T10:02:39Z</time>
      </trkpt>
      <trkpt lat="45.57184" lon="6.82296">
        <ele>2068.34</ele>
        <time>2016-03-21T10:02:42Z</time>
      </trkpt>
      <trkpt lat="45.57207" lon="6.82303">
        <ele>2064.18</ele>
        <time>2016-03-21T10:02:45Z</time>
      </trkpt>
      <trkpt lat="45.57232" lon="6.82302">
        <ele>2058.77</ele>
        <time>2016-03-21T10:02:48Z</time>
      </trkpt>
      <trkpt lat="45.57254" lon="6.82319">
        <ele>2055.94</ele>
        <time>2016-03-21T10:02:51Z</time>
      </trkpt>
      <trkpt lat="45.57272" lon="6.82339">
        <ele>2048.82</ele>
        <time>2016-03-21T10:02:55Z</time>
      </trkpt>
      <trkpt lat="45.57281" lon="6.82373">
        <ele>2044.85</ele>
        <time>2016-03-21T10:02:58Z</time>
      </trkpt>
      <trkpt lat="45.57285" lon="6.824">
        <ele>2039.41</ele>
        <time>2016-03-21T10:03:01Z</time>
      </trkpt>
      <trkpt lat="45.57285" lon="6.82427">
        <ele>2034.98</ele>
        <time>2016-03-21T10:03:05Z</time>
      </trkpt>
      <trkpt lat="45.57296" lon="6.82451">
        <ele>2020.56</ele>
        <time>2016-03-21T10:03:45Z</time>
      </trkpt>
      <trkpt lat="45.57305" lon="6.82476">
        <ele>2021.34</ele>
        <time>2016-03-21T10:03:56Z</time>
      </trkpt>
      <trkpt lat="45.57324" lon="6.82474">
        <ele>2016.58</ele>
        <time>2016-03-21T10:04:14Z</time>
      </trkpt>
      <trkpt lat="45.57344" lon="6.82452">
        <ele>2012</ele>
        <time>2016-03-21T10:04:20Z</time>
      </trkpt>
      <trkpt lat="45.5737" lon="6.82462">
        <ele>2010.7</ele>
        <time>2016-03-21T10:04:23Z</time>
      </trkpt>
      <trkpt lat="45.57395" lon="6.82463">
        <ele>2008.62</ele>
        <time>2016-03-21T10:04:25Z</time>
      </trkpt>
      <trkpt lat="45.57415" lon="6.82472">
        <ele>2005.01</ele>
        <time>2016-03-21T10:04:27Z</time>
      </trkpt>
      <trkpt lat="45.57435" lon="6.82482">
        <ele>2001.03</ele>
        <time>2016-03-21T10:04:29Z</time>
      </trkpt>
      <trkpt lat="45.57452" lon="6.82495">
        <ele>1998.79</ele>
        <time>2016-03-21T10:04:31Z</time>
      </trkpt>
      <trkpt lat="45.57469" lon="6.82511">
        <ele>1996.62</ele>
        <time>2016-03-21T10:04:33Z</time>
      </trkpt>
      <trkpt lat="45.57487" lon="6.82532">
        <ele>1994.13</ele>
        <time>2016-03-21T10:04:35Z</time>
      </trkpt>
      <trkpt lat="45.57505" lon="6.82545">
        <ele>1990.2</ele>
        <time>2016-03-21T10:04:37Z</time>
      </trkpt>
      <trkpt lat="45.5752" lon="6.82565">
        <ele>1988.76</ele>
        <time>2016-03-21T10:04:39Z</time>
      </trkpt>
      <trkpt lat="45.57536" lon="6.82597">
        <ele>1985.75</ele>
        <time>2016-03-21T10:04:42Z</time>
      </trkpt>
      <trkpt lat="45.57548" lon="6.82621">
        <ele>1983.94</ele>
        <time>2016-03-21T10:04:44Z</time>
      </trkpt>
      <trkpt lat="45.57562" lon="6.82642">
        <ele>1980.67</ele>
        <time>2016-03-21T10:04:46Z</time>
      </trkpt>
      <trkpt lat="45.57578" lon="6.8267">
        <ele>1978.14</ele>
        <time>2016-03-21T10:04:48Z</time>
      </trkpt>
      <trkpt lat="45.57591" lon="6.82698">
        <ele>1973.24</ele>
        <time>2016-03-21T10:04:50Z</time>
      </trkpt>
      <trkpt lat="45.57608" lon="6.8272">
        <ele>1969.2</ele>
        <time>2016-03-21T10:04:52Z</time>
      </trkpt>
      <trkpt lat="45.57619" lon="6.82741">
        <ele>1966.16</ele>
        <time>2016-03-21T10:04:54Z</time>
      </trkpt>
      <trkpt lat="45.57636" lon="6.82771">
        <ele>1957.73</ele>
        <time>2016-03-21T10:04:57Z</time>
      </trkpt>
      <trkpt lat="45.57653" lon="6.82793">
        <ele>1951.46</ele>
        <time>2016-03-21T10:04:59Z</time>
      </trkpt>
      <trkpt lat="45.57672" lon="6.82812">
        <ele>1947.85</ele>
        <time>2016-03-21T10:05:01Z</time>
      </trkpt>
      <trkpt lat="45.5769" lon="6.82833">
        <ele>1943.22</ele>
        <time>2016-03-21T10:05:03Z</time>
      </trkpt>
      <trkpt lat="45.5771" lon="6.82855">
        <ele>1938.88</ele>
        <time>2016-03-21T10:05:05Z</time>
      </trkpt>
      <trkpt lat="45.5773" lon="6.82875">
        <ele>1936.78</ele>
        <time>2016-03-21T10:05:07Z</time>
      </trkpt>
      <trkpt lat="45.57748" lon="6.82895">
        <ele>1934.78</ele>
        <time>2016-03-21T10:05:09Z</time>
      </trkpt>
      <trkpt lat="45.5777" lon="6.82913">
        <ele>1929.9</ele>
        <time>2016-03-21T10:05:11Z</time>
      </trkpt>
      <trkpt lat="45.57793" lon="6.82934">
        <ele>1929.71</ele>
        <time>2016-03-21T10:05:13Z</time>
      </trkpt>
      <trkpt lat="45.57814" lon="6.82951">
        <ele>1927.78</ele>
        <time>2016-03-21T10:05:15Z</time>
      </trkpt>
      <trkpt lat="45.57838" lon="6.82968">
        <ele>1924.82</ele>
        <time>2016-03-21T10:05:17Z</time>
      </trkpt>
      <trkpt lat="45.5786" lon="6.82993">
        <ele>1920.38</ele>
        <time>2016-03-21T10:05:19Z</time>
      </trkpt>
      <trkpt lat="45.57885" lon="6.83017">
        <ele>1918.13</ele>
        <time>2016-03-21T10:05:21Z</time>
      </trkpt>
      <trkpt lat="45.57905" lon="6.83033">
        <ele>1915.15</ele>
        <time>2016-03-21T10:05:23Z</time>
      </trkpt>
      <trkpt lat="45.57922" lon="6.83046">
        <ele>1910.08</ele>
        <time>2016-03-21T10:05:25Z</time>
      </trkpt>
      <trkpt lat="45.5794" lon="6.8306">
        <ele>1906.83</ele>
        <time>2016-03-21T10:05:27Z</time>
      </trkpt>
      <trkpt lat="45.5796" lon="6.83068">
        <ele>1903.98</ele>
        <time>2016-03-21T10:05:29Z</time>
      </trkpt>
      <trkpt lat="45.57976" lon="6.83083">
        <ele>1900.03</ele>
        <time>2016-03-21T10:05:31Z</time>
      </trkpt>
      <trkpt lat="45.57997" lon="6.83095">
        <ele>1898.59</ele>
        <time>2016-03-21T10:05:33Z</time>
      </trkpt>
      <trkpt lat="45.58014" lon="6.83115">
        <ele>1897.73</ele>
        <time>2016-03-21T10:05:35Z</time>
      </trkpt>
      <trkpt lat="45.58028" lon="6.83137">
        <ele>1896.58</ele>
        <time>2016-03-21T10:05:37Z</time>
      </trkpt>
      <trkpt lat="45.5805" lon="6.83157">
        <ele>1886.87</ele>
        <time>2016-03-21T10:05:40Z</time>
      </trkpt>
      <trkpt lat="45.58069" lon="6.83181">
        <ele>1884.78</ele>
        <time>2016-03-21T10:05:42Z</time>
      </trkpt>
      <trkpt lat="45.58088" lon="6.83199">
        <ele>1878.46</ele>
        <time>2016-03-21T10:05:44Z</time>
      </trkpt>
      <trkpt lat="45.58107" lon="6.8322">
        <ele>1871.14</ele>
        <time>2016-03-21T10:05:47Z</time>
      </trkpt>
      <trkpt lat="45.58123" lon="6.83236">
        <ele>1868.96</ele>
        <time>2016-03-21T10:05:49Z</time>
      </trkpt>
      <trkpt lat="45.58142" lon="6.83232">
        <ele>1859.03</ele>
        <time>2016-03-21T10:05:52Z</time>
      </trkpt>
      <trkpt lat="45.58164" lon="6.8324">
        <ele>1855.78</ele>
        <time>2016-03-21T10:05:55Z</time>
      </trkpt>
      <trkpt lat="45.58187" lon="6.83238">
        <ele>1844.27</ele>
        <time>2016-03-21T10:05:59Z</time>
      </trkpt>
      <trkpt lat="45.5821" lon="6.8324">
        <ele>1839.94</ele>
        <time>2016-03-21T10:06:03Z</time>
      </trkpt>
      <trkpt lat="45.58231" lon="6.83243">
        <ele>1834.94</ele>
        <time>2016-03-21T10:06:08Z</time>
      </trkpt>
      <trkpt lat="45.5825" lon="6.83244">
        <ele>1829.58</ele>
        <time>2016-03-21T10:06:14Z</time>
      </trkpt>
      <trkpt lat="45.58244" lon="6.8322">
        <ele>1827.73</ele>
        <time>2016-03-21T10:06:59Z</time>
      </trkpt>
      <trkpt lat="45.58227" lon="6.8321">
        <ele>1829.53</ele>
        <time>2016-03-21T10:07:06Z</time>
      </trkpt>
      <trkpt lat="45.58209" lon="6.83202">
        <ele>1832.53</ele>
        <time>2016-03-21T10:07:15Z</time>
      </trkpt>
      <trkpt lat="45.58192" lon="6.83194">
        <ele>1833.53</ele>
        <time>2016-03-21T10:07:23Z</time>
      </trkpt>
      <trkpt lat="45.58172" lon="6.83188">
        <ele>1835.33</ele>
        <time>2016-03-21T10:07:33Z</time>
      </trkpt>
      <trkpt lat="45.58152" lon="6.83181">
        <ele>1835.5</ele>
        <time>2016-03-21T10:07:43Z</time>
      </trkpt>
      <trkpt lat="45.58133" lon="6.83177">
        <ele>1838.29</ele>
        <time>2016-03-21T10:07:52Z</time>
      </trkpt>
      <trkpt lat="45.58114" lon="6.83172">
        <ele>1845.48</ele>
        <time>2016-03-21T10:08:02Z</time>
      </trkpt>
      <trkpt lat="45.58095" lon="6.83163">
        <ele>1848.53</ele>
        <time>2016-03-21T10:08:12Z</time>
      </trkpt>
      <trkpt lat="45.58077" lon="6.83157">
        <ele>1854.32</ele>
        <time>2016-03-21T10:08:21Z</time>
      </trkpt>
      <trkpt lat="45.58059" lon="6.83151">
        <ele>1860.49</ele>
        <time>2016-03-21T10:08:31Z</time>
      </trkpt>
      <trkpt lat="45.58041" lon="6.83148">
        <ele>1861.5</ele>
        <time>2016-03-21T10:08:40Z</time>
      </trkpt>
      <trkpt lat="45.58023" lon="6.83142">
        <ele>1868.4</ele>
        <time>2016-03-21T10:08:50Z</time>
      </trkpt>
      <trkpt lat="45.58003" lon="6.83135">
        <ele>1874.29</ele>
        <time>2016-03-21T10:09:00Z</time>
      </trkpt>
      <trkpt lat="45.57985" lon="6.83127">
        <ele>1881.32</ele>
        <time>2016-03-21T10:09:10Z</time>
      </trkpt>
      <trkpt lat="45.57966" lon="6.8312">
        <ele>1890.24</ele>
        <time>2016-03-21T10:09:21Z</time>
      </trkpt>
      <trkpt lat="45.57948" lon="6.83115">
        <ele>1897.53</ele>
        <time>2016-03-21T10:09:36Z</time>
      </trkpt>
      <trkpt lat="45.57931" lon="6.83104">
        <ele>1908.28</ele>
        <time>2016-03-21T10:09:48Z</time>
      </trkpt>
      <trkpt lat="45.57913" lon="6.83096">
        <ele>1915.32</ele>
        <time>2016-03-21T10:10:02Z</time>
      </trkpt>
      <trkpt lat="45.57895" lon="6.83088">
        <ele>1926.32</ele>
        <time>2016-03-21T10:10:16Z</time>
      </trkpt>
      <trkpt lat="45.57877" lon="6.83082">
        <ele>1930.53</ele>
        <time>2016-03-21T10:10:30Z</time>
      </trkpt>
      <trkpt lat="45.57858" lon="6.83077">
        <ele>1932.53</ele>
        <time>2016-03-21T10:10:44Z</time>
      </trkpt>
      <trkpt lat="45.5784" lon="6.83071">
        <ele>1938.49</ele>
        <time>2016-03-21T10:10:59Z</time>
      </trkpt>
      <trkpt lat="45.57822" lon="6.83063">
        <ele>1943.73</ele>
        <time>2016-03-21T10:11:12Z</time>
      </trkpt>
      <trkpt lat="45.57804" lon="6.83058">
        <ele>1945.53</ele>
        <time>2016-03-21T10:11:27Z</time>
      </trkpt>
      <trkpt lat="45.57785" lon="6.83057">
        <ele>1944.53</ele>
        <time>2016-03-21T10:11:41Z</time>
      </trkpt>
      <trkpt lat="45.57767" lon="6.83054">
        <ele>1947.32</ele>
        <time>2016-03-21T10:11:50Z</time>
      </trkpt>
      <trkpt lat="45.57749" lon="6.83049">
        <ele>1954.06</ele>
        <time>2016-03-21T10:12:00Z</time>
      </trkpt>
      <trkpt lat="45.5773" lon="6.83042">
        <ele>1961.31</ele>
        <time>2016-03-21T10:12:10Z</time>
      </trkpt>
      <trkpt lat="45.57713" lon="6.83032">
        <ele>1969.33</ele>
        <time>2016-03-21T10:12:19Z</time>
      </trkpt>
      <trkpt lat="45.57695" lon="6.83028">
        <ele>1974.52</ele>
        <time>2016-03-21T10:12:28Z</time>
      </trkpt>
      <trkpt lat="45.57677" lon="6.83022">
        <ele>1978.41</ele>
        <time>2016-03-21T10:12:37Z</time>
      </trkpt>
      <trkpt lat="45.57659" lon="6.83015">
        <ele>1982.32</ele>
        <time>2016-03-21T10:12:47Z</time>
      </trkpt>
      <trkpt lat="45.57641" lon="6.83007">
        <ele>1988.69</ele>
        <time>2016-03-21T10:12:57Z</time>
      </trkpt>
      <trkpt lat="45.57622" lon="6.83003">
        <ele>1990.69</ele>
        <time>2016-03-21T10:13:07Z</time>
      </trkpt>
      <trkpt lat="45.57603" lon="6.82997">
        <ele>1991.53</ele>
        <time>2016-03-21T10:13:17Z</time>
      </trkpt>
      <trkpt lat="45.57585" lon="6.82988">
        <ele>1998.08</ele>
        <time>2016-03-21T10:13:26Z</time>
      </trkpt>
      <trkpt lat="45.57568" lon="6.82978">
        <ele>2002.34</ele>
        <time>2016-03-21T10:13:36Z</time>
      </trkpt>
      <trkpt lat="45.5755" lon="6.82973">
        <ele>2005.45</ele>
        <time>2016-03-21T10:13:44Z</time>
      </trkpt>
      <trkpt lat="45.57532" lon="6.82968">
        <ele>2007.54</ele>
        <time>2016-03-21T10:13:53Z</time>
      </trkpt>
      <trkpt lat="45.57513" lon="6.82961">
        <ele>2010.33</ele>
        <time>2016-03-21T10:14:02Z</time>
      </trkpt>
      <trkpt lat="45.57494" lon="6.82956">
        <ele>2010.53</ele>
        <time>2016-03-21T10:14:12Z</time>
      </trkpt>
      <trkpt lat="45.57475" lon="6.82946">
        <ele>2015.09</ele>
        <time>2016-03-21T10:14:21Z</time>
      </trkpt>
      <trkpt lat="45.57458" lon="6.82934">
        <ele>2021.29</ele>
        <time>2016-03-21T10:14:30Z</time>
      </trkpt>
      <trkpt lat="45.5744" lon="6.82925">
        <ele>2025.29</ele>
        <time>2016-03-21T10:14:40Z</time>
      </trkpt>
      <trkpt lat="45.57421" lon="6.82919">
        <ele>2026.45</ele>
        <time>2016-03-21T10:14:49Z</time>
      </trkpt>
      <trkpt lat="45.57403" lon="6.82914">
        <ele>2028.5</ele>
        <time>2016-03-21T10:14:58Z</time>
      </trkpt>
      <trkpt lat="45.57385" lon="6.82908">
        <ele>2030.56</ele>
        <time>2016-03-21T10:15:08Z</time>
      </trkpt>
      <trkpt lat="45.57367" lon="6.82902">
        <ele>2034.13</ele>
        <time>2016-03-21T10:15:17Z</time>
      </trkpt>
      <trkpt lat="45.57347" lon="6.82895">
        <ele>2036.52</ele>
        <time>2016-03-21T10:15:26Z</time>
      </trkpt>
      <trkpt lat="45.5733" lon="6.82886">
        <ele>2037.53</ele>
        <time>2016-03-21T10:15:36Z</time>
      </trkpt>
      <trkpt lat="45.57311" lon="6.8288">
        <ele>2040.52</ele>
        <time>2016-03-21T10:15:46Z</time>
      </trkpt>
      <trkpt lat="45.57294" lon="6.82873">
        <ele>2038.54</ele>
        <time>2016-03-21T10:15:54Z</time>
      </trkpt>
      <trkpt lat="45.57276" lon="6.82865">
        <ele>2044.49</ele>
        <time>2016-03-21T10:16:03Z</time>
      </trkpt>
      <trkpt lat="45.57257" lon="6.82862">
        <ele>2045.52</ele>
        <time>2016-03-21T10:16:14Z</time>
      </trkpt>
      <trkpt lat="45.57239" lon="6.82854">
        <ele>2047.33</ele>
        <time>2016-03-21T10:16:23Z</time>
      </trkpt>
      <trkpt lat="45.5722" lon="6.82848">
        <ele>2050.28</ele>
        <time>2016-03-21T10:16:33Z</time>
      </trkpt>
      <trkpt lat="45.57201" lon="6.82842">
        <ele>2053.5</ele>
        <time>2016-03-21T10:16:42Z</time>
      </trkpt>
      <trkpt lat="45.57183" lon="6.82835">
        <ele>2058.27</ele>
        <time>2016-03-21T10:16:50Z</time>
      </trkpt>
      <trkpt lat="45.57166" lon="6.82826">
        <ele>2064.49</ele>
        <time>2016-03-21T10:17:00Z</time>
      </trkpt>
      <trkpt lat="45.57148" lon="6.82819">
        <ele>2068.33</ele>
        <time>2016-03-21T10:17:10Z</time>
      </trkpt>
      <trkpt lat="45.5713" lon="6.82813">
        <ele>2073.48</ele>
        <time>2016-03-21T10:17:19Z</time>
      </trkpt>
      <trkpt lat="45.57113" lon="6.82806">
        <ele>2079.52</ele>
        <time>2016-03-21T10:17:31Z</time>
      </trkpt>
      <trkpt lat="45.57094" lon="6.828">
        <ele>2086.13</ele>
        <time>2016-03-21T10:17:45Z</time>
      </trkpt>
      <trkpt lat="45.57076" lon="6.82794">
        <ele>2090.53</ele>
        <time>2016-03-21T10:18:00Z</time>
      </trkpt>
      <trkpt lat="45.57058" lon="6.82789">
        <ele>2095.53</ele>
        <time>2016-03-21T10:18:14Z</time>
      </trkpt>
      <trkpt lat="45.5704" lon="6.82783">
        <ele>2103.33</ele>
        <time>2016-03-21T10:18:29Z</time>
      </trkpt>
      <trkpt lat="45.57022" lon="6.82775">
        <ele>2110.45</ele>
        <time>2016-03-21T10:18:44Z</time>
      </trkpt>
      <trkpt lat="45.57004" lon="6.82771">
        <ele>2113.53</ele>
        <time>2016-03-21T10:18:58Z</time>
      </trkpt>
      <trkpt lat="45.56985" lon="6.82766">
        <ele>2119.32</ele>
        <time>2016-03-21T10:19:09Z</time>
      </trkpt>
      <trkpt lat="45.56967" lon="6.82757">
        <ele>2122.52</ele>
        <time>2016-03-21T10:19:18Z</time>
      </trkpt>
      <trkpt lat="45.56948" lon="6.82757">
        <ele>2125.33</ele>
        <time>2016-03-21T10:19:28Z</time>
      </trkpt>
      <trkpt lat="45.5693" lon="6.8275">
        <ele>2128.32</ele>
        <time>2016-03-21T10:19:37Z</time>
      </trkpt>
      <trkpt lat="45.56912" lon="6.82741">
        <ele>2133.52</ele>
        <time>2016-03-21T10:19:46Z</time>
      </trkpt>
      <trkpt lat="45.56896" lon="6.8273">
        <ele>2135.72</ele>
        <time>2016-03-21T10:19:55Z</time>
      </trkpt>
      <trkpt lat="45.56876" lon="6.82719">
        <ele>2144.73</ele>
        <time>2016-03-21T10:20:03Z</time>
      </trkpt>
      <trkpt lat="45.56857" lon="6.82713">
        <ele>2149.53</ele>
        <time>2016-03-21T10:20:14Z</time>
      </trkpt>
      <trkpt lat="45.56839" lon="6.82707">
        <ele>2157.47</ele>
        <time>2016-03-21T10:20:22Z</time>
      </trkpt>
      <trkpt lat="45.5682" lon="6.82701">
        <ele>2162.48</ele>
        <time>2016-03-21T10:20:32Z</time>
      </trkpt>
      <trkpt lat="45.56801" lon="6.82695">
        <ele>2163.33</ele>
        <time>2016-03-21T10:20:48Z</time>
      </trkpt>
      <trkpt lat="45.56783" lon="6.82689">
        <ele>2165.52</ele>
        <time>2016-03-21T10:21:00Z</time>
      </trkpt>
      <trkpt lat="45.56764" lon="6.82683">
        <ele>2171.12</ele>
        <time>2016-03-21T10:21:10Z</time>
      </trkpt>
      <trkpt lat="45.56745" lon="6.82676">
        <ele>2178.85</ele>
        <time>2016-03-21T10:21:19Z</time>
      </trkpt>
      <trkpt lat="45.56727" lon="6.8267">
        <ele>2188.32</ele>
        <time>2016-03-21T10:21:27Z</time>
      </trkpt>
      <trkpt lat="45.5671" lon="6.82661">
        <ele>2192.53</ele>
        <time>2016-03-21T10:21:40Z</time>
      </trkpt>
      <trkpt lat="45.56692" lon="6.82654">
        <ele>2192.53</ele>
        <time>2016-03-21T10:21:54Z</time>
      </trkpt>
      <trkpt lat="45.56673" lon="6.82647">
        <ele>2191.53</ele>
        <time>2016-03-21T10:22:04Z</time>
      </trkpt>
      <trkpt lat="45.56655" lon="6.82639">
        <ele>2188.73</ele>
        <time>2016-03-21T10:22:14Z</time>
      </trkpt>
      <trkpt lat="45.56637" lon="6.82631">
        <ele>2186.54</ele>
        <time>2016-03-21T10:22:24Z</time>
      </trkpt>
      <trkpt lat="45.56629" lon="6.82654">
        <ele>2184.44</ele>
        <time>2016-03-21T10:22:57Z</time>
      </trkpt>
      <trkpt lat="45.56641" lon="6.82676">
        <ele>2185.53</ele>
        <time>2016-03-21T10:23:10Z</time>
      </trkpt>
      <trkpt lat="45.56646" lon="6.82701">
        <ele>2183.73</ele>
        <time>2016-03-21T10:23:19Z</time>
      </trkpt>
      <trkpt lat="45.56649" lon="6.82732">
        <ele>2180.54</ele>
        <time>2016-03-21T10:23:27Z</time>
      </trkpt>
      <trkpt lat="45.56652" lon="6.82763">
        <ele>2180.52</ele>
        <time>2016-03-21T10:23:31Z</time>
      </trkpt>
      <trkpt lat="45.56658" lon="6.82799">
        <ele>2178.93</ele>
        <time>2016-03-21T10:23:35Z</time>
      </trkpt>
      <trkpt lat="45.56662" lon="6.82824">
        <ele>2179.53</ele>
        <time>2016-03-21T10:23:38Z</time>
      </trkpt>
      <trkpt lat="45.56676" lon="6.82841">
        <ele>2175.52</ele>
        <time>2016-03-21T10:23:45Z</time>
      </trkpt>
      <trkpt lat="45.56692" lon="6.82855">
        <ele>2172.34</ele>
        <time>2016-03-21T10:23:54Z</time>
      </trkpt>
      <trkpt lat="45.56707" lon="6.82872">
        <ele>2174.49</ele>
        <time>2016-03-21T10:24:03Z</time>
      </trkpt>
      <trkpt lat="45.56721" lon="6.82889">
        <ele>2174.54</ele>
        <time>2016-03-21T10:24:09Z</time>
      </trkpt>
      <trkpt lat="45.56734" lon="6.82909">
        <ele>2172.53</ele>
        <time>2016-03-21T10:24:14Z</time>
      </trkpt>
      <trkpt lat="45.56742" lon="6.82938">
        <ele>2170.57</ele>
        <time>2016-03-21T10:24:19Z</time>
      </trkpt>
      <trkpt lat="45.56746" lon="6.82966">
        <ele>2168.74</ele>
        <time>2016-03-21T10:24:22Z</time>
      </trkpt>
      <trkpt lat="45.56752" lon="6.82997">
        <ele>2167.73</ele>
        <time>2016-03-21T10:24:25Z</time>
      </trkpt>
      <trkpt lat="45.56767" lon="6.83021">
        <ele>2162.66</ele>
        <time>2016-03-21T10:24:32Z</time>
      </trkpt>
      <trkpt lat="45.56783" lon="6.83041">
        <ele>2160.57</ele>
        <time>2016-03-21T10:24:37Z</time>
      </trkpt>
      <trkpt lat="45.568" lon="6.83058">
        <ele>2161.32</ele>
        <time>2016-03-21T10:24:41Z</time>
      </trkpt>
      <trkpt lat="45.56817" lon="6.83074">
        <ele>2159.54</ele>
        <time>2016-03-21T10:24:45Z</time>
      </trkpt>
      <trkpt lat="45.56838" lon="6.83093">
        <ele>2159.5</ele>
        <time>2016-03-21T10:24:49Z</time>
      </trkpt>
      <trkpt lat="45.56856" lon="6.831">
        <ele>2157.13</ele>
        <time>2016-03-21T10:24:52Z</time>
      </trkpt>
      <trkpt lat="45.5688" lon="6.83111">
        <ele>2157.57</ele>
        <time>2016-03-21T10:24:56Z</time>
      </trkpt>
      <trkpt lat="45.56898" lon="6.83124">
        <ele>2155.74</ele>
        <time>2016-03-21T10:24:59Z</time>
      </trkpt>
      <trkpt lat="45.56919" lon="6.83133">
        <ele>2152.78</ele>
        <time>2016-03-21T10:25:02Z</time>
      </trkpt>
      <trkpt lat="45.56938" lon="6.83129">
        <ele>2152.73</ele>
        <time>2016-03-21T10:25:05Z</time>
      </trkpt>
      <trkpt lat="45.56957" lon="6.83133">
        <ele>2149.74</ele>
        <time>2016-03-21T10:25:09Z</time>
      </trkpt>
      <trkpt lat="45.56975" lon="6.83147">
        <ele>2147.73</ele>
        <time>2016-03-21T10:25:14Z</time>
      </trkpt>
      <trkpt lat="45.56987" lon="6.8317">
        <ele>2143.65</ele>
        <time>2016-03-21T10:25:18Z</time>
      </trkpt>
      <trkpt lat="45.57004" lon="6.83182">
        <ele>2143.37</ele>
        <time>2016-03-21T10:25:22Z</time>
      </trkpt>
      <trkpt lat="45.57022" lon="6.83177">
        <ele>2141.57</ele>
        <time>2016-03-21T10:25:26Z</time>
      </trkpt>
      <trkpt lat="45.57043" lon="6.83176">
        <ele>2142.33</ele>
        <time>2016-03-21T10:25:31Z</time>
      </trkpt>
      <trkpt lat="45.57054" lon="6.83199">
        <ele>2136.7</ele>
        <time>2016-03-21T10:25:38Z</time>
      </trkpt>
      <trkpt lat="45.57059" lon="6.83225">
        <ele>2131.77</ele>
        <time>2016-03-21T10:25:49Z</time>
      </trkpt>
      <trkpt lat="45.57064" lon="6.8325">
        <ele>2134.53</ele>
        <time>2016-03-21T10:26:55Z</time>
      </trkpt>
      <trkpt lat="45.57062" lon="6.83278">
        <ele>2133.53</ele>
        <time>2016-03-21T10:28:08Z</time>
      </trkpt>
      <trkpt lat="45.57063" lon="6.83305">
        <ele>2127.69</ele>
        <time>2016-03-21T10:28:23Z</time>
      </trkpt>
      <trkpt lat="45.57062" lon="6.83334">
        <ele>2132.11</ele>
        <time>2016-03-21T10:28:32Z</time>
      </trkpt>
      <trkpt lat="45.5706" lon="6.8336">
        <ele>2134.54</ele>
        <time>2016-03-21T10:28:44Z</time>
      </trkpt>
      <trkpt lat="45.57059" lon="6.83389">
        <ele>2142.52</ele>
        <time>2016-03-21T10:28:54Z</time>
      </trkpt>
      <trkpt lat="45.57059" lon="6.83415">
        <ele>2144.29</ele>
        <time>2016-03-21T10:29:06Z</time>
      </trkpt>
      <trkpt lat="45.57058" lon="6.83443">
        <ele>2150.76</ele>
        <time>2016-03-21T10:29:16Z</time>
      </trkpt>
      <trkpt lat="45.57054" lon="6.8347">
        <ele>2152.32</ele>
        <time>2016-03-21T10:29:27Z</time>
      </trkpt>
      <trkpt lat="45.57056" lon="6.83497">
        <ele>2155.52</ele>
        <time>2016-03-21T10:29:38Z</time>
      </trkpt>
      <trkpt lat="45.57054" lon="6.83525">
        <ele>2162.37</ele>
        <time>2016-03-21T10:29:51Z</time>
      </trkpt>
      <trkpt lat="45.57053" lon="6.83551">
        <ele>2168.24</ele>
        <time>2016-03-21T10:30:01Z</time>
      </trkpt>
      <trkpt lat="45.57053" lon="6.83578">
        <ele>2177.45</ele>
        <time>2016-03-21T10:30:11Z</time>
      </trkpt>
      <trkpt lat="45.57054" lon="6.83606">
        <ele>2188.09</ele>
        <time>2016-03-21T10:30:25Z</time>
      </trkpt>
      <trkpt lat="45.57055" lon="6.83633">
        <ele>2200.28</ele>
        <time>2016-03-21T10:30:38Z</time>
      </trkpt>
      <trkpt lat="45.57055" lon="6.83661">
        <ele>2213</ele>
        <time>2016-03-21T10:30:50Z</time>
      </trkpt>
      <trkpt lat="45.57056" lon="6.83688">
        <ele>2216.28</ele>
        <time>2016-03-21T10:31:02Z</time>
      </trkpt>
      <trkpt lat="45.57055" lon="6.83715">
        <ele>2226.47</ele>
        <time>2016-03-21T10:31:15Z</time>
      </trkpt>
      <trkpt lat="45.57048" lon="6.83739">
        <ele>2247.95</ele>
        <time>2016-03-21T10:31:27Z</time>
      </trkpt>
      <trkpt lat="45.57043" lon="6.83764">
        <ele>2270.07</ele>
        <time>2016-03-21T10:31:39Z</time>
      </trkpt>
      <trkpt lat="45.57043" lon="6.83791">
        <ele>2282.52</ele>
        <time>2016-03-21T10:31:52Z</time>
      </trkpt>
      <trkpt lat="45.57042" lon="6.83818">
        <ele>2288.29</ele>
        <time>2016-03-21T10:32:05Z</time>
      </trkpt>
      <trkpt lat="45.5704" lon="6.83845">
        <ele>2296.48</ele>
        <time>2016-03-21T10:32:18Z</time>
      </trkpt>
      <trkpt lat="45.5704" lon="6.83873">
        <ele>2304.32</ele>
        <time>2016-03-21T10:32:30Z</time>
      </trkpt>
      <trkpt lat="45.5704" lon="6.83899">
        <ele>2305.54</ele>
        <time>2016-03-21T10:32:41Z</time>
      </trkpt>
      <trkpt lat="45.57039" lon="6.83926">
        <ele>2309.13</ele>
        <time>2016-03-21T10:32:55Z</time>
      </trkpt>
      <trkpt lat="45.57037" lon="6.83953">
        <ele>2331.92</ele>
        <time>2016-03-21T10:33:07Z</time>
      </trkpt>
      <trkpt lat="45.57035" lon="6.83979">
        <ele>2341.48</ele>
        <time>2016-03-21T10:33:20Z</time>
      </trkpt>
      <trkpt lat="45.57035" lon="6.84006">
        <ele>2361.04</ele>
        <time>2016-03-21T10:33:32Z</time>
      </trkpt>
      <trkpt lat="45.57032" lon="6.84032">
        <ele>2368.32</ele>
        <time>2016-03-21T10:33:43Z</time>
      </trkpt>
      <trkpt lat="45.57031" lon="6.84058">
        <ele>2384.23</ele>
        <time>2016-03-21T10:33:55Z</time>
      </trkpt>
      <trkpt lat="45.57029" lon="6.84085">
        <ele>2396.49</ele>
        <time>2016-03-21T10:34:07Z</time>
      </trkpt>
      <trkpt lat="45.57027" lon="6.84112">
        <ele>2399.33</ele>
        <time>2016-03-21T10:34:18Z</time>
      </trkpt>
      <trkpt lat="45.57026" lon="6.84138">
        <ele>2412.89</ele>
        <time>2016-03-21T10:34:30Z</time>
      </trkpt>
      <trkpt lat="45.57025" lon="6.84165">
        <ele>2423.33</ele>
        <time>2016-03-21T10:34:42Z</time>
      </trkpt>
      <trkpt lat="45.57025" lon="6.84192">
        <ele>2434.28</ele>
        <time>2016-03-21T10:34:53Z</time>
      </trkpt>
      <trkpt lat="45.57024" lon="6.84217">
        <ele>2437.69</ele>
        <time>2016-03-21T10:35:04Z</time>
      </trkpt>
      <trkpt lat="45.57021" lon="6.84245">
        <ele>2447.31</ele>
        <time>2016-03-21T10:35:14Z</time>
      </trkpt>
      <trkpt lat="45.5702" lon="6.84271">
        <ele>2457.53</ele>
        <time>2016-03-21T10:35:26Z</time>
      </trkpt>
      <trkpt lat="45.5702" lon="6.84298">
        <ele>2462.54</ele>
        <time>2016-03-21T10:35:40Z</time>
      </trkpt>
      <trkpt lat="45.5702" lon="6.84328">
        <ele>2468.13</ele>
        <time>2016-03-21T10:35:55Z</time>
      </trkpt>
      <trkpt lat="45.57018" lon="6.84355">
        <ele>2482.68</ele>
        <time>2016-03-21T10:36:07Z</time>
      </trkpt>
      <trkpt lat="45.57021" lon="6.84381">
        <ele>2481.53</ele>
        <time>2016-03-21T10:36:18Z</time>
      </trkpt>
      <trkpt lat="45.57039" lon="6.84384">
        <ele>2488.68</ele>
        <time>2016-03-21T10:36:38Z</time>
      </trkpt>
      <trkpt lat="45.57057" lon="6.84379">
        <ele>2491.54</ele>
        <time>2016-03-21T10:37:03Z</time>
      </trkpt>
      <trkpt lat="45.57074" lon="6.84367">
        <ele>2491.53</ele>
        <time>2016-03-21T10:37:07Z</time>
      </trkpt>
      <trkpt lat="45.57091" lon="6.84352">
        <ele>2491.5</ele>
        <time>2016-03-21T10:37:10Z</time>
      </trkpt>
      <trkpt lat="45.57109" lon="6.84335">
        <ele>2490.7</ele>
        <time>2016-03-21T10:37:13Z</time>
      </trkpt>
      <trkpt lat="45.57123" lon="6.84313">
        <ele>2481.25</ele>
        <time>2016-03-21T10:37:16Z</time>
      </trkpt>
      <trkpt lat="45.57139" lon="6.8429">
        <ele>2472.89</ele>
        <time>2016-03-21T10:37:19Z</time>
      </trkpt>
      <trkpt lat="45.57148" lon="6.84257">
        <ele>2462.03</ele>
        <time>2016-03-21T10:37:23Z</time>
      </trkpt>
      <trkpt lat="45.57166" lon="6.8423">
        <ele>2454.3</ele>
        <time>2016-03-21T10:37:26Z</time>
      </trkpt>
      <trkpt lat="45.57181" lon="6.84211">
        <ele>2452.55</ele>
        <time>2016-03-21T10:37:29Z</time>
      </trkpt>
      <trkpt lat="45.57206" lon="6.84203">
        <ele>2452.53</ele>
        <time>2016-03-21T10:37:33Z</time>
      </trkpt>
      <trkpt lat="45.57231" lon="6.84202">
        <ele>2446.72</ele>
        <time>2016-03-21T10:37:37Z</time>
      </trkpt>
      <trkpt lat="45.57256" lon="6.84203">
        <ele>2443.94</ele>
        <time>2016-03-21T10:37:40Z</time>
      </trkpt>
      <trkpt lat="45.57279" lon="6.84196">
        <ele>2440.78</ele>
        <time>2016-03-21T10:37:43Z</time>
      </trkpt>
      <trkpt lat="45.57298" lon="6.84201">
        <ele>2437.75</ele>
        <time>2016-03-21T10:37:46Z</time>
      </trkpt>
      <trkpt lat="45.57316" lon="6.84204">
        <ele>2427.07</ele>
        <time>2016-03-21T10:37:50Z</time>
      </trkpt>
      <trkpt lat="45.57335" lon="6.84203">
        <ele>2425.59</ele>
        <time>2016-03-21T10:37:52Z</time>
      </trkpt>
      <trkpt lat="45.57353" lon="6.84203">
        <ele>2411.82</ele>
        <time>2016-03-21T10:37:58Z</time>
      </trkpt>
      <trkpt lat="45.57375" lon="6.84216">
        <ele>2407.78</ele>
        <time>2016-03-21T10:38:02Z</time>
      </trkpt>
      <trkpt lat="45.57395" lon="6.84211">
        <ele>2404.98</ele>
        <time>2016-03-21T10:38:04Z</time>
      </trkpt>
      <trkpt lat="45.57414" lon="6.84217">
        <ele>2403.75</ele>
        <time>2016-03-21T10:38:06Z</time>
      </trkpt>
      <trkpt lat="45.57431" lon="6.84227">
        <ele>2395.02</ele>
        <time>2016-03-21T10:38:09Z</time>
      </trkpt>
      <trkpt lat="45.57454" lon="6.84238">
        <ele>2384.25</ele>
        <time>2016-03-21T10:38:13Z</time>
      </trkpt>
      <trkpt lat="45.57472" lon="6.84244">
        <ele>2378.86</ele>
        <time>2016-03-21T10:38:16Z</time>
      </trkpt>
      <trkpt lat="45.57498" lon="6.84238">
        <ele>2374.79</ele>
        <time>2016-03-21T10:38:19Z</time>
      </trkpt>
      <trkpt lat="45.57517" lon="6.84241">
        <ele>2373.58</ele>
        <time>2016-03-21T10:38:21Z</time>
      </trkpt>
      <trkpt lat="45.57539" lon="6.84242">
        <ele>2339.22</ele>
        <time>2016-03-21T10:38:47Z</time>
      </trkpt>
      <trkpt lat="45.5756" lon="6.84246">
        <ele>2333.99</ele>
        <time>2016-03-21T10:38:50Z</time>
      </trkpt>
      <trkpt lat="45.5758" lon="6.84254">
        <ele>2328</ele>
        <time>2016-03-21T10:38:53Z</time>
      </trkpt>
      <trkpt lat="45.57608" lon="6.8426">
        <ele>2325.74</ele>
        <time>2016-03-21T10:38:56Z</time>
      </trkpt>
      <trkpt lat="45.57628" lon="6.84258">
        <ele>2324.58</ele>
        <time>2016-03-21T10:38:58Z</time>
      </trkpt>
      <trkpt lat="45.57652" lon="6.84252">
        <ele>2321.65</ele>
        <time>2016-03-21T10:39:00Z</time>
      </trkpt>
      <trkpt lat="45.57682" lon="6.8425">
        <ele>2317.22</ele>
        <time>2016-03-21T10:39:02Z</time>
      </trkpt>
      <trkpt lat="45.57716" lon="6.84245">
        <ele>2312.88</ele>
        <time>2016-03-21T10:39:04Z</time>
      </trkpt>
      <trkpt lat="45.57748" lon="6.84239">
        <ele>2308.86</ele>
        <time>2016-03-21T10:39:06Z</time>
      </trkpt>
      <trkpt lat="45.5778" lon="6.84238">
        <ele>2302.94</ele>
        <time>2016-03-21T10:39:08Z</time>
      </trkpt>
      <trkpt lat="45.5781" lon="6.84239">
        <ele>2300.79</ele>
        <time>2016-03-21T10:39:10Z</time>
      </trkpt>
      <trkpt lat="45.57831" lon="6.8424">
        <ele>2299.74</ele>
        <time>2016-03-21T10:39:12Z</time>
      </trkpt>
      <trkpt lat="45.5785" lon="6.84241">
        <ele>2298.74</ele>
        <time>2016-03-21T10:39:14Z</time>
      </trkpt>
      <trkpt lat="45.57871" lon="6.84242">
        <ele>2296.77</ele>
        <time>2016-03-21T10:39:17Z</time>
      </trkpt>
      <trkpt lat="45.57893" lon="6.84239">
        <ele>2288.19</ele>
        <time>2016-03-21T10:39:21Z</time>
      </trkpt>
      <trkpt lat="45.57914" lon="6.84241">
        <ele>2281.81</ele>
        <time>2016-03-21T10:39:24Z</time>
      </trkpt>
      <trkpt lat="45.5794" lon="6.84242">
        <ele>2278.62</ele>
        <time>2016-03-21T10:39:27Z</time>
      </trkpt>
      <trkpt lat="45.57959" lon="6.8424">
        <ele>2277.57</ele>
        <time>2016-03-21T10:39:29Z</time>
      </trkpt>
      <trkpt lat="45.57982" lon="6.84239">
        <ele>2274.81</ele>
        <time>2016-03-21T10:39:31Z</time>
      </trkpt>
      <trkpt lat="45.58004" lon="6.84243">
        <ele>2273.58</ele>
        <time>2016-03-21T10:39:33Z</time>
      </trkpt>
      <trkpt lat="45.58024" lon="6.84249">
        <ele>2272.73</ele>
        <time>2016-03-21T10:39:35Z</time>
      </trkpt>
      <trkpt lat="45.58044" lon="6.84252">
        <ele>2271.74</ele>
        <time>2016-03-21T10:39:37Z</time>
      </trkpt>
      <trkpt lat="45.58065" lon="6.84268">
        <ele>2252.94</ele>
        <time>2016-03-21T10:39:42Z</time>
      </trkpt>
      <trkpt lat="45.58081" lon="6.84279">
        <ele>2245.01</ele>
        <time>2016-03-21T10:39:45Z</time>
      </trkpt>
      <trkpt lat="45.581" lon="6.84285">
        <ele>2241.99</ele>
        <time>2016-03-21T10:39:47Z</time>
      </trkpt>
      <trkpt lat="45.58117" lon="6.84296">
        <ele>2234.91</ele>
        <time>2016-03-21T10:39:50Z</time>
      </trkpt>
      <trkpt lat="45.58136" lon="6.84293">
        <ele>2231.94</ele>
        <time>2016-03-21T10:39:53Z</time>
      </trkpt>
      <trkpt lat="45.58153" lon="6.84306">
        <ele>2228.83</ele>
        <time>2016-03-21T10:39:55Z</time>
      </trkpt>
      <trkpt lat="45.58172" lon="6.84317">
        <ele>2214.36</ele>
        <time>2016-03-21T10:39:59Z</time>
      </trkpt>
      <trkpt lat="45.5819" lon="6.84324">
        <ele>2204.35</ele>
        <time>2016-03-21T10:40:02Z</time>
      </trkpt>
      <trkpt lat="45.5821" lon="6.84324">
        <ele>2201</ele>
        <time>2016-03-21T10:40:04Z</time>
      </trkpt>
      <trkpt lat="45.58233" lon="6.84317">
        <ele>2195.83</ele>
        <time>2016-03-21T10:40:07Z</time>
      </trkpt>
      <trkpt lat="45.58257" lon="6.84311">
        <ele>2178.87</ele>
        <time>2016-03-21T10:40:11Z</time>
      </trkpt>
      <trkpt lat="45.58275" lon="6.84319">
        <ele>2170.25</ele>
        <time>2016-03-21T10:40:14Z</time>
      </trkpt>
      <trkpt lat="45.58288" lon="6.8434">
        <ele>2148.55</ele>
        <time>2016-03-21T10:40:31Z</time>
      </trkpt>
      <trkpt lat="45.583" lon="6.84368">
        <ele>2140.58</ele>
        <time>2016-03-21T10:40:35Z</time>
      </trkpt>
      <trkpt lat="45.5832" lon="6.84386">
        <ele>2132.81</ele>
        <time>2016-03-21T10:40:39Z</time>
      </trkpt>
      <trkpt lat="45.58332" lon="6.84412">
        <ele>2127.83</ele>
        <time>2016-03-21T10:40:42Z</time>
      </trkpt>
      <trkpt lat="45.58347" lon="6.8444">
        <ele>2125.58</ele>
        <time>2016-03-21T10:40:45Z</time>
      </trkpt>
      <trkpt lat="45.58356" lon="6.84472">
        <ele>2120.8</ele>
        <time>2016-03-21T10:40:48Z</time>
      </trkpt>
      <trkpt lat="45.58369" lon="6.845">
        <ele>2113.82</ele>
        <time>2016-03-21T10:40:52Z</time>
      </trkpt>
      <trkpt lat="45.58375" lon="6.84525">
        <ele>2111.78</ele>
        <time>2016-03-21T10:40:54Z</time>
      </trkpt>
      <trkpt lat="45.58374" lon="6.84551">
        <ele>2110.74</ele>
        <time>2016-03-21T10:40:56Z</time>
      </trkpt>
      <trkpt lat="45.58384" lon="6.84584">
        <ele>2108.77</ele>
        <time>2016-03-21T10:40:59Z</time>
      </trkpt>
      <trkpt lat="45.58376" lon="6.84609">
        <ele>2087.78</ele>
        <time>2016-03-21T10:41:10Z</time>
      </trkpt>
      <trkpt lat="45.58388" lon="6.84629">
        <ele>2069.73</ele>
        <time>2016-03-21T10:41:20Z</time>
      </trkpt>
      <trkpt lat="45.58386" lon="6.84658">
        <ele>2058.98</ele>
        <time>2016-03-21T10:41:26Z</time>
      </trkpt>
      <trkpt lat="45.58388" lon="6.84685">
        <ele>2054.98</ele>
        <time>2016-03-21T10:41:29Z</time>
      </trkpt>
      <trkpt lat="45.58399" lon="6.84708">
        <ele>2037.99</ele>
        <time>2016-03-21T10:41:39Z</time>
      </trkpt>
      <trkpt lat="45.58404" lon="6.84735">
        <ele>2034.97</ele>
        <time>2016-03-21T10:41:43Z</time>
      </trkpt>
      <trkpt lat="45.58419" lon="6.84752">
        <ele>2029.7</ele>
        <time>2016-03-21T10:41:46Z</time>
      </trkpt>
      <trkpt lat="45.58418" lon="6.84779">
        <ele>2025.98</ele>
        <time>2016-03-21T10:41:50Z</time>
      </trkpt>
      <trkpt lat="45.58434" lon="6.84794">
        <ele>2010.46</ele>
        <time>2016-03-21T10:41:57Z</time>
      </trkpt>
      <trkpt lat="45.58455" lon="6.84803">
        <ele>1999.03</ele>
        <time>2016-03-21T10:42:05Z</time>
      </trkpt>
      <trkpt lat="45.58459" lon="6.84832">
        <ele>1993.02</ele>
        <time>2016-03-21T10:42:09Z</time>
      </trkpt>
      <trkpt lat="45.58473" lon="6.84853">
        <ele>1985.88</ele>
        <time>2016-03-21T10:42:13Z</time>
      </trkpt>
      <trkpt lat="45.58491" lon="6.84853">
        <ele>1972.89</ele>
        <time>2016-03-21T10:42:18Z</time>
      </trkpt>
      <trkpt lat="45.58502" lon="6.84875">
        <ele>1958.19</ele>
        <time>2016-03-21T10:42:26Z</time>
      </trkpt>
      <trkpt lat="45.58514" lon="6.84857">
        <ele>1949.89</ele>
        <time>2016-03-21T10:42:29Z</time>
      </trkpt>
      <trkpt lat="45.58535" lon="6.84858">
        <ele>1935.89</ele>
        <time>2016-03-21T10:42:36Z</time>
      </trkpt>
      <trkpt lat="45.58551" lon="6.84873">
        <ele>1933.77</ele>
        <time>2016-03-21T10:42:40Z</time>
      </trkpt>
      <trkpt lat="45.58553" lon="6.84902">
        <ele>1925.61</ele>
        <time>2016-03-21T10:42:49Z</time>
      </trkpt>
      <trkpt lat="45.58546" lon="6.8493">
        <ele>1907.02</ele>
        <time>2016-03-21T10:43:36Z</time>
      </trkpt>
      <trkpt lat="45.58543" lon="6.8496">
        <ele>1905.75</ele>
        <time>2016-03-21T10:43:38Z</time>
      </trkpt>
      <trkpt lat="45.5854" lon="6.84991">
        <ele>1903.78</ele>
        <time>2016-03-21T10:43:40Z</time>
      </trkpt>
      <trkpt lat="45.58537" lon="6.85017">
        <ele>1901.78</ele>
        <time>2016-03-21T10:43:42Z</time>
      </trkpt>
      <trkpt lat="45.58531" lon="6.85048">
        <ele>1897.02</ele>
        <time>2016-03-21T10:43:45Z</time>
      </trkpt>
      <trkpt lat="45.58524" lon="6.85074">
        <ele>1894.79</ele>
        <time>2016-03-21T10:43:47Z</time>
      </trkpt>
      <trkpt lat="45.58516" lon="6.85107">
        <ele>1888.84</ele>
        <time>2016-03-21T10:43:50Z</time>
      </trkpt>
      <trkpt lat="45.58508" lon="6.85134">
        <ele>1882.65</ele>
        <time>2016-03-21T10:43:53Z</time>
      </trkpt>
      <trkpt lat="45.58501" lon="6.85163">
        <ele>1879.02</ele>
        <time>2016-03-21T10:43:55Z</time>
      </trkpt>
      <trkpt lat="45.58494" lon="6.85195">
        <ele>1868.26</ele>
        <time>2016-03-21T10:43:58Z</time>
      </trkpt>
      <trkpt lat="45.58488" lon="6.85222">
        <ele>1864.84</ele>
        <time>2016-03-21T10:44:00Z</time>
      </trkpt>
      <trkpt lat="45.58483" lon="6.85248">
        <ele>1861.02</ele>
        <time>2016-03-21T10:44:02Z</time>
      </trkpt>
      <trkpt lat="45.58472" lon="6.85274">
        <ele>1862.95</ele>
        <time>2016-03-21T10:44:04Z</time>
      </trkpt>
      <trkpt lat="45.58465" lon="6.85298">
        <ele>1860.95</ele>
        <time>2016-03-21T10:44:06Z</time>
      </trkpt>
      <trkpt lat="45.5848" lon="6.85323">
        <ele>1850.19</ele>
        <time>2016-03-21T10:44:10Z</time>
      </trkpt>
      <trkpt lat="45.58499" lon="6.85339">
        <ele>1844.22</ele>
        <time>2016-03-21T10:44:13Z</time>
      </trkpt>
      <trkpt lat="45.58521" lon="6.85345">
        <ele>1837.84</ele>
        <time>2016-03-21T10:44:16Z</time>
      </trkpt>
      <trkpt lat="45.58544" lon="6.85335">
        <ele>1835.62</ele>
        <time>2016-03-21T10:44:18Z</time>
      </trkpt>
      <trkpt lat="45.58566" lon="6.85344">
        <ele>1827.92</ele>
        <time>2016-03-21T10:44:21Z</time>
      </trkpt>
      <trkpt lat="45.58596" lon="6.85348">
        <ele>1825.79</ele>
        <time>2016-03-21T10:44:23Z</time>
      </trkpt>
      <trkpt lat="45.58615" lon="6.85358">
        <ele>1812.09</ele>
        <time>2016-03-21T10:44:26Z</time>
      </trkpt>
      <trkpt lat="45.58642" lon="6.85363">
        <ele>1807.87</ele>
        <time>2016-03-21T10:44:28Z</time>
      </trkpt>
      <trkpt lat="45.58665" lon="6.85355">
        <ele>1805.78</ele>
        <time>2016-03-21T10:44:30Z</time>
      </trkpt>
      <trkpt lat="45.5869" lon="6.85351">
        <ele>1803.78</ele>
        <time>2016-03-21T10:44:32Z</time>
      </trkpt>
      <trkpt lat="45.58704" lon="6.8532">
        <ele>1795.72</ele>
        <time>2016-03-21T10:44:35Z</time>
      </trkpt>
      <trkpt lat="45.5872" lon="6.85302">
        <ele>1793.78</ele>
        <time>2016-03-21T10:44:37Z</time>
      </trkpt>
      <trkpt lat="45.58738" lon="6.85288">
        <ele>1792.58</ele>
        <time>2016-03-21T10:44:39Z</time>
      </trkpt>
      <trkpt lat="45.58756" lon="6.85269">
        <ele>1789.81</ele>
        <time>2016-03-21T10:44:41Z</time>
      </trkpt>
      <trkpt lat="45.58776" lon="6.85253">
        <ele>1788.74</ele>
        <time>2016-03-21T10:44:43Z</time>
      </trkpt>
      <trkpt lat="45.58794" lon="6.85235">
        <ele>1786.78</ele>
        <time>2016-03-21T10:44:45Z</time>
      </trkpt>
      <trkpt lat="45.58816" lon="6.85231">
        <ele>1785.74</ele>
        <time>2016-03-21T10:44:47Z</time>
      </trkpt>
      <trkpt lat="45.58835" lon="6.85219">
        <ele>1784.74</ele>
        <time>2016-03-21T10:44:49Z</time>
      </trkpt>
      <trkpt lat="45.58854" lon="6.85214">
        <ele>1782.78</ele>
        <time>2016-03-21T10:44:51Z</time>
      </trkpt>
      <trkpt lat="45.5883" lon="6.85209">
        <ele>1752.78</ele>
        <time>2016-03-21T10:44:53Z</time>
      </trkpt>
      <trkpt lat="45.58846" lon="6.85196">
        <ele>1736.81</ele>
        <time>2016-03-21T10:44:57Z</time>
      </trkpt>
      <trkpt lat="45.5886" lon="6.85176">
        <ele>1718.58</ele>
        <time>2016-03-21T10:45:29Z</time>
      </trkpt>
      <trkpt lat="45.58877" lon="6.85164">
        <ele>1716.77</ele>
        <time>2016-03-21T10:45:34Z</time>
      </trkpt>
      <trkpt lat="45.58896" lon="6.85156">
        <ele>1715.73</ele>
        <time>2016-03-21T10:45:37Z</time>
      </trkpt>
      <trkpt lat="45.58914" lon="6.85152">
        <ele>1711.15</ele>
        <time>2016-03-21T10:45:40Z</time>
      </trkpt>
      <trkpt lat="45.58935" lon="6.85137">
        <ele>1707.59</ele>
        <time>2016-03-21T10:45:43Z</time>
      </trkpt>
      <trkpt lat="45.58957" lon="6.85129">
        <ele>1703.95</ele>
        <time>2016-03-21T10:45:46Z</time>
      </trkpt>
      <trkpt lat="45.5897" lon="6.85105">
        <ele>1696.93</ele>
        <time>2016-03-21T10:45:51Z</time>
      </trkpt>
      <trkpt lat="45.58993" lon="6.85104">
        <ele>1686.1</ele>
        <time>2016-03-21T10:45:55Z</time>
      </trkpt>
      <trkpt lat="45.59012" lon="6.85107">
        <ele>1680.1</ele>
        <time>2016-03-21T10:45:58Z</time>
      </trkpt>
      <trkpt lat="45.59034" lon="6.85104">
        <ele>1674.74</ele>
        <time>2016-03-21T10:46:01Z</time>
      </trkpt>
      <trkpt lat="45.59057" lon="6.85115">
        <ele>1672.78</ele>
        <time>2016-03-21T10:46:03Z</time>
      </trkpt>
      <trkpt lat="45.5908" lon="6.85135">
        <ele>1658.09</ele>
        <time>2016-03-21T10:46:07Z</time>
      </trkpt>
      <trkpt lat="45.59095" lon="6.85152">
        <ele>1651.86</ele>
        <time>2016-03-21T10:46:11Z</time>
      </trkpt>
      <trkpt lat="45.59115" lon="6.8517">
        <ele>1644.88</ele>
        <time>2016-03-21T10:46:14Z</time>
      </trkpt>
      <trkpt lat="45.59133" lon="6.85186">
        <ele>1642.58</ele>
        <time>2016-03-21T10:46:17Z</time>
      </trkpt>
      <trkpt lat="45.59141" lon="6.85215">
        <ele>1638.21</ele>
        <time>2016-03-21T10:46:19Z</time>
      </trkpt>
      <trkpt lat="45.59158" lon="6.85246">
        <ele>1632.19</ele>
        <time>2016-03-21T10:46:22Z</time>
      </trkpt>
      <trkpt lat="45.59174" lon="6.85277">
        <ele>1627.02</ele>
        <time>2016-03-21T10:46:25Z</time>
      </trkpt>
      <trkpt lat="45.59193" lon="6.85283">
        <ele>1617.54</ele>
        <time>2016-03-21T10:46:28Z</time>
      </trkpt>
      <trkpt lat="45.59211" lon="6.85292">
        <ele>1609.92</ele>
        <time>2016-03-21T10:46:31Z</time>
      </trkpt>
      <trkpt lat="45.59236" lon="6.853">
        <ele>1605.05</ele>
        <time>2016-03-21T10:46:34Z</time>
      </trkpt>
      <trkpt lat="45.59252" lon="6.85312">
        <ele>1597.24</ele>
        <time>2016-03-21T10:46:37Z</time>
      </trkpt>
      <trkpt lat="45.59268" lon="6.85331">
        <ele>1593.04</ele>
        <time>2016-03-21T10:46:39Z</time>
      </trkpt>
      <trkpt lat="45.59284" lon="6.85358">
        <ele>1588.95</ele>
        <time>2016-03-21T10:46:42Z</time>
      </trkpt>
      <trkpt lat="45.59312" lon="6.85362">
        <ele>1582.63</ele>
        <time>2016-03-21T10:46:44Z</time>
      </trkpt>
      <trkpt lat="45.59333" lon="6.85384">
        <ele>1571.08</ele>
        <time>2016-03-21T10:46:48Z</time>
      </trkpt>
      <trkpt lat="45.59339" lon="6.8541">
        <ele>1567.83</ele>
        <time>2016-03-21T10:46:50Z</time>
      </trkpt>
      <trkpt lat="45.59349" lon="6.85449">
        <ele>1560.27</ele>
        <time>2016-03-21T10:46:53Z</time>
      </trkpt>
      <trkpt lat="45.5936" lon="6.85471">
        <ele>1556.04</ele>
        <time>2016-03-21T10:46:55Z</time>
      </trkpt>
      <trkpt lat="45.59363" lon="6.855">
        <ele>1544.03</ele>
        <time>2016-03-21T10:46:57Z</time>
      </trkpt>
      <trkpt lat="45.59361" lon="6.85525">
        <ele>1526.46</ele>
        <time>2016-03-21T10:47:01Z</time>
      </trkpt>
      <trkpt lat="45.59356" lon="6.85551">
        <ele>1515.23</ele>
        <time>2016-03-21T10:47:07Z</time>
      </trkpt>
      <trkpt lat="45.59368" lon="6.85571">
        <ele>1493.64</ele>
        <time>2016-03-21T10:47:11Z</time>
      </trkpt>
      <trkpt lat="45.59369" lon="6.85601">
        <ele>1484.28</ele>
        <time>2016-03-21T10:47:14Z</time>
      </trkpt>
      <trkpt lat="45.59373" lon="6.85628">
        <ele>1439.02</ele>
        <time>2016-03-21T10:47:43Z</time>
      </trkpt>
      <trkpt lat="45.59367" lon="6.85657">
        <ele>1430.06</ele>
        <time>2016-03-21T10:47:47Z</time>
      </trkpt>
      <trkpt lat="45.59355" lon="6.85682">
        <ele>1424.83</ele>
        <time>2016-03-21T10:47:51Z</time>
      </trkpt>
      <trkpt lat="45.59347" lon="6.85709">
        <ele>1421.77</ele>
        <time>2016-03-21T10:47:55Z</time>
      </trkpt>
      <trkpt lat="45.59348" lon="6.8574">
        <ele>1413.99</ele>
        <time>2016-03-21T10:47:59Z</time>
      </trkpt>
      <trkpt lat="45.59346" lon="6.85773">
        <ele>1408.82</ele>
        <time>2016-03-21T10:48:03Z</time>
      </trkpt>
      <trkpt lat="45.5934" lon="6.85804">
        <ele>1405.97</ele>
        <time>2016-03-21T10:48:06Z</time>
      </trkpt>
      <trkpt lat="45.59333" lon="6.85831">
        <ele>1400.19</ele>
        <time>2016-03-21T10:48:09Z</time>
      </trkpt>
      <trkpt lat="45.59325" lon="6.85858">
        <ele>1394.03</ele>
        <time>2016-03-21T10:48:12Z</time>
      </trkpt>
      <trkpt lat="45.59315" lon="6.85882">
        <ele>1386.02</ele>
        <time>2016-03-21T10:48:15Z</time>
      </trkpt>
      <trkpt lat="45.59302" lon="6.85913">
        <ele>1383.77</ele>
        <time>2016-03-21T10:48:18Z</time>
      </trkpt>
      <trkpt lat="45.59309" lon="6.85942">
        <ele>1374.05</ele>
        <time>2016-03-21T10:48:22Z</time>
      </trkpt>
      <trkpt lat="45.59322" lon="6.8596">
        <ele>1370.03</ele>
        <time>2016-03-21T10:48:24Z</time>
      </trkpt>
      <trkpt lat="45.59334" lon="6.85981">
        <ele>1362.43</ele>
        <time>2016-03-21T10:48:27Z</time>
      </trkpt>
      <trkpt lat="45.59345" lon="6.86014">
        <ele>1356.71</ele>
        <time>2016-03-21T10:48:31Z</time>
      </trkpt>
      <trkpt lat="45.59341" lon="6.86049">
        <ele>1353.94</ele>
        <time>2016-03-21T10:48:34Z</time>
      </trkpt>
      <trkpt lat="45.59331" lon="6.86082">
        <ele>1347.39</ele>
        <time>2016-03-21T10:48:37Z</time>
      </trkpt>
      <trkpt lat="45.59322" lon="6.86113">
        <ele>1343.63</ele>
        <time>2016-03-21T10:48:40Z</time>
      </trkpt>
      <trkpt lat="45.59312" lon="6.86142">
        <ele>1339.05</ele>
        <time>2016-03-21T10:48:43Z</time>
      </trkpt>
      <trkpt lat="45.59299" lon="6.86171">
        <ele>1332.07</ele>
        <time>2016-03-21T10:48:46Z</time>
      </trkpt>
      <trkpt lat="45.59292" lon="6.86207">
        <ele>1332.34</ele>
        <time>2016-03-21T10:48:49Z</time>
      </trkpt>
      <trkpt lat="45.59278" lon="6.8624">
        <ele>1329.75</ele>
        <time>2016-03-21T10:48:52Z</time>
      </trkpt>
      <trkpt lat="45.59264" lon="6.86267">
        <ele>1326.78</ele>
        <time>2016-03-21T10:48:55Z</time>
      </trkpt>
      <trkpt lat="45.5925" lon="6.86297">
        <ele>1324.77</ele>
        <time>2016-03-21T10:48:58Z</time>
      </trkpt>
      <trkpt lat="45.59236" lon="6.86328">
        <ele>1320.02</ele>
        <time>2016-03-21T10:49:01Z</time>
      </trkpt>
      <trkpt lat="45.59224" lon="6.86359">
        <ele>1316.75</ele>
        <time>2016-03-21T10:49:04Z</time>
      </trkpt>
      <trkpt lat="45.59213" lon="6.86381">
        <ele>1313.82</ele>
        <time>2016-03-21T10:49:06Z</time>
      </trkpt>
      <trkpt lat="45.59205" lon="6.86411">
        <ele>1310.59</ele>
        <time>2016-03-21T10:49:09Z</time>
      </trkpt>
      <trkpt lat="45.59198" lon="6.86436">
        <ele>1307.81</ele>
        <time>2016-03-21T10:49:11Z</time>
      </trkpt>
      <trkpt lat="45.5919" lon="6.86464">
        <ele>1302.02</ele>
        <time>2016-03-21T10:49:15Z</time>
      </trkpt>
      <trkpt lat="45.59196" lon="6.86488">
        <ele>1296.79</ele>
        <time>2016-03-21T10:49:19Z</time>
      </trkpt>
      <trkpt lat="45.59203" lon="6.86521">
        <ele>1293.58</ele>
        <time>2016-03-21T10:49:23Z</time>
      </trkpt>
      <trkpt lat="45.59195" lon="6.86549">
        <ele>1292.73</ele>
        <time>2016-03-21T10:49:25Z</time>
      </trkpt>
      <trkpt lat="45.59187" lon="6.86573">
        <ele>1288.82</ele>
        <time>2016-03-21T10:49:28Z</time>
      </trkpt>
      <trkpt lat="45.59184" lon="6.86599">
        <ele>1285.97</ele>
        <time>2016-03-21T10:49:31Z</time>
      </trkpt>
      <trkpt lat="45.59205" lon="6.8659">
        <ele>1271.08</ele>
        <time>2016-03-21T10:49:36Z</time>
      </trkpt>
      <trkpt lat="45.59221" lon="6.86563">
        <ele>1261.8</ele>
        <time>2016-03-21T10:49:39Z</time>
      </trkpt>
      <trkpt lat="45.59234" lon="6.86538">
        <ele>1257.98</ele>
        <time>2016-03-21T10:49:42Z</time>
      </trkpt>
      <trkpt lat="45.59247" lon="6.86511">
        <ele>1255.58</ele>
        <time>2016-03-21T10:49:45Z</time>
      </trkpt>
      <trkpt lat="45.59257" lon="6.86482">
        <ele>1255.53</ele>
        <time>2016-03-21T10:49:48Z</time>
      </trkpt>
      <trkpt lat="45.59267" lon="6.86454">
        <ele>1253.74</ele>
        <time>2016-03-21T10:49:51Z</time>
      </trkpt>
      <trkpt lat="45.59283" lon="6.86439">
        <ele>1251.74</ele>
        <time>2016-03-21T10:49:54Z</time>
      </trkpt>
      <trkpt lat="45.59305" lon="6.86423">
        <ele>1250.6</ele>
        <time>2016-03-21T10:49:57Z</time>
      </trkpt>
      <trkpt lat="45.59329" lon="6.86405">
        <ele>1249.57</ele>
        <time>2016-03-21T10:50:00Z</time>
      </trkpt>
      <trkpt lat="45.5935" lon="6.86381">
        <ele>1244.43</ele>
        <time>2016-03-21T10:50:04Z</time>
      </trkpt>
      <trkpt lat="45.59364" lon="6.86355">
        <ele>1237.82</ele>
        <time>2016-03-21T10:50:08Z</time>
      </trkpt>
      <trkpt lat="45.59378" lon="6.86338">
        <ele>1234.94</ele>
        <time>2016-03-21T10:50:11Z</time>
      </trkpt>
      <trkpt lat="45.59394" lon="6.86322">
        <ele>1226.54</ele>
        <time>2016-03-21T10:51:02Z</time>
      </trkpt>
      <trkpt lat="45.59413" lon="6.86306">
        <ele>1225.53</ele>
        <time>2016-03-21T10:51:11Z</time>
      </trkpt>
      <trkpt lat="45.59424" lon="6.86277">
        <ele>1223.53</ele>
        <time>2016-03-21T10:51:16Z</time>
      </trkpt>
      <trkpt lat="45.59442" lon="6.86261">
        <ele>1223.73</ele>
        <time>2016-03-21T10:51:29Z</time>
      </trkpt>
      <trkpt lat="45.59459" lon="6.8624">
        <ele>1223.38</ele>
        <time>2016-03-21T10:51:34Z</time>
      </trkpt>
      <trkpt lat="45.5948" lon="6.86221">
        <ele>1224.68</ele>
        <time>2016-03-21T10:51:37Z</time>
      </trkpt>
      <trkpt lat="45.59498" lon="6.86204">
        <ele>1221.75</ele>
        <time>2016-03-21T10:51:40Z</time>
      </trkpt>
      <trkpt lat="45.59489" lon="6.86229">
        <ele>1207.95</ele>
        <time>2016-03-21T10:51:49Z</time>
      </trkpt>
      <trkpt lat="45.59479" lon="6.86251">
        <ele>1207.52</ele>
        <time>2016-03-21T10:51:55Z</time>
      </trkpt>
      <trkpt lat="45.59468" lon="6.86278">
        <ele>1208.33</ele>
        <time>2016-03-21T10:52:02Z</time>
      </trkpt>
      <trkpt lat="45.59458" lon="6.86302">
        <ele>1205.73</ele>
        <time>2016-03-21T10:52:07Z</time>
      </trkpt>
      <trkpt lat="45.59449" lon="6.86327">
        <ele>1206.56</ele>
        <time>2016-03-21T10:52:13Z</time>
      </trkpt>
      <trkpt lat="45.5944" lon="6.86351">
        <ele>1202.78</ele>
        <time>2016-03-21T10:52:22Z</time>
      </trkpt>
      <trkpt lat="45.59434" lon="6.86379">
        <ele>1205.32</ele>
        <time>2016-03-21T10:52:33Z</time>
      </trkpt>
      <trkpt lat="45.59432" lon="6.86406">
        <ele>1202.39</ele>
        <time>2016-03-21T10:52:47Z</time>
      </trkpt>
      <trkpt lat="45.59434" lon="6.86433">
        <ele>1205.24</ele>
        <time>2016-03-21T10:52:59Z</time>
      </trkpt>
      <trkpt lat="45.59416" lon="6.86428">
        <ele>1205.92</ele>
        <time>2016-03-21T10:54:48Z</time>
      </trkpt>
      <trkpt lat="45.59402" lon="6.86409">
        <ele>1211.28</ele>
        <time>2016-03-21T10:54:57Z</time>
      </trkpt>
      <trkpt lat="45.59391" lon="6.86388">
        <ele>1220.09</ele>
        <time>2016-03-21T10:55:08Z</time>
      </trkpt>
      <trkpt lat="45.59379" lon="6.86368">
        <ele>1230.11</ele>
        <time>2016-03-21T10:55:20Z</time>
      </trkpt>
      <trkpt lat="45.59369" lon="6.86346">
        <ele>1236.48</ele>
        <time>2016-03-21T10:55:32Z</time>
      </trkpt>
      <trkpt lat="45.59357" lon="6.86327">
        <ele>1246.48</ele>
        <time>2016-03-21T10:55:43Z</time>
      </trkpt>
      <trkpt lat="45.59345" lon="6.86305">
        <ele>1258.11</ele>
        <time>2016-03-21T10:55:54Z</time>
      </trkpt>
      <trkpt lat="45.59333" lon="6.86284">
        <ele>1270.28</ele>
        <time>2016-03-21T10:56:05Z</time>
      </trkpt>
      <trkpt lat="45.59321" lon="6.86264">
        <ele>1281.32</ele>
        <time>2016-03-21T10:56:17Z</time>
      </trkpt>
      <trkpt lat="45.59309" lon="6.86244">
        <ele>1295.24</ele>
        <time>2016-03-21T10:56:29Z</time>
      </trkpt>
      <trkpt lat="45.59297" lon="6.86221">
        <ele>1307.32</ele>
        <time>2016-03-21T10:56:41Z</time>
      </trkpt>
      <trkpt lat="45.59286" lon="6.862">
        <ele>1315.32</ele>
        <time>2016-03-21T10:56:53Z</time>
      </trkpt>
      <trkpt lat="45.59275" lon="6.86177">
        <ele>1324.28</ele>
        <time>2016-03-21T10:57:05Z</time>
      </trkpt>
      <trkpt lat="45.59264" lon="6.86155">
        <ele>1335.28</ele>
        <time>2016-03-21T10:57:17Z</time>
      </trkpt>
      <trkpt lat="45.59251" lon="6.86134">
        <ele>1348.27</ele>
        <time>2016-03-21T10:57:29Z</time>
      </trkpt>
      <trkpt lat="45.5924" lon="6.86113">
        <ele>1361.28</ele>
        <time>2016-03-21T10:57:41Z</time>
      </trkpt>
      <trkpt lat="45.59229" lon="6.86092">
        <ele>1376.28</ele>
        <time>2016-03-21T10:57:54Z</time>
      </trkpt>
      <trkpt lat="45.59217" lon="6.8607">
        <ele>1389.32</ele>
        <time>2016-03-21T10:58:07Z</time>
      </trkpt>
      <trkpt lat="45.59205" lon="6.86048">
        <ele>1399.52</ele>
        <time>2016-03-21T10:58:19Z</time>
      </trkpt>
      <trkpt lat="45.59194" lon="6.86028">
        <ele>1411.04</ele>
        <time>2016-03-21T10:58:30Z</time>
      </trkpt>
      <trkpt lat="45.59182" lon="6.86008">
        <ele>1421.49</ele>
        <time>2016-03-21T10:58:42Z</time>
      </trkpt>
      <trkpt lat="45.5917" lon="6.85986">
        <ele>1427.28</ele>
        <time>2016-03-21T10:58:54Z</time>
      </trkpt>
      <trkpt lat="45.59157" lon="6.85965">
        <ele>1429.56</ele>
        <time>2016-03-21T10:59:05Z</time>
      </trkpt>
      <trkpt lat="45.59147" lon="6.85943">
        <ele>1432.48</ele>
        <time>2016-03-21T10:59:12Z</time>
      </trkpt>
      <trkpt lat="45.59161" lon="6.85919">
        <ele>1432.29</ele>
        <time>2016-03-21T10:59:46Z</time>
      </trkpt>
      <trkpt lat="45.59171" lon="6.85892">
        <ele>1430.74</ele>
        <time>2016-03-21T10:59:51Z</time>
      </trkpt>
      <trkpt lat="45.59174" lon="6.85865">
        <ele>1428.74</ele>
        <time>2016-03-21T10:59:56Z</time>
      </trkpt>
      <trkpt lat="45.59175" lon="6.8584">
        <ele>1425.74</ele>
        <time>2016-03-21T11:00:00Z</time>
      </trkpt>
      <trkpt lat="45.59185" lon="6.85814">
        <ele>1424.73</ele>
        <time>2016-03-21T11:00:04Z</time>
      </trkpt>
      <trkpt lat="45.59202" lon="6.85803">
        <ele>1424.37</ele>
        <time>2016-03-21T11:00:07Z</time>
      </trkpt>
      <trkpt lat="45.59224" lon="6.85803">
        <ele>1421.75</ele>
        <time>2016-03-21T11:00:11Z</time>
      </trkpt>
      <trkpt lat="45.59248" lon="6.85805">
        <ele>1417.77</ele>
        <time>2016-03-21T11:00:15Z</time>
      </trkpt>
      <trkpt lat="45.59268" lon="6.85794">
        <ele>1414.77</ele>
        <time>2016-03-21T11:00:19Z</time>
      </trkpt>
      <trkpt lat="45.59287" lon="6.85778">
        <ele>1411.82</ele>
        <time>2016-03-21T11:00:23Z</time>
      </trkpt>
      <trkpt lat="45.59304" lon="6.85763">
        <ele>1407.05</ele>
        <time>2016-03-21T11:00:26Z</time>
      </trkpt>
      <trkpt lat="45.59321" lon="6.85743">
        <ele>1404.42</ele>
        <time>2016-03-21T11:00:29Z</time>
      </trkpt>
      <trkpt lat="45.59334" lon="6.85718">
        <ele>1404.49</ele>
        <time>2016-03-21T11:00:33Z</time>
      </trkpt>
      <trkpt lat="45.59318" lon="6.85697">
        <ele>1409.93</ele>
        <time>2016-03-21T11:01:52Z</time>
      </trkpt>
      <trkpt lat="45.59304" lon="6.85678">
        <ele>1417.53</ele>
        <time>2016-03-21T11:02:02Z</time>
      </trkpt>
      <trkpt lat="45.59291" lon="6.85657">
        <ele>1429.92</ele>
        <time>2016-03-21T11:02:15Z</time>
      </trkpt>
      <trkpt lat="45.59279" lon="6.85637">
        <ele>1439.44</ele>
        <time>2016-03-21T11:02:25Z</time>
      </trkpt>
      <trkpt lat="45.59264" lon="6.85617">
        <ele>1448.72</ele>
        <time>2016-03-21T11:02:37Z</time>
      </trkpt>
      <trkpt lat="45.59252" lon="6.85598">
        <ele>1460.28</ele>
        <time>2016-03-21T11:02:47Z</time>
      </trkpt>
      <trkpt lat="45.59239" lon="6.85579">
        <ele>1473.87</ele>
        <time>2016-03-21T11:02:56Z</time>
      </trkpt>
      <trkpt lat="45.59225" lon="6.85561">
        <ele>1482.48</ele>
        <time>2016-03-21T11:03:06Z</time>
      </trkpt>
      <trkpt lat="45.59212" lon="6.85543">
        <ele>1494.24</ele>
        <time>2016-03-21T11:03:16Z</time>
      </trkpt>
      <trkpt lat="45.59201" lon="6.85522">
        <ele>1504.28</ele>
        <time>2016-03-21T11:03:26Z</time>
      </trkpt>
      <trkpt lat="45.59188" lon="6.85504">
        <ele>1511.09</ele>
        <time>2016-03-21T11:03:36Z</time>
      </trkpt>
      <trkpt lat="45.59175" lon="6.85483">
        <ele>1520.07</ele>
        <time>2016-03-21T11:03:47Z</time>
      </trkpt>
      <trkpt lat="45.59161" lon="6.85465">
        <ele>1526.44</ele>
        <time>2016-03-21T11:03:57Z</time>
      </trkpt>
      <trkpt lat="45.59151" lon="6.85443">
        <ele>1541.22</ele>
        <time>2016-03-21T11:04:05Z</time>
      </trkpt>
      <trkpt lat="45.59137" lon="6.85425">
        <ele>1551.28</ele>
        <time>2016-03-21T11:04:16Z</time>
      </trkpt>
      <trkpt lat="45.59124" lon="6.85405">
        <ele>1563.28</ele>
        <time>2016-03-21T11:04:27Z</time>
      </trkpt>
      <trkpt lat="45.5911" lon="6.85386">
        <ele>1569.52</ele>
        <time>2016-03-21T11:04:38Z</time>
      </trkpt>
      <trkpt lat="45.59097" lon="6.85365">
        <ele>1578.29</ele>
        <time>2016-03-21T11:04:48Z</time>
      </trkpt>
      <trkpt lat="45.59083" lon="6.85345">
        <ele>1587.28</ele>
        <time>2016-03-21T11:04:58Z</time>
      </trkpt>
      <trkpt lat="45.5907" lon="6.85325">
        <ele>1594.48</ele>
        <time>2016-03-21T11:05:08Z</time>
      </trkpt>
      <trkpt lat="45.59056" lon="6.85305">
        <ele>1603.32</ele>
        <time>2016-03-21T11:05:18Z</time>
      </trkpt>
      <trkpt lat="45.59042" lon="6.85285">
        <ele>1611.45</ele>
        <time>2016-03-21T11:05:28Z</time>
      </trkpt>
      <trkpt lat="45.5903" lon="6.85264">
        <ele>1625.44</ele>
        <time>2016-03-21T11:05:38Z</time>
      </trkpt>
      <trkpt lat="45.59017" lon="6.85247">
        <ele>1633.29</ele>
        <time>2016-03-21T11:05:47Z</time>
      </trkpt>
      <trkpt lat="45.59002" lon="6.85228">
        <ele>1637.53</ele>
        <time>2016-03-21T11:05:58Z</time>
      </trkpt>
      <trkpt lat="45.58988" lon="6.85208">
        <ele>1642.29</ele>
        <time>2016-03-21T11:06:08Z</time>
      </trkpt>
      <trkpt lat="45.58975" lon="6.85186">
        <ele>1653.27</ele>
        <time>2016-03-21T11:06:18Z</time>
      </trkpt>
      <trkpt lat="45.58962" lon="6.85168">
        <ele>1661.45</ele>
        <time>2016-03-21T11:06:28Z</time>
      </trkpt>
      <trkpt lat="45.58947" lon="6.85152">
        <ele>1664.52</ele>
        <time>2016-03-21T11:06:37Z</time>
      </trkpt>
      <trkpt lat="45.58934" lon="6.85132">
        <ele>1670.32</ele>
        <time>2016-03-21T11:06:46Z</time>
      </trkpt>
      <trkpt lat="45.58921" lon="6.85111">
        <ele>1679.48</ele>
        <time>2016-03-21T11:06:56Z</time>
      </trkpt>
      <trkpt lat="45.58907" lon="6.85092">
        <ele>1687.53</ele>
        <time>2016-03-21T11:07:08Z</time>
      </trkpt>
      <trkpt lat="45.58894" lon="6.85071">
        <ele>1695.05</ele>
        <time>2016-03-21T11:07:18Z</time>
      </trkpt>
      <trkpt lat="45.58883" lon="6.8505">
        <ele>1705.08</ele>
        <time>2016-03-21T11:07:28Z</time>
      </trkpt>
      <trkpt lat="45.58871" lon="6.85031">
        <ele>1716.09</ele>
        <time>2016-03-21T11:07:38Z</time>
      </trkpt>
      <trkpt lat="45.5886" lon="6.8501">
        <ele>1730.88</ele>
        <time>2016-03-21T11:07:49Z</time>
      </trkpt>
      <trkpt lat="45.58846" lon="6.84992">
        <ele>1742.45</ele>
        <time>2016-03-21T11:07:59Z</time>
      </trkpt>
      <trkpt lat="45.58833" lon="6.84973">
        <ele>1756.27</ele>
        <time>2016-03-21T11:08:11Z</time>
      </trkpt>
      <trkpt lat="45.5882" lon="6.84954">
        <ele>1769.48</ele>
        <time>2016-03-21T11:08:22Z</time>
      </trkpt>
      <trkpt lat="45.58811" lon="6.84931">
        <ele>1788.72</ele>
        <time>2016-03-21T11:08:33Z</time>
      </trkpt>
      <trkpt lat="45.58798" lon="6.84913">
        <ele>1797.62</ele>
        <time>2016-03-21T11:08:44Z</time>
      </trkpt>
      <trkpt lat="45.58785" lon="6.84893">
        <ele>1809.61</ele>
        <time>2016-03-21T11:08:55Z</time>
      </trkpt>
      <trkpt lat="45.58771" lon="6.84876">
        <ele>1826.07</ele>
        <time>2016-03-21T11:09:06Z</time>
      </trkpt>
      <trkpt lat="45.58757" lon="6.84857">
        <ele>1846.89</ele>
        <time>2016-03-21T11:09:18Z</time>
      </trkpt>
      <trkpt lat="45.58744" lon="6.84838">
        <ele>1860.03</ele>
        <time>2016-03-21T11:09:28Z</time>
      </trkpt>
      <trkpt lat="45.58732" lon="6.84815">
        <ele>1874.08</ele>
        <time>2016-03-21T11:09:39Z</time>
      </trkpt>
      <trkpt lat="45.58719" lon="6.84794">
        <ele>1885.29</ele>
        <time>2016-03-21T11:09:50Z</time>
      </trkpt>
      <trkpt lat="45.58706" lon="6.84774">
        <ele>1894.09</ele>
        <time>2016-03-21T11:10:00Z</time>
      </trkpt>
      <trkpt lat="45.58693" lon="6.84754">
        <ele>1899.53</ele>
        <time>2016-03-21T11:10:09Z</time>
      </trkpt>
      <trkpt lat="45.58681" lon="6.84735">
        <ele>1904.53</ele>
        <time>2016-03-21T11:10:19Z</time>
      </trkpt>
      <trkpt lat="45.58666" lon="6.84716">
        <ele>1918.44</ele>
        <time>2016-03-21T11:10:29Z</time>
      </trkpt>
      <trkpt lat="45.58653" lon="6.84695">
        <ele>1932.87</ele>
        <time>2016-03-21T11:10:40Z</time>
      </trkpt>
      <trkpt lat="45.5864" lon="6.84676">
        <ele>1941.28</ele>
        <time>2016-03-21T11:10:50Z</time>
      </trkpt>
      <trkpt lat="45.58626" lon="6.84657">
        <ele>1952.27</ele>
        <time>2016-03-21T11:11:01Z</time>
      </trkpt>
      <trkpt lat="45.58616" lon="6.84634">
        <ele>1962.68</ele>
        <time>2016-03-21T11:11:11Z</time>
      </trkpt>
      <trkpt lat="45.58604" lon="6.84612">
        <ele>1964.33</ele>
        <time>2016-03-21T11:11:21Z</time>
      </trkpt>
      <trkpt lat="45.58594" lon="6.84591">
        <ele>1966.52</ele>
        <time>2016-03-21T11:11:30Z</time>
      </trkpt>
      <trkpt lat="45.58583" lon="6.8457">
        <ele>1966.73</ele>
        <time>2016-03-21T11:11:40Z</time>
      </trkpt>
      <trkpt lat="45.5857" lon="6.84549">
        <ele>1972.29</ele>
        <time>2016-03-21T11:11:51Z</time>
      </trkpt>
      <trkpt lat="45.58558" lon="6.84528">
        <ele>1985.49</ele>
        <time>2016-03-21T11:12:02Z</time>
      </trkpt>
      <trkpt lat="45.58544" lon="6.84508">
        <ele>1994.32</ele>
        <time>2016-03-21T11:12:13Z</time>
      </trkpt>
      <trkpt lat="45.58528" lon="6.84497">
        <ele>2012.77</ele>
        <time>2016-03-21T11:12:23Z</time>
      </trkpt>
      <trkpt lat="45.58511" lon="6.84486">
        <ele>2040.87</ele>
        <time>2016-03-21T11:12:33Z</time>
      </trkpt>
      <trkpt lat="45.58499" lon="6.84464">
        <ele>2063.01</ele>
        <time>2016-03-21T11:12:44Z</time>
      </trkpt>
      <trkpt lat="45.58484" lon="6.84447">
        <ele>2068.36</ele>
        <time>2016-03-21T11:12:54Z</time>
      </trkpt>
      <trkpt lat="45.58472" lon="6.84427">
        <ele>2081.65</ele>
        <time>2016-03-21T11:13:04Z</time>
      </trkpt>
      <trkpt lat="45.58461" lon="6.84405">
        <ele>2089.09</ele>
        <time>2016-03-21T11:13:14Z</time>
      </trkpt>
      <trkpt lat="45.58447" lon="6.84385">
        <ele>2094.44</ele>
        <time>2016-03-21T11:13:24Z</time>
      </trkpt>
      <trkpt lat="45.58435" lon="6.84363">
        <ele>2102.48</ele>
        <time>2016-03-21T11:13:34Z</time>
      </trkpt>
      <trkpt lat="45.58422" lon="6.84344">
        <ele>2106.29</ele>
        <time>2016-03-21T11:13:43Z</time>
      </trkpt>
      <trkpt lat="45.5841" lon="6.84323">
        <ele>2115.35</ele>
        <time>2016-03-21T11:13:52Z</time>
      </trkpt>
      <trkpt lat="45.58396" lon="6.84309">
        <ele>2116.73</ele>
        <time>2016-03-21T11:14:03Z</time>
      </trkpt>
      <trkpt lat="45.5809" lon="6.8425">
        <ele>2229.12</ele>
        <time>2016-03-21T12:08:25Z</time>
      </trkpt>
      <trkpt lat="45.58072" lon="6.84249">
        <ele>2237.48</ele>
        <time>2016-03-21T12:08:35Z</time>
      </trkpt>
      <trkpt lat="45.58054" lon="6.84248">
        <ele>2242.32</ele>
        <time>2016-03-21T12:08:45Z</time>
      </trkpt>
      <trkpt lat="45.58035" lon="6.84247">
        <ele>2246.49</ele>
        <time>2016-03-21T12:08:55Z</time>
      </trkpt>
      <trkpt lat="45.58016" lon="6.84244">
        <ele>2245.53</ele>
        <time>2016-03-21T12:09:05Z</time>
      </trkpt>
      <trkpt lat="45.57998" lon="6.84242">
        <ele>2250.51</ele>
        <time>2016-03-21T12:09:14Z</time>
      </trkpt>
      <trkpt lat="45.57979" lon="6.84243">
        <ele>2253.33</ele>
        <time>2016-03-21T12:09:25Z</time>
      </trkpt>
      <trkpt lat="45.57959" lon="6.84242">
        <ele>2256.52</ele>
        <time>2016-03-21T12:09:36Z</time>
      </trkpt>
      <trkpt lat="45.57942" lon="6.84238">
        <ele>2261.52</ele>
        <time>2016-03-21T12:09:46Z</time>
      </trkpt>
      <trkpt lat="45.57923" lon="6.84237">
        <ele>2265.31</ele>
        <time>2016-03-21T12:09:56Z</time>
      </trkpt>
      <trkpt lat="45.57903" lon="6.84236">
        <ele>2268.52</ele>
        <time>2016-03-21T12:10:07Z</time>
      </trkpt>
      <trkpt lat="45.57884" lon="6.84234">
        <ele>2271.5</ele>
        <time>2016-03-21T12:10:17Z</time>
      </trkpt>
      <trkpt lat="45.57865" lon="6.84234">
        <ele>2272.33</ele>
        <time>2016-03-21T12:10:27Z</time>
      </trkpt>
      <trkpt lat="45.57844" lon="6.84232">
        <ele>2275.33</ele>
        <time>2016-03-21T12:10:37Z</time>
      </trkpt>
      <trkpt lat="45.57825" lon="6.84231">
        <ele>2276.54</ele>
        <time>2016-03-21T12:10:47Z</time>
      </trkpt>
      <trkpt lat="45.57806" lon="6.84229">
        <ele>2276.56</ele>
        <time>2016-03-21T12:10:57Z</time>
      </trkpt>
      <trkpt lat="45.57787" lon="6.84229">
        <ele>2272.93</ele>
        <time>2016-03-21T12:11:06Z</time>
      </trkpt>
      <trkpt lat="45.57768" lon="6.84227">
        <ele>2271.54</ele>
        <time>2016-03-21T12:11:17Z</time>
      </trkpt>
      <trkpt lat="45.57748" lon="6.84224">
        <ele>2272.53</ele>
        <time>2016-03-21T12:11:26Z</time>
      </trkpt>
      <trkpt lat="45.5773" lon="6.84222">
        <ele>2277.48</ele>
        <time>2016-03-21T12:11:36Z</time>
      </trkpt>
      <trkpt lat="45.57711" lon="6.84221">
        <ele>2280.49</ele>
        <time>2016-03-21T12:11:46Z</time>
      </trkpt>
      <trkpt lat="45.57691" lon="6.8422">
        <ele>2281.5</ele>
        <time>2016-03-21T12:11:56Z</time>
      </trkpt>
      <trkpt lat="45.57673" lon="6.84217">
        <ele>2284.33</ele>
        <time>2016-03-21T12:12:05Z</time>
      </trkpt>
      <trkpt lat="45.57654" lon="6.84218">
        <ele>2285.33</ele>
        <time>2016-03-21T12:12:16Z</time>
      </trkpt>
      <trkpt lat="45.57634" lon="6.84216">
        <ele>2289.29</ele>
        <time>2016-03-21T12:12:27Z</time>
      </trkpt>
      <trkpt lat="45.57615" lon="6.84215">
        <ele>2294.53</ele>
        <time>2016-03-21T12:12:37Z</time>
      </trkpt>
      <trkpt lat="45.57596" lon="6.84219">
        <ele>2299.12</ele>
        <time>2016-03-21T12:12:48Z</time>
      </trkpt>
      <trkpt lat="45.57576" lon="6.84218">
        <ele>2304.31</ele>
        <time>2016-03-21T12:12:59Z</time>
      </trkpt>
      <trkpt lat="45.57557" lon="6.84216">
        <ele>2313.1</ele>
        <time>2016-03-21T12:13:10Z</time>
      </trkpt>
      <trkpt lat="45.57537" lon="6.84216">
        <ele>2326.31</ele>
        <time>2016-03-21T12:13:21Z</time>
      </trkpt>
      <trkpt lat="45.57519" lon="6.84205">
        <ele>2335.52</ele>
        <time>2016-03-21T12:13:30Z</time>
      </trkpt>
      <trkpt lat="45.575" lon="6.84202">
        <ele>2342.68</ele>
        <time>2016-03-21T12:13:40Z</time>
      </trkpt>
      <trkpt lat="45.5748" lon="6.84201">
        <ele>2346.52</ele>
        <time>2016-03-21T12:13:51Z</time>
      </trkpt>
      <trkpt lat="45.57461" lon="6.84198">
        <ele>2348.53</ele>
        <time>2016-03-21T12:13:59Z</time>
      </trkpt>
      <trkpt lat="45.57475" lon="6.84181">
        <ele>2345.54</ele>
        <time>2016-03-21T12:14:32Z</time>
      </trkpt>
      <trkpt lat="45.57493" lon="6.8419">
        <ele>2343.76</ele>
        <time>2016-03-21T12:14:36Z</time>
      </trkpt>
      <trkpt lat="45.5751" lon="6.84213">
        <ele>2340.74</ele>
        <time>2016-03-21T12:14:40Z</time>
      </trkpt>
      <trkpt lat="45.57507" lon="6.84186">
        <ele>2334.82</ele>
        <time>2016-03-21T12:14:45Z</time>
      </trkpt>
      <trkpt lat="45.57494" lon="6.84164">
        <ele>2332.93</ele>
        <time>2016-03-21T12:14:49Z</time>
      </trkpt>
      <trkpt lat="45.5748" lon="6.84143">
        <ele>2329.81</ele>
        <time>2016-03-21T12:14:52Z</time>
      </trkpt>
      <trkpt lat="45.57464" lon="6.84124">
        <ele>2327.13</ele>
        <time>2016-03-21T12:14:55Z</time>
      </trkpt>
      <trkpt lat="45.57444" lon="6.84097">
        <ele>2321.99</ele>
        <time>2016-03-21T12:14:58Z</time>
      </trkpt>
      <trkpt lat="45.57428" lon="6.84069">
        <ele>2321.34</ele>
        <time>2016-03-21T12:15:01Z</time>
      </trkpt>
      <trkpt lat="45.57421" lon="6.84044">
        <ele>2318.64</ele>
        <time>2016-03-21T12:15:03Z</time>
      </trkpt>
      <trkpt lat="45.57417" lon="6.84015">
        <ele>2316.78</ele>
        <time>2016-03-21T12:15:05Z</time>
      </trkpt>
      <trkpt lat="45.57408" lon="6.83991">
        <ele>2313.98</ele>
        <time>2016-03-21T12:15:07Z</time>
      </trkpt>
      <trkpt lat="45.57404" lon="6.83964">
        <ele>2310.03</ele>
        <time>2016-03-21T12:15:09Z</time>
      </trkpt>
      <trkpt lat="45.57397" lon="6.8394">
        <ele>2306.99</ele>
        <time>2016-03-21T12:15:11Z</time>
      </trkpt>
      <trkpt lat="45.57385" lon="6.83919">
        <ele>2303.19</ele>
        <time>2016-03-21T12:15:13Z</time>
      </trkpt>
      <trkpt lat="45.5737" lon="6.83904">
        <ele>2299.68</ele>
        <time>2016-03-21T12:15:15Z</time>
      </trkpt>
      <trkpt lat="45.57352" lon="6.8389">
        <ele>2295.06</ele>
        <time>2016-03-21T12:15:17Z</time>
      </trkpt>
      <trkpt lat="45.57334" lon="6.83878">
        <ele>2291.99</ele>
        <time>2016-03-21T12:15:19Z</time>
      </trkpt>
      <trkpt lat="45.57319" lon="6.83862">
        <ele>2288.83</ele>
        <time>2016-03-21T12:15:21Z</time>
      </trkpt>
      <trkpt lat="45.57303" lon="6.83848">
        <ele>2285.98</ele>
        <time>2016-03-21T12:15:23Z</time>
      </trkpt>
      <trkpt lat="45.57288" lon="6.83831">
        <ele>2282.67</ele>
        <time>2016-03-21T12:15:25Z</time>
      </trkpt>
      <trkpt lat="45.57274" lon="6.83811">
        <ele>2279.02</ele>
        <time>2016-03-21T12:15:27Z</time>
      </trkpt>
      <trkpt lat="45.57257" lon="6.83798">
        <ele>2274.23</ele>
        <time>2016-03-21T12:15:29Z</time>
      </trkpt>
      <trkpt lat="45.57241" lon="6.83782">
        <ele>2272.76</ele>
        <time>2016-03-21T12:15:31Z</time>
      </trkpt>
      <trkpt lat="45.57223" lon="6.83772">
        <ele>2268.06</ele>
        <time>2016-03-21T12:15:33Z</time>
      </trkpt>
      <trkpt lat="45.57205" lon="6.83764">
        <ele>2265.79</ele>
        <time>2016-03-21T12:15:35Z</time>
      </trkpt>
      <trkpt lat="45.57182" lon="6.83749">
        <ele>2260.19</ele>
        <time>2016-03-21T12:15:38Z</time>
      </trkpt>
      <trkpt lat="45.5716" lon="6.8373">
        <ele>2254.83</ele>
        <time>2016-03-21T12:15:41Z</time>
      </trkpt>
      <trkpt lat="45.57138" lon="6.83712">
        <ele>2251.78</ele>
        <time>2016-03-21T12:15:44Z</time>
      </trkpt>
      <trkpt lat="45.57117" lon="6.83692">
        <ele>2249.58</ele>
        <time>2016-03-21T12:15:47Z</time>
      </trkpt>
      <trkpt lat="45.57096" lon="6.8368">
        <ele>2247.61</ele>
        <time>2016-03-21T12:15:50Z</time>
      </trkpt>
      <trkpt lat="45.57072" lon="6.83684">
        <ele>2243.63</ele>
        <time>2016-03-21T12:15:53Z</time>
      </trkpt>
      <trkpt lat="45.57053" lon="6.83686">
        <ele>2242.57</ele>
        <time>2016-03-21T12:15:56Z</time>
      </trkpt>
      <trkpt lat="45.57033" lon="6.83688">
        <ele>2241.57</ele>
        <time>2016-03-21T12:15:59Z</time>
      </trkpt>
      <trkpt lat="45.57011" lon="6.83686">
        <ele>2238.78</ele>
        <time>2016-03-21T12:16:02Z</time>
      </trkpt>
      <trkpt lat="45.56989" lon="6.83676">
        <ele>2237.57</ele>
        <time>2016-03-21T12:16:05Z</time>
      </trkpt>
      <trkpt lat="45.56968" lon="6.83666">
        <ele>2234.59</ele>
        <time>2016-03-21T12:16:08Z</time>
      </trkpt>
      <trkpt lat="45.56951" lon="6.83652">
        <ele>2231.97</ele>
        <time>2016-03-21T12:16:11Z</time>
      </trkpt>
      <trkpt lat="45.56954" lon="6.83626">
        <ele>2210.5</ele>
        <time>2016-03-21T12:16:51Z</time>
      </trkpt>
      <trkpt lat="45.5697" lon="6.83608">
        <ele>2205.79</ele>
        <time>2016-03-21T12:16:55Z</time>
      </trkpt>
      <trkpt lat="45.56986" lon="6.83586">
        <ele>2203.78</ele>
        <time>2016-03-21T12:16:57Z</time>
      </trkpt>
      <trkpt lat="45.56995" lon="6.83562">
        <ele>2199.86</ele>
        <time>2016-03-21T12:16:59Z</time>
      </trkpt>
      <trkpt lat="45.56999" lon="6.83523">
        <ele>2196.18</ele>
        <time>2016-03-21T12:17:01Z</time>
      </trkpt>
      <trkpt lat="45.56991" lon="6.83481">
        <ele>2184.34</ele>
        <time>2016-03-21T12:17:04Z</time>
      </trkpt>
      <trkpt lat="45.56985" lon="6.83447">
        <ele>2178.44</ele>
        <time>2016-03-21T12:17:06Z</time>
      </trkpt>
      <trkpt lat="45.56977" lon="6.83412">
        <ele>2174.05</ele>
        <time>2016-03-21T12:17:08Z</time>
      </trkpt>
      <trkpt lat="45.56969" lon="6.8338">
        <ele>2170.83</ele>
        <time>2016-03-21T12:17:10Z</time>
      </trkpt>
      <trkpt lat="45.56962" lon="6.8335">
        <ele>2167.98</ele>
        <time>2016-03-21T12:17:12Z</time>
      </trkpt>
      <trkpt lat="45.5695" lon="6.83316">
        <ele>2163.82</ele>
        <time>2016-03-21T12:17:15Z</time>
      </trkpt>
      <trkpt lat="45.56939" lon="6.83284">
        <ele>2162.57</ele>
        <time>2016-03-21T12:17:18Z</time>
      </trkpt>
      <trkpt lat="45.5693" lon="6.8326">
        <ele>2161.73</ele>
        <time>2016-03-21T12:17:21Z</time>
      </trkpt>
      <trkpt lat="45.56921" lon="6.83234">
        <ele>2159.93</ele>
        <time>2016-03-21T12:17:24Z</time>
      </trkpt>
      <trkpt lat="45.56914" lon="6.83209">
        <ele>2156.62</ele>
        <time>2016-03-21T12:17:27Z</time>
      </trkpt>
      <trkpt lat="45.56915" lon="6.83177">
        <ele>2154.54</ele>
        <time>2016-03-21T12:17:31Z</time>
      </trkpt>
      <trkpt lat="45.56924" lon="6.83151">
        <ele>2151.58</ele>
        <time>2016-03-21T12:17:37Z</time>
      </trkpt>
      <trkpt lat="45.56935" lon="6.83129">
        <ele>2147.77</ele>
        <time>2016-03-21T12:17:44Z</time>
      </trkpt>
      <trkpt lat="45.5695" lon="6.8311">
        <ele>2143.93</ele>
        <time>2016-03-21T12:17:49Z</time>
      </trkpt>
      <trkpt lat="45.56962" lon="6.83087">
        <ele>2137.9</ele>
        <time>2016-03-21T12:17:52Z</time>
      </trkpt>
      <trkpt lat="45.56978" lon="6.83073">
        <ele>2134.83</ele>
        <time>2016-03-21T12:17:54Z</time>
      </trkpt>
      <trkpt lat="45.56992" lon="6.83056">
        <ele>2132.78</ele>
        <time>2016-03-21T12:17:56Z</time>
      </trkpt>
      <trkpt lat="45.57007" lon="6.83031">
        <ele>2133.49</ele>
        <time>2016-03-21T12:17:59Z</time>
      </trkpt>
      <trkpt lat="45.57004" lon="6.82999">
        <ele>2127.83</ele>
        <time>2016-03-21T12:18:03Z</time>
      </trkpt>
      <trkpt lat="45.56994" lon="6.82973">
        <ele>2125.58</ele>
        <time>2016-03-21T12:18:07Z</time>
      </trkpt>
      <trkpt lat="45.56988" lon="6.82948">
        <ele>2123.61</ele>
        <time>2016-03-21T12:18:11Z</time>
      </trkpt>
      <trkpt lat="45.56985" lon="6.82916">
        <ele>2121.37</ele>
        <time>2016-03-21T12:18:16Z</time>
      </trkpt>
      <trkpt lat="45.56989" lon="6.82891">
        <ele>2118.5</ele>
        <time>2016-03-21T12:18:23Z</time>
      </trkpt>
      <trkpt lat="45.56984" lon="6.82865">
        <ele>2117.34</ele>
        <time>2016-03-21T12:18:28Z</time>
      </trkpt>
      <trkpt lat="45.56976" lon="6.82841">
        <ele>2114.75</ele>
        <time>2016-03-21T12:18:33Z</time>
      </trkpt>
      <trkpt lat="45.56967" lon="6.82817">
        <ele>2114.51</ele>
        <time>2016-03-21T12:18:39Z</time>
      </trkpt>
      <trkpt lat="45.56958" lon="6.82795">
        <ele>2115.48</ele>
        <time>2016-03-21T12:18:49Z</time>
      </trkpt>
      <trkpt lat="45.56937" lon="6.8281">
        <ele>2114.97</ele>
        <time>2016-03-21T12:21:10Z</time>
      </trkpt>
      <trkpt lat="45.56918" lon="6.82822">
        <ele>2114.5</ele>
        <time>2016-03-21T12:21:14Z</time>
      </trkpt>
      <trkpt lat="45.56899" lon="6.82833">
        <ele>2121.23</ele>
        <time>2016-03-21T12:21:18Z</time>
      </trkpt>
      <trkpt lat="45.56881" lon="6.82844">
        <ele>2126.25</ele>
        <time>2016-03-21T12:21:22Z</time>
      </trkpt>
      <trkpt lat="45.5686" lon="6.82855">
        <ele>2135.03</ele>
        <time>2016-03-21T12:21:27Z</time>
      </trkpt>
      <trkpt lat="45.56842" lon="6.82865">
        <ele>2140.08</ele>
        <time>2016-03-21T12:21:31Z</time>
      </trkpt>
      <trkpt lat="45.56823" lon="6.82873">
        <ele>2143.32</ele>
        <time>2016-03-21T12:21:35Z</time>
      </trkpt>
      <trkpt lat="45.56805" lon="6.82882">
        <ele>2147.28</ele>
        <time>2016-03-21T12:21:39Z</time>
      </trkpt>
      <trkpt lat="45.56788" lon="6.82891">
        <ele>2154.27</ele>
        <time>2016-03-21T12:21:43Z</time>
      </trkpt>
      <trkpt lat="45.56769" lon="6.82901">
        <ele>2159.31</ele>
        <time>2016-03-21T12:21:47Z</time>
      </trkpt>
      <trkpt lat="45.56752" lon="6.82909">
        <ele>2162.29</ele>
        <time>2016-03-21T12:21:51Z</time>
      </trkpt>
      <trkpt lat="45.56735" lon="6.82919">
        <ele>2165.29</ele>
        <time>2016-03-21T12:21:55Z</time>
      </trkpt>
      <trkpt lat="45.56717" lon="6.82928">
        <ele>2169.28</ele>
        <time>2016-03-21T12:21:59Z</time>
      </trkpt>
      <trkpt lat="45.56696" lon="6.8294">
        <ele>2176.24</ele>
        <time>2016-03-21T12:22:04Z</time>
      </trkpt>
      <trkpt lat="45.56676" lon="6.8295">
        <ele>2180.32</ele>
        <time>2016-03-21T12:22:09Z</time>
      </trkpt>
      <trkpt lat="45.56658" lon="6.82961">
        <ele>2183.71</ele>
        <time>2016-03-21T12:22:13Z</time>
      </trkpt>
      <trkpt lat="45.56639" lon="6.82972">
        <ele>2185.45</ele>
        <time>2016-03-21T12:22:18Z</time>
      </trkpt>
      <trkpt lat="45.56621" lon="6.82981">
        <ele>2187.49</ele>
        <time>2016-03-21T12:22:22Z</time>
      </trkpt>
      <trkpt lat="45.56603" lon="6.82991">
        <ele>2189.33</ele>
        <time>2016-03-21T12:22:26Z</time>
      </trkpt>
      <trkpt lat="45.56585" lon="6.83">
        <ele>2189.53</ele>
        <time>2016-03-21T12:22:30Z</time>
      </trkpt>
      <trkpt lat="45.56567" lon="6.83011">
        <ele>2191.32</ele>
        <time>2016-03-21T12:22:34Z</time>
      </trkpt>
      <trkpt lat="45.5655" lon="6.83023">
        <ele>2194.32</ele>
        <time>2016-03-21T12:22:38Z</time>
      </trkpt>
      <trkpt lat="45.5653" lon="6.83032">
        <ele>2196.32</ele>
        <time>2016-03-21T12:22:42Z</time>
      </trkpt>
      <trkpt lat="45.56512" lon="6.83043">
        <ele>2198.45</ele>
        <time>2016-03-21T12:22:46Z</time>
      </trkpt>
      <trkpt lat="45.56495" lon="6.83052">
        <ele>2201.25</ele>
        <time>2016-03-21T12:22:50Z</time>
      </trkpt>
      <trkpt lat="45.56473" lon="6.8306">
        <ele>2208.07</ele>
        <time>2016-03-21T12:22:55Z</time>
      </trkpt>
      <trkpt lat="45.56452" lon="6.83068">
        <ele>2212.25</ele>
        <time>2016-03-21T12:23:00Z</time>
      </trkpt>
      <trkpt lat="45.56433" lon="6.8308">
        <ele>2217.68</ele>
        <time>2016-03-21T12:23:05Z</time>
      </trkpt>
      <trkpt lat="45.56415" lon="6.83089">
        <ele>2219.48</ele>
        <time>2016-03-21T12:23:09Z</time>
      </trkpt>
      <trkpt lat="45.56394" lon="6.83099">
        <ele>2225.29</ele>
        <time>2016-03-21T12:23:14Z</time>
      </trkpt>
      <trkpt lat="45.56375" lon="6.83106">
        <ele>2230.13</ele>
        <time>2016-03-21T12:23:19Z</time>
      </trkpt>
      <trkpt lat="45.56358" lon="6.83118">
        <ele>2235.51</ele>
        <time>2016-03-21T12:23:23Z</time>
      </trkpt>
      <trkpt lat="45.56341" lon="6.83131">
        <ele>2238.31</ele>
        <time>2016-03-21T12:23:26Z</time>
      </trkpt>
      <trkpt lat="45.56322" lon="6.8314">
        <ele>2240.93</ele>
        <time>2016-03-21T12:23:30Z</time>
      </trkpt>
      <trkpt lat="45.56303" lon="6.83152">
        <ele>2243.53</ele>
        <time>2016-03-21T12:23:34Z</time>
      </trkpt>
      <trkpt lat="45.56283" lon="6.83163">
        <ele>2242.73</ele>
        <time>2016-03-21T12:23:39Z</time>
      </trkpt>
      <trkpt lat="45.56264" lon="6.83173">
        <ele>2244.49</ele>
        <time>2016-03-21T12:23:43Z</time>
      </trkpt>
      <trkpt lat="45.56246" lon="6.83182">
        <ele>2245.36</ele>
        <time>2016-03-21T12:23:47Z</time>
      </trkpt>
      <trkpt lat="45.56227" lon="6.83192">
        <ele>2246.52</ele>
        <time>2016-03-21T12:23:51Z</time>
      </trkpt>
      <trkpt lat="45.56206" lon="6.83202">
        <ele>2247.49</ele>
        <time>2016-03-21T12:23:56Z</time>
      </trkpt>
      <trkpt lat="45.56189" lon="6.83211">
        <ele>2253.83</ele>
        <time>2016-03-21T12:24:00Z</time>
      </trkpt>
      <trkpt lat="45.56171" lon="6.8322">
        <ele>2262.99</ele>
        <time>2016-03-21T12:24:04Z</time>
      </trkpt>
      <trkpt lat="45.56154" lon="6.83228">
        <ele>2272.19</ele>
        <time>2016-03-21T12:24:08Z</time>
      </trkpt>
      <trkpt lat="45.56133" lon="6.83238">
        <ele>2283.99</ele>
        <time>2016-03-21T12:24:13Z</time>
      </trkpt>
      <trkpt lat="45.56114" lon="6.8325">
        <ele>2297.99</ele>
        <time>2016-03-21T12:24:18Z</time>
      </trkpt>
      <trkpt lat="45.56094" lon="6.8326">
        <ele>2310.86</ele>
        <time>2016-03-21T12:24:23Z</time>
      </trkpt>
      <trkpt lat="45.56075" lon="6.83271">
        <ele>2323.82</ele>
        <time>2016-03-21T12:24:28Z</time>
      </trkpt>
      <trkpt lat="45.56056" lon="6.83281">
        <ele>2336.02</ele>
        <time>2016-03-21T12:24:33Z</time>
      </trkpt>
      <trkpt lat="45.56036" lon="6.83292">
        <ele>2347.83</ele>
        <time>2016-03-21T12:24:38Z</time>
      </trkpt>
      <trkpt lat="45.56016" lon="6.83303">
        <ele>2359.21</ele>
        <time>2016-03-21T12:24:43Z</time>
      </trkpt>
      <trkpt lat="45.55999" lon="6.83312">
        <ele>2368.95</ele>
        <time>2016-03-21T12:24:47Z</time>
      </trkpt>
      <trkpt lat="45.55981" lon="6.83322">
        <ele>2375.23</ele>
        <time>2016-03-21T12:24:51Z</time>
      </trkpt>
      <trkpt lat="45.55962" lon="6.83332">
        <ele>2388.95</ele>
        <time>2016-03-21T12:24:56Z</time>
      </trkpt>
      <trkpt lat="45.55943" lon="6.83344">
        <ele>2401.63</ele>
        <time>2016-03-21T12:25:01Z</time>
      </trkpt>
      <trkpt lat="45.55923" lon="6.83353">
        <ele>2413.98</ele>
        <time>2016-03-21T12:25:06Z</time>
      </trkpt>
      <trkpt lat="45.55904" lon="6.83365">
        <ele>2426.82</ele>
        <time>2016-03-21T12:25:11Z</time>
      </trkpt>
      <trkpt lat="45.55885" lon="6.83376">
        <ele>2439.79</ele>
        <time>2016-03-21T12:25:16Z</time>
      </trkpt>
      <trkpt lat="45.55866" lon="6.83386">
        <ele>2452.82</ele>
        <time>2016-03-21T12:25:21Z</time>
      </trkpt>
      <trkpt lat="45.55846" lon="6.83396">
        <ele>2466.98</ele>
        <time>2016-03-21T12:25:26Z</time>
      </trkpt>
      <trkpt lat="45.55828" lon="6.83405">
        <ele>2481.58</ele>
        <time>2016-03-21T12:25:31Z</time>
      </trkpt>
      <trkpt lat="45.55809" lon="6.83416">
        <ele>2494.82</ele>
        <time>2016-03-21T12:25:36Z</time>
      </trkpt>
      <trkpt lat="45.55788" lon="6.83427">
        <ele>2506.02</ele>
        <time>2016-03-21T12:25:41Z</time>
      </trkpt>
      <trkpt lat="45.5577" lon="6.83436">
        <ele>2518.16</ele>
        <time>2016-03-21T12:25:46Z</time>
      </trkpt>
      <trkpt lat="45.55751" lon="6.83447">
        <ele>2532.58</ele>
        <time>2016-03-21T12:25:51Z</time>
      </trkpt>
      <trkpt lat="45.55732" lon="6.83457">
        <ele>2546.79</ele>
        <time>2016-03-21T12:25:56Z</time>
      </trkpt>
      <trkpt lat="45.55712" lon="6.83468">
        <ele>2557.23</ele>
        <time>2016-03-21T12:26:01Z</time>
      </trkpt>
      <trkpt lat="45.55693" lon="6.83479">
        <ele>2569.82</ele>
        <time>2016-03-21T12:26:06Z</time>
      </trkpt>
      <trkpt lat="45.55672" lon="6.83489">
        <ele>2582.82</ele>
        <time>2016-03-21T12:26:11Z</time>
      </trkpt>
      <trkpt lat="45.55653" lon="6.83499">
        <ele>2595.82</ele>
        <time>2016-03-21T12:26:16Z</time>
      </trkpt>
      <trkpt lat="45.55634" lon="6.83508">
        <ele>2607.98</ele>
        <time>2016-03-21T12:26:21Z</time>
      </trkpt>
      <trkpt lat="45.55615" lon="6.83519">
        <ele>2619.99</ele>
        <time>2016-03-21T12:26:26Z</time>
      </trkpt>
      <trkpt lat="45.55595" lon="6.83529">
        <ele>2632.98</ele>
        <time>2016-03-21T12:26:31Z</time>
      </trkpt>
      <trkpt lat="45.55576" lon="6.83539">
        <ele>2645.02</ele>
        <time>2016-03-21T12:26:36Z</time>
      </trkpt>
      <trkpt lat="45.55557" lon="6.8355">
        <ele>2657.99</ele>
        <time>2016-03-21T12:26:41Z</time>
      </trkpt>
      <trkpt lat="45.55538" lon="6.8356">
        <ele>2670</ele>
        <time>2016-03-21T12:26:46Z</time>
      </trkpt>
      <trkpt lat="45.55521" lon="6.83569">
        <ele>2676.24</ele>
        <time>2016-03-21T12:26:50Z</time>
      </trkpt>
      <trkpt lat="45.55504" lon="6.83578">
        <ele>2678.52</ele>
        <time>2016-03-21T12:26:54Z</time>
      </trkpt>
      <trkpt lat="45.55485" lon="6.83583">
        <ele>2678.53</ele>
        <time>2016-03-21T12:27:13Z</time>
      </trkpt>
      <trkpt lat="45.55466" lon="6.83581">
        <ele>2688.97</ele>
        <time>2016-03-21T12:28:32Z</time>
      </trkpt>
      <trkpt lat="45.55457" lon="6.83603">
        <ele>2684.73</ele>
        <time>2016-03-21T12:30:41Z</time>
      </trkpt>
      <trkpt lat="45.55443" lon="6.8362">
        <ele>2689.53</ele>
        <time>2016-03-21T12:36:29Z</time>
      </trkpt>
      <trkpt lat="45.55437" lon="6.83645">
        <ele>2688.53</ele>
        <time>2016-03-21T12:38:39Z</time>
      </trkpt>
      <trkpt lat="45.5545" lon="6.83618">
        <ele>2683</ele>
        <time>2016-03-21T12:38:42Z</time>
      </trkpt>
      <trkpt lat="45.55473" lon="6.8362">
        <ele>2695.21</ele>
        <time>2016-03-21T12:40:21Z</time>
      </trkpt>
      <trkpt lat="45.55462" lon="6.83649">
        <ele>2692.62</ele>
        <time>2016-03-21T12:40:27Z</time>
      </trkpt>
      <trkpt lat="45.55454" lon="6.83681">
        <ele>2691.96</ele>
        <time>2016-03-21T12:40:30Z</time>
      </trkpt>
      <trkpt lat="45.55444" lon="6.83708">
        <ele>2695.63</ele>
        <time>2016-03-21T12:40:33Z</time>
      </trkpt>
      <trkpt lat="45.55436" lon="6.8374">
        <ele>2704.75</ele>
        <time>2016-03-21T12:40:36Z</time>
      </trkpt>
      <trkpt lat="45.5543" lon="6.83764">
        <ele>2711.9</ele>
        <time>2016-03-21T12:40:38Z</time>
      </trkpt>
      <trkpt lat="45.55422" lon="6.838">
        <ele>2722.54</ele>
        <time>2016-03-21T12:40:41Z</time>
      </trkpt>
      <trkpt lat="45.55414" lon="6.83832">
        <ele>2735.68</ele>
        <time>2016-03-21T12:40:44Z</time>
      </trkpt>
      <trkpt lat="45.55408" lon="6.83864">
        <ele>2751.28</ele>
        <time>2016-03-21T12:40:47Z</time>
      </trkpt>
      <trkpt lat="45.55399" lon="6.83893">
        <ele>2765.48</ele>
        <time>2016-03-21T12:40:50Z</time>
      </trkpt>
      <trkpt lat="45.5539" lon="6.83924">
        <ele>2777.37</ele>
        <time>2016-03-21T12:40:53Z</time>
      </trkpt>
      <trkpt lat="45.55381" lon="6.83959">
        <ele>2792.28</ele>
        <time>2016-03-21T12:40:56Z</time>
      </trkpt>
      <trkpt lat="45.55371" lon="6.83993">
        <ele>2806.67</ele>
        <time>2016-03-21T12:40:59Z</time>
      </trkpt>
      <trkpt lat="45.55358" lon="6.84029">
        <ele>2818.72</ele>
        <time>2016-03-21T12:41:02Z</time>
      </trkpt>
      <trkpt lat="45.55353" lon="6.84062">
        <ele>2824.94</ele>
        <time>2016-03-21T12:41:04Z</time>
      </trkpt>
      <trkpt lat="45.55344" lon="6.84099">
        <ele>2826.31</ele>
        <time>2016-03-21T12:41:06Z</time>
      </trkpt>
      <trkpt lat="45.55332" lon="6.84133">
        <ele>2833.72</ele>
        <time>2016-03-21T12:41:08Z</time>
      </trkpt>
      <trkpt lat="45.55324" lon="6.8417">
        <ele>2834.82</ele>
        <time>2016-03-21T12:41:10Z</time>
      </trkpt>
      <trkpt lat="45.55319" lon="6.84204">
        <ele>2835.39</ele>
        <time>2016-03-21T12:41:11Z</time>
      </trkpt>
      <trkpt lat="45.55313" lon="6.84239">
        <ele>2838.09</ele>
        <time>2016-03-21T12:41:13Z</time>
      </trkpt>
      <trkpt lat="45.55302" lon="6.84265">
        <ele>2842.88</ele>
        <time>2016-03-21T12:41:16Z</time>
      </trkpt>
      <trkpt lat="45.5529" lon="6.84289">
        <ele>2849.74</ele>
        <time>2016-03-21T12:41:18Z</time>
      </trkpt>
      <trkpt lat="45.55287" lon="6.84315">
        <ele>2855.62</ele>
        <time>2016-03-21T12:41:20Z</time>
      </trkpt>
      <trkpt lat="45.55271" lon="6.84349">
        <ele>2862.86</ele>
        <time>2016-03-21T12:41:23Z</time>
      </trkpt>
      <trkpt lat="45.55259" lon="6.84373">
        <ele>2868.78</ele>
        <time>2016-03-21T12:41:25Z</time>
      </trkpt>
      <trkpt lat="45.55248" lon="6.84413">
        <ele>2874.62</ele>
        <time>2016-03-21T12:41:27Z</time>
      </trkpt>
      <trkpt lat="45.5524" lon="6.84437">
        <ele>2882.37</ele>
        <time>2016-03-21T12:41:29Z</time>
      </trkpt>
      <trkpt lat="45.55235" lon="6.84463">
        <ele>2896.29</ele>
        <time>2016-03-21T12:41:32Z</time>
      </trkpt>
      <trkpt lat="45.55227" lon="6.84495">
        <ele>2903.72</ele>
        <time>2016-03-21T12:41:34Z</time>
      </trkpt>
      <trkpt lat="45.55219" lon="6.84523">
        <ele>2912.34</ele>
        <time>2016-03-21T12:41:36Z</time>
      </trkpt>
      <trkpt lat="45.55209" lon="6.84554">
        <ele>2918.76</ele>
        <time>2016-03-21T12:41:38Z</time>
      </trkpt>
      <trkpt lat="45.55198" lon="6.84585">
        <ele>2923.82</ele>
        <time>2016-03-21T12:41:40Z</time>
      </trkpt>
      <trkpt lat="45.55186" lon="6.84618">
        <ele>2928.18</ele>
        <time>2016-03-21T12:41:42Z</time>
      </trkpt>
      <trkpt lat="45.55172" lon="6.84654">
        <ele>2933.96</ele>
        <time>2016-03-21T12:41:44Z</time>
      </trkpt>
      <trkpt lat="45.55161" lon="6.84687">
        <ele>2938.83</ele>
        <time>2016-03-21T12:41:46Z</time>
      </trkpt>
      <trkpt lat="45.55147" lon="6.84721">
        <ele>2943.82</ele>
        <time>2016-03-21T12:41:48Z</time>
      </trkpt>
      <trkpt lat="45.55143" lon="6.84747">
        <ele>2949.62</ele>
        <time>2016-03-21T12:41:50Z</time>
      </trkpt>
      <trkpt lat="45.5513" lon="6.84782">
        <ele>2954.01</ele>
        <time>2016-03-21T12:41:52Z</time>
      </trkpt>
      <trkpt lat="45.55123" lon="6.84813">
        <ele>2958.03</ele>
        <time>2016-03-21T12:41:54Z</time>
      </trkpt>
      <trkpt lat="45.55113" lon="6.84845">
        <ele>2961.07</ele>
        <time>2016-03-21T12:41:56Z</time>
      </trkpt>
      <trkpt lat="45.55205" lon="6.84616">
        <ele>3097.03</ele>
        <time>2016-03-21T12:41:59Z</time>
      </trkpt>
      <trkpt lat="45.55197" lon="6.84644">
        <ele>3137.19</ele>
        <time>2016-03-21T12:42:01Z</time>
      </trkpt>
      <trkpt lat="45.55188" lon="6.8467">
        <ele>3154.07</ele>
        <time>2016-03-21T12:42:04Z</time>
      </trkpt>
      <trkpt lat="45.55182" lon="6.847">
        <ele>3170.68</ele>
        <time>2016-03-21T12:42:08Z</time>
      </trkpt>
      <trkpt lat="45.55173" lon="6.84728">
        <ele>3181.18</ele>
        <time>2016-03-21T12:42:13Z</time>
      </trkpt>
      <trkpt lat="45.55165" lon="6.84751">
        <ele>3213.56</ele>
        <time>2016-03-21T12:44:18Z</time>
      </trkpt>
      <trkpt lat="45.55169" lon="6.84777">
        <ele>3212.53</ele>
        <time>2016-03-21T12:44:56Z</time>
      </trkpt>
      <trkpt lat="45.55187" lon="6.8479">
        <ele>3209.74</ele>
        <time>2016-03-21T12:47:55Z</time>
      </trkpt>
      <trkpt lat="45.55205" lon="6.84798">
        <ele>3204.82</ele>
        <time>2016-03-21T12:48:04Z</time>
      </trkpt>
      <trkpt lat="45.55224" lon="6.84792">
        <ele>3195.79</ele>
        <time>2016-03-21T12:48:09Z</time>
      </trkpt>
      <trkpt lat="45.55246" lon="6.84786">
        <ele>3187.83</ele>
        <time>2016-03-21T12:48:14Z</time>
      </trkpt>
      <trkpt lat="45.55269" lon="6.84787">
        <ele>3180.83</ele>
        <time>2016-03-21T12:48:18Z</time>
      </trkpt>
      <trkpt lat="45.55287" lon="6.84795">
        <ele>3173.94</ele>
        <time>2016-03-21T12:48:24Z</time>
      </trkpt>
      <trkpt lat="45.55289" lon="6.84766">
        <ele>3159.84</ele>
        <time>2016-03-21T12:49:10Z</time>
      </trkpt>
      <trkpt lat="45.55276" lon="6.84743">
        <ele>3154.78</ele>
        <time>2016-03-21T12:49:14Z</time>
      </trkpt>
      <trkpt lat="45.55265" lon="6.84718">
        <ele>3150.81</ele>
        <time>2016-03-21T12:49:18Z</time>
      </trkpt>
      <trkpt lat="45.55287" lon="6.84724">
        <ele>3144.7</ele>
        <time>2016-03-21T12:49:26Z</time>
      </trkpt>
      <trkpt lat="45.55309" lon="6.84732">
        <ele>3143.53</ele>
        <time>2016-03-21T12:49:30Z</time>
      </trkpt>
      <trkpt lat="45.55326" lon="6.84741">
        <ele>3139.02</ele>
        <time>2016-03-21T12:49:33Z</time>
      </trkpt>
      <trkpt lat="45.55343" lon="6.84764">
        <ele>3132.79</ele>
        <time>2016-03-21T12:49:38Z</time>
      </trkpt>
      <trkpt lat="45.55362" lon="6.84749">
        <ele>3125.17</ele>
        <time>2016-03-21T12:49:42Z</time>
      </trkpt>
      <trkpt lat="45.5538" lon="6.8474">
        <ele>3114.92</ele>
        <time>2016-03-21T12:49:47Z</time>
      </trkpt>
      <trkpt lat="45.554" lon="6.84738">
        <ele>3103.3</ele>
        <time>2016-03-21T12:49:52Z</time>
      </trkpt>
      <trkpt lat="45.55419" lon="6.84752">
        <ele>3095.98</ele>
        <time>2016-03-21T12:49:57Z</time>
      </trkpt>
      <trkpt lat="45.55433" lon="6.84778">
        <ele>3087.03</ele>
        <time>2016-03-21T12:50:02Z</time>
      </trkpt>
      <trkpt lat="45.55447" lon="6.848">
        <ele>3085.53</ele>
        <time>2016-03-21T12:50:06Z</time>
      </trkpt>
      <trkpt lat="45.55453" lon="6.8483">
        <ele>3082.78</ele>
        <time>2016-03-21T12:50:09Z</time>
      </trkpt>
      <trkpt lat="45.55463" lon="6.84854">
        <ele>3081.58</ele>
        <time>2016-03-21T12:50:11Z</time>
      </trkpt>
      <trkpt lat="45.55469" lon="6.84891">
        <ele>3076</ele>
        <time>2016-03-21T12:50:14Z</time>
      </trkpt>
      <trkpt lat="45.55488" lon="6.84914">
        <ele>3066.96</ele>
        <time>2016-03-21T12:50:17Z</time>
      </trkpt>
      <trkpt lat="45.55487" lon="6.84942">
        <ele>3056.96</ele>
        <time>2016-03-21T12:50:40Z</time>
      </trkpt>
      <trkpt lat="45.55499" lon="6.84968">
        <ele>3047.06</ele>
        <time>2016-03-21T12:50:45Z</time>
      </trkpt>
      <trkpt lat="45.55513" lon="6.84985">
        <ele>3042.87</ele>
        <time>2016-03-21T12:50:47Z</time>
      </trkpt>
      <trkpt lat="45.55531" lon="6.85008">
        <ele>3037.03</ele>
        <time>2016-03-21T12:50:50Z</time>
      </trkpt>
      <trkpt lat="45.55554" lon="6.85026">
        <ele>3031.22</ele>
        <time>2016-03-21T12:50:53Z</time>
      </trkpt>
      <trkpt lat="45.55568" lon="6.85053">
        <ele>3021.05</ele>
        <time>2016-03-21T12:50:57Z</time>
      </trkpt>
      <trkpt lat="45.55587" lon="6.85059">
        <ele>3015.42</ele>
        <time>2016-03-21T12:51:00Z</time>
      </trkpt>
      <trkpt lat="45.55609" lon="6.85046">
        <ele>3010.76</ele>
        <time>2016-03-21T12:51:04Z</time>
      </trkpt>
      <trkpt lat="45.55629" lon="6.85043">
        <ele>3010.7</ele>
        <time>2016-03-21T12:51:06Z</time>
      </trkpt>
      <trkpt lat="45.55655" lon="6.85044">
        <ele>3010.69</ele>
        <time>2016-03-21T12:51:09Z</time>
      </trkpt>
      <trkpt lat="45.55666" lon="6.85021">
        <ele>3006.06</ele>
        <time>2016-03-21T12:51:11Z</time>
      </trkpt>
      <trkpt lat="45.55669" lon="6.84992">
        <ele>2996.38</ele>
        <time>2016-03-21T12:51:14Z</time>
      </trkpt>
      <trkpt lat="45.55679" lon="6.84966">
        <ele>2994.57</ele>
        <time>2016-03-21T12:51:18Z</time>
      </trkpt>
      <trkpt lat="45.55697" lon="6.84956">
        <ele>2991.39</ele>
        <time>2016-03-21T12:51:23Z</time>
      </trkpt>
      <trkpt lat="45.55719" lon="6.84951">
        <ele>2989.77</ele>
        <time>2016-03-21T12:51:26Z</time>
      </trkpt>
      <trkpt lat="45.55742" lon="6.84952">
        <ele>2984.86</ele>
        <time>2016-03-21T12:51:29Z</time>
      </trkpt>
      <trkpt lat="45.55761" lon="6.84957">
        <ele>2983.58</ele>
        <time>2016-03-21T12:51:31Z</time>
      </trkpt>
      <trkpt lat="45.55781" lon="6.84952">
        <ele>2979.05</ele>
        <time>2016-03-21T12:51:33Z</time>
      </trkpt>
      <trkpt lat="45.55806" lon="6.84943">
        <ele>2974.82</ele>
        <time>2016-03-21T12:51:36Z</time>
      </trkpt>
      <trkpt lat="45.55816" lon="6.84921">
        <ele>2969.54</ele>
        <time>2016-03-21T12:51:39Z</time>
      </trkpt>
      <trkpt lat="45.55831" lon="6.84905">
        <ele>2968.57</ele>
        <time>2016-03-21T12:51:41Z</time>
      </trkpt>
      <trkpt lat="45.55855" lon="6.84882">
        <ele>2963.25</ele>
        <time>2016-03-21T12:51:43Z</time>
      </trkpt>
      <trkpt lat="45.55866" lon="6.84851">
        <ele>2958.24</ele>
        <time>2016-03-21T12:51:45Z</time>
      </trkpt>
      <trkpt lat="45.55888" lon="6.84832">
        <ele>2954.04</ele>
        <time>2016-03-21T12:51:47Z</time>
      </trkpt>
      <trkpt lat="45.55897" lon="6.84799">
        <ele>2947.23</ele>
        <time>2016-03-21T12:51:50Z</time>
      </trkpt>
      <trkpt lat="45.55887" lon="6.8477">
        <ele>2940.87</ele>
        <time>2016-03-21T12:51:53Z</time>
      </trkpt>
      <trkpt lat="45.55881" lon="6.84743">
        <ele>2928.03</ele>
        <time>2016-03-21T12:51:58Z</time>
      </trkpt>
      <trkpt lat="45.55862" lon="6.84742">
        <ele>2902.49</ele>
        <time>2016-03-21T12:52:04Z</time>
      </trkpt>
      <trkpt lat="45.55853" lon="6.84718">
        <ele>2882.86</ele>
        <time>2016-03-21T12:52:14Z</time>
      </trkpt>
      <trkpt lat="45.55846" lon="6.84694">
        <ele>2870.21</ele>
        <time>2016-03-21T12:52:24Z</time>
      </trkpt>
      <trkpt lat="45.55835" lon="6.84667">
        <ele>2863.75</ele>
        <time>2016-03-21T12:52:30Z</time>
      </trkpt>
      <trkpt lat="45.55825" lon="6.84642">
        <ele>2860.58</ele>
        <time>2016-03-21T12:52:34Z</time>
      </trkpt>
      <trkpt lat="45.55816" lon="6.8462">
        <ele>2858.74</ele>
        <time>2016-03-21T12:52:37Z</time>
      </trkpt>
      <trkpt lat="45.55803" lon="6.84599">
        <ele>2854.85</ele>
        <time>2016-03-21T12:52:40Z</time>
      </trkpt>
      <trkpt lat="45.55786" lon="6.84579">
        <ele>2849.86</ele>
        <time>2016-03-21T12:52:43Z</time>
      </trkpt>
      <trkpt lat="45.55771" lon="6.84564">
        <ele>2848.58</ele>
        <time>2016-03-21T12:52:45Z</time>
      </trkpt>
      <trkpt lat="45.55754" lon="6.84551">
        <ele>2848.53</ele>
        <time>2016-03-21T12:52:47Z</time>
      </trkpt>
      <trkpt lat="45.55732" lon="6.84535">
        <ele>2842.87</ele>
        <time>2016-03-21T12:52:50Z</time>
      </trkpt>
      <trkpt lat="45.55719" lon="6.84514">
        <ele>2842.54</ele>
        <time>2016-03-21T12:52:52Z</time>
      </trkpt>
      <trkpt lat="45.55703" lon="6.84499">
        <ele>2840.77</ele>
        <time>2016-03-21T12:52:54Z</time>
      </trkpt>
      <trkpt lat="45.55688" lon="6.84478">
        <ele>2835.9</ele>
        <time>2016-03-21T12:52:56Z</time>
      </trkpt>
      <trkpt lat="45.55669" lon="6.84462">
        <ele>2832.19</ele>
        <time>2016-03-21T12:52:58Z</time>
      </trkpt>
      <trkpt lat="45.55654" lon="6.84446">
        <ele>2828.04</ele>
        <time>2016-03-21T12:53:00Z</time>
      </trkpt>
      <trkpt lat="45.55642" lon="6.84413">
        <ele>2824.59</ele>
        <time>2016-03-21T12:53:03Z</time>
      </trkpt>
      <trkpt lat="45.55634" lon="6.84384">
        <ele>2821.75</ele>
        <time>2016-03-21T12:53:06Z</time>
      </trkpt>
      <trkpt lat="45.55626" lon="6.84357">
        <ele>2818.94</ele>
        <time>2016-03-21T12:53:09Z</time>
      </trkpt>
      <trkpt lat="45.55616" lon="6.84332">
        <ele>2816.77</ele>
        <time>2016-03-21T12:53:12Z</time>
      </trkpt>
      <trkpt lat="45.55603" lon="6.84306">
        <ele>2815.54</ele>
        <time>2016-03-21T12:53:15Z</time>
      </trkpt>
      <trkpt lat="45.5559" lon="6.8428">
        <ele>2812.94</ele>
        <time>2016-03-21T12:53:18Z</time>
      </trkpt>
      <trkpt lat="45.55577" lon="6.8426">
        <ele>2811.73</ele>
        <time>2016-03-21T12:53:21Z</time>
      </trkpt>
      <trkpt lat="45.55563" lon="6.84242">
        <ele>2811.53</ele>
        <time>2016-03-21T12:53:24Z</time>
      </trkpt>
      <trkpt lat="45.55549" lon="6.84221">
        <ele>2807.58</ele>
        <time>2016-03-21T12:53:28Z</time>
      </trkpt>
      <trkpt lat="45.55543" lon="6.84194">
        <ele>2807.34</ele>
        <time>2016-03-21T12:53:32Z</time>
      </trkpt>
      <trkpt lat="45.5553" lon="6.84164">
        <ele>2803.56</ele>
        <time>2016-03-21T12:53:37Z</time>
      </trkpt>
      <trkpt lat="45.5552" lon="6.84136">
        <ele>2799.94</ele>
        <time>2016-03-21T12:53:41Z</time>
      </trkpt>
      <trkpt lat="45.55509" lon="6.84109">
        <ele>2795.82</ele>
        <time>2016-03-21T12:53:46Z</time>
      </trkpt>
      <trkpt lat="45.55511" lon="6.84078">
        <ele>2797.52</ele>
        <time>2016-03-21T12:53:53Z</time>
      </trkpt>
      <trkpt lat="45.5551" lon="6.84046">
        <ele>2784.81</ele>
        <time>2016-03-21T12:54:23Z</time>
      </trkpt>
      <trkpt lat="45.55511" lon="6.84019">
        <ele>2784.53</ele>
        <time>2016-03-21T12:54:27Z</time>
      </trkpt>
      <trkpt lat="45.55512" lon="6.83982">
        <ele>2783.54</ele>
        <time>2016-03-21T12:54:30Z</time>
      </trkpt>
      <trkpt lat="45.55506" lon="6.83953">
        <ele>2777.58</ele>
        <time>2016-03-21T12:54:33Z</time>
      </trkpt>
      <trkpt lat="45.55507" lon="6.83914">
        <ele>2772.99</ele>
        <time>2016-03-21T12:54:36Z</time>
      </trkpt>
      <trkpt lat="45.55507" lon="6.83885">
        <ele>2767.03</ele>
        <time>2016-03-21T12:54:39Z</time>
      </trkpt>
      <trkpt lat="45.55502" lon="6.83851">
        <ele>2761.8</ele>
        <time>2016-03-21T12:54:42Z</time>
      </trkpt>
      <trkpt lat="45.55481" lon="6.83837">
        <ele>2757.76</ele>
        <time>2016-03-21T12:54:45Z</time>
      </trkpt>
      <trkpt lat="45.55462" lon="6.8385">
        <ele>2755.78</ele>
        <time>2016-03-21T12:54:47Z</time>
      </trkpt>
      <trkpt lat="45.55449" lon="6.83874">
        <ele>2749.52</ele>
        <time>2016-03-21T12:54:50Z</time>
      </trkpt>
      <trkpt lat="45.55432" lon="6.83892">
        <ele>2745.82</ele>
        <time>2016-03-21T12:54:53Z</time>
      </trkpt>
      <trkpt lat="45.55418" lon="6.83914">
        <ele>2744.57</ele>
        <time>2016-03-21T12:54:56Z</time>
      </trkpt>
      <trkpt lat="45.55398" lon="6.8393">
        <ele>2741.78</ele>
        <time>2016-03-21T12:54:59Z</time>
      </trkpt>
      <trkpt lat="45.55378" lon="6.83944">
        <ele>2739.74</ele>
        <time>2016-03-21T12:55:02Z</time>
      </trkpt>
      <trkpt lat="45.55359" lon="6.83954">
        <ele>2737.77</ele>
        <time>2016-03-21T12:55:05Z</time>
      </trkpt>
      <trkpt lat="45.55341" lon="6.83957">
        <ele>2734.78</ele>
        <time>2016-03-21T12:55:08Z</time>
      </trkpt>
      <trkpt lat="45.55323" lon="6.83961">
        <ele>2731.78</ele>
        <time>2016-03-21T12:55:11Z</time>
      </trkpt>
      <trkpt lat="45.55303" lon="6.83966">
        <ele>2730.57</ele>
        <time>2016-03-21T12:55:14Z</time>
      </trkpt>
      <trkpt lat="45.55284" lon="6.83965">
        <ele>2727.78</ele>
        <time>2016-03-21T12:55:17Z</time>
      </trkpt>
      <trkpt lat="45.55264" lon="6.83953">
        <ele>2726.57</ele>
        <time>2016-03-21T12:55:20Z</time>
      </trkpt>
      <trkpt lat="45.55244" lon="6.83944">
        <ele>2721.99</ele>
        <time>2016-03-21T12:55:23Z</time>
      </trkpt>
      <trkpt lat="45.55224" lon="6.83929">
        <ele>2719.58</ele>
        <time>2016-03-21T12:55:26Z</time>
      </trkpt>
      <trkpt lat="45.55203" lon="6.83919">
        <ele>2717.77</ele>
        <time>2016-03-21T12:55:29Z</time>
      </trkpt>
      <trkpt lat="45.55186" lon="6.8391">
        <ele>2709.53</ele>
        <time>2016-03-21T12:55:46Z</time>
      </trkpt>
      <trkpt lat="45.55183" lon="6.83884">
        <ele>2703.01</ele>
        <time>2016-03-21T12:57:24Z</time>
      </trkpt>
      <trkpt lat="45.55174" lon="6.83861">
        <ele>2693.79</ele>
        <time>2016-03-21T12:57:35Z</time>
      </trkpt>
      <trkpt lat="45.55182" lon="6.83835">
        <ele>2680.98</ele>
        <time>2016-03-21T12:57:44Z</time>
      </trkpt>
      <trkpt lat="45.55188" lon="6.83811">
        <ele>2671.59</ele>
        <time>2016-03-21T12:57:51Z</time>
      </trkpt>
      <trkpt lat="45.55194" lon="6.83786">
        <ele>2665.97</ele>
        <time>2016-03-21T12:57:58Z</time>
      </trkpt>
      <trkpt lat="45.55181" lon="6.83764">
        <ele>2654.98</ele>
        <time>2016-03-21T12:58:04Z</time>
      </trkpt>
      <trkpt lat="45.55197" lon="6.83748">
        <ele>2648.78</ele>
        <time>2016-03-21T12:58:49Z</time>
      </trkpt>
      <trkpt lat="45.55208" lon="6.83722">
        <ele>2631.59</ele>
        <time>2016-03-21T12:58:58Z</time>
      </trkpt>
      <trkpt lat="45.55227" lon="6.8371">
        <ele>2627.79</ele>
        <time>2016-03-21T12:59:01Z</time>
      </trkpt>
      <trkpt lat="45.55244" lon="6.83691">
        <ele>2615.95</ele>
        <time>2016-03-21T12:59:05Z</time>
      </trkpt>
      <trkpt lat="45.55261" lon="6.83682">
        <ele>2615.71</ele>
        <time>2016-03-21T12:59:07Z</time>
      </trkpt>
      <trkpt lat="45.5528" lon="6.83676">
        <ele>2618.28</ele>
        <time>2016-03-21T12:59:10Z</time>
      </trkpt>
      <trkpt lat="45.553" lon="6.83666">
        <ele>2615.54</ele>
        <time>2016-03-21T12:59:15Z</time>
      </trkpt>
      <trkpt lat="45.55306" lon="6.8364">
        <ele>2604.34</ele>
        <time>2016-03-21T12:59:26Z</time>
      </trkpt>
      <trkpt lat="45.55315" lon="6.83616">
        <ele>2600.02</ele>
        <time>2016-03-21T12:59:30Z</time>
      </trkpt>
      <trkpt lat="45.55314" lon="6.83584">
        <ele>2593.82</ele>
        <time>2016-03-21T12:59:34Z</time>
      </trkpt>
      <trkpt lat="45.5531" lon="6.83555">
        <ele>2588.86</ele>
        <time>2016-03-21T12:59:37Z</time>
      </trkpt>
      <trkpt lat="45.55307" lon="6.83529">
        <ele>2586.78</ele>
        <time>2016-03-21T12:59:39Z</time>
      </trkpt>
      <trkpt lat="45.55297" lon="6.83503">
        <ele>2578.08</ele>
        <time>2016-03-21T12:59:42Z</time>
      </trkpt>
      <trkpt lat="45.55291" lon="6.83471">
        <ele>2571.47</ele>
        <time>2016-03-21T12:59:44Z</time>
      </trkpt>
      <trkpt lat="45.55279" lon="6.83436">
        <ele>2565.99</ele>
        <time>2016-03-21T12:59:47Z</time>
      </trkpt>
      <trkpt lat="45.55272" lon="6.83407">
        <ele>2561.39</ele>
        <time>2016-03-21T12:59:49Z</time>
      </trkpt>
      <trkpt lat="45.55263" lon="6.83381">
        <ele>2559.77</ele>
        <time>2016-03-21T12:59:51Z</time>
      </trkpt>
      <trkpt lat="45.55256" lon="6.8335">
        <ele>2554.9</ele>
        <time>2016-03-21T12:59:53Z</time>
      </trkpt>
      <trkpt lat="45.5525" lon="6.83325">
        <ele>2551.4</ele>
        <time>2016-03-21T12:59:54Z</time>
      </trkpt>
      <trkpt lat="45.55247" lon="6.83292">
        <ele>2548.01</ele>
        <time>2016-03-21T12:59:56Z</time>
      </trkpt>
      <trkpt lat="45.55244" lon="6.83265">
        <ele>2539.71</ele>
        <time>2016-03-21T12:59:58Z</time>
      </trkpt>
      <trkpt lat="45.55237" lon="6.83241">
        <ele>2534.1</ele>
        <time>2016-03-21T13:00:00Z</time>
      </trkpt>
      <trkpt lat="45.55234" lon="6.83208">
        <ele>2525.39</ele>
        <time>2016-03-21T13:00:02Z</time>
      </trkpt>
      <trkpt lat="45.55235" lon="6.83183">
        <ele>2520.89</ele>
        <time>2016-03-21T13:00:04Z</time>
      </trkpt>
      <trkpt lat="45.55253" lon="6.83177">
        <ele>2516.36</ele>
        <time>2016-03-21T13:00:53Z</time>
      </trkpt>
      <trkpt lat="45.5527" lon="6.83156">
        <ele>2511.49</ele>
        <time>2016-03-21T13:01:08Z</time>
      </trkpt>
      <trkpt lat="45.55278" lon="6.83127">
        <ele>2505.94</ele>
        <time>2016-03-21T13:01:12Z</time>
      </trkpt>
      <trkpt lat="45.55278" lon="6.831">
        <ele>2495.13</ele>
        <time>2016-03-21T13:01:15Z</time>
      </trkpt>
      <trkpt lat="45.55276" lon="6.83067">
        <ele>2485.48</ele>
        <time>2016-03-21T13:01:18Z</time>
      </trkpt>
      <trkpt lat="45.55261" lon="6.83037">
        <ele>2478.84</ele>
        <time>2016-03-21T13:01:21Z</time>
      </trkpt>
      <trkpt lat="45.55256" lon="6.83011">
        <ele>2474.86</ele>
        <time>2016-03-21T13:01:23Z</time>
      </trkpt>
      <trkpt lat="45.55247" lon="6.82985">
        <ele>2467.24</ele>
        <time>2016-03-21T13:01:26Z</time>
      </trkpt>
      <trkpt lat="45.55234" lon="6.82959">
        <ele>2461.86</ele>
        <time>2016-03-21T13:01:29Z</time>
      </trkpt>
      <trkpt lat="45.55237" lon="6.82924">
        <ele>2459.93</ele>
        <time>2016-03-21T13:01:32Z</time>
      </trkpt>
      <trkpt lat="45.5525" lon="6.82889">
        <ele>2454.91</ele>
        <time>2016-03-21T13:01:34Z</time>
      </trkpt>
      <trkpt lat="45.55261" lon="6.82859">
        <ele>2452.79</ele>
        <time>2016-03-21T13:01:36Z</time>
      </trkpt>
      <trkpt lat="45.5528" lon="6.82828">
        <ele>2450.78</ele>
        <time>2016-03-21T13:01:38Z</time>
      </trkpt>
      <trkpt lat="45.55291" lon="6.82794">
        <ele>2446.7</ele>
        <time>2016-03-21T13:01:40Z</time>
      </trkpt>
      <trkpt lat="45.55305" lon="6.82762">
        <ele>2444.78</ele>
        <time>2016-03-21T13:01:42Z</time>
      </trkpt>
      <trkpt lat="45.5531" lon="6.82725">
        <ele>2433.24</ele>
        <time>2016-03-21T13:01:45Z</time>
      </trkpt>
      <trkpt lat="45.55322" lon="6.82702">
        <ele>2425.27</ele>
        <time>2016-03-21T13:01:48Z</time>
      </trkpt>
      <trkpt lat="45.55337" lon="6.82677">
        <ele>2415.21</ele>
        <time>2016-03-21T13:01:52Z</time>
      </trkpt>
      <trkpt lat="45.55344" lon="6.82652">
        <ele>2412.8</ele>
        <time>2016-03-21T13:01:54Z</time>
      </trkpt>
      <trkpt lat="45.5536" lon="6.82628">
        <ele>2412.54</ele>
        <time>2016-03-21T13:01:56Z</time>
      </trkpt>
      <trkpt lat="45.55362" lon="6.82599">
        <ele>2409.81</ele>
        <time>2016-03-21T13:01:58Z</time>
      </trkpt>
      <trkpt lat="45.55374" lon="6.82565">
        <ele>2408.42</ele>
        <time>2016-03-21T13:02:00Z</time>
      </trkpt>
      <trkpt lat="45.55388" lon="6.82539">
        <ele>2405.01</ele>
        <time>2016-03-21T13:02:02Z</time>
      </trkpt>
      <trkpt lat="45.55397" lon="6.82505">
        <ele>2401.83</ele>
        <time>2016-03-21T13:02:04Z</time>
      </trkpt>
      <trkpt lat="45.55412" lon="6.82479">
        <ele>2398.02</ele>
        <time>2016-03-21T13:02:06Z</time>
      </trkpt>
      <trkpt lat="45.55424" lon="6.82448">
        <ele>2388.06</ele>
        <time>2016-03-21T13:02:09Z</time>
      </trkpt>
      <trkpt lat="45.55431" lon="6.82412">
        <ele>2384.82</ele>
        <time>2016-03-21T13:02:12Z</time>
      </trkpt>
      <trkpt lat="45.55446" lon="6.82381">
        <ele>2379</ele>
        <time>2016-03-21T13:02:15Z</time>
      </trkpt>
      <trkpt lat="45.55456" lon="6.82359">
        <ele>2374.87</ele>
        <time>2016-03-21T13:02:17Z</time>
      </trkpt>
      <trkpt lat="45.55469" lon="6.82337">
        <ele>2372.62</ele>
        <time>2016-03-21T13:02:19Z</time>
      </trkpt>
      <trkpt lat="45.55477" lon="6.82306">
        <ele>2371.73</ele>
        <time>2016-03-21T13:02:21Z</time>
      </trkpt>
      <trkpt lat="45.5549" lon="6.82282">
        <ele>2366.1</ele>
        <time>2016-03-21T13:02:23Z</time>
      </trkpt>
      <trkpt lat="45.55506" lon="6.82261">
        <ele>2365.71</ele>
        <time>2016-03-21T13:02:25Z</time>
      </trkpt>
      <trkpt lat="45.55522" lon="6.82233">
        <ele>2361.86</ele>
        <time>2016-03-21T13:02:27Z</time>
      </trkpt>
      <trkpt lat="45.55541" lon="6.82212">
        <ele>2359.78</ele>
        <time>2016-03-21T13:02:29Z</time>
      </trkpt>
      <trkpt lat="45.55555" lon="6.8219">
        <ele>2355.06</ele>
        <time>2016-03-21T13:02:31Z</time>
      </trkpt>
      <trkpt lat="45.55572" lon="6.82176">
        <ele>2348.47</ele>
        <time>2016-03-21T13:02:33Z</time>
      </trkpt>
      <trkpt lat="45.55589" lon="6.82159">
        <ele>2344.69</ele>
        <time>2016-03-21T13:02:35Z</time>
      </trkpt>
      <trkpt lat="45.55611" lon="6.82149">
        <ele>2341.65</ele>
        <time>2016-03-21T13:02:38Z</time>
      </trkpt>
      <trkpt lat="45.55626" lon="6.82132">
        <ele>2327.58</ele>
        <time>2016-03-21T13:03:20Z</time>
      </trkpt>
      <trkpt lat="45.55644" lon="6.82124">
        <ele>2324.13</ele>
        <time>2016-03-21T13:03:24Z</time>
      </trkpt>
      <trkpt lat="45.55665" lon="6.8212">
        <ele>2317.9</ele>
        <time>2016-03-21T13:03:27Z</time>
      </trkpt>
      <trkpt lat="45.55688" lon="6.82112">
        <ele>2311.68</ele>
        <time>2016-03-21T13:03:30Z</time>
      </trkpt>
      <trkpt lat="45.55707" lon="6.82108">
        <ele>2310.58</ele>
        <time>2016-03-21T13:03:32Z</time>
      </trkpt>
      <trkpt lat="45.55726" lon="6.82102">
        <ele>2307.81</ele>
        <time>2016-03-21T13:03:34Z</time>
      </trkpt>
      <trkpt lat="45.55746" lon="6.82098">
        <ele>2305.62</ele>
        <time>2016-03-21T13:03:36Z</time>
      </trkpt>
      <trkpt lat="45.55774" lon="6.82096">
        <ele>2298.11</ele>
        <time>2016-03-21T13:03:39Z</time>
      </trkpt>
      <trkpt lat="45.55792" lon="6.82091">
        <ele>2295.95</ele>
        <time>2016-03-21T13:03:41Z</time>
      </trkpt>
      <trkpt lat="45.55813" lon="6.82085">
        <ele>2291.07</ele>
        <time>2016-03-21T13:03:43Z</time>
      </trkpt>
      <trkpt lat="45.55831" lon="6.82075">
        <ele>2289.75</ele>
        <time>2016-03-21T13:03:45Z</time>
      </trkpt>
      <trkpt lat="45.55852" lon="6.82066">
        <ele>2288.58</ele>
        <time>2016-03-21T13:03:47Z</time>
      </trkpt>
      <trkpt lat="45.55873" lon="6.82059">
        <ele>2287.73</ele>
        <time>2016-03-21T13:03:49Z</time>
      </trkpt>
      <trkpt lat="45.55896" lon="6.82055">
        <ele>2285.39</ele>
        <time>2016-03-21T13:03:52Z</time>
      </trkpt>
      <trkpt lat="45.55923" lon="6.82048">
        <ele>2282.94</ele>
        <time>2016-03-21T13:03:55Z</time>
      </trkpt>
      <trkpt lat="45.55943" lon="6.82048">
        <ele>2277.75</ele>
        <time>2016-03-21T13:03:57Z</time>
      </trkpt>
      <trkpt lat="45.55961" lon="6.82049">
        <ele>2273.22</ele>
        <time>2016-03-21T13:03:59Z</time>
      </trkpt>
      <trkpt lat="45.5598" lon="6.8205">
        <ele>2268.24</ele>
        <time>2016-03-21T13:04:01Z</time>
      </trkpt>
      <trkpt lat="45.56" lon="6.82057">
        <ele>2264.04</ele>
        <time>2016-03-21T13:04:03Z</time>
      </trkpt>
      <trkpt lat="45.56019" lon="6.82062">
        <ele>2260.99</ele>
        <time>2016-03-21T13:04:05Z</time>
      </trkpt>
      <trkpt lat="45.56037" lon="6.82068">
        <ele>2258.79</ele>
        <time>2016-03-21T13:04:07Z</time>
      </trkpt>
      <trkpt lat="45.56055" lon="6.82073">
        <ele>2258.37</ele>
        <time>2016-03-21T13:04:10Z</time>
      </trkpt>
      <trkpt lat="45.56044" lon="6.82052">
        <ele>2252.53</ele>
        <time>2016-03-21T13:04:49Z</time>
      </trkpt>
      <trkpt lat="45.56025" lon="6.82037">
        <ele>2252.33</ele>
        <time>2016-03-21T13:04:54Z</time>
      </trkpt>
      <trkpt lat="45.56011" lon="6.8202">
        <ele>2255.29</ele>
        <time>2016-03-21T13:04:58Z</time>
      </trkpt>
      <trkpt lat="45.55995" lon="6.82002">
        <ele>2256.49</ele>
        <time>2016-03-21T13:05:04Z</time>
      </trkpt>
      <trkpt lat="45.5598" lon="6.81985">
        <ele>2258.49</ele>
        <time>2016-03-21T13:05:10Z</time>
      </trkpt>
      <trkpt lat="45.55963" lon="6.81971">
        <ele>2258.77</ele>
        <time>2016-03-21T13:05:17Z</time>
      </trkpt>
      <trkpt lat="45.55948" lon="6.81955">
        <ele>2259.33</ele>
        <time>2016-03-21T13:05:23Z</time>
      </trkpt>
      <trkpt lat="45.55933" lon="6.81938">
        <ele>2258.53</ele>
        <time>2016-03-21T13:05:29Z</time>
      </trkpt>
      <trkpt lat="45.55917" lon="6.81923">
        <ele>2264.28</ele>
        <time>2016-03-21T13:05:35Z</time>
      </trkpt>
      <trkpt lat="45.55901" lon="6.81908">
        <ele>2267.33</ele>
        <time>2016-03-21T13:05:41Z</time>
      </trkpt>
      <trkpt lat="45.55884" lon="6.81893">
        <ele>2272.47</ele>
        <time>2016-03-21T13:05:47Z</time>
      </trkpt>
      <trkpt lat="45.5587" lon="6.81877">
        <ele>2274.33</ele>
        <time>2016-03-21T13:05:53Z</time>
      </trkpt>
      <trkpt lat="45.55853" lon="6.81862">
        <ele>2275.38</ele>
        <time>2016-03-21T13:06:00Z</time>
      </trkpt>
      <trkpt lat="45.55837" lon="6.81844">
        <ele>2278.48</ele>
        <time>2016-03-21T13:06:06Z</time>
      </trkpt>
      <trkpt lat="45.55822" lon="6.81828">
        <ele>2277.7</ele>
        <time>2016-03-21T13:06:12Z</time>
      </trkpt>
      <trkpt lat="45.55807" lon="6.81813">
        <ele>2275.41</ele>
        <time>2016-03-21T13:06:18Z</time>
      </trkpt>
      <trkpt lat="45.5579" lon="6.81797">
        <ele>2275.57</ele>
        <time>2016-03-21T13:06:24Z</time>
      </trkpt>
      <trkpt lat="45.55773" lon="6.81782">
        <ele>2279.11</ele>
        <time>2016-03-21T13:06:30Z</time>
      </trkpt>
      <trkpt lat="45.55757" lon="6.81767">
        <ele>2284.31</ele>
        <time>2016-03-21T13:06:36Z</time>
      </trkpt>
      <trkpt lat="45.55742" lon="6.81752">
        <ele>2289.92</ele>
        <time>2016-03-21T13:06:42Z</time>
      </trkpt>
      <trkpt lat="45.55725" lon="6.81735">
        <ele>2290.73</ele>
        <time>2016-03-21T13:06:49Z</time>
      </trkpt>
      <trkpt lat="45.55709" lon="6.8172">
        <ele>2291.68</ele>
        <time>2016-03-21T13:06:55Z</time>
      </trkpt>
      <trkpt lat="45.55694" lon="6.81703">
        <ele>2292.88</ele>
        <time>2016-03-21T13:07:01Z</time>
      </trkpt>
      <trkpt lat="45.55678" lon="6.81687">
        <ele>2299.28</ele>
        <time>2016-03-21T13:07:07Z</time>
      </trkpt>
      <trkpt lat="45.55663" lon="6.81671">
        <ele>2301.17</ele>
        <time>2016-03-21T13:07:13Z</time>
      </trkpt>
      <trkpt lat="45.55649" lon="6.81655">
        <ele>2307.91</ele>
        <time>2016-03-21T13:07:19Z</time>
      </trkpt>
      <trkpt lat="45.55632" lon="6.81641">
        <ele>2315.28</ele>
        <time>2016-03-21T13:07:25Z</time>
      </trkpt>
      <trkpt lat="45.55615" lon="6.81623">
        <ele>2323.08</ele>
        <time>2016-03-21T13:07:32Z</time>
      </trkpt>
      <trkpt lat="45.556" lon="6.81607">
        <ele>2330.24</ele>
        <time>2016-03-21T13:07:38Z</time>
      </trkpt>
      <trkpt lat="45.55583" lon="6.81589">
        <ele>2335.32</ele>
        <time>2016-03-21T13:07:45Z</time>
      </trkpt>
      <trkpt lat="45.55567" lon="6.81577">
        <ele>2341.11</ele>
        <time>2016-03-21T13:07:51Z</time>
      </trkpt>
      <trkpt lat="45.55552" lon="6.81562">
        <ele>2350.23</ele>
        <time>2016-03-21T13:07:57Z</time>
      </trkpt>
      <trkpt lat="45.55536" lon="6.81546">
        <ele>2351.53</ele>
        <time>2016-03-21T13:08:03Z</time>
      </trkpt>
      <trkpt lat="45.55517" lon="6.81532">
        <ele>2352.68</ele>
        <time>2016-03-21T13:08:10Z</time>
      </trkpt>
      <trkpt lat="45.55502" lon="6.81515">
        <ele>2359.49</ele>
        <time>2016-03-21T13:08:16Z</time>
      </trkpt>
      <trkpt lat="45.55487" lon="6.81501">
        <ele>2361.49</ele>
        <time>2016-03-21T13:08:21Z</time>
      </trkpt>
      <trkpt lat="45.55472" lon="6.81483">
        <ele>2361.49</ele>
        <time>2016-03-21T13:08:27Z</time>
      </trkpt>
      <trkpt lat="45.55454" lon="6.81469">
        <ele>2374.02</ele>
        <time>2016-03-21T13:08:35Z</time>
      </trkpt>
      <trkpt lat="45.55439" lon="6.81452">
        <ele>2382.13</ele>
        <time>2016-03-21T13:08:41Z</time>
      </trkpt>
      <trkpt lat="45.55423" lon="6.81433">
        <ele>2390.28</ele>
        <time>2016-03-21T13:08:48Z</time>
      </trkpt>
      <trkpt lat="45.55406" lon="6.81418">
        <ele>2397.48</ele>
        <time>2016-03-21T13:08:55Z</time>
      </trkpt>
      <trkpt lat="45.55391" lon="6.81404">
        <ele>2406.43</ele>
        <time>2016-03-21T13:09:01Z</time>
      </trkpt>
      <trkpt lat="45.55374" lon="6.81386">
        <ele>2417.23</ele>
        <time>2016-03-21T13:09:08Z</time>
      </trkpt>
      <trkpt lat="45.55359" lon="6.81371">
        <ele>2422.32</ele>
        <time>2016-03-21T13:09:14Z</time>
      </trkpt>
      <trkpt lat="45.55345" lon="6.81354">
        <ele>2429.28</ele>
        <time>2016-03-21T13:09:20Z</time>
      </trkpt>
      <trkpt lat="45.55328" lon="6.81339">
        <ele>2437.47</ele>
        <time>2016-03-21T13:09:27Z</time>
      </trkpt>
      <trkpt lat="45.55313" lon="6.81325">
        <ele>2439.37</ele>
        <time>2016-03-21T13:09:34Z</time>
      </trkpt>
      <trkpt lat="45.55297" lon="6.81307">
        <ele>2444.48</ele>
        <time>2016-03-21T13:09:41Z</time>
      </trkpt>
      <trkpt lat="45.5528" lon="6.81289">
        <ele>2449.68</ele>
        <time>2016-03-21T13:09:48Z</time>
      </trkpt>
      <trkpt lat="45.55262" lon="6.81275">
        <ele>2458.49</ele>
        <time>2016-03-21T13:09:55Z</time>
      </trkpt>
      <trkpt lat="45.55246" lon="6.81256">
        <ele>2463.32</ele>
        <time>2016-03-21T13:10:02Z</time>
      </trkpt>
      <trkpt lat="45.5523" lon="6.81239">
        <ele>2472.21</ele>
        <time>2016-03-21T13:10:09Z</time>
      </trkpt>
      <trkpt lat="45.55216" lon="6.81223">
        <ele>2480.24</ele>
        <time>2016-03-21T13:10:15Z</time>
      </trkpt>
      <trkpt lat="45.55201" lon="6.81206">
        <ele>2487.28</ele>
        <time>2016-03-21T13:10:21Z</time>
      </trkpt>
      <trkpt lat="45.55184" lon="6.81189">
        <ele>2496.08</ele>
        <time>2016-03-21T13:10:28Z</time>
      </trkpt>
      <trkpt lat="45.55168" lon="6.81174">
        <ele>2504.07</ele>
        <time>2016-03-21T13:10:34Z</time>
      </trkpt>
      <trkpt lat="45.55152" lon="6.81164">
        <ele>2511.45</ele>
        <time>2016-03-21T13:10:40Z</time>
      </trkpt>
      <trkpt lat="45.55135" lon="6.81149">
        <ele>2521.27</ele>
        <time>2016-03-21T13:10:47Z</time>
      </trkpt>
      <trkpt lat="45.5512" lon="6.81134">
        <ele>2525.29</ele>
        <time>2016-03-21T13:10:53Z</time>
      </trkpt>
      <trkpt lat="45.55104" lon="6.81118">
        <ele>2529.24</ele>
        <time>2016-03-21T13:10:59Z</time>
      </trkpt>
      <trkpt lat="45.5509" lon="6.811">
        <ele>2530.53</ele>
        <time>2016-03-21T13:11:10Z</time>
      </trkpt>
      <trkpt lat="45.55072" lon="6.81105">
        <ele>2534.77</ele>
        <time>2016-03-21T13:11:51Z</time>
      </trkpt>
      <trkpt lat="45.55075" lon="6.81134">
        <ele>2533.77</ele>
        <time>2016-03-21T13:11:56Z</time>
      </trkpt>
      <trkpt lat="45.55089" lon="6.81152">
        <ele>2533.56</ele>
        <time>2016-03-21T13:12:05Z</time>
      </trkpt>
      <trkpt lat="45.55097" lon="6.81177">
        <ele>2527.74</ele>
        <time>2016-03-21T13:12:24Z</time>
      </trkpt>
      <trkpt lat="45.55114" lon="6.8119">
        <ele>2517.01</ele>
        <time>2016-03-21T13:12:30Z</time>
      </trkpt>
      <trkpt lat="45.55132" lon="6.81198">
        <ele>2511.61</ele>
        <time>2016-03-21T13:12:35Z</time>
      </trkpt>
      <trkpt lat="45.55154" lon="6.81186">
        <ele>2509.42</ele>
        <time>2016-03-21T13:12:38Z</time>
      </trkpt>
      <trkpt lat="45.55172" lon="6.81178">
        <ele>2504.99</ele>
        <time>2016-03-21T13:12:41Z</time>
      </trkpt>
      <trkpt lat="45.55194" lon="6.81178">
        <ele>2503.73</ele>
        <time>2016-03-21T13:12:44Z</time>
      </trkpt>
      <trkpt lat="45.5521" lon="6.81193">
        <ele>2500.78</ele>
        <time>2016-03-21T13:12:48Z</time>
      </trkpt>
      <trkpt lat="45.55225" lon="6.81213">
        <ele>2495.78</ele>
        <time>2016-03-21T13:12:53Z</time>
      </trkpt>
      <trkpt lat="45.55238" lon="6.81232">
        <ele>2489.78</ele>
        <time>2016-03-21T13:13:10Z</time>
      </trkpt>
      <trkpt lat="45.55254" lon="6.81244">
        <ele>2482.58</ele>
        <time>2016-03-21T13:13:22Z</time>
      </trkpt>
      <trkpt lat="45.55272" lon="6.81261">
        <ele>2474.89</ele>
        <time>2016-03-21T13:13:33Z</time>
      </trkpt>
      <trkpt lat="45.55281" lon="6.81286">
        <ele>2465.58</ele>
        <time>2016-03-21T13:13:42Z</time>
      </trkpt>
      <trkpt lat="45.553" lon="6.81289">
        <ele>2458.86</ele>
        <time>2016-03-21T13:13:47Z</time>
      </trkpt>
      <trkpt lat="45.55317" lon="6.81299">
        <ele>2451.6</ele>
        <time>2016-03-21T13:13:52Z</time>
      </trkpt>
      <trkpt lat="45.55335" lon="6.81315">
        <ele>2445.86</ele>
        <time>2016-03-21T13:13:56Z</time>
      </trkpt>
      <trkpt lat="45.55349" lon="6.81335">
        <ele>2442.4</ele>
        <time>2016-03-21T13:13:59Z</time>
      </trkpt>
      <trkpt lat="45.55365" lon="6.81355">
        <ele>2437.79</ele>
        <time>2016-03-21T13:14:03Z</time>
      </trkpt>
      <trkpt lat="45.55382" lon="6.81361">
        <ele>2435.51</ele>
        <time>2016-03-21T13:14:07Z</time>
      </trkpt>
      <trkpt lat="45.55387" lon="6.81388">
        <ele>2425.7</ele>
        <time>2016-03-21T13:14:39Z</time>
      </trkpt>
      <trkpt lat="45.55404" lon="6.81402">
        <ele>2415.59</ele>
        <time>2016-03-21T13:14:48Z</time>
      </trkpt>
      <trkpt lat="45.5542" lon="6.81415">
        <ele>2409.78</ele>
        <time>2016-03-21T13:14:54Z</time>
      </trkpt>
      <trkpt lat="45.5543" lon="6.8144">
        <ele>2404.02</ele>
        <time>2016-03-21T13:15:01Z</time>
      </trkpt>
      <trkpt lat="45.55444" lon="6.8146">
        <ele>2390.02</ele>
        <time>2016-03-21T13:15:16Z</time>
      </trkpt>
      <trkpt lat="45.55459" lon="6.81476">
        <ele>2381.62</ele>
        <time>2016-03-21T13:15:26Z</time>
      </trkpt>
      <trkpt lat="45.55479" lon="6.81476">
        <ele>2379.76</ele>
        <time>2016-03-21T13:15:30Z</time>
      </trkpt>
      <trkpt lat="45.55494" lon="6.81499">
        <ele>2375.74</ele>
        <time>2016-03-21T13:15:34Z</time>
      </trkpt>
      <trkpt lat="45.55502" lon="6.81527">
        <ele>2371.79</ele>
        <time>2016-03-21T13:15:37Z</time>
      </trkpt>
      <trkpt lat="45.55507" lon="6.81559">
        <ele>2368.59</ele>
        <time>2016-03-21T13:15:41Z</time>
      </trkpt>
      <trkpt lat="45.55493" lon="6.81582">
        <ele>2355.72</ele>
        <time>2016-03-21T13:16:18Z</time>
      </trkpt>
      <trkpt lat="45.55508" lon="6.81596">
        <ele>2347.38</ele>
        <time>2016-03-21T13:16:26Z</time>
      </trkpt>
      <trkpt lat="45.55531" lon="6.81599">
        <ele>2346.57</ele>
        <time>2016-03-21T13:16:30Z</time>
      </trkpt>
      <trkpt lat="45.55549" lon="6.81617">
        <ele>2341.98</ele>
        <time>2016-03-21T13:16:35Z</time>
      </trkpt>
      <trkpt lat="45.55561" lon="6.81656">
        <ele>2339.63</ele>
        <time>2016-03-21T13:16:37Z</time>
      </trkpt>
      <trkpt lat="45.55572" lon="6.81681">
        <ele>2336.81</ele>
        <time>2016-03-21T13:16:39Z</time>
      </trkpt>
      <trkpt lat="45.55583" lon="6.81707">
        <ele>2337.34</ele>
        <time>2016-03-21T13:16:41Z</time>
      </trkpt>
      <trkpt lat="45.55594" lon="6.81728">
        <ele>2334.8</ele>
        <time>2016-03-21T13:16:43Z</time>
      </trkpt>
      <trkpt lat="45.55608" lon="6.81745">
        <ele>2333.74</ele>
        <time>2016-03-21T13:16:45Z</time>
      </trkpt>
      <trkpt lat="45.5562" lon="6.81764">
        <ele>2330.82</ele>
        <time>2016-03-21T13:16:47Z</time>
      </trkpt>
      <trkpt lat="45.55631" lon="6.81786">
        <ele>2328.78</ele>
        <time>2016-03-21T13:16:49Z</time>
      </trkpt>
      <trkpt lat="45.55647" lon="6.818">
        <ele>2322.62</ele>
        <time>2016-03-21T13:16:51Z</time>
      </trkpt>
      <trkpt lat="45.55662" lon="6.81817">
        <ele>2317.09</ele>
        <time>2016-03-21T13:16:53Z</time>
      </trkpt>
      <trkpt lat="45.55677" lon="6.81834">
        <ele>2312.23</ele>
        <time>2016-03-21T13:16:55Z</time>
      </trkpt>
      <trkpt lat="45.55697" lon="6.81858">
        <ele>2307.82</ele>
        <time>2016-03-21T13:16:58Z</time>
      </trkpt>
      <trkpt lat="45.55713" lon="6.8187">
        <ele>2306.58</ele>
        <time>2016-03-21T13:17:00Z</time>
      </trkpt>
      <trkpt lat="45.55731" lon="6.81892">
        <ele>2303.78</ele>
        <time>2016-03-21T13:17:03Z</time>
      </trkpt>
      <trkpt lat="45.55752" lon="6.81905">
        <ele>2295.98</ele>
        <time>2016-03-21T13:17:06Z</time>
      </trkpt>
      <trkpt lat="45.55777" lon="6.81921">
        <ele>2291.79</ele>
        <time>2016-03-21T13:17:09Z</time>
      </trkpt>
      <trkpt lat="45.55798" lon="6.81935">
        <ele>2289.62</ele>
        <time>2016-03-21T13:17:11Z</time>
      </trkpt>
      <trkpt lat="45.5582" lon="6.81944">
        <ele>2285.53</ele>
        <time>2016-03-21T13:17:13Z</time>
      </trkpt>
      <trkpt lat="45.5584" lon="6.81956">
        <ele>2280.09</ele>
        <time>2016-03-21T13:17:15Z</time>
      </trkpt>
      <trkpt lat="45.55861" lon="6.81968">
        <ele>2276.99</ele>
        <time>2016-03-21T13:17:17Z</time>
      </trkpt>
      <trkpt lat="45.55881" lon="6.81982">
        <ele>2274.79</ele>
        <time>2016-03-21T13:17:19Z</time>
      </trkpt>
      <trkpt lat="45.559" lon="6.81993">
        <ele>2272.78</ele>
        <time>2016-03-21T13:17:21Z</time>
      </trkpt>
      <trkpt lat="45.55918" lon="6.82003">
        <ele>2269.98</ele>
        <time>2016-03-21T13:17:23Z</time>
      </trkpt>
      <trkpt lat="45.55937" lon="6.82013">
        <ele>2266.99</ele>
        <time>2016-03-21T13:17:25Z</time>
      </trkpt>
      <trkpt lat="45.55956" lon="6.82025">
        <ele>2266.55</ele>
        <time>2016-03-21T13:17:27Z</time>
      </trkpt>
      <trkpt lat="45.55975" lon="6.82037">
        <ele>2264.77</ele>
        <time>2016-03-21T13:17:29Z</time>
      </trkpt>
      <trkpt lat="45.5599" lon="6.82051">
        <ele>2262.14</ele>
        <time>2016-03-21T13:17:31Z</time>
      </trkpt>
      <trkpt lat="45.56006" lon="6.82064">
        <ele>2258.04</ele>
        <time>2016-03-21T13:17:33Z</time>
      </trkpt>
      <trkpt lat="45.56023" lon="6.82079">
        <ele>2254.83</ele>
        <time>2016-03-21T13:17:35Z</time>
      </trkpt>
      <trkpt lat="45.56039" lon="6.82092">
        <ele>2252.62</ele>
        <time>2016-03-21T13:17:37Z</time>
      </trkpt>
      <trkpt lat="45.56055" lon="6.82107">
        <ele>2250.77</ele>
        <time>2016-03-21T13:17:39Z</time>
      </trkpt>
      <trkpt lat="45.56076" lon="6.82127">
        <ele>2245.86</ele>
        <time>2016-03-21T13:17:42Z</time>
      </trkpt>
      <trkpt lat="45.56101" lon="6.82145">
        <ele>2242.59</ele>
        <time>2016-03-21T13:17:45Z</time>
      </trkpt>
      <trkpt lat="45.56119" lon="6.82158">
        <ele>2239.81</ele>
        <time>2016-03-21T13:17:47Z</time>
      </trkpt>
      <trkpt lat="45.56141" lon="6.82168">
        <ele>2236.98</ele>
        <time>2016-03-21T13:17:49Z</time>
      </trkpt>
      <trkpt lat="45.56162" lon="6.82182">
        <ele>2236.55</ele>
        <time>2016-03-21T13:17:51Z</time>
      </trkpt>
      <trkpt lat="45.56184" lon="6.82196">
        <ele>2233.01</ele>
        <time>2016-03-21T13:17:53Z</time>
      </trkpt>
      <trkpt lat="45.56203" lon="6.82208">
        <ele>2229.35</ele>
        <time>2016-03-21T13:17:55Z</time>
      </trkpt>
      <trkpt lat="45.56223" lon="6.82222">
        <ele>2227.76</ele>
        <time>2016-03-21T13:17:57Z</time>
      </trkpt>
      <trkpt lat="45.56238" lon="6.82235">
        <ele>2225.78</ele>
        <time>2016-03-21T13:17:59Z</time>
      </trkpt>
      <trkpt lat="45.56259" lon="6.82253">
        <ele>2223.77</ele>
        <time>2016-03-21T13:18:02Z</time>
      </trkpt>
      <trkpt lat="45.56282" lon="6.82266">
        <ele>2220.78</ele>
        <time>2016-03-21T13:18:05Z</time>
      </trkpt>
      <trkpt lat="45.56303" lon="6.82272">
        <ele>2212.02</ele>
        <time>2016-03-21T13:18:08Z</time>
      </trkpt>
      <trkpt lat="45.56326" lon="6.82287">
        <ele>2208.75</ele>
        <time>2016-03-21T13:18:11Z</time>
      </trkpt>
      <trkpt lat="45.56347" lon="6.82305">
        <ele>2206.58</ele>
        <time>2016-03-21T13:18:14Z</time>
      </trkpt>
      <trkpt lat="45.56365" lon="6.82321">
        <ele>2206.53</ele>
        <time>2016-03-21T13:18:17Z</time>
      </trkpt>
      <trkpt lat="45.56382" lon="6.82331">
        <ele>2203.65</ele>
        <time>2016-03-21T13:18:20Z</time>
      </trkpt>
      <trkpt lat="45.56401" lon="6.82346">
        <ele>2199.78</ele>
        <time>2016-03-21T13:18:24Z</time>
      </trkpt>
      <trkpt lat="45.5642" lon="6.82359">
        <ele>2197.77</ele>
        <time>2016-03-21T13:18:28Z</time>
      </trkpt>
      <trkpt lat="45.5644" lon="6.82372">
        <ele>2196.57</ele>
        <time>2016-03-21T13:18:32Z</time>
      </trkpt>
      <trkpt lat="45.56456" lon="6.82388">
        <ele>2195.54</ele>
        <time>2016-03-21T13:18:35Z</time>
      </trkpt>
      <trkpt lat="45.56471" lon="6.82407">
        <ele>2192.81</ele>
        <time>2016-03-21T13:18:38Z</time>
      </trkpt>
      <trkpt lat="45.56476" lon="6.82434">
        <ele>2190.73</ele>
        <time>2016-03-21T13:18:42Z</time>
      </trkpt>
      <trkpt lat="45.56458" lon="6.82429">
        <ele>2182.58</ele>
        <time>2016-03-21T13:19:15Z</time>
      </trkpt>
      <trkpt lat="45.5644" lon="6.82416">
        <ele>2176.46</ele>
        <time>2016-03-21T13:19:51Z</time>
      </trkpt>
      <trkpt lat="45.56423" lon="6.82396">
        <ele>2182.24</ele>
        <time>2016-03-21T13:19:56Z</time>
      </trkpt>
      <trkpt lat="45.56406" lon="6.82379">
        <ele>2188.27</ele>
        <time>2016-03-21T13:20:01Z</time>
      </trkpt>
      <trkpt lat="45.56389" lon="6.82361">
        <ele>2193.29</ele>
        <time>2016-03-21T13:20:06Z</time>
      </trkpt>
      <trkpt lat="45.56372" lon="6.82343">
        <ele>2193.53</ele>
        <time>2016-03-21T13:20:11Z</time>
      </trkpt>
      <trkpt lat="45.56355" lon="6.82327">
        <ele>2194.72</ele>
        <time>2016-03-21T13:20:16Z</time>
      </trkpt>
      <trkpt lat="45.56339" lon="6.82312">
        <ele>2197.52</ele>
        <time>2016-03-21T13:20:21Z</time>
      </trkpt>
      <trkpt lat="45.56323" lon="6.82296">
        <ele>2198.34</ele>
        <time>2016-03-21T13:20:26Z</time>
      </trkpt>
      <trkpt lat="45.56305" lon="6.8228">
        <ele>2202.48</ele>
        <time>2016-03-21T13:20:31Z</time>
      </trkpt>
      <trkpt lat="45.56289" lon="6.82263">
        <ele>2206.28</ele>
        <time>2016-03-21T13:20:36Z</time>
      </trkpt>
      <trkpt lat="45.56274" lon="6.82247">
        <ele>2207.54</ele>
        <time>2016-03-21T13:20:41Z</time>
      </trkpt>
      <trkpt lat="45.56256" lon="6.82231">
        <ele>2206.53</ele>
        <time>2016-03-21T13:20:46Z</time>
      </trkpt>
      <trkpt lat="45.56241" lon="6.82216">
        <ele>2207.32</ele>
        <time>2016-03-21T13:20:51Z</time>
      </trkpt>
      <trkpt lat="45.56224" lon="6.82197">
        <ele>2211.12</ele>
        <time>2016-03-21T13:20:56Z</time>
      </trkpt>
      <trkpt lat="45.56208" lon="6.82181">
        <ele>2215.44</ele>
        <time>2016-03-21T13:21:01Z</time>
      </trkpt>
      <trkpt lat="45.56191" lon="6.82164">
        <ele>2219.28</ele>
        <time>2016-03-21T13:21:06Z</time>
      </trkpt>
      <trkpt lat="45.56176" lon="6.82149">
        <ele>2223.28</ele>
        <time>2016-03-21T13:21:11Z</time>
      </trkpt>
      <trkpt lat="45.5616" lon="6.82134">
        <ele>2227.48</ele>
        <time>2016-03-21T13:21:16Z</time>
      </trkpt>
      <trkpt lat="45.56143" lon="6.82117">
        <ele>2231.29</ele>
        <time>2016-03-21T13:21:21Z</time>
      </trkpt>
      <trkpt lat="45.56127" lon="6.82101">
        <ele>2234.32</ele>
        <time>2016-03-21T13:21:26Z</time>
      </trkpt>
      <trkpt lat="45.56112" lon="6.82085">
        <ele>2246.69</ele>
        <time>2016-03-21T13:22:19Z</time>
      </trkpt>
      <trkpt lat="45.56096" lon="6.8207">
        <ele>2247.49</ele>
        <time>2016-03-21T13:22:32Z</time>
      </trkpt>
      <trkpt lat="45.56081" lon="6.82055">
        <ele>2247.52</ele>
        <time>2016-03-21T13:22:38Z</time>
      </trkpt>
      <trkpt lat="45.56064" lon="6.82037">
        <ele>2247.57</ele>
        <time>2016-03-21T13:22:43Z</time>
      </trkpt>
      <trkpt lat="45.56047" lon="6.82021">
        <ele>2249.09</ele>
        <time>2016-03-21T13:22:48Z</time>
      </trkpt>
      <trkpt lat="45.56031" lon="6.82005">
        <ele>2252.51</ele>
        <time>2016-03-21T13:22:53Z</time>
      </trkpt>
      <trkpt lat="45.56015" lon="6.81989">
        <ele>2256.29</ele>
        <time>2016-03-21T13:22:58Z</time>
      </trkpt>
      <trkpt lat="45.55999" lon="6.81972">
        <ele>2256.57</ele>
        <time>2016-03-21T13:23:03Z</time>
      </trkpt>
      <trkpt lat="45.55982" lon="6.81956">
        <ele>2257.76</ele>
        <time>2016-03-21T13:23:08Z</time>
      </trkpt>
      <trkpt lat="45.55965" lon="6.81938">
        <ele>2258.53</ele>
        <time>2016-03-21T13:23:13Z</time>
      </trkpt>
      <trkpt lat="45.55949" lon="6.81921">
        <ele>2260.33</ele>
        <time>2016-03-21T13:23:18Z</time>
      </trkpt>
      <trkpt lat="45.55932" lon="6.81905">
        <ele>2262.48</ele>
        <time>2016-03-21T13:23:23Z</time>
      </trkpt>
      <trkpt lat="45.55916" lon="6.81888">
        <ele>2264.33</ele>
        <time>2016-03-21T13:23:28Z</time>
      </trkpt>
      <trkpt lat="45.559" lon="6.81872">
        <ele>2266.52</ele>
        <time>2016-03-21T13:23:33Z</time>
      </trkpt>
      <trkpt lat="45.55883" lon="6.81855">
        <ele>2267.69</ele>
        <time>2016-03-21T13:23:39Z</time>
      </trkpt>
      <trkpt lat="45.55866" lon="6.81839">
        <ele>2267.56</ele>
        <time>2016-03-21T13:23:44Z</time>
      </trkpt>
      <trkpt lat="45.55849" lon="6.81823">
        <ele>2269.33</ele>
        <time>2016-03-21T13:23:49Z</time>
      </trkpt>
      <trkpt lat="45.55833" lon="6.81807">
        <ele>2271.13</ele>
        <time>2016-03-21T13:23:54Z</time>
      </trkpt>
      <trkpt lat="45.55816" lon="6.8179">
        <ele>2274.09</ele>
        <time>2016-03-21T13:23:59Z</time>
      </trkpt>
      <trkpt lat="45.558" lon="6.81773">
        <ele>2277.52</ele>
        <time>2016-03-21T13:24:04Z</time>
      </trkpt>
      <trkpt lat="45.55784" lon="6.81757">
        <ele>2281.45</ele>
        <time>2016-03-21T13:24:09Z</time>
      </trkpt>
      <trkpt lat="45.55767" lon="6.81742">
        <ele>2290.2</ele>
        <time>2016-03-21T13:24:14Z</time>
      </trkpt>
      <trkpt lat="45.55752" lon="6.81724">
        <ele>2294.13</ele>
        <time>2016-03-21T13:24:19Z</time>
      </trkpt>
      <trkpt lat="45.55736" lon="6.81708">
        <ele>2295.5</ele>
        <time>2016-03-21T13:24:24Z</time>
      </trkpt>
      <trkpt lat="45.55719" lon="6.81693">
        <ele>2295.53</ele>
        <time>2016-03-21T13:24:29Z</time>
      </trkpt>
      <trkpt lat="45.55702" lon="6.81676">
        <ele>2295.36</ele>
        <time>2016-03-21T13:24:34Z</time>
      </trkpt>
      <trkpt lat="45.55685" lon="6.81659">
        <ele>2296.29</ele>
        <time>2016-03-21T13:24:39Z</time>
      </trkpt>
      <trkpt lat="45.55668" lon="6.8164">
        <ele>2300.28</ele>
        <time>2016-03-21T13:24:44Z</time>
      </trkpt>
      <trkpt lat="45.55653" lon="6.81625">
        <ele>2303.48</ele>
        <time>2016-03-21T13:24:49Z</time>
      </trkpt>
      <trkpt lat="45.55636" lon="6.81608">
        <ele>2309.28</ele>
        <time>2016-03-21T13:24:54Z</time>
      </trkpt>
      <trkpt lat="45.55618" lon="6.81593">
        <ele>2319.15</ele>
        <time>2016-03-21T13:25:00Z</time>
      </trkpt>
      <trkpt lat="45.55602" lon="6.81578">
        <ele>2328.04</ele>
        <time>2016-03-21T13:25:05Z</time>
      </trkpt>
      <trkpt lat="45.55586" lon="6.81562">
        <ele>2334.11</ele>
        <time>2016-03-21T13:25:10Z</time>
      </trkpt>
      <trkpt lat="45.5557" lon="6.81547">
        <ele>2337.33</ele>
        <time>2016-03-21T13:25:15Z</time>
      </trkpt>
      <trkpt lat="45.55553" lon="6.8153">
        <ele>2342.28</ele>
        <time>2016-03-21T13:25:20Z</time>
      </trkpt>
      <trkpt lat="45.55537" lon="6.81514">
        <ele>2347.28</ele>
        <time>2016-03-21T13:25:25Z</time>
      </trkpt>
      <trkpt lat="45.55521" lon="6.81497">
        <ele>2352.28</ele>
        <time>2016-03-21T13:25:30Z</time>
      </trkpt>
      <trkpt lat="45.55504" lon="6.81481">
        <ele>2357.29</ele>
        <time>2016-03-21T13:25:35Z</time>
      </trkpt>
      <trkpt lat="45.55489" lon="6.81463">
        <ele>2362.29</ele>
        <time>2016-03-21T13:25:40Z</time>
      </trkpt>
      <trkpt lat="45.55472" lon="6.81448">
        <ele>2368.27</ele>
        <time>2016-03-21T13:25:45Z</time>
      </trkpt>
      <trkpt lat="45.55456" lon="6.81432">
        <ele>2374.23</ele>
        <time>2016-03-21T13:25:50Z</time>
      </trkpt>
      <trkpt lat="45.5544" lon="6.81416">
        <ele>2383.02</ele>
        <time>2016-03-21T13:25:55Z</time>
      </trkpt>
      <trkpt lat="45.55424" lon="6.81402">
        <ele>2392.23</ele>
        <time>2016-03-21T13:26:00Z</time>
      </trkpt>
      <trkpt lat="45.55407" lon="6.81387">
        <ele>2402.99</ele>
        <time>2016-03-21T13:26:05Z</time>
      </trkpt>
      <trkpt lat="45.55393" lon="6.81371">
        <ele>2410.25</ele>
        <time>2016-03-21T13:26:10Z</time>
      </trkpt>
      <trkpt lat="45.55377" lon="6.81356">
        <ele>2417.4</ele>
        <time>2016-03-21T13:26:15Z</time>
      </trkpt>
      <trkpt lat="45.55361" lon="6.81339">
        <ele>2426.25</ele>
        <time>2016-03-21T13:26:20Z</time>
      </trkpt>
      <trkpt lat="45.55343" lon="6.81322">
        <ele>2432.25</ele>
        <time>2016-03-21T13:26:26Z</time>
      </trkpt>
      <trkpt lat="45.55327" lon="6.81307">
        <ele>2436.32</ele>
        <time>2016-03-21T13:26:31Z</time>
      </trkpt>
      <trkpt lat="45.55311" lon="6.8129">
        <ele>2443.09</ele>
        <time>2016-03-21T13:26:36Z</time>
      </trkpt>
      <trkpt lat="45.55295" lon="6.81274">
        <ele>2452.04</ele>
        <time>2016-03-21T13:26:41Z</time>
      </trkpt>
      <trkpt lat="45.55279" lon="6.81258">
        <ele>2462.04</ele>
        <time>2016-03-21T13:26:46Z</time>
      </trkpt>
      <trkpt lat="45.55263" lon="6.81244">
        <ele>2471.2</ele>
        <time>2016-03-21T13:26:51Z</time>
      </trkpt>
      <trkpt lat="45.55248" lon="6.81228">
        <ele>2478.08</ele>
        <time>2016-03-21T13:26:56Z</time>
      </trkpt>
      <trkpt lat="45.55233" lon="6.81213">
        <ele>2487.23</ele>
        <time>2016-03-21T13:27:01Z</time>
      </trkpt>
      <trkpt lat="45.55217" lon="6.81195">
        <ele>2495.24</ele>
        <time>2016-03-21T13:27:06Z</time>
      </trkpt>
      <trkpt lat="45.55201" lon="6.81179">
        <ele>2499.44</ele>
        <time>2016-03-21T13:27:11Z</time>
      </trkpt>
      <trkpt lat="45.55184" lon="6.81164">
        <ele>2504.28</ele>
        <time>2016-03-21T13:27:16Z</time>
      </trkpt>
      <trkpt lat="45.55168" lon="6.81148">
        <ele>2511.28</ele>
        <time>2016-03-21T13:27:21Z</time>
      </trkpt>
      <trkpt lat="45.55152" lon="6.81134">
        <ele>2517</ele>
        <time>2016-03-21T13:27:26Z</time>
      </trkpt>
      <trkpt lat="45.55136" lon="6.81118">
        <ele>2525.04</ele>
        <time>2016-03-21T13:27:31Z</time>
      </trkpt>
      <trkpt lat="45.5512" lon="6.81103">
        <ele>2533.07</ele>
        <time>2016-03-21T13:27:36Z</time>
      </trkpt>
      <trkpt lat="45.55103" lon="6.81086">
        <ele>2535.92</ele>
        <time>2016-03-21T13:27:41Z</time>
      </trkpt>
      <trkpt lat="45.55099" lon="6.81061">
        <ele>2535.53</ele>
        <time>2016-03-21T13:27:55Z</time>
      </trkpt>
      <trkpt lat="45.55119" lon="6.81061">
        <ele>2536.73</ele>
        <time>2016-03-21T13:28:33Z</time>
      </trkpt>
      <trkpt lat="45.55137" lon="6.81067">
        <ele>2530.73</ele>
        <time>2016-03-21T13:28:43Z</time>
      </trkpt>
      <trkpt lat="45.5515" lon="6.81086">
        <ele>2526.75</ele>
        <time>2016-03-21T13:29:01Z</time>
      </trkpt>
      <trkpt lat="45.55169" lon="6.81086">
        <ele>2518.73</ele>
        <time>2016-03-21T13:29:13Z</time>
      </trkpt>
      <trkpt lat="45.55183" lon="6.81106">
        <ele>2511.57</ele>
        <time>2016-03-21T13:29:24Z</time>
      </trkpt>
      <trkpt lat="45.55194" lon="6.81131">
        <ele>2508.74</ele>
        <time>2016-03-21T13:29:28Z</time>
      </trkpt>
      <trkpt lat="45.55206" lon="6.81158">
        <ele>2507.74</ele>
        <time>2016-03-21T13:29:32Z</time>
      </trkpt>
      <trkpt lat="45.55216" lon="6.81181">
        <ele>2507.56</ele>
        <time>2016-03-21T13:29:35Z</time>
      </trkpt>
      <trkpt lat="45.55233" lon="6.81191">
        <ele>2501.94</ele>
        <time>2016-03-21T13:29:39Z</time>
      </trkpt>
      <trkpt lat="45.55244" lon="6.81214">
        <ele>2498.58</ele>
        <time>2016-03-21T13:29:45Z</time>
      </trkpt>
      <trkpt lat="45.55249" lon="6.8124">
        <ele>2492.73</ele>
        <time>2016-03-21T13:29:58Z</time>
      </trkpt>
      <trkpt lat="45.55268" lon="6.81227">
        <ele>2480.78</ele>
        <time>2016-03-21T13:30:06Z</time>
      </trkpt>
      <trkpt lat="45.55281" lon="6.81247">
        <ele>2472.63</ele>
        <time>2016-03-21T13:30:14Z</time>
      </trkpt>
      <trkpt lat="45.55287" lon="6.81273">
        <ele>2466.81</ele>
        <time>2016-03-21T13:30:21Z</time>
      </trkpt>
      <trkpt lat="45.55303" lon="6.81291">
        <ele>2458.53</ele>
        <time>2016-03-21T13:30:31Z</time>
      </trkpt>
      <trkpt lat="45.55315" lon="6.81313">
        <ele>2451.97</ele>
        <time>2016-03-21T13:30:37Z</time>
      </trkpt>
      <trkpt lat="45.55332" lon="6.81335">
        <ele>2452.56</ele>
        <time>2016-03-21T13:30:41Z</time>
      </trkpt>
      <trkpt lat="45.55352" lon="6.81338">
        <ele>2447.97</ele>
        <time>2016-03-21T13:30:45Z</time>
      </trkpt>
      <trkpt lat="45.5537" lon="6.81357">
        <ele>2444.62</ele>
        <time>2016-03-21T13:30:49Z</time>
      </trkpt>
      <trkpt lat="45.55378" lon="6.81382">
        <ele>2435.19</ele>
        <time>2016-03-21T13:30:53Z</time>
      </trkpt>
      <trkpt lat="45.55394" lon="6.81397">
        <ele>2422.56</ele>
        <time>2016-03-21T13:31:29Z</time>
      </trkpt>
      <trkpt lat="45.55412" lon="6.8141">
        <ele>2416.65</ele>
        <time>2016-03-21T13:31:37Z</time>
      </trkpt>
      <trkpt lat="45.55417" lon="6.81438">
        <ele>2407.93</ele>
        <time>2016-03-21T13:31:46Z</time>
      </trkpt>
      <trkpt lat="45.55435" lon="6.81448">
        <ele>2398.78</ele>
        <time>2016-03-21T13:31:58Z</time>
      </trkpt>
      <trkpt lat="45.55454" lon="6.81459">
        <ele>2390.58</ele>
        <time>2016-03-21T13:32:10Z</time>
      </trkpt>
      <trkpt lat="45.55478" lon="6.81461">
        <ele>2388.75</ele>
        <time>2016-03-21T13:32:16Z</time>
      </trkpt>
      <trkpt lat="45.55497" lon="6.81469">
        <ele>2386.74</ele>
        <time>2016-03-21T13:32:19Z</time>
      </trkpt>
      <trkpt lat="45.55502" lon="6.81495">
        <ele>2382.02</ele>
        <time>2016-03-21T13:32:22Z</time>
      </trkpt>
      <trkpt lat="45.55484" lon="6.81505">
        <ele>2379.79</ele>
        <time>2016-03-21T13:32:24Z</time>
      </trkpt>
      <trkpt lat="45.55484" lon="6.81536">
        <ele>2368.06</ele>
        <time>2016-03-21T13:32:29Z</time>
      </trkpt>
      <trkpt lat="45.55477" lon="6.81561">
        <ele>2363.58</ele>
        <time>2016-03-21T13:32:33Z</time>
      </trkpt>
      <trkpt lat="45.55495" lon="6.81581">
        <ele>2359.76</ele>
        <time>2016-03-21T13:32:38Z</time>
      </trkpt>
      <trkpt lat="45.55513" lon="6.81598">
        <ele>2356.74</ele>
        <time>2016-03-21T13:32:42Z</time>
      </trkpt>
      <trkpt lat="45.55529" lon="6.81612">
        <ele>2354.77</ele>
        <time>2016-03-21T13:32:46Z</time>
      </trkpt>
      <trkpt lat="45.55552" lon="6.8162">
        <ele>2350.78</ele>
        <time>2016-03-21T13:32:50Z</time>
      </trkpt>
      <trkpt lat="45.55568" lon="6.81651">
        <ele>2347.59</ele>
        <time>2016-03-21T13:32:54Z</time>
      </trkpt>
      <trkpt lat="45.5558" lon="6.81671">
        <ele>2346.57</ele>
        <time>2016-03-21T13:32:56Z</time>
      </trkpt>
      <trkpt lat="45.55589" lon="6.81694">
        <ele>2343.01</ele>
        <time>2016-03-21T13:32:58Z</time>
      </trkpt>
      <trkpt lat="45.55597" lon="6.81718">
        <ele>2343.35</ele>
        <time>2016-03-21T13:33:00Z</time>
      </trkpt>
      <trkpt lat="45.55612" lon="6.81745">
        <ele>2341.74</ele>
        <time>2016-03-21T13:33:03Z</time>
      </trkpt>
      <trkpt lat="45.55631" lon="6.81765">
        <ele>2340.76</ele>
        <time>2016-03-21T13:33:06Z</time>
      </trkpt>
      <trkpt lat="45.5564" lon="6.81796">
        <ele>2335.83</ele>
        <time>2016-03-21T13:33:09Z</time>
      </trkpt>
      <trkpt lat="45.55653" lon="6.81821">
        <ele>2331.63</ele>
        <time>2016-03-21T13:33:12Z</time>
      </trkpt>
      <trkpt lat="45.55671" lon="6.81849">
        <ele>2327.98</ele>
        <time>2016-03-21T13:33:15Z</time>
      </trkpt>
      <trkpt lat="45.55693" lon="6.81859">
        <ele>2321.87</ele>
        <time>2016-03-21T13:33:18Z</time>
      </trkpt>
      <trkpt lat="45.55715" lon="6.81875">
        <ele>2316.86</ele>
        <time>2016-03-21T13:33:21Z</time>
      </trkpt>
      <trkpt lat="45.55737" lon="6.8188">
        <ele>2313.78</ele>
        <time>2016-03-21T13:33:24Z</time>
      </trkpt>
      <trkpt lat="45.55758" lon="6.8189">
        <ele>2308.16</ele>
        <time>2016-03-21T13:33:27Z</time>
      </trkpt>
      <trkpt lat="45.55781" lon="6.81904">
        <ele>2303.98</ele>
        <time>2016-03-21T13:33:30Z</time>
      </trkpt>
      <trkpt lat="45.55798" lon="6.81913">
        <ele>2298.91</ele>
        <time>2016-03-21T13:33:32Z</time>
      </trkpt>
      <trkpt lat="45.55817" lon="6.81925">
        <ele>2295.83</ele>
        <time>2016-03-21T13:33:34Z</time>
      </trkpt>
      <trkpt lat="45.55838" lon="6.81937">
        <ele>2293.78</ele>
        <time>2016-03-21T13:33:36Z</time>
      </trkpt>
      <trkpt lat="45.55858" lon="6.81956">
        <ele>2292.58</ele>
        <time>2016-03-21T13:33:38Z</time>
      </trkpt>
      <trkpt lat="45.55879" lon="6.81966">
        <ele>2288.05</ele>
        <time>2016-03-21T13:33:40Z</time>
      </trkpt>
      <trkpt lat="45.55897" lon="6.81977">
        <ele>2285.79</ele>
        <time>2016-03-21T13:33:42Z</time>
      </trkpt>
      <trkpt lat="45.55913" lon="6.81992">
        <ele>2282.02</ele>
        <time>2016-03-21T13:33:44Z</time>
      </trkpt>
      <trkpt lat="45.55933" lon="6.82002">
        <ele>2280.75</ele>
        <time>2016-03-21T13:33:46Z</time>
      </trkpt>
      <trkpt lat="45.5595" lon="6.82017">
        <ele>2277.98</ele>
        <time>2016-03-21T13:33:48Z</time>
      </trkpt>
      <trkpt lat="45.55968" lon="6.82033">
        <ele>2275.63</ele>
        <time>2016-03-21T13:33:50Z</time>
      </trkpt>
      <trkpt lat="45.55986" lon="6.82042">
        <ele>2271.85</ele>
        <time>2016-03-21T13:33:52Z</time>
      </trkpt>
      <trkpt lat="45.56002" lon="6.82058">
        <ele>2268.18</ele>
        <time>2016-03-21T13:33:54Z</time>
      </trkpt>
      <trkpt lat="45.5602" lon="6.82069">
        <ele>2265.8</ele>
        <time>2016-03-21T13:33:56Z</time>
      </trkpt>
      <trkpt lat="45.56037" lon="6.82076">
        <ele>2263.78</ele>
        <time>2016-03-21T13:33:58Z</time>
      </trkpt>
      <trkpt lat="45.56053" lon="6.8209">
        <ele>2260.82</ele>
        <time>2016-03-21T13:34:00Z</time>
      </trkpt>
      <trkpt lat="45.5607" lon="6.82102">
        <ele>2257.82</ele>
        <time>2016-03-21T13:34:02Z</time>
      </trkpt>
      <trkpt lat="45.56095" lon="6.82111">
        <ele>2255.74</ele>
        <time>2016-03-21T13:34:05Z</time>
      </trkpt>
      <trkpt lat="45.56111" lon="6.82126">
        <ele>2254.58</ele>
        <time>2016-03-21T13:34:07Z</time>
      </trkpt>
      <trkpt lat="45.56135" lon="6.82134">
        <ele>2250.82</ele>
        <time>2016-03-21T13:34:10Z</time>
      </trkpt>
      <trkpt lat="45.5616" lon="6.82157">
        <ele>2246.6</ele>
        <time>2016-03-21T13:34:13Z</time>
      </trkpt>
      <trkpt lat="45.56181" lon="6.82177">
        <ele>2244.61</ele>
        <time>2016-03-21T13:34:15Z</time>
      </trkpt>
      <trkpt lat="45.56204" lon="6.82191">
        <ele>2243.57</ele>
        <time>2016-03-21T13:34:17Z</time>
      </trkpt>
      <trkpt lat="45.56225" lon="6.82199">
        <ele>2237.45</ele>
        <time>2016-03-21T13:34:19Z</time>
      </trkpt>
      <trkpt lat="45.56244" lon="6.8221">
        <ele>2234.01</ele>
        <time>2016-03-21T13:34:21Z</time>
      </trkpt>
      <trkpt lat="45.56263" lon="6.82223">
        <ele>2231.79</ele>
        <time>2016-03-21T13:34:23Z</time>
      </trkpt>
      <trkpt lat="45.56281" lon="6.82235">
        <ele>2228.18</ele>
        <time>2016-03-21T13:34:25Z</time>
      </trkpt>
      <trkpt lat="45.56298" lon="6.82252">
        <ele>2225</ele>
        <time>2016-03-21T13:34:27Z</time>
      </trkpt>
      <trkpt lat="45.56316" lon="6.82267">
        <ele>2221.03</ele>
        <time>2016-03-21T13:34:29Z</time>
      </trkpt>
      <trkpt lat="45.56334" lon="6.8228">
        <ele>2217.19</ele>
        <time>2016-03-21T13:34:31Z</time>
      </trkpt>
      <trkpt lat="45.56355" lon="6.82301">
        <ele>2208.44</ele>
        <time>2016-03-21T13:34:34Z</time>
      </trkpt>
      <trkpt lat="45.56377" lon="6.8232">
        <ele>2206.39</ele>
        <time>2016-03-21T13:34:37Z</time>
      </trkpt>
      <trkpt lat="45.56397" lon="6.82332">
        <ele>2202.79</ele>
        <time>2016-03-21T13:34:40Z</time>
      </trkpt>
      <trkpt lat="45.56414" lon="6.82344">
        <ele>2200.9</ele>
        <time>2016-03-21T13:34:43Z</time>
      </trkpt>
      <trkpt lat="45.56431" lon="6.82357">
        <ele>2197.97</ele>
        <time>2016-03-21T13:34:46Z</time>
      </trkpt>
      <trkpt lat="45.5645" lon="6.82374">
        <ele>2195.74</ele>
        <time>2016-03-21T13:34:49Z</time>
      </trkpt>
      <trkpt lat="45.56466" lon="6.82397">
        <ele>2192.81</ele>
        <time>2016-03-21T13:34:52Z</time>
      </trkpt>
      <trkpt lat="45.56475" lon="6.8242">
        <ele>2190.74</ele>
        <time>2016-03-21T13:34:55Z</time>
      </trkpt>
      <trkpt lat="45.56457" lon="6.82426">
        <ele>2181.53</ele>
        <time>2016-03-21T13:35:41Z</time>
      </trkpt>
      <trkpt lat="45.56442" lon="6.8241">
        <ele>2179.52</ele>
        <time>2016-03-21T13:36:10Z</time>
      </trkpt>
      <trkpt lat="45.56425" lon="6.82397">
        <ele>2179.21</ele>
        <time>2016-03-21T13:36:14Z</time>
      </trkpt>
      <trkpt lat="45.56407" lon="6.82379">
        <ele>2185.08</ele>
        <time>2016-03-21T13:36:19Z</time>
      </trkpt>
      <trkpt lat="45.56389" lon="6.8236">
        <ele>2192.23</ele>
        <time>2016-03-21T13:36:24Z</time>
      </trkpt>
      <trkpt lat="45.56374" lon="6.82344">
        <ele>2194.33</ele>
        <time>2016-03-21T13:36:28Z</time>
      </trkpt>
      <trkpt lat="45.56359" lon="6.82328">
        <ele>2197.48</ele>
        <time>2016-03-21T13:36:32Z</time>
      </trkpt>
      <trkpt lat="45.56344" lon="6.82313">
        <ele>2200.29</ele>
        <time>2016-03-21T13:36:36Z</time>
      </trkpt>
      <trkpt lat="45.56329" lon="6.82298">
        <ele>2202.32</ele>
        <time>2016-03-21T13:36:40Z</time>
      </trkpt>
      <trkpt lat="45.56311" lon="6.82281">
        <ele>2205.28</ele>
        <time>2016-03-21T13:36:45Z</time>
      </trkpt>
      <trkpt lat="45.56292" lon="6.82263">
        <ele>2211.08</ele>
        <time>2016-03-21T13:36:50Z</time>
      </trkpt>
      <trkpt lat="45.56275" lon="6.82247">
        <ele>2212.53</ele>
        <time>2016-03-21T13:36:55Z</time>
      </trkpt>
      <trkpt lat="45.56257" lon="6.82229">
        <ele>2213.49</ele>
        <time>2016-03-21T13:37:00Z</time>
      </trkpt>
      <trkpt lat="45.56241" lon="6.82215">
        <ele>2215.33</ele>
        <time>2016-03-21T13:37:04Z</time>
      </trkpt>
      <trkpt lat="45.56224" lon="6.82197">
        <ele>2218.32</ele>
        <time>2016-03-21T13:37:09Z</time>
      </trkpt>
      <trkpt lat="45.56209" lon="6.82182">
        <ele>2221.28</ele>
        <time>2016-03-21T13:37:13Z</time>
      </trkpt>
      <trkpt lat="45.56191" lon="6.82165">
        <ele>2224.32</ele>
        <time>2016-03-21T13:37:18Z</time>
      </trkpt>
      <trkpt lat="45.56177" lon="6.82149">
        <ele>2230.08</ele>
        <time>2016-03-21T13:37:22Z</time>
      </trkpt>
      <trkpt lat="45.56159" lon="6.8213">
        <ele>2235.28</ele>
        <time>2016-03-21T13:37:27Z</time>
      </trkpt>
      <trkpt lat="45.56144" lon="6.82116">
        <ele>2239.32</ele>
        <time>2016-03-21T13:37:31Z</time>
      </trkpt>
      <trkpt lat="45.56128" lon="6.821">
        <ele>2242.48</ele>
        <time>2016-03-21T13:37:35Z</time>
      </trkpt>
      <trkpt lat="45.56111" lon="6.82083">
        <ele>2246.48</ele>
        <time>2016-03-21T13:37:40Z</time>
      </trkpt>
      <trkpt lat="45.56094" lon="6.82065">
        <ele>2252.24</ele>
        <time>2016-03-21T13:37:45Z</time>
      </trkpt>
      <trkpt lat="45.56079" lon="6.8205">
        <ele>2254.33</ele>
        <time>2016-03-21T13:37:49Z</time>
      </trkpt>
      <trkpt lat="45.56061" lon="6.82032">
        <ele>2256.32</ele>
        <time>2016-03-21T13:37:54Z</time>
      </trkpt>
      <trkpt lat="45.56043" lon="6.82015">
        <ele>2257.48</ele>
        <time>2016-03-21T13:37:59Z</time>
      </trkpt>
      <trkpt lat="45.56028" lon="6.81999">
        <ele>2259.32</ele>
        <time>2016-03-21T13:38:03Z</time>
      </trkpt>
      <trkpt lat="45.56009" lon="6.81981">
        <ele>2263.29</ele>
        <time>2016-03-21T13:38:08Z</time>
      </trkpt>
      <trkpt lat="45.55991" lon="6.81964">
        <ele>2265.52</ele>
        <time>2016-03-21T13:38:13Z</time>
      </trkpt>
      <trkpt lat="45.55976" lon="6.81949">
        <ele>2265.53</ele>
        <time>2016-03-21T13:38:17Z</time>
      </trkpt>
      <trkpt lat="45.55958" lon="6.81931">
        <ele>2266.33</ele>
        <time>2016-03-21T13:38:22Z</time>
      </trkpt>
      <trkpt lat="45.55939" lon="6.81913">
        <ele>2267.53</ele>
        <time>2016-03-21T13:38:27Z</time>
      </trkpt>
      <trkpt lat="45.55924" lon="6.81898">
        <ele>2269.48</ele>
        <time>2016-03-21T13:38:31Z</time>
      </trkpt>
      <trkpt lat="45.55906" lon="6.8188">
        <ele>2272.32</ele>
        <time>2016-03-21T13:38:36Z</time>
      </trkpt>
      <trkpt lat="45.55888" lon="6.81863">
        <ele>2276.28</ele>
        <time>2016-03-21T13:38:41Z</time>
      </trkpt>
      <trkpt lat="45.55873" lon="6.81848">
        <ele>2280.31</ele>
        <time>2016-03-21T13:38:45Z</time>
      </trkpt>
      <trkpt lat="45.55856" lon="6.81831">
        <ele>2280.33</ele>
        <time>2016-03-21T13:38:50Z</time>
      </trkpt>
      <trkpt lat="45.55837" lon="6.81814">
        <ele>2282.33</ele>
        <time>2016-03-21T13:38:55Z</time>
      </trkpt>
      <trkpt lat="45.55822" lon="6.81799">
        <ele>2284.32</ele>
        <time>2016-03-21T13:38:59Z</time>
      </trkpt>
      <trkpt lat="45.55804" lon="6.81781">
        <ele>2288.47</ele>
        <time>2016-03-21T13:39:04Z</time>
      </trkpt>
      <trkpt lat="45.55786" lon="6.81763">
        <ele>2292.28</ele>
        <time>2016-03-21T13:39:09Z</time>
      </trkpt>
      <trkpt lat="45.55771" lon="6.81749">
        <ele>2295.48</ele>
        <time>2016-03-21T13:39:13Z</time>
      </trkpt>
      <trkpt lat="45.55753" lon="6.81732">
        <ele>2300.32</ele>
        <time>2016-03-21T13:39:18Z</time>
      </trkpt>
      <trkpt lat="45.55735" lon="6.81714">
        <ele>2303.53</ele>
        <time>2016-03-21T13:39:23Z</time>
      </trkpt>
      <trkpt lat="45.55717" lon="6.81696">
        <ele>2305.48</ele>
        <time>2016-03-21T13:39:28Z</time>
      </trkpt>
      <trkpt lat="45.55699" lon="6.81679">
        <ele>2307.29</ele>
        <time>2016-03-21T13:39:33Z</time>
      </trkpt>
      <trkpt lat="45.55681" lon="6.81661">
        <ele>2309.29</ele>
        <time>2016-03-21T13:39:38Z</time>
      </trkpt>
      <trkpt lat="45.55663" lon="6.81644">
        <ele>2315.08</ele>
        <time>2016-03-21T13:39:43Z</time>
      </trkpt>
      <trkpt lat="45.55645" lon="6.81626">
        <ele>2321.24</ele>
        <time>2016-03-21T13:39:48Z</time>
      </trkpt>
      <trkpt lat="45.5563" lon="6.81611">
        <ele>2327.23</ele>
        <time>2016-03-21T13:39:52Z</time>
      </trkpt>
      <trkpt lat="45.55613" lon="6.81593">
        <ele>2335.07</ele>
        <time>2016-03-21T13:39:57Z</time>
      </trkpt>
      <trkpt lat="45.55596" lon="6.81576">
        <ele>2340.28</ele>
        <time>2016-03-21T13:40:02Z</time>
      </trkpt>
      <trkpt lat="45.55578" lon="6.81559">
        <ele>2345.24</ele>
        <time>2016-03-21T13:40:07Z</time>
      </trkpt>
      <trkpt lat="45.5556" lon="6.8154">
        <ele>2349.28</ele>
        <time>2016-03-21T13:40:12Z</time>
      </trkpt>
      <trkpt lat="45.55541" lon="6.81523">
        <ele>2352.48</ele>
        <time>2016-03-21T13:40:17Z</time>
      </trkpt>
      <trkpt lat="45.55524" lon="6.81504">
        <ele>2359.08</ele>
        <time>2016-03-21T13:40:22Z</time>
      </trkpt>
      <trkpt lat="45.55506" lon="6.81486">
        <ele>2365.24</ele>
        <time>2016-03-21T13:40:27Z</time>
      </trkpt>
      <trkpt lat="45.55488" lon="6.81468">
        <ele>2372.24</ele>
        <time>2016-03-21T13:40:32Z</time>
      </trkpt>
      <trkpt lat="45.55471" lon="6.8145">
        <ele>2380.07</ele>
        <time>2016-03-21T13:40:37Z</time>
      </trkpt>
      <trkpt lat="45.55454" lon="6.81433">
        <ele>2387.23</ele>
        <time>2016-03-21T13:40:42Z</time>
      </trkpt>
      <trkpt lat="45.55437" lon="6.81417">
        <ele>2396.03</ele>
        <time>2016-03-21T13:40:47Z</time>
      </trkpt>
      <trkpt lat="45.55419" lon="6.81398">
        <ele>2405.03</ele>
        <time>2016-03-21T13:40:52Z</time>
      </trkpt>
      <trkpt lat="45.55402" lon="6.81381">
        <ele>2414.23</ele>
        <time>2016-03-21T13:40:57Z</time>
      </trkpt>
      <trkpt lat="45.55386" lon="6.81367">
        <ele>2420.24</ele>
        <time>2016-03-21T13:41:01Z</time>
      </trkpt>
      <trkpt lat="45.5537" lon="6.8135">
        <ele>2427.08</ele>
        <time>2016-03-21T13:41:06Z</time>
      </trkpt>
      <trkpt lat="45.55353" lon="6.81334">
        <ele>2433.28</ele>
        <time>2016-03-21T13:41:11Z</time>
      </trkpt>
      <trkpt lat="45.55338" lon="6.8132">
        <ele>2439.28</ele>
        <time>2016-03-21T13:41:16Z</time>
      </trkpt>
      <trkpt lat="45.55322" lon="6.81303">
        <ele>2447.08</ele>
        <time>2016-03-21T13:41:21Z</time>
      </trkpt>
      <trkpt lat="45.55307" lon="6.81287">
        <ele>2453.28</ele>
        <time>2016-03-21T13:41:26Z</time>
      </trkpt>
      <trkpt lat="45.55291" lon="6.81271">
        <ele>2460.23</ele>
        <time>2016-03-21T13:41:31Z</time>
      </trkpt>
      <trkpt lat="45.55275" lon="6.81253">
        <ele>2469.07</ele>
        <time>2016-03-21T13:41:36Z</time>
      </trkpt>
      <trkpt lat="45.55259" lon="6.81238">
        <ele>2477.24</ele>
        <time>2016-03-21T13:41:41Z</time>
      </trkpt>
      <trkpt lat="45.55242" lon="6.81221">
        <ele>2487.07</ele>
        <time>2016-03-21T13:41:47Z</time>
      </trkpt>
      <trkpt lat="45.55223" lon="6.81206">
        <ele>2493.49</ele>
        <time>2016-03-21T13:41:53Z</time>
      </trkpt>
      <trkpt lat="45.55207" lon="6.81189">
        <ele>2499.28</ele>
        <time>2016-03-21T13:41:58Z</time>
      </trkpt>
      <trkpt lat="45.55191" lon="6.81174">
        <ele>2503.32</ele>
        <time>2016-03-21T13:42:03Z</time>
      </trkpt>
      <trkpt lat="45.55175" lon="6.81157">
        <ele>2508.28</ele>
        <time>2016-03-21T13:42:08Z</time>
      </trkpt>
      <trkpt lat="45.55159" lon="6.81142">
        <ele>2514.28</ele>
        <time>2016-03-21T13:42:13Z</time>
      </trkpt>
      <trkpt lat="45.55143" lon="6.81129">
        <ele>2520.28</ele>
        <time>2016-03-21T13:42:18Z</time>
      </trkpt>
      <trkpt lat="45.55128" lon="6.81112">
        <ele>2528.07</ele>
        <time>2016-03-21T13:42:23Z</time>
      </trkpt>
      <trkpt lat="45.55111" lon="6.81101">
        <ele>2530.76</ele>
        <time>2016-03-21T13:42:29Z</time>
      </trkpt>
      <trkpt lat="45.55098" lon="6.8108">
        <ele>2529.37</ele>
        <time>2016-03-21T13:42:37Z</time>
      </trkpt>
      <trkpt lat="45.55094" lon="6.81054">
        <ele>2536.57</ele>
        <time>2016-03-21T13:44:42Z</time>
      </trkpt>
      <trkpt lat="45.55096" lon="6.81028">
        <ele>2537.53</ele>
        <time>2016-03-21T13:44:57Z</time>
      </trkpt>
      <trkpt lat="45.55091" lon="6.81001">
        <ele>2533.53</ele>
        <time>2016-03-21T13:45:04Z</time>
      </trkpt>
      <trkpt lat="45.55091" lon="6.80974">
        <ele>2531.97</ele>
        <time>2016-03-21T13:45:08Z</time>
      </trkpt>
      <trkpt lat="45.55091" lon="6.80945">
        <ele>2528.74</ele>
        <time>2016-03-21T13:45:41Z</time>
      </trkpt>
      <trkpt lat="45.55096" lon="6.80921">
        <ele>2528.56</ele>
        <time>2016-03-21T13:45:44Z</time>
      </trkpt>
      <trkpt lat="45.55099" lon="6.8089">
        <ele>2526.14</ele>
        <time>2016-03-21T13:45:45Z</time>
      </trkpt>
      <trkpt lat="45.55106" lon="6.80866">
        <ele>2522.84</ele>
        <time>2016-03-21T13:45:47Z</time>
      </trkpt>
      <trkpt lat="45.55111" lon="6.8084">
        <ele>2523.66</ele>
        <time>2016-03-21T13:45:49Z</time>
      </trkpt>
      <trkpt lat="45.55119" lon="6.80813">
        <ele>2521.61</ele>
        <time>2016-03-21T13:45:52Z</time>
      </trkpt>
      <trkpt lat="45.55125" lon="6.80787">
        <ele>2522.33</ele>
        <time>2016-03-21T13:45:54Z</time>
      </trkpt>
      <trkpt lat="45.55132" lon="6.80762">
        <ele>2522.52</ele>
        <time>2016-03-21T13:45:56Z</time>
      </trkpt>
      <trkpt lat="45.55144" lon="6.8073">
        <ele>2522.53</ele>
        <time>2016-03-21T13:45:59Z</time>
      </trkpt>
      <trkpt lat="45.55159" lon="6.80705">
        <ele>2517.82</ele>
        <time>2016-03-21T13:46:03Z</time>
      </trkpt>
      <trkpt lat="45.55174" lon="6.80687">
        <ele>2518.3</ele>
        <time>2016-03-21T13:46:06Z</time>
      </trkpt>
      <trkpt lat="45.55192" lon="6.80668">
        <ele>2517.57</ele>
        <time>2016-03-21T13:46:09Z</time>
      </trkpt>
      <trkpt lat="45.55213" lon="6.80646">
        <ele>2515.77</ele>
        <time>2016-03-21T13:46:12Z</time>
      </trkpt>
      <trkpt lat="45.55229" lon="6.80633">
        <ele>2517.3</ele>
        <time>2016-03-21T13:46:14Z</time>
      </trkpt>
      <trkpt lat="45.55247" lon="6.80618">
        <ele>2512.63</ele>
        <time>2016-03-21T13:46:17Z</time>
      </trkpt>
      <trkpt lat="45.55264" lon="6.80608">
        <ele>2514.46</ele>
        <time>2016-03-21T13:46:19Z</time>
      </trkpt>
      <trkpt lat="45.55284" lon="6.80596">
        <ele>2516.32</ele>
        <time>2016-03-21T13:46:22Z</time>
      </trkpt>
      <trkpt lat="45.55306" lon="6.80584">
        <ele>2516.53</ele>
        <time>2016-03-21T13:46:25Z</time>
      </trkpt>
      <trkpt lat="45.55324" lon="6.80573">
        <ele>2516.53</ele>
        <time>2016-03-21T13:46:28Z</time>
      </trkpt>
      <trkpt lat="45.55342" lon="6.80564">
        <ele>2517.49</ele>
        <time>2016-03-21T13:46:31Z</time>
      </trkpt>
      <trkpt lat="45.55363" lon="6.8055">
        <ele>2515.93</ele>
        <time>2016-03-21T13:46:34Z</time>
      </trkpt>
      <trkpt lat="45.55388" lon="6.80544">
        <ele>2512.78</ele>
        <time>2016-03-21T13:46:37Z</time>
      </trkpt>
      <trkpt lat="45.55411" lon="6.80537">
        <ele>2509.02</ele>
        <time>2016-03-21T13:46:39Z</time>
      </trkpt>
      <trkpt lat="45.55432" lon="6.80533">
        <ele>2507.59</ele>
        <time>2016-03-21T13:46:41Z</time>
      </trkpt>
      <trkpt lat="45.55454" lon="6.80527">
        <ele>2506.73</ele>
        <time>2016-03-21T13:46:43Z</time>
      </trkpt>
      <trkpt lat="45.55474" lon="6.80519">
        <ele>2502.38</ele>
        <time>2016-03-21T13:46:45Z</time>
      </trkpt>
      <trkpt lat="45.55497" lon="6.80515">
        <ele>2496.28</ele>
        <time>2016-03-21T13:46:47Z</time>
      </trkpt>
      <trkpt lat="45.55521" lon="6.80513">
        <ele>2494.76</ele>
        <time>2016-03-21T13:46:49Z</time>
      </trkpt>
      <trkpt lat="45.55544" lon="6.80509">
        <ele>2494.38</ele>
        <time>2016-03-21T13:46:51Z</time>
      </trkpt>
      <trkpt lat="45.55565" lon="6.80496">
        <ele>2489.41</ele>
        <time>2016-03-21T13:46:53Z</time>
      </trkpt>
      <trkpt lat="45.55584" lon="6.80491">
        <ele>2482.01</ele>
        <time>2016-03-21T13:46:55Z</time>
      </trkpt>
      <trkpt lat="45.55603" lon="6.80487">
        <ele>2478.83</ele>
        <time>2016-03-21T13:46:57Z</time>
      </trkpt>
      <trkpt lat="45.55623" lon="6.80481">
        <ele>2477.9</ele>
        <time>2016-03-21T13:46:59Z</time>
      </trkpt>
      <trkpt lat="45.55643" lon="6.80478">
        <ele>2476.59</ele>
        <time>2016-03-21T13:47:01Z</time>
      </trkpt>
      <trkpt lat="45.55665" lon="6.80473">
        <ele>2474.61</ele>
        <time>2016-03-21T13:47:03Z</time>
      </trkpt>
      <trkpt lat="45.55688" lon="6.80471">
        <ele>2473.73</ele>
        <time>2016-03-21T13:47:05Z</time>
      </trkpt>
      <trkpt lat="45.55709" lon="6.80467">
        <ele>2473.54</ele>
        <time>2016-03-21T13:47:07Z</time>
      </trkpt>
      <trkpt lat="45.55726" lon="6.80459">
        <ele>2472.41</ele>
        <time>2016-03-21T13:47:09Z</time>
      </trkpt>
      <trkpt lat="45.55741" lon="6.80445">
        <ele>2467.41</ele>
        <time>2016-03-21T13:47:11Z</time>
      </trkpt>
      <trkpt lat="45.55754" lon="6.80427">
        <ele>2464.01</ele>
        <time>2016-03-21T13:47:13Z</time>
      </trkpt>
      <trkpt lat="45.5575" lon="6.80393">
        <ele>2457.84</ele>
        <time>2016-03-21T13:47:16Z</time>
      </trkpt>
      <trkpt lat="45.55754" lon="6.80366">
        <ele>2452.9</ele>
        <time>2016-03-21T13:47:18Z</time>
      </trkpt>
      <trkpt lat="45.55755" lon="6.80335">
        <ele>2445.24</ele>
        <time>2016-03-21T13:47:21Z</time>
      </trkpt>
      <trkpt lat="45.55741" lon="6.80318">
        <ele>2415.78</ele>
        <time>2016-03-21T13:48:23Z</time>
      </trkpt>
      <trkpt lat="45.55724" lon="6.80304">
        <ele>2408.63</ele>
        <time>2016-03-21T13:48:28Z</time>
      </trkpt>
      <trkpt lat="45.55706" lon="6.80289">
        <ele>2400.84</ele>
        <time>2016-03-21T13:48:32Z</time>
      </trkpt>
      <trkpt lat="45.55694" lon="6.80264">
        <ele>2396.78</ele>
        <time>2016-03-21T13:48:37Z</time>
      </trkpt>
      <trkpt lat="45.55681" lon="6.80245">
        <ele>2392.78</ele>
        <time>2016-03-21T13:48:42Z</time>
      </trkpt>
      <trkpt lat="45.55685" lon="6.80218">
        <ele>2387</ele>
        <time>2016-03-21T13:48:45Z</time>
      </trkpt>
      <trkpt lat="45.55674" lon="6.80197">
        <ele>2380.07</ele>
        <time>2016-03-21T13:48:48Z</time>
      </trkpt>
      <trkpt lat="45.55672" lon="6.8017">
        <ele>2375.98</ele>
        <time>2016-03-21T13:48:51Z</time>
      </trkpt>
      <trkpt lat="45.55671" lon="6.80144">
        <ele>2369.26</ele>
        <time>2016-03-21T13:48:54Z</time>
      </trkpt>
      <trkpt lat="45.55662" lon="6.80118">
        <ele>2363.22</ele>
        <time>2016-03-21T13:48:57Z</time>
      </trkpt>
      <trkpt lat="45.55654" lon="6.80081">
        <ele>2358.79</ele>
        <time>2016-03-21T13:49:00Z</time>
      </trkpt>
      <trkpt lat="45.55645" lon="6.80058">
        <ele>2355.82</ele>
        <time>2016-03-21T13:49:02Z</time>
      </trkpt>
      <trkpt lat="45.55637" lon="6.80033">
        <ele>2352.98</ele>
        <time>2016-03-21T13:49:04Z</time>
      </trkpt>
      <trkpt lat="45.55632" lon="6.80005">
        <ele>2350.79</ele>
        <time>2016-03-21T13:49:06Z</time>
      </trkpt>
      <trkpt lat="45.55627" lon="6.79977">
        <ele>2347.18</ele>
        <time>2016-03-21T13:49:08Z</time>
      </trkpt>
      <trkpt lat="45.55628" lon="6.79948">
        <ele>2343.04</ele>
        <time>2016-03-21T13:49:10Z</time>
      </trkpt>
      <trkpt lat="45.55628" lon="6.79919">
        <ele>2340.79</ele>
        <time>2016-03-21T13:49:12Z</time>
      </trkpt>
      <trkpt lat="45.55615" lon="6.79901">
        <ele>2331.53</ele>
        <time>2016-03-21T13:49:44Z</time>
      </trkpt>
      <trkpt lat="45.55596" lon="6.79883">
        <ele>2324.93</ele>
        <time>2016-03-21T13:50:06Z</time>
      </trkpt>
      <trkpt lat="45.55575" lon="6.79875">
        <ele>2319.79</ele>
        <time>2016-03-21T13:50:10Z</time>
      </trkpt>
      <trkpt lat="45.55554" lon="6.79867">
        <ele>2311.25</ele>
        <time>2016-03-21T13:50:13Z</time>
      </trkpt>
      <trkpt lat="45.55535" lon="6.79849">
        <ele>2305.86</ele>
        <time>2016-03-21T13:50:16Z</time>
      </trkpt>
      <trkpt lat="45.5552" lon="6.79822">
        <ele>2301.98</ele>
        <time>2016-03-21T13:50:19Z</time>
      </trkpt>
      <trkpt lat="45.55506" lon="6.79795">
        <ele>2297.15</ele>
        <time>2016-03-21T13:50:22Z</time>
      </trkpt>
      <trkpt lat="45.55497" lon="6.7977">
        <ele>2290.81</ele>
        <time>2016-03-21T13:50:25Z</time>
      </trkpt>
      <trkpt lat="45.55486" lon="6.79749">
        <ele>2286.05</ele>
        <time>2016-03-21T13:50:28Z</time>
      </trkpt>
      <trkpt lat="45.55466" lon="6.79722">
        <ele>2279.26</ele>
        <time>2016-03-21T13:50:31Z</time>
      </trkpt>
      <trkpt lat="45.55451" lon="6.79706">
        <ele>2273.92</ele>
        <time>2016-03-21T13:50:33Z</time>
      </trkpt>
      <trkpt lat="45.55438" lon="6.79682">
        <ele>2272.75</ele>
        <time>2016-03-21T13:50:35Z</time>
      </trkpt>
      <trkpt lat="45.55428" lon="6.79655">
        <ele>2270.78</ele>
        <time>2016-03-21T13:50:37Z</time>
      </trkpt>
      <trkpt lat="45.55413" lon="6.79628">
        <ele>2267.02</ele>
        <time>2016-03-21T13:50:39Z</time>
      </trkpt>
      <trkpt lat="45.55408" lon="6.79602">
        <ele>2264.79</ele>
        <time>2016-03-21T13:50:41Z</time>
      </trkpt>
      <trkpt lat="45.55413" lon="6.79575">
        <ele>2263.54</ele>
        <time>2016-03-21T13:50:44Z</time>
      </trkpt>
      <trkpt lat="45.55428" lon="6.79558">
        <ele>2260.58</ele>
        <time>2016-03-21T13:50:49Z</time>
      </trkpt>
      <trkpt lat="45.55437" lon="6.79536">
        <ele>2257.94</ele>
        <time>2016-03-21T13:50:52Z</time>
      </trkpt>
      <trkpt lat="45.55453" lon="6.79509">
        <ele>2254.78</ele>
        <time>2016-03-21T13:50:55Z</time>
      </trkpt>
      <trkpt lat="45.55463" lon="6.79485">
        <ele>2252.94</ele>
        <time>2016-03-21T13:50:57Z</time>
      </trkpt>
      <trkpt lat="45.55472" lon="6.7946">
        <ele>2250.95</ele>
        <time>2016-03-21T13:50:59Z</time>
      </trkpt>
      <trkpt lat="45.55485" lon="6.79438">
        <ele>2247.99</ele>
        <time>2016-03-21T13:51:01Z</time>
      </trkpt>
      <trkpt lat="45.55499" lon="6.79409">
        <ele>2242.83</ele>
        <time>2016-03-21T13:51:04Z</time>
      </trkpt>
      <trkpt lat="45.55526" lon="6.79408">
        <ele>2240.74</ele>
        <time>2016-03-21T13:51:07Z</time>
      </trkpt>
      <trkpt lat="45.55546" lon="6.79405">
        <ele>2240.54</ele>
        <time>2016-03-21T13:51:09Z</time>
      </trkpt>
      <trkpt lat="45.5557" lon="6.79402">
        <ele>2240.37</ele>
        <time>2016-03-21T13:51:11Z</time>
      </trkpt>
      <trkpt lat="45.55595" lon="6.79394">
        <ele>2239.72</ele>
        <time>2016-03-21T13:51:13Z</time>
      </trkpt>
      <trkpt lat="45.55613" lon="6.79408">
        <ele>2237.78</ele>
        <time>2016-03-21T13:51:15Z</time>
      </trkpt>
      <trkpt lat="45.5563" lon="6.79424">
        <ele>2237.54</ele>
        <time>2016-03-21T13:51:17Z</time>
      </trkpt>
      <trkpt lat="45.55648" lon="6.79427">
        <ele>2237.53</ele>
        <time>2016-03-21T13:51:19Z</time>
      </trkpt>
      <trkpt lat="45.55667" lon="6.7942">
        <ele>2228.96</ele>
        <time>2016-03-21T13:51:22Z</time>
      </trkpt>
      <trkpt lat="45.55686" lon="6.79422">
        <ele>2220.85</ele>
        <time>2016-03-21T13:51:25Z</time>
      </trkpt>
      <trkpt lat="45.55709" lon="6.79425">
        <ele>2218.58</ele>
        <time>2016-03-21T13:51:28Z</time>
      </trkpt>
      <trkpt lat="45.55731" lon="6.79433">
        <ele>2216.74</ele>
        <time>2016-03-21T13:51:31Z</time>
      </trkpt>
      <trkpt lat="45.55749" lon="6.79438">
        <ele>2215.58</ele>
        <time>2016-03-21T13:51:33Z</time>
      </trkpt>
      <trkpt lat="45.55768" lon="6.79422">
        <ele>2209.16</ele>
        <time>2016-03-21T13:51:36Z</time>
      </trkpt>
      <trkpt lat="45.55784" lon="6.79397">
        <ele>2206.58</ele>
        <time>2016-03-21T13:51:39Z</time>
      </trkpt>
      <trkpt lat="45.558" lon="6.79378">
        <ele>2201.51</ele>
        <time>2016-03-21T13:51:42Z</time>
      </trkpt>
      <trkpt lat="45.55813" lon="6.79353">
        <ele>2198.59</ele>
        <time>2016-03-21T13:51:45Z</time>
      </trkpt>
      <trkpt lat="45.55832" lon="6.79332">
        <ele>2193.7</ele>
        <time>2016-03-21T13:51:48Z</time>
      </trkpt>
      <trkpt lat="45.55857" lon="6.79321">
        <ele>2192.57</ele>
        <time>2016-03-21T13:51:51Z</time>
      </trkpt>
      <trkpt lat="45.5588" lon="6.79328">
        <ele>2189.94</ele>
        <time>2016-03-21T13:51:54Z</time>
      </trkpt>
      <trkpt lat="45.559" lon="6.79341">
        <ele>2185.79</ele>
        <time>2016-03-21T13:51:57Z</time>
      </trkpt>
      <trkpt lat="45.5592" lon="6.79361">
        <ele>2182.78</ele>
        <time>2016-03-21T13:52:00Z</time>
      </trkpt>
      <trkpt lat="45.55941" lon="6.79382">
        <ele>2182.53</ele>
        <time>2016-03-21T13:52:03Z</time>
      </trkpt>
      <trkpt lat="45.55963" lon="6.79394">
        <ele>2182.53</ele>
        <time>2016-03-21T13:52:05Z</time>
      </trkpt>
      <trkpt lat="45.55985" lon="6.79408">
        <ele>2181.57</ele>
        <time>2016-03-21T13:52:07Z</time>
      </trkpt>
      <trkpt lat="45.56007" lon="6.79417">
        <ele>2181.53</ele>
        <time>2016-03-21T13:52:09Z</time>
      </trkpt>
      <trkpt lat="45.56027" lon="6.79421">
        <ele>2180.57</ele>
        <time>2016-03-21T13:52:11Z</time>
      </trkpt>
      <trkpt lat="45.56047" lon="6.79423">
        <ele>2175.44</ele>
        <time>2016-03-21T13:52:14Z</time>
      </trkpt>
      <trkpt lat="45.56068" lon="6.79428">
        <ele>2174.41</ele>
        <time>2016-03-21T13:52:17Z</time>
      </trkpt>
      <trkpt lat="45.56089" lon="6.79444">
        <ele>2173.37</ele>
        <time>2016-03-21T13:52:21Z</time>
      </trkpt>
      <trkpt lat="45.56103" lon="6.79462">
        <ele>2169.37</ele>
        <time>2016-03-21T13:52:24Z</time>
      </trkpt>
      <trkpt lat="45.56121" lon="6.79476">
        <ele>2165.75</ele>
        <time>2016-03-21T13:52:27Z</time>
      </trkpt>
      <trkpt lat="45.56139" lon="6.79482">
        <ele>2160.7</ele>
        <time>2016-03-21T13:52:30Z</time>
      </trkpt>
      <trkpt lat="45.5614" lon="6.79452">
        <ele>2127.87</ele>
        <time>2016-03-21T13:52:55Z</time>
      </trkpt>
      <trkpt lat="45.56133" lon="6.79426">
        <ele>2124.02</ele>
        <time>2016-03-21T13:52:57Z</time>
      </trkpt>
      <trkpt lat="45.56129" lon="6.79397">
        <ele>2120.03</ele>
        <time>2016-03-21T13:52:59Z</time>
      </trkpt>
      <trkpt lat="45.56124" lon="6.79368">
        <ele>2116.99</ele>
        <time>2016-03-21T13:53:01Z</time>
      </trkpt>
      <trkpt lat="45.56121" lon="6.79338">
        <ele>2114.79</ele>
        <time>2016-03-21T13:53:03Z</time>
      </trkpt>
      <trkpt lat="45.56117" lon="6.79313">
        <ele>2112.78</ele>
        <time>2016-03-21T13:53:05Z</time>
      </trkpt>
      <trkpt lat="45.56114" lon="6.79285">
        <ele>2110.94</ele>
        <time>2016-03-21T13:53:07Z</time>
      </trkpt>
      <trkpt lat="45.56112" lon="6.79256">
        <ele>2107.99</ele>
        <time>2016-03-21T13:53:09Z</time>
      </trkpt>
      <trkpt lat="45.56114" lon="6.79226">
        <ele>2104.03</ele>
        <time>2016-03-21T13:53:11Z</time>
      </trkpt>
      <trkpt lat="45.56126" lon="6.79196">
        <ele>2095.12</ele>
        <time>2016-03-21T13:53:14Z</time>
      </trkpt>
      <trkpt lat="45.56134" lon="6.79164">
        <ele>2089.03</ele>
        <time>2016-03-21T13:53:17Z</time>
      </trkpt>
      <trkpt lat="45.56148" lon="6.79139">
        <ele>2080.59</ele>
        <time>2016-03-21T13:53:23Z</time>
      </trkpt>
      <trkpt lat="45.56159" lon="6.79118">
        <ele>2077.97</ele>
        <time>2016-03-21T13:53:26Z</time>
      </trkpt>
      <trkpt lat="45.56156" lon="6.7909">
        <ele>2074.83</ele>
        <time>2016-03-21T13:53:28Z</time>
      </trkpt>
      <trkpt lat="45.56173" lon="6.79064">
        <ele>2070.98</ele>
        <time>2016-03-21T13:53:31Z</time>
      </trkpt>
      <trkpt lat="45.56198" lon="6.79043">
        <ele>2068.79</ele>
        <time>2016-03-21T13:53:33Z</time>
      </trkpt>
      <trkpt lat="45.56222" lon="6.79033">
        <ele>2066.62</ele>
        <time>2016-03-21T13:53:35Z</time>
      </trkpt>
      <trkpt lat="45.56241" lon="6.79031">
        <ele>2062.37</ele>
        <time>2016-03-21T13:53:37Z</time>
      </trkpt>
      <trkpt lat="45.56256" lon="6.79017">
        <ele>2059.64</ele>
        <time>2016-03-21T13:53:39Z</time>
      </trkpt>
      <trkpt lat="45.56273" lon="6.79009">
        <ele>2056.74</ele>
        <time>2016-03-21T13:53:44Z</time>
      </trkpt>
      <trkpt lat="45.56278" lon="6.78983">
        <ele>2043.62</ele>
        <time>2016-03-21T13:53:51Z</time>
      </trkpt>
      <trkpt lat="45.56294" lon="6.78965">
        <ele>2032.68</ele>
        <time>2016-03-21T13:53:55Z</time>
      </trkpt>
      <trkpt lat="45.56311" lon="6.78952">
        <ele>2031.7</ele>
        <time>2016-03-21T13:53:58Z</time>
      </trkpt>
      <trkpt lat="45.56324" lon="6.78931">
        <ele>2022.16</ele>
        <time>2016-03-21T13:54:01Z</time>
      </trkpt>
      <trkpt lat="45.56341" lon="6.78901">
        <ele>2016.19</ele>
        <time>2016-03-21T13:54:04Z</time>
      </trkpt>
      <trkpt lat="45.56354" lon="6.78882">
        <ele>2013</ele>
        <time>2016-03-21T13:54:06Z</time>
      </trkpt>
      <trkpt lat="45.56357" lon="6.78856">
        <ele>2009.99</ele>
        <time>2016-03-21T13:54:08Z</time>
      </trkpt>
      <trkpt lat="45.5637" lon="6.78826">
        <ele>2004.09</ele>
        <time>2016-03-21T13:54:11Z</time>
      </trkpt>
      <trkpt lat="45.56375" lon="6.78799">
        <ele>1999.39</ele>
        <time>2016-03-21T13:54:13Z</time>
      </trkpt>
      <trkpt lat="45.56397" lon="6.78777">
        <ele>1992.87</ele>
        <time>2016-03-21T13:54:16Z</time>
      </trkpt>
      <trkpt lat="45.56414" lon="6.78768">
        <ele>1987.1</ele>
        <time>2016-03-21T13:54:18Z</time>
      </trkpt>
      <trkpt lat="45.56427" lon="6.78744">
        <ele>1983.03</ele>
        <time>2016-03-21T13:54:20Z</time>
      </trkpt>
      <trkpt lat="45.56437" lon="6.78714">
        <ele>1976.63</ele>
        <time>2016-03-21T13:54:22Z</time>
      </trkpt>
      <trkpt lat="45.56457" lon="6.78682">
        <ele>1971.9</ele>
        <time>2016-03-21T13:54:24Z</time>
      </trkpt>
      <trkpt lat="45.56468" lon="6.78647">
        <ele>1961.95</ele>
        <time>2016-03-21T13:54:26Z</time>
      </trkpt>
      <trkpt lat="45.56482" lon="6.78621">
        <ele>1953.71</ele>
        <time>2016-03-21T13:54:28Z</time>
      </trkpt>
      <trkpt lat="45.56494" lon="6.78596">
        <ele>1946.5</ele>
        <time>2016-03-21T13:54:30Z</time>
      </trkpt>
      <trkpt lat="45.56509" lon="6.78568">
        <ele>1939.65</ele>
        <time>2016-03-21T13:54:32Z</time>
      </trkpt>
      <trkpt lat="45.56527" lon="6.78543">
        <ele>1934.9</ele>
        <time>2016-03-21T13:54:34Z</time>
      </trkpt>
      <trkpt lat="45.56541" lon="6.78513">
        <ele>1925.91</ele>
        <time>2016-03-21T13:54:36Z</time>
      </trkpt>
      <trkpt lat="45.56559" lon="6.78482">
        <ele>1920.11</ele>
        <time>2016-03-21T13:54:38Z</time>
      </trkpt>
      <trkpt lat="45.56571" lon="6.78449">
        <ele>1912.51</ele>
        <time>2016-03-21T13:54:40Z</time>
      </trkpt>
      <trkpt lat="45.5659" lon="6.78416">
        <ele>1907.25</ele>
        <time>2016-03-21T13:54:42Z</time>
      </trkpt>
      <trkpt lat="45.56609" lon="6.78391">
        <ele>1898.56</ele>
        <time>2016-03-21T13:54:44Z</time>
      </trkpt>
      <trkpt lat="45.56629" lon="6.7836">
        <ele>1892.93</ele>
        <time>2016-03-21T13:54:46Z</time>
      </trkpt>
      <trkpt lat="45.5665" lon="6.78331">
        <ele>1885.19</ele>
        <time>2016-03-21T13:54:48Z</time>
      </trkpt>
      <trkpt lat="45.56673" lon="6.78304">
        <ele>1880.88</ele>
        <time>2016-03-21T13:54:50Z</time>
      </trkpt>
      <trkpt lat="45.56684" lon="6.78273">
        <ele>1873.98</ele>
        <time>2016-03-21T13:54:52Z</time>
      </trkpt>
      <trkpt lat="45.56699" lon="6.78258">
        <ele>1871.15</ele>
        <time>2016-03-21T13:54:54Z</time>
      </trkpt>
      <trkpt lat="45.56713" lon="6.78227">
        <ele>1860.68</ele>
        <time>2016-03-21T13:54:57Z</time>
      </trkpt>
      <trkpt lat="45.56725" lon="6.78207">
        <ele>1856.06</ele>
        <time>2016-03-21T13:54:59Z</time>
      </trkpt>
      <trkpt lat="45.56733" lon="6.78175">
        <ele>1845.47</ele>
        <time>2016-03-21T13:55:01Z</time>
      </trkpt>
      <trkpt lat="45.56747" lon="6.78152">
        <ele>1839.13</ele>
        <time>2016-03-21T13:55:03Z</time>
      </trkpt>
      <trkpt lat="45.56758" lon="6.78128">
        <ele>1835.03</ele>
        <time>2016-03-21T13:55:05Z</time>
      </trkpt>
      <trkpt lat="45.56777" lon="6.78114">
        <ele>1815.98</ele>
        <time>2016-03-21T13:55:24Z</time>
      </trkpt>
      <trkpt lat="45.56794" lon="6.78099">
        <ele>1814.7</ele>
        <time>2016-03-21T13:55:27Z</time>
      </trkpt>
      <trkpt lat="45.56817" lon="6.78088">
        <ele>1812.61</ele>
        <time>2016-03-21T13:55:30Z</time>
      </trkpt>
      <trkpt lat="45.5684" lon="6.78087">
        <ele>1809.81</ele>
        <time>2016-03-21T13:55:33Z</time>
      </trkpt>
      <trkpt lat="45.56865" lon="6.78085">
        <ele>1810.53</ele>
        <time>2016-03-21T13:55:36Z</time>
      </trkpt>
      <trkpt lat="45.56883" lon="6.78084">
        <ele>1809.57</ele>
        <time>2016-03-21T13:55:38Z</time>
      </trkpt>
      <trkpt lat="45.56902" lon="6.78081">
        <ele>1808.57</ele>
        <time>2016-03-21T13:55:40Z</time>
      </trkpt>
      <trkpt lat="45.56922" lon="6.78083">
        <ele>1807.57</ele>
        <time>2016-03-21T13:55:42Z</time>
      </trkpt>
      <trkpt lat="45.56947" lon="6.78084">
        <ele>1802.99</ele>
        <time>2016-03-21T13:55:45Z</time>
      </trkpt>
      <trkpt lat="45.56973" lon="6.78088">
        <ele>1802.69</ele>
        <time>2016-03-21T13:55:48Z</time>
      </trkpt>
      <trkpt lat="45.56992" lon="6.78091">
        <ele>1798.66</ele>
        <time>2016-03-21T13:55:51Z</time>
      </trkpt>
      <trkpt lat="45.5701" lon="6.78078">
        <ele>1790.85</ele>
        <time>2016-03-21T13:55:58Z</time>
      </trkpt>
      <trkpt lat="45.57032" lon="6.78075">
        <ele>1790.49</ele>
        <time>2016-03-21T13:56:02Z</time>
      </trkpt>
      <trkpt lat="45.57052" lon="6.78082">
        <ele>1789.57</ele>
        <time>2016-03-21T13:56:05Z</time>
      </trkpt>
      <trkpt lat="45.5707" lon="6.78076">
        <ele>1779.32</ele>
        <time>2016-03-21T13:56:08Z</time>
      </trkpt>
      <trkpt lat="45.57089" lon="6.78066">
        <ele>1773.71</ele>
        <time>2016-03-21T13:56:11Z</time>
      </trkpt>
      <trkpt lat="45.5711" lon="6.78053">
        <ele>1768.64</ele>
        <time>2016-03-21T13:56:14Z</time>
      </trkpt>
      <trkpt lat="45.57125" lon="6.78033">
        <ele>1763.83</ele>
        <time>2016-03-21T13:56:17Z</time>
      </trkpt>
      <trkpt lat="45.57137" lon="6.78008">
        <ele>1755.8</ele>
        <time>2016-03-21T13:56:21Z</time>
      </trkpt>
      <trkpt lat="45.57146" lon="6.77984">
        <ele>1747.44</ele>
        <time>2016-03-21T13:56:24Z</time>
      </trkpt>
      <trkpt lat="45.57157" lon="6.77962">
        <ele>1740.27</ele>
        <time>2016-03-21T13:56:27Z</time>
      </trkpt>
      <trkpt lat="45.57168" lon="6.77937">
        <ele>1733.42</ele>
        <time>2016-03-21T13:56:30Z</time>
      </trkpt>
      <trkpt lat="45.57181" lon="6.77909">
        <ele>1726.79</ele>
        <time>2016-03-21T13:56:34Z</time>
      </trkpt>
      <trkpt lat="45.57165" lon="6.77893">
        <ele>1717.27</ele>
        <time>2016-03-21T13:56:38Z</time>
      </trkpt>
      <trkpt lat="45.57146" lon="6.77908">
        <ele>1707.53</ele>
        <time>2016-03-21T13:59:33Z</time>
      </trkpt>
      <trkpt lat="45.57137" lon="6.77938">
        <ele>1703.82</ele>
        <time>2016-03-21T13:59:36Z</time>
      </trkpt>
      <trkpt lat="45.57123" lon="6.77962">
        <ele>1704.48</ele>
        <time>2016-03-21T13:59:41Z</time>
      </trkpt>
      <trkpt lat="45.57112" lon="6.77983">
        <ele>1707.32</ele>
        <time>2016-03-21T13:59:46Z</time>
      </trkpt>
      <trkpt lat="45.571" lon="6.78005">
        <ele>1713.68</ele>
        <time>2016-03-21T13:59:51Z</time>
      </trkpt>
      <trkpt lat="45.57085" lon="6.78021">
        <ele>1718.08</ele>
        <time>2016-03-21T13:59:56Z</time>
      </trkpt>
      <trkpt lat="45.57072" lon="6.78041">
        <ele>1723.24</ele>
        <time>2016-03-21T14:00:01Z</time>
      </trkpt>
      <trkpt lat="45.57059" lon="6.78068">
        <ele>1736.47</ele>
        <time>2016-03-21T14:00:07Z</time>
      </trkpt>
      <trkpt lat="45.57046" lon="6.78092">
        <ele>1743.22</ele>
        <time>2016-03-21T14:00:12Z</time>
      </trkpt>
      <trkpt lat="45.57035" lon="6.78115">
        <ele>1750.07</ele>
        <time>2016-03-21T14:00:17Z</time>
      </trkpt>
      <trkpt lat="45.57024" lon="6.78136">
        <ele>1761.03</ele>
        <time>2016-03-21T14:00:22Z</time>
      </trkpt>
      <trkpt lat="45.57012" lon="6.78157">
        <ele>1769.04</ele>
        <time>2016-03-21T14:00:27Z</time>
      </trkpt>
      <trkpt lat="45.57" lon="6.78178">
        <ele>1777.8</ele>
        <time>2016-03-21T14:00:32Z</time>
      </trkpt>
      <trkpt lat="45.56988" lon="6.78199">
        <ele>1783.32</ele>
        <time>2016-03-21T14:00:37Z</time>
      </trkpt>
      <trkpt lat="45.56976" lon="6.7822">
        <ele>1787.32</ele>
        <time>2016-03-21T14:00:42Z</time>
      </trkpt>
      <trkpt lat="45.56964" lon="6.78241">
        <ele>1792.31</ele>
        <time>2016-03-21T14:00:47Z</time>
      </trkpt>
      <trkpt lat="45.56951" lon="6.78263">
        <ele>1798.27</ele>
        <time>2016-03-21T14:00:52Z</time>
      </trkpt>
      <trkpt lat="45.56939" lon="6.78285">
        <ele>1804.47</ele>
        <time>2016-03-21T14:00:57Z</time>
      </trkpt>
      <trkpt lat="45.56927" lon="6.78306">
        <ele>1809.28</ele>
        <time>2016-03-21T14:01:02Z</time>
      </trkpt>
      <trkpt lat="45.56915" lon="6.78328">
        <ele>1816.04</ele>
        <time>2016-03-21T14:01:07Z</time>
      </trkpt>
      <trkpt lat="45.56902" lon="6.78349">
        <ele>1821.28</ele>
        <time>2016-03-21T14:01:12Z</time>
      </trkpt>
      <trkpt lat="45.5689" lon="6.7837">
        <ele>1823.32</ele>
        <time>2016-03-21T14:01:17Z</time>
      </trkpt>
      <trkpt lat="45.56879" lon="6.78393">
        <ele>1826.32</ele>
        <time>2016-03-21T14:01:22Z</time>
      </trkpt>
      <trkpt lat="45.56868" lon="6.78416">
        <ele>1831.31</ele>
        <time>2016-03-21T14:01:27Z</time>
      </trkpt>
      <trkpt lat="45.56855" lon="6.78439">
        <ele>1834.32</ele>
        <time>2016-03-21T14:01:32Z</time>
      </trkpt>
      <trkpt lat="45.56842" lon="6.78461">
        <ele>1838.28</ele>
        <time>2016-03-21T14:01:37Z</time>
      </trkpt>
      <trkpt lat="45.5683" lon="6.78482">
        <ele>1843.12</ele>
        <time>2016-03-21T14:01:42Z</time>
      </trkpt>
      <trkpt lat="45.56818" lon="6.78504">
        <ele>1846.68</ele>
        <time>2016-03-21T14:01:47Z</time>
      </trkpt>
      <trkpt lat="45.56806" lon="6.78525">
        <ele>1848.33</ele>
        <time>2016-03-21T14:01:52Z</time>
      </trkpt>
      <trkpt lat="45.56794" lon="6.78549">
        <ele>1850.32</ele>
        <time>2016-03-21T14:01:57Z</time>
      </trkpt>
      <trkpt lat="45.56782" lon="6.78571">
        <ele>1853.49</ele>
        <time>2016-03-21T14:02:02Z</time>
      </trkpt>
      <trkpt lat="45.56769" lon="6.78594">
        <ele>1858.32</ele>
        <time>2016-03-21T14:02:07Z</time>
      </trkpt>
      <trkpt lat="45.56757" lon="6.78615">
        <ele>1863.25</ele>
        <time>2016-03-21T14:02:12Z</time>
      </trkpt>
      <trkpt lat="45.56745" lon="6.78637">
        <ele>1868.08</ele>
        <time>2016-03-21T14:02:17Z</time>
      </trkpt>
      <trkpt lat="45.56733" lon="6.78658">
        <ele>1873.27</ele>
        <time>2016-03-21T14:02:22Z</time>
      </trkpt>
      <trkpt lat="45.56721" lon="6.78679">
        <ele>1878.31</ele>
        <time>2016-03-21T14:02:27Z</time>
      </trkpt>
      <trkpt lat="45.5671" lon="6.78702">
        <ele>1880.49</ele>
        <time>2016-03-21T14:02:32Z</time>
      </trkpt>
      <trkpt lat="45.56698" lon="6.78724">
        <ele>1884.48</ele>
        <time>2016-03-21T14:02:37Z</time>
      </trkpt>
      <trkpt lat="45.56686" lon="6.78746">
        <ele>1889.28</ele>
        <time>2016-03-21T14:02:42Z</time>
      </trkpt>
      <trkpt lat="45.56674" lon="6.78767">
        <ele>1894.08</ele>
        <time>2016-03-21T14:02:47Z</time>
      </trkpt>
      <trkpt lat="45.56662" lon="6.7879">
        <ele>1895.69</ele>
        <time>2016-03-21T14:02:52Z</time>
      </trkpt>
      <trkpt lat="45.5665" lon="6.78812">
        <ele>1898.32</ele>
        <time>2016-03-21T14:02:57Z</time>
      </trkpt>
      <trkpt lat="45.56638" lon="6.78833">
        <ele>1902.31</ele>
        <time>2016-03-21T14:03:02Z</time>
      </trkpt>
      <trkpt lat="45.56627" lon="6.78854">
        <ele>1909.08</ele>
        <time>2016-03-21T14:03:07Z</time>
      </trkpt>
      <trkpt lat="45.56614" lon="6.78877">
        <ele>1915.09</ele>
        <time>2016-03-21T14:03:12Z</time>
      </trkpt>
      <trkpt lat="45.56602" lon="6.78899">
        <ele>1917.33</ele>
        <time>2016-03-21T14:03:17Z</time>
      </trkpt>
      <trkpt lat="45.56588" lon="6.78923">
        <ele>1923.43</ele>
        <time>2016-03-21T14:03:23Z</time>
      </trkpt>
      <trkpt lat="45.56573" lon="6.78945">
        <ele>1927.15</ele>
        <time>2016-03-21T14:03:28Z</time>
      </trkpt>
      <trkpt lat="45.5656" lon="6.78969">
        <ele>1940.29</ele>
        <time>2016-03-21T14:03:34Z</time>
      </trkpt>
      <trkpt lat="45.56547" lon="6.78992">
        <ele>1951.5</ele>
        <time>2016-03-21T14:03:40Z</time>
      </trkpt>
      <trkpt lat="45.56536" lon="6.79015">
        <ele>1959.23</ele>
        <time>2016-03-21T14:03:45Z</time>
      </trkpt>
      <trkpt lat="45.56525" lon="6.79038">
        <ele>1969.28</ele>
        <time>2016-03-21T14:03:51Z</time>
      </trkpt>
      <trkpt lat="45.56511" lon="6.79059">
        <ele>1980.93</ele>
        <time>2016-03-21T14:03:56Z</time>
      </trkpt>
      <trkpt lat="45.56499" lon="6.7908">
        <ele>1985.32</ele>
        <time>2016-03-21T14:04:01Z</time>
      </trkpt>
      <trkpt lat="45.56485" lon="6.79102">
        <ele>1996.27</ele>
        <time>2016-03-21T14:04:07Z</time>
      </trkpt>
      <trkpt lat="45.56472" lon="6.79125">
        <ele>2000.85</ele>
        <time>2016-03-21T14:04:12Z</time>
      </trkpt>
      <trkpt lat="45.56459" lon="6.79146">
        <ele>2007.12</ele>
        <time>2016-03-21T14:04:17Z</time>
      </trkpt>
      <trkpt lat="45.56447" lon="6.79172">
        <ele>2020.46</ele>
        <time>2016-03-21T14:04:23Z</time>
      </trkpt>
      <trkpt lat="45.56436" lon="6.79194">
        <ele>2026.29</ele>
        <time>2016-03-21T14:04:28Z</time>
      </trkpt>
      <trkpt lat="45.56425" lon="6.79216">
        <ele>2033.3</ele>
        <time>2016-03-21T14:04:33Z</time>
      </trkpt>
      <trkpt lat="45.56414" lon="6.79241">
        <ele>2041.08</ele>
        <time>2016-03-21T14:04:39Z</time>
      </trkpt>
      <trkpt lat="45.56401" lon="6.79261">
        <ele>2047.24</ele>
        <time>2016-03-21T14:04:44Z</time>
      </trkpt>
      <trkpt lat="45.56389" lon="6.79281">
        <ele>2047.68</ele>
        <time>2016-03-21T14:04:49Z</time>
      </trkpt>
      <trkpt lat="45.56377" lon="6.79301">
        <ele>2052.51</ele>
        <time>2016-03-21T14:04:54Z</time>
      </trkpt>
      <trkpt lat="45.56362" lon="6.79322">
        <ele>2059.08</ele>
        <time>2016-03-21T14:04:59Z</time>
      </trkpt>
      <trkpt lat="45.5635" lon="6.79347">
        <ele>2076.22</ele>
        <time>2016-03-21T14:05:05Z</time>
      </trkpt>
      <trkpt lat="45.56335" lon="6.79372">
        <ele>2080.94</ele>
        <time>2016-03-21T14:05:11Z</time>
      </trkpt>
      <trkpt lat="45.56321" lon="6.79396">
        <ele>2085.32</ele>
        <time>2016-03-21T14:05:16Z</time>
      </trkpt>
      <trkpt lat="45.5631" lon="6.79422">
        <ele>2093.24</ele>
        <time>2016-03-21T14:05:22Z</time>
      </trkpt>
      <trkpt lat="45.56297" lon="6.79443">
        <ele>2094.53</ele>
        <time>2016-03-21T14:05:27Z</time>
      </trkpt>
      <trkpt lat="45.56283" lon="6.79422">
        <ele>2103.52</ele>
        <time>2016-03-21T14:05:49Z</time>
      </trkpt>
      <trkpt lat="45.56294" lon="6.79445">
        <ele>2105.37</ele>
        <time>2016-03-21T14:06:12Z</time>
      </trkpt>
      <trkpt lat="45.56279" lon="6.79471">
        <ele>2103.09</ele>
        <time>2016-03-21T14:07:03Z</time>
      </trkpt>
      <trkpt lat="45.5627" lon="6.79494">
        <ele>2101.51</ele>
        <time>2016-03-21T14:07:06Z</time>
      </trkpt>
      <trkpt lat="45.56254" lon="6.79511">
        <ele>2106.56</ele>
        <time>2016-03-21T14:07:10Z</time>
      </trkpt>
      <trkpt lat="45.56238" lon="6.79528">
        <ele>2115.38</ele>
        <time>2016-03-21T14:07:15Z</time>
      </trkpt>
      <trkpt lat="45.56224" lon="6.79546">
        <ele>2115.37</ele>
        <time>2016-03-21T14:07:20Z</time>
      </trkpt>
      <trkpt lat="45.56208" lon="6.79566">
        <ele>2128.82</ele>
        <time>2016-03-21T14:07:26Z</time>
      </trkpt>
      <trkpt lat="45.56192" lon="6.79584">
        <ele>2135.88</ele>
        <time>2016-03-21T14:07:31Z</time>
      </trkpt>
      <trkpt lat="45.56176" lon="6.79606">
        <ele>2140.28</ele>
        <time>2016-03-21T14:07:36Z</time>
      </trkpt>
      <trkpt lat="45.56161" lon="6.79625">
        <ele>2148.2</ele>
        <time>2016-03-21T14:07:41Z</time>
      </trkpt>
      <trkpt lat="45.56145" lon="6.79642">
        <ele>2154.28</ele>
        <time>2016-03-21T14:07:46Z</time>
      </trkpt>
      <trkpt lat="45.56132" lon="6.7966">
        <ele>2165.22</ele>
        <time>2016-03-21T14:07:51Z</time>
      </trkpt>
      <trkpt lat="45.56118" lon="6.79678">
        <ele>2174.02</ele>
        <time>2016-03-21T14:07:56Z</time>
      </trkpt>
      <trkpt lat="45.56105" lon="6.79695">
        <ele>2180.28</ele>
        <time>2016-03-21T14:08:01Z</time>
      </trkpt>
      <trkpt lat="45.5609" lon="6.79713">
        <ele>2185.27</ele>
        <time>2016-03-21T14:08:06Z</time>
      </trkpt>
      <trkpt lat="45.56075" lon="6.79733">
        <ele>2190.08</ele>
        <time>2016-03-21T14:08:11Z</time>
      </trkpt>
      <trkpt lat="45.5606" lon="6.79752">
        <ele>2196.03</ele>
        <time>2016-03-21T14:08:16Z</time>
      </trkpt>
      <trkpt lat="45.56046" lon="6.79772">
        <ele>2203.24</ele>
        <time>2016-03-21T14:08:21Z</time>
      </trkpt>
      <trkpt lat="45.56033" lon="6.7979">
        <ele>2210.84</ele>
        <time>2016-03-21T14:08:26Z</time>
      </trkpt>
      <trkpt lat="45.56019" lon="6.79808">
        <ele>2219.84</ele>
        <time>2016-03-21T14:08:31Z</time>
      </trkpt>
      <trkpt lat="45.56005" lon="6.79827">
        <ele>2230.03</ele>
        <time>2016-03-21T14:08:36Z</time>
      </trkpt>
      <trkpt lat="45.55991" lon="6.79846">
        <ele>2237.27</ele>
        <time>2016-03-21T14:08:41Z</time>
      </trkpt>
      <trkpt lat="45.55977" lon="6.79864">
        <ele>2249.82</ele>
        <time>2016-03-21T14:08:46Z</time>
      </trkpt>
      <trkpt lat="45.5596" lon="6.79884">
        <ele>2260.07</ele>
        <time>2016-03-21T14:08:52Z</time>
      </trkpt>
      <trkpt lat="45.55947" lon="6.79903">
        <ele>2268.24</ele>
        <time>2016-03-21T14:08:57Z</time>
      </trkpt>
      <trkpt lat="45.55933" lon="6.79921">
        <ele>2271.28</ele>
        <time>2016-03-21T14:09:02Z</time>
      </trkpt>
      <trkpt lat="45.55918" lon="6.79939">
        <ele>2272.49</ele>
        <time>2016-03-21T14:09:07Z</time>
      </trkpt>
      <trkpt lat="45.55903" lon="6.79958">
        <ele>2276.29</ele>
        <time>2016-03-21T14:09:12Z</time>
      </trkpt>
      <trkpt lat="45.55888" lon="6.79978">
        <ele>2282.4</ele>
        <time>2016-03-21T14:09:17Z</time>
      </trkpt>
      <trkpt lat="45.55874" lon="6.79997">
        <ele>2287.28</ele>
        <time>2016-03-21T14:09:22Z</time>
      </trkpt>
      <trkpt lat="45.55859" lon="6.80015">
        <ele>2293.24</ele>
        <time>2016-03-21T14:09:27Z</time>
      </trkpt>
      <trkpt lat="45.55845" lon="6.80034">
        <ele>2298.27</ele>
        <time>2016-03-21T14:09:32Z</time>
      </trkpt>
      <trkpt lat="45.55829" lon="6.80053">
        <ele>2298.53</ele>
        <time>2016-03-21T14:09:37Z</time>
      </trkpt>
      <trkpt lat="45.55815" lon="6.80074">
        <ele>2300.52</ele>
        <time>2016-03-21T14:09:42Z</time>
      </trkpt>
      <trkpt lat="45.55799" lon="6.80092">
        <ele>2303.29</ele>
        <time>2016-03-21T14:09:47Z</time>
      </trkpt>
      <trkpt lat="45.55785" lon="6.80112">
        <ele>2305.37</ele>
        <time>2016-03-21T14:09:52Z</time>
      </trkpt>
      <trkpt lat="45.5577" lon="6.80132">
        <ele>2316.03</ele>
        <time>2016-03-21T14:09:58Z</time>
      </trkpt>
      <trkpt lat="45.55755" lon="6.80154">
        <ele>2327</ele>
        <time>2016-03-21T14:10:04Z</time>
      </trkpt>
      <trkpt lat="45.55741" lon="6.80172">
        <ele>2339.82</ele>
        <time>2016-03-21T14:10:09Z</time>
      </trkpt>
      <trkpt lat="45.55726" lon="6.80192">
        <ele>2351.23</ele>
        <time>2016-03-21T14:10:15Z</time>
      </trkpt>
      <trkpt lat="45.55709" lon="6.80211">
        <ele>2359.48</ele>
        <time>2016-03-21T14:10:22Z</time>
      </trkpt>
      <trkpt lat="45.55694" lon="6.8023">
        <ele>2373.15</ele>
        <time>2016-03-21T14:10:28Z</time>
      </trkpt>
      <trkpt lat="45.5568" lon="6.80247">
        <ele>2385.63</ele>
        <time>2016-03-21T14:10:33Z</time>
      </trkpt>
      <trkpt lat="45.55666" lon="6.80267">
        <ele>2398.63</ele>
        <time>2016-03-21T14:10:39Z</time>
      </trkpt>
      <trkpt lat="45.55652" lon="6.80284">
        <ele>2411.22</ele>
        <time>2016-03-21T14:10:44Z</time>
      </trkpt>
      <trkpt lat="45.55637" lon="6.80305">
        <ele>2423.58</ele>
        <time>2016-03-21T14:10:50Z</time>
      </trkpt>
      <trkpt lat="45.55624" lon="6.80322">
        <ele>2436.78</ele>
        <time>2016-03-21T14:10:55Z</time>
      </trkpt>
      <trkpt lat="45.55608" lon="6.80341">
        <ele>2455.82</ele>
        <time>2016-03-21T14:11:01Z</time>
      </trkpt>
      <trkpt lat="45.55594" lon="6.8036">
        <ele>2468.87</ele>
        <time>2016-03-21T14:11:07Z</time>
      </trkpt>
      <trkpt lat="45.55579" lon="6.80377">
        <ele>2477.11</ele>
        <time>2016-03-21T14:11:12Z</time>
      </trkpt>
      <trkpt lat="45.55566" lon="6.80395">
        <ele>2478.69</ele>
        <time>2016-03-21T14:11:17Z</time>
      </trkpt>
      <trkpt lat="45.55551" lon="6.80413">
        <ele>2481.45</ele>
        <time>2016-03-21T14:11:22Z</time>
      </trkpt>
      <trkpt lat="45.55536" lon="6.80435">
        <ele>2479.77</ele>
        <time>2016-03-21T14:11:27Z</time>
      </trkpt>
      <trkpt lat="45.55521" lon="6.80454">
        <ele>2481.29</ele>
        <time>2016-03-21T14:11:32Z</time>
      </trkpt>
      <trkpt lat="45.55506" lon="6.80472">
        <ele>2484.32</ele>
        <time>2016-03-21T14:11:37Z</time>
      </trkpt>
      <trkpt lat="45.5549" lon="6.80491">
        <ele>2484.52</ele>
        <time>2016-03-21T14:11:42Z</time>
      </trkpt>
      <trkpt lat="45.55476" lon="6.8051">
        <ele>2483.34</ele>
        <time>2016-03-21T14:11:47Z</time>
      </trkpt>
      <trkpt lat="45.5546" lon="6.8053">
        <ele>2482.53</ele>
        <time>2016-03-21T14:11:52Z</time>
      </trkpt>
      <trkpt lat="45.55446" lon="6.8055">
        <ele>2484.12</ele>
        <time>2016-03-21T14:11:57Z</time>
      </trkpt>
      <trkpt lat="45.55432" lon="6.80569">
        <ele>2483.53</ele>
        <time>2016-03-21T14:12:02Z</time>
      </trkpt>
      <trkpt lat="45.55418" lon="6.80589">
        <ele>2480.41</ele>
        <time>2016-03-21T14:12:07Z</time>
      </trkpt>
      <trkpt lat="45.55402" lon="6.80606">
        <ele>2480.38</ele>
        <time>2016-03-21T14:12:12Z</time>
      </trkpt>
      <trkpt lat="45.55386" lon="6.80625">
        <ele>2480.52</ele>
        <time>2016-03-21T14:12:17Z</time>
      </trkpt>
      <trkpt lat="45.5537" lon="6.80646">
        <ele>2479.53</ele>
        <time>2016-03-21T14:12:22Z</time>
      </trkpt>
      <trkpt lat="45.55356" lon="6.80663">
        <ele>2477.73</ele>
        <time>2016-03-21T14:12:27Z</time>
      </trkpt>
      <trkpt lat="45.55342" lon="6.80681">
        <ele>2478.61</ele>
        <time>2016-03-21T14:12:31Z</time>
      </trkpt>
      <trkpt lat="45.55325" lon="6.807">
        <ele>2480.36</ele>
        <time>2016-03-21T14:12:36Z</time>
      </trkpt>
      <trkpt lat="45.55311" lon="6.8072">
        <ele>2484.1</ele>
        <time>2016-03-21T14:12:41Z</time>
      </trkpt>
      <trkpt lat="45.55296" lon="6.80741">
        <ele>2484.37</ele>
        <time>2016-03-21T14:12:46Z</time>
      </trkpt>
      <trkpt lat="45.55283" lon="6.8076">
        <ele>2485.13</ele>
        <time>2016-03-21T14:12:51Z</time>
      </trkpt>
      <trkpt lat="45.55268" lon="6.80779">
        <ele>2488.32</ele>
        <time>2016-03-21T14:12:56Z</time>
      </trkpt>
      <trkpt lat="45.55253" lon="6.80797">
        <ele>2490.33</ele>
        <time>2016-03-21T14:13:01Z</time>
      </trkpt>
      <trkpt lat="45.55236" lon="6.80816">
        <ele>2489.76</ele>
        <time>2016-03-21T14:13:06Z</time>
      </trkpt>
      <trkpt lat="45.55223" lon="6.80834">
        <ele>2490.69</ele>
        <time>2016-03-21T14:13:11Z</time>
      </trkpt>
      <trkpt lat="45.55209" lon="6.80853">
        <ele>2490.53</ele>
        <time>2016-03-21T14:13:16Z</time>
      </trkpt>
      <trkpt lat="45.55193" lon="6.80874">
        <ele>2488.36</ele>
        <time>2016-03-21T14:13:21Z</time>
      </trkpt>
      <trkpt lat="45.55177" lon="6.80894">
        <ele>2485.74</ele>
        <time>2016-03-21T14:13:26Z</time>
      </trkpt>
      <trkpt lat="45.55162" lon="6.80913">
        <ele>2492.42</ele>
        <time>2016-03-21T14:13:31Z</time>
      </trkpt>
      <trkpt lat="45.55148" lon="6.80931">
        <ele>2492.7</ele>
        <time>2016-03-21T14:13:36Z</time>
      </trkpt>
      <trkpt lat="45.55133" lon="6.80949">
        <ele>2497.27</ele>
        <time>2016-03-21T14:13:41Z</time>
      </trkpt>
      <trkpt lat="45.55119" lon="6.80969">
        <ele>2500.09</ele>
        <time>2016-03-21T14:13:46Z</time>
      </trkpt>
      <trkpt lat="45.55104" lon="6.80988">
        <ele>2510.62</ele>
        <time>2016-03-21T14:13:51Z</time>
      </trkpt>
      <trkpt lat="45.5509" lon="6.81009">
        <ele>2513.33</ele>
        <time>2016-03-21T14:13:56Z</time>
      </trkpt>
      <trkpt lat="45.55073" lon="6.81021">
        <ele>2536.48</ele>
        <time>2016-03-21T14:14:37Z</time>
      </trkpt>
      <trkpt lat="45.55088" lon="6.81036">
        <ele>2540.53</ele>
        <time>2016-03-21T14:16:48Z</time>
      </trkpt>
      <trkpt lat="45.55107" lon="6.81031">
        <ele>2537.38</ele>
        <time>2016-03-21T14:16:55Z</time>
      </trkpt>
      <trkpt lat="45.55101" lon="6.81003">
        <ele>2531.6</ele>
        <time>2016-03-21T14:16:59Z</time>
      </trkpt>
      <trkpt lat="45.55094" lon="6.8097">
        <ele>2528.62</ele>
        <time>2016-03-21T14:17:02Z</time>
      </trkpt>
      <trkpt lat="45.55092" lon="6.80935">
        <ele>2530.13</ele>
        <time>2016-03-21T14:17:04Z</time>
      </trkpt>
      <trkpt lat="45.55093" lon="6.80902">
        <ele>2528.76</ele>
        <time>2016-03-21T14:17:06Z</time>
      </trkpt>
      <trkpt lat="45.55102" lon="6.80875">
        <ele>2528.54</ele>
        <time>2016-03-21T14:17:08Z</time>
      </trkpt>
      <trkpt lat="45.5511" lon="6.80843">
        <ele>2527.73</ele>
        <time>2016-03-21T14:17:10Z</time>
      </trkpt>
      <trkpt lat="45.55121" lon="6.80813">
        <ele>2523.85</ele>
        <time>2016-03-21T14:17:13Z</time>
      </trkpt>
      <trkpt lat="45.55126" lon="6.80787">
        <ele>2520.98</ele>
        <time>2016-03-21T14:17:15Z</time>
      </trkpt>
      <trkpt lat="45.55131" lon="6.80758">
        <ele>2519.59</ele>
        <time>2016-03-21T14:17:17Z</time>
      </trkpt>
      <trkpt lat="45.55141" lon="6.80728">
        <ele>2516.97</ele>
        <time>2016-03-21T14:17:20Z</time>
      </trkpt>
      <trkpt lat="45.55153" lon="6.80707">
        <ele>2513.81</ele>
        <time>2016-03-21T14:17:23Z</time>
      </trkpt>
      <trkpt lat="45.55166" lon="6.8069">
        <ele>2510.97</ele>
        <time>2016-03-21T14:17:26Z</time>
      </trkpt>
      <trkpt lat="45.55183" lon="6.80673">
        <ele>2506.79</ele>
        <time>2016-03-21T14:17:29Z</time>
      </trkpt>
      <trkpt lat="45.55207" lon="6.80657">
        <ele>2503.78</ele>
        <time>2016-03-21T14:17:32Z</time>
      </trkpt>
      <trkpt lat="45.5523" lon="6.80635">
        <ele>2499.63</ele>
        <time>2016-03-21T14:17:35Z</time>
      </trkpt>
      <trkpt lat="45.55245" lon="6.80617">
        <ele>2498.57</ele>
        <time>2016-03-21T14:17:37Z</time>
      </trkpt>
      <trkpt lat="45.55266" lon="6.806">
        <ele>2496.61</ele>
        <time>2016-03-21T14:17:40Z</time>
      </trkpt>
      <trkpt lat="45.55286" lon="6.80586">
        <ele>2496.5</ele>
        <time>2016-03-21T14:17:43Z</time>
      </trkpt>
      <trkpt lat="45.55304" lon="6.80574">
        <ele>2495.73</ele>
        <time>2016-03-21T14:17:46Z</time>
      </trkpt>
      <trkpt lat="45.55323" lon="6.80566">
        <ele>2494.54</ele>
        <time>2016-03-21T14:17:49Z</time>
      </trkpt>
      <trkpt lat="45.55344" lon="6.80556">
        <ele>2493.54</ele>
        <time>2016-03-21T14:17:52Z</time>
      </trkpt>
      <trkpt lat="45.55368" lon="6.80542">
        <ele>2491.74</ele>
        <time>2016-03-21T14:17:55Z</time>
      </trkpt>
      <trkpt lat="45.55388" lon="6.80535">
        <ele>2491.54</ele>
        <time>2016-03-21T14:17:57Z</time>
      </trkpt>
      <trkpt lat="45.55408" lon="6.8053">
        <ele>2489.13</ele>
        <time>2016-03-21T14:17:59Z</time>
      </trkpt>
      <trkpt lat="45.55431" lon="6.8053">
        <ele>2486.64</ele>
        <time>2016-03-21T14:18:01Z</time>
      </trkpt>
      <trkpt lat="45.55452" lon="6.80526">
        <ele>2483.18</ele>
        <time>2016-03-21T14:18:03Z</time>
      </trkpt>
      <trkpt lat="45.55478" lon="6.80526">
        <ele>2480.8</ele>
        <time>2016-03-21T14:18:05Z</time>
      </trkpt>
      <trkpt lat="45.555" lon="6.80523">
        <ele>2477.02</ele>
        <time>2016-03-21T14:18:07Z</time>
      </trkpt>
      <trkpt lat="45.55526" lon="6.80517">
        <ele>2473.99</ele>
        <time>2016-03-21T14:18:09Z</time>
      </trkpt>
      <trkpt lat="45.5555" lon="6.80511">
        <ele>2471.95</ele>
        <time>2016-03-21T14:18:11Z</time>
      </trkpt>
      <trkpt lat="45.55573" lon="6.80504">
        <ele>2471.55</ele>
        <time>2016-03-21T14:18:13Z</time>
      </trkpt>
      <trkpt lat="45.55594" lon="6.80497">
        <ele>2469.77</ele>
        <time>2016-03-21T14:18:15Z</time>
      </trkpt>
      <trkpt lat="45.55611" lon="6.8049">
        <ele>2464.26</ele>
        <time>2016-03-21T14:18:17Z</time>
      </trkpt>
      <trkpt lat="45.55631" lon="6.80482">
        <ele>2461.8</ele>
        <time>2016-03-21T14:18:19Z</time>
      </trkpt>
      <trkpt lat="45.5565" lon="6.80477">
        <ele>2458.98</ele>
        <time>2016-03-21T14:18:21Z</time>
      </trkpt>
      <trkpt lat="45.5567" lon="6.80472">
        <ele>2456.95</ele>
        <time>2016-03-21T14:18:23Z</time>
      </trkpt>
      <trkpt lat="45.5569" lon="6.80473">
        <ele>2453.83</ele>
        <time>2016-03-21T14:18:25Z</time>
      </trkpt>
      <trkpt lat="45.55709" lon="6.80464">
        <ele>2451.78</ele>
        <time>2016-03-21T14:18:27Z</time>
      </trkpt>
      <trkpt lat="45.55732" lon="6.80453">
        <ele>2449.77</ele>
        <time>2016-03-21T14:18:30Z</time>
      </trkpt>
      <trkpt lat="45.5574" lon="6.80423">
        <ele>2438.2</ele>
        <time>2016-03-21T14:18:34Z</time>
      </trkpt>
      <trkpt lat="45.55748" lon="6.80385">
        <ele>2433.98</ele>
        <time>2016-03-21T14:18:37Z</time>
      </trkpt>
      <trkpt lat="45.5575" lon="6.80351">
        <ele>2431.93</ele>
        <time>2016-03-21T14:18:40Z</time>
      </trkpt>
      <trkpt lat="45.55742" lon="6.80324">
        <ele>2424.74</ele>
        <time>2016-03-21T14:18:47Z</time>
      </trkpt>
      <trkpt lat="45.55725" lon="6.80307">
        <ele>2417.03</ele>
        <time>2016-03-21T14:18:51Z</time>
      </trkpt>
      <trkpt lat="45.5571" lon="6.80287">
        <ele>2412.98</ele>
        <time>2016-03-21T14:18:54Z</time>
      </trkpt>
      <trkpt lat="45.55696" lon="6.80268">
        <ele>2407.06</ele>
        <time>2016-03-21T14:18:57Z</time>
      </trkpt>
      <trkpt lat="45.55683" lon="6.80244">
        <ele>2400.95</ele>
        <time>2016-03-21T14:19:01Z</time>
      </trkpt>
      <trkpt lat="45.55675" lon="6.80214">
        <ele>2389.67</ele>
        <time>2016-03-21T14:19:06Z</time>
      </trkpt>
      <trkpt lat="45.55677" lon="6.80184">
        <ele>2379.87</ele>
        <time>2016-03-21T14:19:10Z</time>
      </trkpt>
      <trkpt lat="45.55675" lon="6.80154">
        <ele>2374.99</ele>
        <time>2016-03-21T14:19:13Z</time>
      </trkpt>
      <trkpt lat="45.55667" lon="6.80128">
        <ele>2368.87</ele>
        <time>2016-03-21T14:19:16Z</time>
      </trkpt>
      <trkpt lat="45.55665" lon="6.801">
        <ele>2365.82</ele>
        <time>2016-03-21T14:19:18Z</time>
      </trkpt>
      <trkpt lat="45.55656" lon="6.80078">
        <ele>2361.22</ele>
        <time>2016-03-21T14:19:20Z</time>
      </trkpt>
      <trkpt lat="45.55645" lon="6.80057">
        <ele>2357.04</ele>
        <time>2016-03-21T14:19:22Z</time>
      </trkpt>
      <trkpt lat="45.55638" lon="6.80032">
        <ele>2355.75</ele>
        <time>2016-03-21T14:19:24Z</time>
      </trkpt>
      <trkpt lat="45.55634" lon="6.80003">
        <ele>2354.74</ele>
        <time>2016-03-21T14:19:26Z</time>
      </trkpt>
      <trkpt lat="45.55629" lon="6.79965">
        <ele>2349.09</ele>
        <time>2016-03-21T14:19:29Z</time>
      </trkpt>
      <trkpt lat="45.5563" lon="6.79937">
        <ele>2344.07</ele>
        <time>2016-03-21T14:19:31Z</time>
      </trkpt>
      <trkpt lat="45.55613" lon="6.79916">
        <ele>2335.86</ele>
        <time>2016-03-21T14:19:34Z</time>
      </trkpt>
      <trkpt lat="45.55606" lon="6.79889">
        <ele>2331.77</ele>
        <time>2016-03-21T14:19:39Z</time>
      </trkpt>
      <trkpt lat="45.55585" lon="6.79884">
        <ele>2322.77</ele>
        <time>2016-03-21T14:19:54Z</time>
      </trkpt>
      <trkpt lat="45.55562" lon="6.79876">
        <ele>2316.82</ele>
        <time>2016-03-21T14:19:58Z</time>
      </trkpt>
      <trkpt lat="45.5554" lon="6.79862">
        <ele>2312.63</ele>
        <time>2016-03-21T14:20:01Z</time>
      </trkpt>
      <trkpt lat="45.5552" lon="6.7984">
        <ele>2307.99</ele>
        <time>2016-03-21T14:20:04Z</time>
      </trkpt>
      <trkpt lat="45.55503" lon="6.79813">
        <ele>2304.62</ele>
        <time>2016-03-21T14:20:07Z</time>
      </trkpt>
      <trkpt lat="45.55494" lon="6.79789">
        <ele>2302.77</ele>
        <time>2016-03-21T14:20:09Z</time>
      </trkpt>
      <trkpt lat="45.55483" lon="6.7976">
        <ele>2300.78</ele>
        <time>2016-03-21T14:20:11Z</time>
      </trkpt>
      <trkpt lat="45.55472" lon="6.79736">
        <ele>2296.38</ele>
        <time>2016-03-21T14:20:13Z</time>
      </trkpt>
      <trkpt lat="45.5546" lon="6.79711">
        <ele>2291.08</ele>
        <time>2016-03-21T14:20:15Z</time>
      </trkpt>
      <trkpt lat="45.55447" lon="6.79686">
        <ele>2287.67</ele>
        <time>2016-03-21T14:20:17Z</time>
      </trkpt>
      <trkpt lat="45.55436" lon="6.79654">
        <ele>2284.98</ele>
        <time>2016-03-21T14:20:19Z</time>
      </trkpt>
      <trkpt lat="45.55427" lon="6.79623">
        <ele>2283.75</ele>
        <time>2016-03-21T14:20:21Z</time>
      </trkpt>
      <trkpt lat="45.55415" lon="6.79596">
        <ele>2279.38</ele>
        <time>2016-03-21T14:20:23Z</time>
      </trkpt>
      <trkpt lat="45.554" lon="6.79572">
        <ele>2275.04</ele>
        <time>2016-03-21T14:20:25Z</time>
      </trkpt>
      <trkpt lat="45.55384" lon="6.79554">
        <ele>2271.99</ele>
        <time>2016-03-21T14:20:27Z</time>
      </trkpt>
      <trkpt lat="45.5536" lon="6.79538">
        <ele>2265.87</ele>
        <time>2016-03-21T14:20:30Z</time>
      </trkpt>
      <trkpt lat="45.55338" lon="6.7952">
        <ele>2261.6</ele>
        <time>2016-03-21T14:20:33Z</time>
      </trkpt>
      <trkpt lat="45.55323" lon="6.79498">
        <ele>2255.8</ele>
        <time>2016-03-21T14:20:36Z</time>
      </trkpt>
      <trkpt lat="45.55312" lon="6.79462">
        <ele>2254.54</ele>
        <time>2016-03-21T14:20:39Z</time>
      </trkpt>
      <trkpt lat="45.55303" lon="6.79437">
        <ele>2245.09</ele>
        <time>2016-03-21T14:20:42Z</time>
      </trkpt>
      <trkpt lat="45.55296" lon="6.79409">
        <ele>2237.91</ele>
        <time>2016-03-21T14:20:45Z</time>
      </trkpt>
      <trkpt lat="45.55292" lon="6.7937">
        <ele>2232.83</ele>
        <time>2016-03-21T14:20:48Z</time>
      </trkpt>
      <trkpt lat="45.55289" lon="6.79335">
        <ele>2227.9</ele>
        <time>2016-03-21T14:20:50Z</time>
      </trkpt>
      <trkpt lat="45.55284" lon="6.79306">
        <ele>2223.71</ele>
        <time>2016-03-21T14:20:52Z</time>
      </trkpt>
      <trkpt lat="45.55277" lon="6.79279">
        <ele>2220.02</ele>
        <time>2016-03-21T14:20:54Z</time>
      </trkpt>
      <trkpt lat="45.55265" lon="6.79253">
        <ele>2214.8</ele>
        <time>2016-03-21T14:20:57Z</time>
      </trkpt>
      <trkpt lat="45.55261" lon="6.79222">
        <ele>2210.98</ele>
        <time>2016-03-21T14:21:00Z</time>
      </trkpt>
      <trkpt lat="45.55252" lon="6.79193">
        <ele>2205.58</ele>
        <time>2016-03-21T14:21:05Z</time>
      </trkpt>
      <trkpt lat="45.55249" lon="6.79165">
        <ele>2197.94</ele>
        <time>2016-03-21T14:21:33Z</time>
      </trkpt>
      <trkpt lat="45.55251" lon="6.79139">
        <ele>2196.57</ele>
        <time>2016-03-21T14:21:36Z</time>
      </trkpt>
      <trkpt lat="45.55248" lon="6.79108">
        <ele>2193.68</ele>
        <time>2016-03-21T14:21:39Z</time>
      </trkpt>
      <trkpt lat="45.55241" lon="6.7908">
        <ele>2189.82</ele>
        <time>2016-03-21T14:21:42Z</time>
      </trkpt>
      <trkpt lat="45.5523" lon="6.79051">
        <ele>2186.62</ele>
        <time>2016-03-21T14:21:45Z</time>
      </trkpt>
      <trkpt lat="45.55216" lon="6.79023">
        <ele>2182.02</ele>
        <time>2016-03-21T14:21:48Z</time>
      </trkpt>
      <trkpt lat="45.55195" lon="6.79001">
        <ele>2178.78</ele>
        <time>2016-03-21T14:21:51Z</time>
      </trkpt>
      <trkpt lat="45.55177" lon="6.78995">
        <ele>2175.82</ele>
        <time>2016-03-21T14:21:53Z</time>
      </trkpt>
      <trkpt lat="45.55153" lon="6.78986">
        <ele>2172.78</ele>
        <time>2016-03-21T14:21:56Z</time>
      </trkpt>
      <trkpt lat="45.55131" lon="6.78971">
        <ele>2168.79</ele>
        <time>2016-03-21T14:21:59Z</time>
      </trkpt>
      <trkpt lat="45.55115" lon="6.78956">
        <ele>2167.73</ele>
        <time>2016-03-21T14:22:02Z</time>
      </trkpt>
      <trkpt lat="45.55098" lon="6.78944">
        <ele>2165.73</ele>
        <time>2016-03-21T14:22:06Z</time>
      </trkpt>
      <trkpt lat="45.55082" lon="6.78929">
        <ele>2164.53</ele>
        <time>2016-03-21T14:22:10Z</time>
      </trkpt>
      <trkpt lat="45.55069" lon="6.78905">
        <ele>2162.57</ele>
        <time>2016-03-21T14:22:15Z</time>
      </trkpt>
      <trkpt lat="45.55062" lon="6.78876">
        <ele>2159.77</ele>
        <time>2016-03-21T14:22:19Z</time>
      </trkpt>
      <trkpt lat="45.55051" lon="6.78849">
        <ele>2154.83</ele>
        <time>2016-03-21T14:22:22Z</time>
      </trkpt>
      <trkpt lat="45.55036" lon="6.78827">
        <ele>2151.78</ele>
        <time>2016-03-21T14:22:25Z</time>
      </trkpt>
      <trkpt lat="45.55022" lon="6.78806">
        <ele>2149.58</ele>
        <time>2016-03-21T14:22:28Z</time>
      </trkpt>
      <trkpt lat="45.55017" lon="6.7878">
        <ele>2149.53</ele>
        <time>2016-03-21T14:22:31Z</time>
      </trkpt>
      <trkpt lat="45.55015" lon="6.78745">
        <ele>2146.78</ele>
        <time>2016-03-21T14:22:34Z</time>
      </trkpt>
      <trkpt lat="45.55011" lon="6.78719">
        <ele>2144.78</ele>
        <time>2016-03-21T14:22:36Z</time>
      </trkpt>
      <trkpt lat="45.55009" lon="6.78682">
        <ele>2141.78</ele>
        <time>2016-03-21T14:22:39Z</time>
      </trkpt>
      <trkpt lat="45.55012" lon="6.78644">
        <ele>2138.94</ele>
        <time>2016-03-21T14:22:42Z</time>
      </trkpt>
      <trkpt lat="45.55016" lon="6.78608">
        <ele>2133.22</ele>
        <time>2016-03-21T14:22:45Z</time>
      </trkpt>
      <trkpt lat="45.55017" lon="6.7858">
        <ele>2130.64</ele>
        <time>2016-03-21T14:22:47Z</time>
      </trkpt>
      <trkpt lat="45.55022" lon="6.78545">
        <ele>2122.26</ele>
        <time>2016-03-21T14:22:51Z</time>
      </trkpt>
      <trkpt lat="45.55035" lon="6.78517">
        <ele>2118.84</ele>
        <time>2016-03-21T14:22:53Z</time>
      </trkpt>
      <trkpt lat="45.55041" lon="6.78486">
        <ele>2106.54</ele>
        <time>2016-03-21T14:22:55Z</time>
      </trkpt>
      <trkpt lat="45.55048" lon="6.78455">
        <ele>2098.37</ele>
        <time>2016-03-21T14:22:57Z</time>
      </trkpt>
      <trkpt lat="45.55064" lon="6.78428">
        <ele>2088.76</ele>
        <time>2016-03-21T14:22:59Z</time>
      </trkpt>
      <trkpt lat="45.55075" lon="6.78397">
        <ele>2081.34</ele>
        <time>2016-03-21T14:23:01Z</time>
      </trkpt>
      <trkpt lat="45.55083" lon="6.78361">
        <ele>2076.88</ele>
        <time>2016-03-21T14:23:03Z</time>
      </trkpt>
      <trkpt lat="45.5508" lon="6.7833">
        <ele>2072.07</ele>
        <time>2016-03-21T14:23:05Z</time>
      </trkpt>
      <trkpt lat="45.55082" lon="6.78302">
        <ele>2069.63</ele>
        <time>2016-03-21T14:23:07Z</time>
      </trkpt>
      <trkpt lat="45.55077" lon="6.78267">
        <ele>2066.02</ele>
        <time>2016-03-21T14:23:09Z</time>
      </trkpt>
      <trkpt lat="45.55072" lon="6.7824">
        <ele>2062.99</ele>
        <time>2016-03-21T14:23:11Z</time>
      </trkpt>
      <trkpt lat="45.55077" lon="6.78207">
        <ele>2054.28</ele>
        <time>2016-03-21T14:23:14Z</time>
      </trkpt>
      <trkpt lat="45.55072" lon="6.78172">
        <ele>2050.78</ele>
        <time>2016-03-21T14:23:17Z</time>
      </trkpt>
      <trkpt lat="45.55074" lon="6.78136">
        <ele>2044.23</ele>
        <time>2016-03-21T14:23:20Z</time>
      </trkpt>
      <trkpt lat="45.55067" lon="6.78109">
        <ele>2041.74</ele>
        <time>2016-03-21T14:23:23Z</time>
      </trkpt>
      <trkpt lat="45.55061" lon="6.78084">
        <ele>2036.82</ele>
        <time>2016-03-21T14:23:27Z</time>
      </trkpt>
      <trkpt lat="45.55045" lon="6.78072">
        <ele>2026.53</ele>
        <time>2016-03-21T14:23:44Z</time>
      </trkpt>
      <trkpt lat="45.55046" lon="6.78043">
        <ele>2021.65</ele>
        <time>2016-03-21T14:24:02Z</time>
      </trkpt>
      <trkpt lat="45.55048" lon="6.78017">
        <ele>2018.97</ele>
        <time>2016-03-21T14:24:05Z</time>
      </trkpt>
      <trkpt lat="45.5506" lon="6.77993">
        <ele>2016.58</ele>
        <time>2016-03-21T14:24:09Z</time>
      </trkpt>
      <trkpt lat="45.55056" lon="6.77968">
        <ele>2006.7</ele>
        <time>2016-03-21T14:24:27Z</time>
      </trkpt>
      <trkpt lat="45.55059" lon="6.77939">
        <ele>2006.53</ele>
        <time>2016-03-21T14:24:32Z</time>
      </trkpt>
      <trkpt lat="45.5505" lon="6.77906">
        <ele>2002.94</ele>
        <time>2016-03-21T14:24:36Z</time>
      </trkpt>
      <trkpt lat="45.55046" lon="6.77876">
        <ele>1996.81</ele>
        <time>2016-03-21T14:24:39Z</time>
      </trkpt>
      <trkpt lat="45.5505" lon="6.77848">
        <ele>1992.18</ele>
        <time>2016-03-21T14:24:42Z</time>
      </trkpt>
      <trkpt lat="45.55052" lon="6.77813">
        <ele>1986.96</ele>
        <time>2016-03-21T14:24:45Z</time>
      </trkpt>
      <trkpt lat="45.55055" lon="6.77787">
        <ele>1983.19</ele>
        <time>2016-03-21T14:24:47Z</time>
      </trkpt>
      <trkpt lat="45.55059" lon="6.77752">
        <ele>1978.02</ele>
        <time>2016-03-21T14:24:50Z</time>
      </trkpt>
      <trkpt lat="45.55069" lon="6.77716">
        <ele>1972.99</ele>
        <time>2016-03-21T14:24:53Z</time>
      </trkpt>
      <trkpt lat="45.55075" lon="6.77688">
        <ele>1970.79</ele>
        <time>2016-03-21T14:24:55Z</time>
      </trkpt>
      <trkpt lat="45.5508" lon="6.77649">
        <ele>1962.38</ele>
        <time>2016-03-21T14:24:57Z</time>
      </trkpt>
      <trkpt lat="45.55087" lon="6.77611">
        <ele>1957.08</ele>
        <time>2016-03-21T14:24:59Z</time>
      </trkpt>
      <trkpt lat="45.55088" lon="6.77577">
        <ele>1952.87</ele>
        <time>2016-03-21T14:25:01Z</time>
      </trkpt>
      <trkpt lat="45.55095" lon="6.77552">
        <ele>1948.06</ele>
        <time>2016-03-21T14:25:03Z</time>
      </trkpt>
      <trkpt lat="45.55102" lon="6.7752">
        <ele>1944.99</ele>
        <time>2016-03-21T14:25:05Z</time>
      </trkpt>
      <trkpt lat="45.55112" lon="6.77497">
        <ele>1939.11</ele>
        <time>2016-03-21T14:25:07Z</time>
      </trkpt>
      <trkpt lat="45.55117" lon="6.77463">
        <ele>1925.64</ele>
        <time>2016-03-21T14:25:10Z</time>
      </trkpt>
      <trkpt lat="45.55138" lon="6.77436">
        <ele>1915.52</ele>
        <time>2016-03-21T14:25:13Z</time>
      </trkpt>
      <trkpt lat="45.55148" lon="6.77414">
        <ele>1908.33</ele>
        <time>2016-03-21T14:25:15Z</time>
      </trkpt>
      <trkpt lat="45.55163" lon="6.77397">
        <ele>1905.64</ele>
        <time>2016-03-21T14:25:17Z</time>
      </trkpt>
      <trkpt lat="45.5518" lon="6.77366">
        <ele>1900.76</ele>
        <time>2016-03-21T14:25:20Z</time>
      </trkpt>
      <trkpt lat="45.55192" lon="6.77338">
        <ele>1893.04</ele>
        <time>2016-03-21T14:25:23Z</time>
      </trkpt>
      <trkpt lat="45.55196" lon="6.77308">
        <ele>1887.11</ele>
        <time>2016-03-21T14:25:25Z</time>
      </trkpt>
      <trkpt lat="45.55214" lon="6.7728">
        <ele>1877.9</ele>
        <time>2016-03-21T14:25:28Z</time>
      </trkpt>
      <trkpt lat="45.55213" lon="6.77248">
        <ele>1870.59</ele>
        <time>2016-03-21T14:25:31Z</time>
      </trkpt>
      <trkpt lat="45.55206" lon="6.77225">
        <ele>1857.13</ele>
        <time>2016-03-21T14:25:46Z</time>
      </trkpt>
      <trkpt lat="45.55188" lon="6.77207">
        <ele>1849.02</ele>
        <time>2016-03-21T14:25:50Z</time>
      </trkpt>
      <trkpt lat="45.55171" lon="6.77189">
        <ele>1843.81</ele>
        <time>2016-03-21T14:25:54Z</time>
      </trkpt>
      <trkpt lat="45.55158" lon="6.77166">
        <ele>1840.97</ele>
        <time>2016-03-21T14:25:58Z</time>
      </trkpt>
      <trkpt lat="45.55144" lon="6.77144">
        <ele>1837.78</ele>
        <time>2016-03-21T14:26:02Z</time>
      </trkpt>
      <trkpt lat="45.55128" lon="6.77118">
        <ele>1834.62</ele>
        <time>2016-03-21T14:26:06Z</time>
      </trkpt>
      <trkpt lat="45.55114" lon="6.771">
        <ele>1831.59</ele>
        <time>2016-03-21T14:26:09Z</time>
      </trkpt>
      <trkpt lat="45.55098" lon="6.77082">
        <ele>1828.94</ele>
        <time>2016-03-21T14:26:12Z</time>
      </trkpt>
      <trkpt lat="45.55079" lon="6.77066">
        <ele>1824.82</ele>
        <time>2016-03-21T14:26:15Z</time>
      </trkpt>
      <trkpt lat="45.55059" lon="6.77052">
        <ele>1823.57</ele>
        <time>2016-03-21T14:26:18Z</time>
      </trkpt>
      <trkpt lat="45.55038" lon="6.77049">
        <ele>1819.02</ele>
        <time>2016-03-21T14:26:21Z</time>
      </trkpt>
      <trkpt lat="45.55017" lon="6.77056">
        <ele>1815.94</ele>
        <time>2016-03-21T14:26:24Z</time>
      </trkpt>
      <trkpt lat="45.54998" lon="6.77063">
        <ele>1814.57</ele>
        <time>2016-03-21T14:26:27Z</time>
      </trkpt>
      <trkpt lat="45.54976" lon="6.77075">
        <ele>1810.63</ele>
        <time>2016-03-21T14:26:30Z</time>
      </trkpt>
      <trkpt lat="45.54956" lon="6.7709">
        <ele>1807.97</ele>
        <time>2016-03-21T14:26:33Z</time>
      </trkpt>
      <trkpt lat="45.54938" lon="6.77099">
        <ele>1805.79</ele>
        <time>2016-03-21T14:26:35Z</time>
      </trkpt>
      <trkpt lat="45.54917" lon="6.77118">
        <ele>1802.78</ele>
        <time>2016-03-21T14:26:38Z</time>
      </trkpt>
      <trkpt lat="45.54897" lon="6.77133">
        <ele>1799.78</ele>
        <time>2016-03-21T14:26:41Z</time>
      </trkpt>
      <trkpt lat="45.54873" lon="6.77141">
        <ele>1797.74</ele>
        <time>2016-03-21T14:26:44Z</time>
      </trkpt>
      <trkpt lat="45.54852" lon="6.77142">
        <ele>1796.54</ele>
        <time>2016-03-21T14:26:47Z</time>
      </trkpt>
      <trkpt lat="45.54834" lon="6.77137">
        <ele>1792.82</ele>
        <time>2016-03-21T14:26:50Z</time>
      </trkpt>
      <trkpt lat="45.54812" lon="6.77124">
        <ele>1790.77</ele>
        <time>2016-03-21T14:26:53Z</time>
      </trkpt>
      <trkpt lat="45.54792" lon="6.77111">
        <ele>1788.74</ele>
        <time>2016-03-21T14:26:56Z</time>
      </trkpt>
      <trkpt lat="45.54808" lon="6.77083">
        <ele>1783.56</ele>
        <time>2016-03-21T14:27:01Z</time>
      </trkpt>
      <trkpt lat="45.54819" lon="6.77062">
        <ele>1781.61</ele>
        <time>2016-03-21T14:27:03Z</time>
      </trkpt>
      <trkpt lat="45.54837" lon="6.77041">
        <ele>1779.93</ele>
        <time>2016-03-21T14:27:05Z</time>
      </trkpt>
      <trkpt lat="45.54853" lon="6.77025">
        <ele>1775.87</ele>
        <time>2016-03-21T14:27:07Z</time>
      </trkpt>
      <trkpt lat="45.54866" lon="6.77007">
        <ele>1772.82</ele>
        <time>2016-03-21T14:27:09Z</time>
      </trkpt>
      <trkpt lat="45.5488" lon="6.76986">
        <ele>1772.38</ele>
        <time>2016-03-21T14:27:11Z</time>
      </trkpt>
      <trkpt lat="45.5489" lon="6.76962">
        <ele>1770.77</ele>
        <time>2016-03-21T14:27:13Z</time>
      </trkpt>
      <trkpt lat="45.54895" lon="6.76933">
        <ele>1767.82</ele>
        <time>2016-03-21T14:27:15Z</time>
      </trkpt>
      <trkpt lat="45.54909" lon="6.76915">
        <ele>1767.54</ele>
        <time>2016-03-21T14:27:17Z</time>
      </trkpt>
      <trkpt lat="45.54923" lon="6.76888">
        <ele>1758.27</ele>
        <time>2016-03-21T14:27:21Z</time>
      </trkpt>
      <trkpt lat="45.54942" lon="6.76859">
        <ele>1753.86</ele>
        <time>2016-03-21T14:27:24Z</time>
      </trkpt>
      <trkpt lat="45.54962" lon="6.76833">
        <ele>1745.31</ele>
        <time>2016-03-21T14:27:27Z</time>
      </trkpt>
      <trkpt lat="45.54983" lon="6.76811">
        <ele>1739.07</ele>
        <time>2016-03-21T14:27:30Z</time>
      </trkpt>
      <trkpt lat="45.54998" lon="6.76789">
        <ele>1735.99</ele>
        <time>2016-03-21T14:27:32Z</time>
      </trkpt>
      <trkpt lat="45.55005" lon="6.76759">
        <ele>1729.58</ele>
        <time>2016-03-21T14:27:35Z</time>
      </trkpt>
      <trkpt lat="45.55015" lon="6.76736">
        <ele>1724.8</ele>
        <time>2016-03-21T14:27:38Z</time>
      </trkpt>
      <trkpt lat="45.55011" lon="6.76703">
        <ele>1718.81</ele>
        <time>2016-03-21T14:27:41Z</time>
      </trkpt>
      <trkpt lat="45.55011" lon="6.76675">
        <ele>1712.78</ele>
        <time>2016-03-21T14:27:43Z</time>
      </trkpt>
      <trkpt lat="45.55024" lon="6.76649">
        <ele>1704.28</ele>
        <time>2016-03-21T14:27:46Z</time>
      </trkpt>
      <trkpt lat="45.55044" lon="6.76626">
        <ele>1703.38</ele>
        <time>2016-03-21T14:27:49Z</time>
      </trkpt>
      <trkpt lat="45.55056" lon="6.76603">
        <ele>1695.72</ele>
        <time>2016-03-21T14:27:52Z</time>
      </trkpt>
      <trkpt lat="45.55074" lon="6.76578">
        <ele>1691.15</ele>
        <time>2016-03-21T14:27:55Z</time>
      </trkpt>
      <trkpt lat="45.55098" lon="6.76569">
        <ele>1687.78</ele>
        <time>2016-03-21T14:27:58Z</time>
      </trkpt>
      <trkpt lat="45.55117" lon="6.7655">
        <ele>1683.82</ele>
        <time>2016-03-21T14:28:01Z</time>
      </trkpt>
      <trkpt lat="45.55132" lon="6.76524">
        <ele>1678.99</ele>
        <time>2016-03-21T14:28:04Z</time>
      </trkpt>
      <trkpt lat="45.55112" lon="6.76502">
        <ele>1668.63</ele>
        <time>2016-03-21T14:28:06Z</time>
      </trkpt>
      <trkpt lat="45.55114" lon="6.76472">
        <ele>1658.07</ele>
        <time>2016-03-21T14:28:09Z</time>
      </trkpt>
      <trkpt lat="45.55115" lon="6.76447">
        <ele>1653.87</ele>
        <time>2016-03-21T14:28:11Z</time>
      </trkpt>
      <trkpt lat="45.55108" lon="6.76416">
        <ele>1646.88</ele>
        <time>2016-03-21T14:28:14Z</time>
      </trkpt>
      <trkpt lat="45.55117" lon="6.76387">
        <ele>1637.8</ele>
        <time>2016-03-21T14:28:19Z</time>
      </trkpt>
      <trkpt lat="45.5513" lon="6.76365">
        <ele>1634.77</ele>
        <time>2016-03-21T14:28:23Z</time>
      </trkpt>
      <trkpt lat="45.55114" lon="6.76349">
        <ele>1615.9</ele>
        <time>2016-03-21T14:29:12Z</time>
      </trkpt>
      <trkpt lat="45.55113" lon="6.76324">
        <ele>1609.53</ele>
        <time>2016-03-21T14:29:53Z</time>
      </trkpt>
      <trkpt lat="45.55109" lon="6.76298">
        <ele>1606.15</ele>
        <time>2016-03-21T14:37:13Z</time>
      </trkpt>
      <trkpt lat="45.55109" lon="6.76271">
        <ele>1598.01</ele>
        <time>2016-03-21T14:37:17Z</time>
      </trkpt>
      <trkpt lat="45.55107" lon="6.7624">
        <ele>1595.93</ele>
        <time>2016-03-21T14:37:20Z</time>
      </trkpt>
      <trkpt lat="45.55103" lon="6.76207">
        <ele>1586.09</ele>
        <time>2016-03-21T14:37:23Z</time>
      </trkpt>
      <trkpt lat="45.551" lon="6.76181">
        <ele>1581.87</ele>
        <time>2016-03-21T14:37:25Z</time>
      </trkpt>
      <trkpt lat="45.55097" lon="6.76152">
        <ele>1579.78</ele>
        <time>2016-03-21T14:37:27Z</time>
      </trkpt>
      <trkpt lat="45.55094" lon="6.76125">
        <ele>1579.54</ele>
        <time>2016-03-21T14:37:29Z</time>
      </trkpt>
      <trkpt lat="45.55093" lon="6.76089">
        <ele>1576.01</ele>
        <time>2016-03-21T14:37:31Z</time>
      </trkpt>
      <trkpt lat="45.55092" lon="6.76054">
        <ele>1569.63</ele>
        <time>2016-03-21T14:37:33Z</time>
      </trkpt>
      <trkpt lat="45.5509" lon="6.76023">
        <ele>1562.33</ele>
        <time>2016-03-21T14:37:35Z</time>
      </trkpt>
      <trkpt lat="45.55087" lon="6.75992">
        <ele>1556.28</ele>
        <time>2016-03-21T14:37:37Z</time>
      </trkpt>
      <trkpt lat="45.55085" lon="6.75962">
        <ele>1549.64</ele>
        <time>2016-03-21T14:37:39Z</time>
      </trkpt>
      <trkpt lat="45.55083" lon="6.75933">
        <ele>1545.86</ele>
        <time>2016-03-21T14:37:41Z</time>
      </trkpt>
      <trkpt lat="45.55081" lon="6.759">
        <ele>1540.26</ele>
        <time>2016-03-21T14:37:43Z</time>
      </trkpt>
      <trkpt lat="45.55079" lon="6.75869">
        <ele>1533.32</ele>
        <time>2016-03-21T14:37:45Z</time>
      </trkpt>
      <trkpt lat="45.55077" lon="6.75837">
        <ele>1526.64</ele>
        <time>2016-03-21T14:37:47Z</time>
      </trkpt>
      <trkpt lat="45.55074" lon="6.75807">
        <ele>1522.06</ele>
        <time>2016-03-21T14:37:49Z</time>
      </trkpt>
      <trkpt lat="45.55072" lon="6.75776">
        <ele>1517.87</ele>
        <time>2016-03-21T14:37:51Z</time>
      </trkpt>
      <trkpt lat="45.55068" lon="6.75746">
        <ele>1514.82</ele>
        <time>2016-03-21T14:37:53Z</time>
      </trkpt>
      <trkpt lat="45.55066" lon="6.75714">
        <ele>1512.62</ele>
        <time>2016-03-21T14:37:55Z</time>
      </trkpt>
      <trkpt lat="45.55067" lon="6.75679">
        <ele>1509.17</ele>
        <time>2016-03-21T14:37:57Z</time>
      </trkpt>
      <trkpt lat="45.55066" lon="6.75647">
        <ele>1505.84</ele>
        <time>2016-03-21T14:37:59Z</time>
      </trkpt>
      <trkpt lat="45.55065" lon="6.75616">
        <ele>1501.06</ele>
        <time>2016-03-21T14:38:01Z</time>
      </trkpt>
      <trkpt lat="45.55062" lon="6.75584">
        <ele>1498.79</ele>
        <time>2016-03-21T14:38:03Z</time>
      </trkpt>
      <trkpt lat="45.55058" lon="6.75554">
        <ele>1499.5</ele>
        <time>2016-03-21T14:38:05Z</time>
      </trkpt>
      <trkpt lat="45.55055" lon="6.7552">
        <ele>1496.81</ele>
        <time>2016-03-21T14:38:07Z</time>
      </trkpt>
      <trkpt lat="45.55054" lon="6.75489">
        <ele>1490.46</ele>
        <time>2016-03-21T14:38:09Z</time>
      </trkpt>
      <trkpt lat="45.55052" lon="6.75455">
        <ele>1487.49</ele>
        <time>2016-03-21T14:38:11Z</time>
      </trkpt>
      <trkpt lat="45.5505" lon="6.75421">
        <ele>1486.09</ele>
        <time>2016-03-21T14:38:13Z</time>
      </trkpt>
      <trkpt lat="45.55046" lon="6.7539">
        <ele>1485.55</ele>
        <time>2016-03-21T14:38:15Z</time>
      </trkpt>
      <trkpt lat="45.55044" lon="6.75357">
        <ele>1482.97</ele>
        <time>2016-03-21T14:38:17Z</time>
      </trkpt>
      <trkpt lat="45.55043" lon="6.75326">
        <ele>1478.07</ele>
        <time>2016-03-21T14:38:19Z</time>
      </trkpt>
      <trkpt lat="45.5504" lon="6.75293">
        <ele>1476.75</ele>
        <time>2016-03-21T14:38:21Z</time>
      </trkpt>
      <trkpt lat="45.55038" lon="6.75259">
        <ele>1475.42</ele>
        <time>2016-03-21T14:38:23Z</time>
      </trkpt>
      <trkpt lat="45.55035" lon="6.75227">
        <ele>1472.01</ele>
        <time>2016-03-21T14:38:25Z</time>
      </trkpt>
      <trkpt lat="45.55032" lon="6.75193">
        <ele>1473.31</ele>
        <time>2016-03-21T14:38:27Z</time>
      </trkpt>
      <trkpt lat="45.55031" lon="6.7516">
        <ele>1470.8</ele>
        <time>2016-03-21T14:38:29Z</time>
      </trkpt>
      <trkpt lat="45.55028" lon="6.75127">
        <ele>1472.14</ele>
        <time>2016-03-21T14:38:31Z</time>
      </trkpt>
      <trkpt lat="45.55025" lon="6.75094">
        <ele>1469.8</ele>
        <time>2016-03-21T14:38:33Z</time>
      </trkpt>
      <trkpt lat="45.55023" lon="6.75061">
        <ele>1468.9</ele>
        <time>2016-03-21T14:38:35Z</time>
      </trkpt>
      <trkpt lat="45.55021" lon="6.75031">
        <ele>1469.19</ele>
        <time>2016-03-21T14:38:37Z</time>
      </trkpt>
      <trkpt lat="45.5502" lon="6.75">
        <ele>1469.36</ele>
        <time>2016-03-21T14:38:39Z</time>
      </trkpt>
      <trkpt lat="45.55018" lon="6.74969">
        <ele>1466.8</ele>
        <time>2016-03-21T14:38:41Z</time>
      </trkpt>
      <trkpt lat="45.55019" lon="6.74931">
        <ele>1464.61</ele>
        <time>2016-03-21T14:38:44Z</time>
      </trkpt>
      <trkpt lat="45.55016" lon="6.749">
        <ele>1463.57</ele>
        <time>2016-03-21T14:38:46Z</time>
      </trkpt>
      <trkpt lat="45.55012" lon="6.74866">
        <ele>1462.73</ele>
        <time>2016-03-21T14:38:48Z</time>
      </trkpt>
      <trkpt lat="45.55005" lon="6.74822">
        <ele>1459.02</ele>
        <time>2016-03-21T14:38:50Z</time>
      </trkpt>
      <trkpt lat="45.55001" lon="6.74793">
        <ele>1460.47</ele>
        <time>2016-03-21T14:38:52Z</time>
      </trkpt>
      <trkpt lat="45.54999" lon="6.74761">
        <ele>1457.17</ele>
        <time>2016-03-21T14:38:54Z</time>
      </trkpt>
      <trkpt lat="45.54998" lon="6.74729">
        <ele>1455.92</ele>
        <time>2016-03-21T14:38:56Z</time>
      </trkpt>
      <trkpt lat="45.54996" lon="6.74698">
        <ele>1454.59</ele>
        <time>2016-03-21T14:38:58Z</time>
      </trkpt>
      <trkpt lat="45.54994" lon="6.74665">
        <ele>1457.09</ele>
        <time>2016-03-21T14:39:00Z</time>
      </trkpt>
      <trkpt lat="45.54991" lon="6.74634">
        <ele>1459.27</ele>
        <time>2016-03-21T14:39:02Z</time>
      </trkpt>
      <trkpt lat="45.54988" lon="6.74602">
        <ele>1461.28</ele>
        <time>2016-03-21T14:39:04Z</time>
      </trkpt>
      <trkpt lat="45.54986" lon="6.7457">
        <ele>1461.52</ele>
        <time>2016-03-21T14:39:06Z</time>
      </trkpt>
      <trkpt lat="45.54983" lon="6.7454">
        <ele>1462.49</ele>
        <time>2016-03-21T14:39:08Z</time>
      </trkpt>
      <trkpt lat="45.54981" lon="6.74509">
        <ele>1462.53</ele>
        <time>2016-03-21T14:39:10Z</time>
      </trkpt>
      <trkpt lat="45.54978" lon="6.74475">
        <ele>1463.49</ele>
        <time>2016-03-21T14:39:12Z</time>
      </trkpt>
      <trkpt lat="45.54976" lon="6.74447">
        <ele>1464.49</ele>
        <time>2016-03-21T14:39:14Z</time>
      </trkpt>
      <trkpt lat="45.54974" lon="6.7441">
        <ele>1466.29</ele>
        <time>2016-03-21T14:39:16Z</time>
      </trkpt>
      <trkpt lat="45.5497" lon="6.7438">
        <ele>1469.08</ele>
        <time>2016-03-21T14:39:18Z</time>
      </trkpt>
      <trkpt lat="45.54968" lon="6.74348">
        <ele>1471.27</ele>
        <time>2016-03-21T14:39:20Z</time>
      </trkpt>
      <trkpt lat="45.54965" lon="6.74315">
        <ele>1473.44</ele>
        <time>2016-03-21T14:39:22Z</time>
      </trkpt>
      <trkpt lat="45.54964" lon="6.74282">
        <ele>1474.33</ele>
        <time>2016-03-21T14:39:24Z</time>
      </trkpt>
      <trkpt lat="45.5496" lon="6.74252">
        <ele>1478.2</ele>
        <time>2016-03-21T14:39:26Z</time>
      </trkpt>
      <trkpt lat="45.54958" lon="6.74221">
        <ele>1483.16</ele>
        <time>2016-03-21T14:39:28Z</time>
      </trkpt>
      <trkpt lat="45.54956" lon="6.74188">
        <ele>1487.84</ele>
        <time>2016-03-21T14:39:30Z</time>
      </trkpt>
      <trkpt lat="45.54953" lon="6.74158">
        <ele>1492.02</ele>
        <time>2016-03-21T14:39:32Z</time>
      </trkpt>
      <trkpt lat="45.54951" lon="6.74131">
        <ele>1496.03</ele>
        <time>2016-03-21T14:39:34Z</time>
      </trkpt>
      <trkpt lat="45.54948" lon="6.74104">
        <ele>1500.03</ele>
        <time>2016-03-21T14:39:36Z</time>
      </trkpt>
      <trkpt lat="45.54945" lon="6.74071">
        <ele>1506.99</ele>
        <time>2016-03-21T14:39:39Z</time>
      </trkpt>
      <trkpt lat="45.54942" lon="6.74044">
        <ele>1512.2</ele>
        <time>2016-03-21T14:39:42Z</time>
      </trkpt>
      <trkpt lat="45.54939" lon="6.74016">
        <ele>1518.08</ele>
        <time>2016-03-21T14:39:46Z</time>
      </trkpt>
      <trkpt lat="45.54937" lon="6.7399">
        <ele>1524.32</ele>
        <time>2016-03-21T14:39:55Z</time>
      </trkpt>
      <trkpt lat="45.54935" lon="6.73964">
        <ele>1538.48</ele>
        <time>2016-03-21T14:40:42Z</time>
      </trkpt>
      <trkpt lat="45.54939" lon="6.73938">
        <ele>1545.53</ele>
        <time>2016-03-21T14:42:09Z</time>
      </trkpt>
      <trkpt lat="45.5494" lon="6.73912">
        <ele>1549.33</ele>
        <time>2016-03-21T14:42:28Z</time>
      </trkpt>
      <trkpt lat="45.54937" lon="6.73887">
        <ele>1548.53</ele>
        <time>2016-03-21T14:43:18Z</time>
      </trkpt>
      <trkpt lat="45.54949" lon="6.73862">
        <ele>1549.53</ele>
        <time>2016-03-21T14:43:31Z</time>
      </trkpt>
      <trkpt lat="45.54956" lon="6.73838">
        <ele>1546.59</ele>
        <time>2016-03-21T14:43:34Z</time>
      </trkpt>
      <trkpt lat="45.54959" lon="6.73805">
        <ele>1543.01</ele>
        <time>2016-03-21T14:43:37Z</time>
      </trkpt>
      <trkpt lat="45.54963" lon="6.7377">
        <ele>1540.74</ele>
        <time>2016-03-21T14:43:40Z</time>
      </trkpt>
      <trkpt lat="45.54964" lon="6.73735">
        <ele>1540.37</ele>
        <time>2016-03-21T14:43:43Z</time>
      </trkpt>
      <trkpt lat="45.5497" lon="6.73703">
        <ele>1537.8</ele>
        <time>2016-03-21T14:43:45Z</time>
      </trkpt>
      <trkpt lat="45.5498" lon="6.73666">
        <ele>1536.9</ele>
        <time>2016-03-21T14:43:47Z</time>
      </trkpt>
      <trkpt lat="45.54982" lon="6.73639">
        <ele>1533.83</ele>
        <time>2016-03-21T14:43:49Z</time>
      </trkpt>
      <trkpt lat="45.54991" lon="6.73611">
        <ele>1530.59</ele>
        <time>2016-03-21T14:43:52Z</time>
      </trkpt>
      <trkpt lat="45.55008" lon="6.7359">
        <ele>1528.77</ele>
        <time>2016-03-21T14:43:54Z</time>
      </trkpt>
      <trkpt lat="45.55031" lon="6.73581">
        <ele>1526.94</ele>
        <time>2016-03-21T14:43:56Z</time>
      </trkpt>
      <trkpt lat="45.55063" lon="6.73579">
        <ele>1525.75</ele>
        <time>2016-03-21T14:43:58Z</time>
      </trkpt>
      <trkpt lat="45.55092" lon="6.73588">
        <ele>1527.3</ele>
        <time>2016-03-21T14:44:00Z</time>
      </trkpt>
      <trkpt lat="45.55119" lon="6.7359">
        <ele>1526.56</ele>
        <time>2016-03-21T14:44:02Z</time>
      </trkpt>
      <trkpt lat="45.55144" lon="6.73593">
        <ele>1524.61</ele>
        <time>2016-03-21T14:44:04Z</time>
      </trkpt>
      <trkpt lat="45.55166" lon="6.73585">
        <ele>1522.77</ele>
        <time>2016-03-21T14:44:06Z</time>
      </trkpt>
      <trkpt lat="45.55189" lon="6.73579">
        <ele>1522.54</ele>
        <time>2016-03-21T14:44:08Z</time>
      </trkpt>
      <trkpt lat="45.55205" lon="6.73564">
        <ele>1521.57</ele>
        <time>2016-03-21T14:44:10Z</time>
      </trkpt>
      <trkpt lat="45.55225" lon="6.73557">
        <ele>1519.77</ele>
        <time>2016-03-21T14:44:12Z</time>
      </trkpt>
      <trkpt lat="45.55248" lon="6.73537">
        <ele>1511.79</ele>
        <time>2016-03-21T14:44:15Z</time>
      </trkpt>
      <trkpt lat="45.55268" lon="6.73535">
        <ele>1487.21</ele>
        <time>2016-03-21T14:44:18Z</time>
      </trkpt>
      <trkpt lat="45.55298" lon="6.7354">
        <ele>1474.57</ele>
        <time>2016-03-21T14:44:21Z</time>
      </trkpt>
      <trkpt lat="45.5532" lon="6.7355">
        <ele>1467.17</ele>
        <time>2016-03-21T14:44:23Z</time>
      </trkpt>
      <trkpt lat="45.55338" lon="6.73551">
        <ele>1460.48</ele>
        <time>2016-03-21T14:44:25Z</time>
      </trkpt>
      <trkpt lat="45.55361" lon="6.73569">
        <ele>1444.15</ele>
        <time>2016-03-21T14:44:28Z</time>
      </trkpt>
      <trkpt lat="45.55382" lon="6.73571">
        <ele>1435.25</ele>
        <time>2016-03-21T14:44:31Z</time>
      </trkpt>
      <trkpt lat="45.554" lon="6.73582">
        <ele>1424.65</ele>
        <time>2016-03-21T14:44:34Z</time>
      </trkpt>
      <trkpt lat="45.5542" lon="6.73582">
        <ele>1417.65</ele>
        <time>2016-03-21T14:44:37Z</time>
      </trkpt>
      <trkpt lat="45.5544" lon="6.73571">
        <ele>1411.87</ele>
        <time>2016-03-21T14:44:40Z</time>
      </trkpt>
      <trkpt lat="45.55456" lon="6.73588">
        <ele>1397.5</ele>
        <time>2016-03-21T14:44:44Z</time>
      </trkpt>
      <trkpt lat="45.55473" lon="6.73604">
        <ele>1392.99</ele>
        <time>2016-03-21T14:44:47Z</time>
      </trkpt>
      <trkpt lat="45.55491" lon="6.73585">
        <ele>1392.55</ele>
        <time>2016-03-21T14:44:49Z</time>
      </trkpt>
      <trkpt lat="45.55514" lon="6.73592">
        <ele>1382.96</ele>
        <time>2016-03-21T14:44:52Z</time>
      </trkpt>
      <trkpt lat="45.55533" lon="6.7358">
        <ele>1368.29</ele>
        <time>2016-03-21T14:44:57Z</time>
      </trkpt>
      <trkpt lat="45.55555" lon="6.73583">
        <ele>1358.6</ele>
        <time>2016-03-21T14:45:01Z</time>
      </trkpt>
      <trkpt lat="45.55577" lon="6.73588">
        <ele>1346.03</ele>
        <time>2016-03-21T14:45:06Z</time>
      </trkpt>
      <trkpt lat="45.55596" lon="6.73596">
        <ele>1334.23</ele>
        <time>2016-03-21T14:45:11Z</time>
      </trkpt>
      <trkpt lat="45.55599" lon="6.73626">
        <ele>1326.9</ele>
        <time>2016-03-21T14:45:15Z</time>
      </trkpt>
      <trkpt lat="45.55617" lon="6.73623">
        <ele>1321.61</ele>
        <time>2016-03-21T14:45:53Z</time>
      </trkpt>
      <trkpt lat="45.55641" lon="6.73631">
        <ele>1313.82</ele>
        <time>2016-03-21T14:45:58Z</time>
      </trkpt>
      <trkpt lat="45.55655" lon="6.73654">
        <ele>1303.05</ele>
        <time>2016-03-21T14:46:02Z</time>
      </trkpt>
      <trkpt lat="45.55671" lon="6.73672">
        <ele>1289.07</ele>
        <time>2016-03-21T14:46:10Z</time>
      </trkpt>
      <trkpt lat="45.55688" lon="6.73695">
        <ele>1283.83</ele>
        <time>2016-03-21T14:46:14Z</time>
      </trkpt>
      <trkpt lat="45.55706" lon="6.73698">
        <ele>1277.78</ele>
        <time>2016-03-21T14:46:18Z</time>
      </trkpt>
      <trkpt lat="45.55724" lon="6.7371">
        <ele>1268.26</ele>
        <time>2016-03-21T14:46:23Z</time>
      </trkpt>
      <trkpt lat="45.55742" lon="6.73729">
        <ele>1259.04</ele>
        <time>2016-03-21T14:46:27Z</time>
      </trkpt>
      <trkpt lat="45.55756" lon="6.73751">
        <ele>1253.57</ele>
        <time>2016-03-21T14:46:32Z</time>
      </trkpt>
      <trkpt lat="45.55774" lon="6.73763">
        <ele>1252.89</ele>
        <time>2016-03-21T14:46:35Z</time>
      </trkpt>
      <trkpt lat="45.558" lon="6.73767">
        <ele>1251.54</ele>
        <time>2016-03-21T14:46:38Z</time>
      </trkpt>
      <trkpt lat="45.55819" lon="6.73761">
        <ele>1253.61</ele>
        <time>2016-03-21T14:46:40Z</time>
      </trkpt>
      <trkpt lat="45.55842" lon="6.73752">
        <ele>1253.53</ele>
        <time>2016-03-21T14:46:42Z</time>
      </trkpt>
      <trkpt lat="45.55869" lon="6.73746">
        <ele>1253.53</ele>
        <time>2016-03-21T14:46:44Z</time>
      </trkpt>
      <trkpt lat="45.55888" lon="6.73734">
        <ele>1250.97</ele>
        <time>2016-03-21T14:46:46Z</time>
      </trkpt>
      <trkpt lat="45.55906" lon="6.73716">
        <ele>1250.55</ele>
        <time>2016-03-21T14:46:48Z</time>
      </trkpt>
      <trkpt lat="45.55928" lon="6.73717">
        <ele>1244.29</ele>
        <time>2016-03-21T14:46:50Z</time>
      </trkpt>
      <trkpt lat="45.55944" lon="6.73734">
        <ele>1240.37</ele>
        <time>2016-03-21T14:46:53Z</time>
      </trkpt>
      <trkpt lat="45.5594" lon="6.73759">
        <ele>1214.53</ele>
        <time>2016-03-21T14:47:29Z</time>
      </trkpt>
      <trkpt lat="45.5592" lon="6.73753">
        <ele>1212.36</ele>
        <time>2016-03-21T14:47:47Z</time>
      </trkpt>
      <trkpt lat="45.55899" lon="6.73746">
        <ele>1218.04</ele>
        <time>2016-03-21T14:47:52Z</time>
      </trkpt>
      <trkpt lat="45.55879" lon="6.73741">
        <ele>1223.26</ele>
        <time>2016-03-21T14:47:57Z</time>
      </trkpt>
      <trkpt lat="45.55861" lon="6.73734">
        <ele>1230.08</ele>
        <time>2016-03-21T14:48:02Z</time>
      </trkpt>
      <trkpt lat="45.55843" lon="6.73727">
        <ele>1236.43</ele>
        <time>2016-03-21T14:48:07Z</time>
      </trkpt>
      <trkpt lat="45.55822" lon="6.73719">
        <ele>1248.03</ele>
        <time>2016-03-21T14:48:13Z</time>
      </trkpt>
      <trkpt lat="45.55803" lon="6.73711">
        <ele>1254.24</ele>
        <time>2016-03-21T14:48:18Z</time>
      </trkpt>
      <trkpt lat="45.55785" lon="6.73703">
        <ele>1260.28</ele>
        <time>2016-03-21T14:48:23Z</time>
      </trkpt>
      <trkpt lat="45.55767" lon="6.73695">
        <ele>1268.27</ele>
        <time>2016-03-21T14:48:28Z</time>
      </trkpt>
      <trkpt lat="45.55749" lon="6.73687">
        <ele>1273.48</ele>
        <time>2016-03-21T14:48:33Z</time>
      </trkpt>
      <trkpt lat="45.55731" lon="6.73681">
        <ele>1278.29</ele>
        <time>2016-03-21T14:48:38Z</time>
      </trkpt>
      <trkpt lat="45.55711" lon="6.73674">
        <ele>1283.28</ele>
        <time>2016-03-21T14:48:43Z</time>
      </trkpt>
      <trkpt lat="45.55693" lon="6.73667">
        <ele>1288.28</ele>
        <time>2016-03-21T14:48:48Z</time>
      </trkpt>
      <trkpt lat="45.55674" lon="6.7366">
        <ele>1293.23</ele>
        <time>2016-03-21T14:48:53Z</time>
      </trkpt>
      <trkpt lat="45.55654" lon="6.73651">
        <ele>1303.23</ele>
        <time>2016-03-21T14:48:59Z</time>
      </trkpt>
      <trkpt lat="45.55636" lon="6.73644">
        <ele>1309.47</ele>
        <time>2016-03-21T14:49:04Z</time>
      </trkpt>
      <trkpt lat="45.55617" lon="6.73635">
        <ele>1316.08</ele>
        <time>2016-03-21T14:49:09Z</time>
      </trkpt>
      <trkpt lat="45.55598" lon="6.73628">
        <ele>1321.28</ele>
        <time>2016-03-21T14:49:14Z</time>
      </trkpt>
      <trkpt lat="45.55581" lon="6.73619">
        <ele>1329.08</ele>
        <time>2016-03-21T14:49:19Z</time>
      </trkpt>
      <trkpt lat="45.55562" lon="6.73614">
        <ele>1338.87</ele>
        <time>2016-03-21T14:49:24Z</time>
      </trkpt>
      <trkpt lat="45.55543" lon="6.73607">
        <ele>1348.03</ele>
        <time>2016-03-21T14:49:29Z</time>
      </trkpt>
      <trkpt lat="45.55522" lon="6.73599">
        <ele>1357.08</ele>
        <time>2016-03-21T14:49:35Z</time>
      </trkpt>
      <trkpt lat="45.55505" lon="6.73591">
        <ele>1364.04</ele>
        <time>2016-03-21T14:49:40Z</time>
      </trkpt>
      <trkpt lat="45.55486" lon="6.73582">
        <ele>1371.23</ele>
        <time>2016-03-21T14:49:45Z</time>
      </trkpt>
      <trkpt lat="45.55467" lon="6.73575">
        <ele>1380.03</ele>
        <time>2016-03-21T14:49:50Z</time>
      </trkpt>
      <trkpt lat="45.55449" lon="6.73567">
        <ele>1388.07</ele>
        <time>2016-03-21T14:49:55Z</time>
      </trkpt>
      <trkpt lat="45.55431" lon="6.73559">
        <ele>1395.24</ele>
        <time>2016-03-21T14:50:00Z</time>
      </trkpt>
      <trkpt lat="45.5541" lon="6.73551">
        <ele>1402.08</ele>
        <time>2016-03-21T14:50:06Z</time>
      </trkpt>
      <trkpt lat="45.55391" lon="6.73544">
        <ele>1406.48</ele>
        <time>2016-03-21T14:50:11Z</time>
      </trkpt>
      <trkpt lat="45.55372" lon="6.73537">
        <ele>1411.09</ele>
        <time>2016-03-21T14:50:16Z</time>
      </trkpt>
      <trkpt lat="45.55352" lon="6.7353">
        <ele>1416.24</ele>
        <time>2016-03-21T14:50:21Z</time>
      </trkpt>
      <trkpt lat="45.55332" lon="6.73524">
        <ele>1419.49</ele>
        <time>2016-03-21T14:50:26Z</time>
      </trkpt>
      <trkpt lat="45.55312" lon="6.73516">
        <ele>1425.28</ele>
        <time>2016-03-21T14:50:31Z</time>
      </trkpt>
      <trkpt lat="45.55293" lon="6.73507">
        <ele>1430.01</ele>
        <time>2016-03-21T14:50:36Z</time>
      </trkpt>
      <trkpt lat="45.55274" lon="6.73499">
        <ele>1433.12</ele>
        <time>2016-03-21T14:50:41Z</time>
      </trkpt>
      <trkpt lat="45.55253" lon="6.7349">
        <ele>1438.4</ele>
        <time>2016-03-21T14:50:47Z</time>
      </trkpt>
      <trkpt lat="45.55235" lon="6.73481">
        <ele>1446.04</ele>
        <time>2016-03-21T14:50:52Z</time>
      </trkpt>
      <trkpt lat="45.55217" lon="6.73472">
        <ele>1452.28</ele>
        <time>2016-03-21T14:50:57Z</time>
      </trkpt>
      <trkpt lat="45.55197" lon="6.73463">
        <ele>1456.09</ele>
        <time>2016-03-21T14:51:02Z</time>
      </trkpt>
      <trkpt lat="45.55177" lon="6.73458">
        <ele>1458.48</ele>
        <time>2016-03-21T14:51:07Z</time>
      </trkpt>
      <trkpt lat="45.55156" lon="6.73452">
        <ele>1462.25</ele>
        <time>2016-03-21T14:51:12Z</time>
      </trkpt>
      <trkpt lat="45.55136" lon="6.73445">
        <ele>1466.11</ele>
        <time>2016-03-21T14:51:17Z</time>
      </trkpt>
      <trkpt lat="45.55118" lon="6.73437">
        <ele>1471.28</ele>
        <time>2016-03-21T14:51:22Z</time>
      </trkpt>
      <trkpt lat="45.55099" lon="6.73429">
        <ele>1476.08</ele>
        <time>2016-03-21T14:51:27Z</time>
      </trkpt>
      <trkpt lat="45.55078" lon="6.73423">
        <ele>1479.49</ele>
        <time>2016-03-21T14:51:32Z</time>
      </trkpt>
      <trkpt lat="45.5506" lon="6.73415">
        <ele>1485.08</ele>
        <time>2016-03-21T14:51:37Z</time>
      </trkpt>
      <trkpt lat="45.55041" lon="6.73407">
        <ele>1491.47</ele>
        <time>2016-03-21T14:51:42Z</time>
      </trkpt>
      <trkpt lat="45.55023" lon="6.73398">
        <ele>1498.27</ele>
        <time>2016-03-21T14:51:47Z</time>
      </trkpt>
      <trkpt lat="45.55004" lon="6.7339">
        <ele>1503.48</ele>
        <time>2016-03-21T14:51:52Z</time>
      </trkpt>
      <trkpt lat="45.54986" lon="6.73381">
        <ele>1505.33</ele>
        <time>2016-03-21T14:51:57Z</time>
      </trkpt>
      <trkpt lat="45.54967" lon="6.73372">
        <ele>1508.48</ele>
        <time>2016-03-21T14:52:02Z</time>
      </trkpt>
      <trkpt lat="45.54948" lon="6.73362">
        <ele>1511.48</ele>
        <time>2016-03-21T14:52:07Z</time>
      </trkpt>
      <trkpt lat="45.54929" lon="6.73354">
        <ele>1516.28</ele>
        <time>2016-03-21T14:52:12Z</time>
      </trkpt>
      <trkpt lat="45.5491" lon="6.73346">
        <ele>1519.48</ele>
        <time>2016-03-21T14:52:17Z</time>
      </trkpt>
      <trkpt lat="45.54893" lon="6.73336">
        <ele>1529.04</ele>
        <time>2016-03-21T14:52:22Z</time>
      </trkpt>
      <trkpt lat="45.54873" lon="6.73329">
        <ele>1541.87</ele>
        <time>2016-03-21T14:52:28Z</time>
      </trkpt>
      <trkpt lat="45.54855" lon="6.73322">
        <ele>1550.28</ele>
        <time>2016-03-21T14:52:33Z</time>
      </trkpt>
      <trkpt lat="45.54835" lon="6.73314">
        <ele>1558.68</ele>
        <time>2016-03-21T14:52:39Z</time>
      </trkpt>
      <trkpt lat="45.54817" lon="6.73306">
        <ele>1566.27</ele>
        <time>2016-03-21T14:52:44Z</time>
      </trkpt>
      <trkpt lat="45.54799" lon="6.73298">
        <ele>1572.24</ele>
        <time>2016-03-21T14:52:49Z</time>
      </trkpt>
      <trkpt lat="45.5478" lon="6.73289">
        <ele>1578.44</ele>
        <time>2016-03-21T14:52:54Z</time>
      </trkpt>
      <trkpt lat="45.54762" lon="6.73281">
        <ele>1584.08</ele>
        <time>2016-03-21T14:52:59Z</time>
      </trkpt>
      <trkpt lat="45.54744" lon="6.73276">
        <ele>1595.68</ele>
        <time>2016-03-21T14:53:04Z</time>
      </trkpt>
      <trkpt lat="45.54726" lon="6.73272">
        <ele>1607.83</ele>
        <time>2016-03-21T14:53:09Z</time>
      </trkpt>
      <trkpt lat="45.54708" lon="6.73265">
        <ele>1619.02</ele>
        <time>2016-03-21T14:53:14Z</time>
      </trkpt>
      <trkpt lat="45.54689" lon="6.73258">
        <ele>1629.03</ele>
        <time>2016-03-21T14:53:19Z</time>
      </trkpt>
      <trkpt lat="45.5467" lon="6.73251">
        <ele>1636.24</ele>
        <time>2016-03-21T14:53:24Z</time>
      </trkpt>
      <trkpt lat="45.54652" lon="6.73245">
        <ele>1644.07</ele>
        <time>2016-03-21T14:53:29Z</time>
      </trkpt>
      <trkpt lat="45.54634" lon="6.73238">
        <ele>1651.24</ele>
        <time>2016-03-21T14:53:34Z</time>
      </trkpt>
      <trkpt lat="45.54613" lon="6.73232">
        <ele>1657.44</ele>
        <time>2016-03-21T14:53:39Z</time>
      </trkpt>
      <trkpt lat="45.54596" lon="6.73226">
        <ele>1660.52</ele>
        <time>2016-03-21T14:53:44Z</time>
      </trkpt>
      <trkpt lat="45.54594" lon="6.73197">
        <ele>1664.52</ele>
        <time>2016-03-21T14:53:56Z</time>
      </trkpt>
      <trkpt lat="45.54609" lon="6.73174">
        <ele>1664.54</ele>
        <time>2016-03-21T14:54:00Z</time>
      </trkpt>
      <trkpt lat="45.54626" lon="6.73153">
        <ele>1665.49</ele>
        <time>2016-03-21T14:54:04Z</time>
      </trkpt>
      <trkpt lat="45.5461" lon="6.73139">
        <ele>1664.72</ele>
        <time>2016-03-21T14:54:33Z</time>
      </trkpt>
      <trkpt lat="45.54589" lon="6.73143">
        <ele>1662.56</ele>
        <time>2016-03-21T14:54:50Z</time>
      </trkpt>
      <trkpt lat="45.54569" lon="6.73142">
        <ele>1669.43</ele>
        <time>2016-03-21T14:54:57Z</time>
      </trkpt>
      <trkpt lat="45.5455" lon="6.73142">
        <ele>1673.33</ele>
        <time>2016-03-21T14:55:03Z</time>
      </trkpt>
      <trkpt lat="45.5453" lon="6.73141">
        <ele>1676.33</ele>
        <time>2016-03-21T14:55:10Z</time>
      </trkpt>
      <trkpt lat="45.5451" lon="6.73143">
        <ele>1687.87</ele>
        <time>2016-03-21T14:55:16Z</time>
      </trkpt>
      <trkpt lat="45.54492" lon="6.73142">
        <ele>1697.31</ele>
        <time>2016-03-21T14:55:23Z</time>
      </trkpt>
      <trkpt lat="45.54472" lon="6.73141">
        <ele>1704.08</ele>
        <time>2016-03-21T14:55:31Z</time>
      </trkpt>
      <trkpt lat="45.54453" lon="6.73146">
        <ele>1718.23</ele>
        <time>2016-03-21T14:55:39Z</time>
      </trkpt>
      <trkpt lat="45.54435" lon="6.73147">
        <ele>1729.26</ele>
        <time>2016-03-21T14:55:45Z</time>
      </trkpt>
      <trkpt lat="45.54417" lon="6.73147">
        <ele>1742.03</ele>
        <time>2016-03-21T14:55:51Z</time>
      </trkpt>
      <trkpt lat="45.54397" lon="6.73145">
        <ele>1754.07</ele>
        <time>2016-03-21T14:55:58Z</time>
      </trkpt>
      <trkpt lat="45.54378" lon="6.73146">
        <ele>1769.03</ele>
        <time>2016-03-21T14:56:05Z</time>
      </trkpt>
      <trkpt lat="45.54358" lon="6.73149">
        <ele>1785</ele>
        <time>2016-03-21T14:56:13Z</time>
      </trkpt>
      <trkpt lat="45.5434" lon="6.73147">
        <ele>1795.24</ele>
        <time>2016-03-21T14:56:19Z</time>
      </trkpt>
      <trkpt lat="45.54321" lon="6.73144">
        <ele>1804.04</ele>
        <time>2016-03-21T14:56:26Z</time>
      </trkpt>
      <trkpt lat="45.54302" lon="6.73147">
        <ele>1818.07</ele>
        <time>2016-03-21T14:56:34Z</time>
      </trkpt>
      <trkpt lat="45.54284" lon="6.73148">
        <ele>1826.28</ele>
        <time>2016-03-21T14:56:41Z</time>
      </trkpt>
      <trkpt lat="45.54263" lon="6.73149">
        <ele>1835.08</ele>
        <time>2016-03-21T14:56:48Z</time>
      </trkpt>
      <trkpt lat="45.54244" lon="6.73146">
        <ele>1842.88</ele>
        <time>2016-03-21T14:56:54Z</time>
      </trkpt>
      <trkpt lat="45.54226" lon="6.73144">
        <ele>1852.28</ele>
        <time>2016-03-21T14:57:00Z</time>
      </trkpt>
      <trkpt lat="45.54206" lon="6.73145">
        <ele>1862.27</ele>
        <time>2016-03-21T14:57:07Z</time>
      </trkpt>
      <trkpt lat="45.54186" lon="6.73146">
        <ele>1872.24</ele>
        <time>2016-03-21T14:57:14Z</time>
      </trkpt>
      <trkpt lat="45.54165" lon="6.73146">
        <ele>1880.09</ele>
        <time>2016-03-21T14:57:21Z</time>
      </trkpt>
      <trkpt lat="45.54145" lon="6.73146">
        <ele>1887.28</ele>
        <time>2016-03-21T14:57:28Z</time>
      </trkpt>
      <trkpt lat="45.54127" lon="6.73146">
        <ele>1895.08</ele>
        <time>2016-03-21T14:57:34Z</time>
      </trkpt>
      <trkpt lat="45.54106" lon="6.73146">
        <ele>1904.24</ele>
        <time>2016-03-21T14:57:41Z</time>
      </trkpt>
      <trkpt lat="45.54086" lon="6.73146">
        <ele>1913.28</ele>
        <time>2016-03-21T14:57:48Z</time>
      </trkpt>
      <trkpt lat="45.54066" lon="6.73146">
        <ele>1923.27</ele>
        <time>2016-03-21T14:57:55Z</time>
      </trkpt>
      <trkpt lat="45.54046" lon="6.73144">
        <ele>1935.2</ele>
        <time>2016-03-21T14:58:02Z</time>
      </trkpt>
      <trkpt lat="45.54025" lon="6.73141">
        <ele>1945.07</ele>
        <time>2016-03-21T14:58:09Z</time>
      </trkpt>
      <trkpt lat="45.54006" lon="6.73142">
        <ele>1952.28</ele>
        <time>2016-03-21T14:58:16Z</time>
      </trkpt>
      <trkpt lat="45.53985" lon="6.73142">
        <ele>1961.27</ele>
        <time>2016-03-21T14:58:23Z</time>
      </trkpt>
      <trkpt lat="45.53965" lon="6.7314">
        <ele>1968.27</ele>
        <time>2016-03-21T14:58:30Z</time>
      </trkpt>
      <trkpt lat="45.53945" lon="6.73141">
        <ele>1977.24</ele>
        <time>2016-03-21T14:58:37Z</time>
      </trkpt>
      <trkpt lat="45.53925" lon="6.73143">
        <ele>1982.28</ele>
        <time>2016-03-21T14:58:43Z</time>
      </trkpt>
      <trkpt lat="45.53905" lon="6.73143">
        <ele>1990.24</ele>
        <time>2016-03-21T14:58:50Z</time>
      </trkpt>
      <trkpt lat="45.53884" lon="6.73142">
        <ele>1998.24</ele>
        <time>2016-03-21T14:58:57Z</time>
      </trkpt>
      <trkpt lat="45.53865" lon="6.73141">
        <ele>2006.07</ele>
        <time>2016-03-21T14:59:03Z</time>
      </trkpt>
      <trkpt lat="45.53845" lon="6.7314">
        <ele>2016.07</ele>
        <time>2016-03-21T14:59:10Z</time>
      </trkpt>
      <trkpt lat="45.53825" lon="6.7314">
        <ele>2026.07</ele>
        <time>2016-03-21T14:59:17Z</time>
      </trkpt>
      <trkpt lat="45.53805" lon="6.7314">
        <ele>2036.24</ele>
        <time>2016-03-21T14:59:24Z</time>
      </trkpt>
      <trkpt lat="45.53785" lon="6.73141">
        <ele>2044.28</ele>
        <time>2016-03-21T14:59:31Z</time>
      </trkpt>
      <trkpt lat="45.53765" lon="6.73141">
        <ele>2054.08</ele>
        <time>2016-03-21T14:59:38Z</time>
      </trkpt>
      <trkpt lat="45.53745" lon="6.73141">
        <ele>2063.27</ele>
        <time>2016-03-21T14:59:45Z</time>
      </trkpt>
      <trkpt lat="45.53725" lon="6.73141">
        <ele>2072.28</ele>
        <time>2016-03-21T14:59:52Z</time>
      </trkpt>
      <trkpt lat="45.53704" lon="6.73142">
        <ele>2077.29</ele>
        <time>2016-03-21T14:59:59Z</time>
      </trkpt>
      <trkpt lat="45.53684" lon="6.73142">
        <ele>2085.24</ele>
        <time>2016-03-21T15:00:06Z</time>
      </trkpt>
      <trkpt lat="45.53663" lon="6.7314">
        <ele>2092.31</ele>
        <time>2016-03-21T15:00:13Z</time>
      </trkpt>
      <trkpt lat="45.53645" lon="6.73142">
        <ele>2095.49</ele>
        <time>2016-03-21T15:00:19Z</time>
      </trkpt>
      <trkpt lat="45.53625" lon="6.73143">
        <ele>2097.52</ele>
        <time>2016-03-21T15:00:26Z</time>
      </trkpt>
      <trkpt lat="45.53604" lon="6.73144">
        <ele>2099.52</ele>
        <time>2016-03-21T15:00:33Z</time>
      </trkpt>
      <trkpt lat="45.53586" lon="6.73144">
        <ele>2102.33</ele>
        <time>2016-03-21T15:00:39Z</time>
      </trkpt>
      <trkpt lat="45.53566" lon="6.73142">
        <ele>2105.45</ele>
        <time>2016-03-21T15:00:45Z</time>
      </trkpt>
      <trkpt lat="45.53547" lon="6.7314">
        <ele>2108.49</ele>
        <time>2016-03-21T15:00:51Z</time>
      </trkpt>
      <trkpt lat="45.53528" lon="6.73142">
        <ele>2111.29</ele>
        <time>2016-03-21T15:00:57Z</time>
      </trkpt>
      <trkpt lat="45.5351" lon="6.73141">
        <ele>2115.48</ele>
        <time>2016-03-21T15:01:03Z</time>
      </trkpt>
      <trkpt lat="45.53492" lon="6.73142">
        <ele>2120.28</ele>
        <time>2016-03-21T15:01:09Z</time>
      </trkpt>
      <trkpt lat="45.53473" lon="6.73141">
        <ele>2121.69</ele>
        <time>2016-03-21T15:01:15Z</time>
      </trkpt>
      <trkpt lat="45.53453" lon="6.73136">
        <ele>2120.56</ele>
        <time>2016-03-21T15:01:24Z</time>
      </trkpt>
      <trkpt lat="45.53435" lon="6.73127">
        <ele>2118.53</ele>
        <time>2016-03-21T15:01:32Z</time>
      </trkpt>
      <trkpt lat="45.53417" lon="6.73121">
        <ele>2117.57</ele>
        <time>2016-03-21T15:01:38Z</time>
      </trkpt>
      <trkpt lat="45.53397" lon="6.73111">
        <ele>2117.53</ele>
        <time>2016-03-21T15:01:42Z</time>
      </trkpt>
      <trkpt lat="45.53392" lon="6.73086">
        <ele>2117.72</ele>
        <time>2016-03-21T15:01:45Z</time>
      </trkpt>
      <trkpt lat="45.53391" lon="6.7306">
        <ele>2116.61</ele>
        <time>2016-03-21T15:02:10Z</time>
      </trkpt>
      <trkpt lat="45.53379" lon="6.7304">
        <ele>2118.11</ele>
        <time>2016-03-21T15:02:24Z</time>
      </trkpt>
      <trkpt lat="45.53366" lon="6.7302">
        <ele>2123.48</ele>
        <time>2016-03-21T15:02:33Z</time>
      </trkpt>
      <trkpt lat="45.53353" lon="6.72999">
        <ele>2130.52</ele>
        <time>2016-03-21T15:02:43Z</time>
      </trkpt>
      <trkpt lat="45.5334" lon="6.72978">
        <ele>2135.32</ele>
        <time>2016-03-21T15:02:53Z</time>
      </trkpt>
      <trkpt lat="45.53327" lon="6.72959">
        <ele>2140.48</ele>
        <time>2016-03-21T15:03:03Z</time>
      </trkpt>
      <trkpt lat="45.53314" lon="6.7294">
        <ele>2147.29</ele>
        <time>2016-03-21T15:03:13Z</time>
      </trkpt>
      <trkpt lat="45.53302" lon="6.72919">
        <ele>2155.28</ele>
        <time>2016-03-21T15:03:23Z</time>
      </trkpt>
      <trkpt lat="45.5329" lon="6.729">
        <ele>2162.48</ele>
        <time>2016-03-21T15:03:33Z</time>
      </trkpt>
      <trkpt lat="45.53277" lon="6.7288">
        <ele>2171.32</ele>
        <time>2016-03-21T15:03:43Z</time>
      </trkpt>
      <trkpt lat="45.53264" lon="6.72859">
        <ele>2176.33</ele>
        <time>2016-03-21T15:03:53Z</time>
      </trkpt>
      <trkpt lat="45.53251" lon="6.72838">
        <ele>2181.32</ele>
        <time>2016-03-21T15:04:03Z</time>
      </trkpt>
      <trkpt lat="45.53239" lon="6.72818">
        <ele>2184.49</ele>
        <time>2016-03-21T15:04:13Z</time>
      </trkpt>
      <trkpt lat="45.53227" lon="6.72796">
        <ele>2187.49</ele>
        <time>2016-03-21T15:04:23Z</time>
      </trkpt>
      <trkpt lat="45.53213" lon="6.72777">
        <ele>2190.49</ele>
        <time>2016-03-21T15:04:33Z</time>
      </trkpt>
      <trkpt lat="45.532" lon="6.72757">
        <ele>2194.49</ele>
        <time>2016-03-21T15:04:43Z</time>
      </trkpt>
      <trkpt lat="45.53188" lon="6.72736">
        <ele>2199.32</ele>
        <time>2016-03-21T15:04:53Z</time>
      </trkpt>
      <trkpt lat="45.53175" lon="6.72717">
        <ele>2204.48</ele>
        <time>2016-03-21T15:05:04Z</time>
      </trkpt>
      <trkpt lat="45.53162" lon="6.72697">
        <ele>2208.52</ele>
        <time>2016-03-21T15:05:15Z</time>
      </trkpt>
      <trkpt lat="45.53149" lon="6.72676">
        <ele>2212.32</ele>
        <time>2016-03-21T15:05:26Z</time>
      </trkpt>
      <trkpt lat="45.53137" lon="6.72655">
        <ele>2216.32</ele>
        <time>2016-03-21T15:05:36Z</time>
      </trkpt>
      <trkpt lat="45.53124" lon="6.72635">
        <ele>2221.33</ele>
        <time>2016-03-21T15:05:46Z</time>
      </trkpt>
      <trkpt lat="45.53111" lon="6.72616">
        <ele>2224.53</ele>
        <time>2016-03-21T15:05:56Z</time>
      </trkpt>
      <trkpt lat="45.53098" lon="6.72597">
        <ele>2227.33</ele>
        <time>2016-03-21T15:06:05Z</time>
      </trkpt>
      <trkpt lat="45.53085" lon="6.72576">
        <ele>2229.49</ele>
        <time>2016-03-21T15:06:15Z</time>
      </trkpt>
      <trkpt lat="45.53072" lon="6.72554">
        <ele>2231.33</ele>
        <time>2016-03-21T15:06:25Z</time>
      </trkpt>
      <trkpt lat="45.5306" lon="6.72534">
        <ele>2233.52</ele>
        <time>2016-03-21T15:06:35Z</time>
      </trkpt>
      <trkpt lat="45.53048" lon="6.72514">
        <ele>2237.49</ele>
        <time>2016-03-21T15:06:45Z</time>
      </trkpt>
      <trkpt lat="45.53035" lon="6.72495">
        <ele>2241.48</ele>
        <time>2016-03-21T15:06:54Z</time>
      </trkpt>
      <trkpt lat="45.53022" lon="6.72473">
        <ele>2245.52</ele>
        <time>2016-03-21T15:07:04Z</time>
      </trkpt>
      <trkpt lat="45.5301" lon="6.72454">
        <ele>2247.53</ele>
        <time>2016-03-21T15:07:14Z</time>
      </trkpt>
      <trkpt lat="45.52997" lon="6.72435">
        <ele>2248.53</ele>
        <time>2016-03-21T15:07:23Z</time>
      </trkpt>
      <trkpt lat="45.52984" lon="6.72414">
        <ele>2251.53</ele>
        <time>2016-03-21T15:07:33Z</time>
      </trkpt>
      <trkpt lat="45.52971" lon="6.72393">
        <ele>2255.49</ele>
        <time>2016-03-21T15:07:43Z</time>
      </trkpt>
      <trkpt lat="45.5296" lon="6.72373">
        <ele>2258.53</ele>
        <time>2016-03-21T15:07:52Z</time>
      </trkpt>
      <trkpt lat="45.52946" lon="6.72354">
        <ele>2259.53</ele>
        <time>2016-03-21T15:08:02Z</time>
      </trkpt>
      <trkpt lat="45.52935" lon="6.72335">
        <ele>2263.32</ele>
        <time>2016-03-21T15:08:11Z</time>
      </trkpt>
      <trkpt lat="45.52921" lon="6.72317">
        <ele>2270.32</ele>
        <time>2016-03-21T15:08:21Z</time>
      </trkpt>
      <trkpt lat="45.52909" lon="6.72296">
        <ele>2276.48</ele>
        <time>2016-03-21T15:08:31Z</time>
      </trkpt>
      <trkpt lat="45.52895" lon="6.72274">
        <ele>2283.32</ele>
        <time>2016-03-21T15:08:41Z</time>
      </trkpt>
      <trkpt lat="45.52883" lon="6.72255">
        <ele>2290.29</ele>
        <time>2016-03-21T15:08:51Z</time>
      </trkpt>
      <trkpt lat="45.52871" lon="6.72235">
        <ele>2297.48</ele>
        <time>2016-03-21T15:09:01Z</time>
      </trkpt>
      <trkpt lat="45.52859" lon="6.72216">
        <ele>2305.32</ele>
        <time>2016-03-21T15:09:11Z</time>
      </trkpt>
      <trkpt lat="45.52847" lon="6.72196">
        <ele>2314.29</ele>
        <time>2016-03-21T15:09:21Z</time>
      </trkpt>
      <trkpt lat="45.52835" lon="6.72175">
        <ele>2324.28</ele>
        <time>2016-03-21T15:09:32Z</time>
      </trkpt>
      <trkpt lat="45.52823" lon="6.72155">
        <ele>2332.48</ele>
        <time>2016-03-21T15:09:42Z</time>
      </trkpt>
      <trkpt lat="45.52811" lon="6.72135">
        <ele>2337.48</ele>
        <time>2016-03-21T15:09:51Z</time>
      </trkpt>
      <trkpt lat="45.52797" lon="6.72116">
        <ele>2338.53</ele>
        <time>2016-03-21T15:10:01Z</time>
      </trkpt>
      <trkpt lat="45.52784" lon="6.72095">
        <ele>2339.53</ele>
        <time>2016-03-21T15:10:10Z</time>
      </trkpt>
      <trkpt lat="45.52766" lon="6.72087">
        <ele>2339.57</ele>
        <time>2016-03-21T15:10:15Z</time>
      </trkpt>
      <trkpt lat="45.52746" lon="6.72083">
        <ele>2338.73</ele>
        <time>2016-03-21T15:10:19Z</time>
      </trkpt>
      <trkpt lat="45.52728" lon="6.72082">
        <ele>2337.53</ele>
        <time>2016-03-21T15:10:23Z</time>
      </trkpt>
      <trkpt lat="45.52712" lon="6.72096">
        <ele>2332.33</ele>
        <time>2016-03-21T15:10:58Z</time>
      </trkpt>
      <trkpt lat="45.52719" lon="6.72125">
        <ele>2326.78</ele>
        <time>2016-03-21T15:11:17Z</time>
      </trkpt>
      <trkpt lat="45.52737" lon="6.72144">
        <ele>2320.99</ele>
        <time>2016-03-21T15:11:21Z</time>
      </trkpt>
      <trkpt lat="45.52747" lon="6.72169">
        <ele>2317.78</ele>
        <time>2016-03-21T15:11:24Z</time>
      </trkpt>
      <trkpt lat="45.52762" lon="6.72196">
        <ele>2312.99</ele>
        <time>2016-03-21T15:11:27Z</time>
      </trkpt>
      <trkpt lat="45.52775" lon="6.72227">
        <ele>2307.19</ele>
        <time>2016-03-21T15:11:30Z</time>
      </trkpt>
      <trkpt lat="45.52784" lon="6.72253">
        <ele>2304</ele>
        <time>2016-03-21T15:11:32Z</time>
      </trkpt>
      <trkpt lat="45.52778" lon="6.72285">
        <ele>2294.22</ele>
        <time>2016-03-21T15:11:35Z</time>
      </trkpt>
      <trkpt lat="45.52762" lon="6.72297">
        <ele>2290.78</ele>
        <time>2016-03-21T15:11:38Z</time>
      </trkpt>
      <trkpt lat="45.52749" lon="6.7232">
        <ele>2283.05</ele>
        <time>2016-03-21T15:11:44Z</time>
      </trkpt>
      <trkpt lat="45.52731" lon="6.72332">
        <ele>2276.98</ele>
        <time>2016-03-21T15:11:49Z</time>
      </trkpt>
      <trkpt lat="45.52712" lon="6.72329">
        <ele>2271.79</ele>
        <time>2016-03-21T15:11:53Z</time>
      </trkpt>
      <trkpt lat="45.52692" lon="6.72336">
        <ele>2265.79</ele>
        <time>2016-03-21T15:11:57Z</time>
      </trkpt>
      <trkpt lat="45.5267" lon="6.72333">
        <ele>2259.82</ele>
        <time>2016-03-21T15:12:01Z</time>
      </trkpt>
      <trkpt lat="45.5265" lon="6.72334">
        <ele>2250.05</ele>
        <time>2016-03-21T15:12:05Z</time>
      </trkpt>
      <trkpt lat="45.52631" lon="6.72338">
        <ele>2243.85</ele>
        <time>2016-03-21T15:12:09Z</time>
      </trkpt>
      <trkpt lat="45.52613" lon="6.72349">
        <ele>2237.93</ele>
        <time>2016-03-21T15:12:13Z</time>
      </trkpt>
      <trkpt lat="45.52592" lon="6.72356">
        <ele>2234.02</ele>
        <time>2016-03-21T15:12:17Z</time>
      </trkpt>
      <trkpt lat="45.52572" lon="6.72362">
        <ele>2225.04</ele>
        <time>2016-03-21T15:12:21Z</time>
      </trkpt>
      <trkpt lat="45.52554" lon="6.72363">
        <ele>2222.79</ele>
        <time>2016-03-21T15:12:23Z</time>
      </trkpt>
      <trkpt lat="45.52526" lon="6.72362">
        <ele>2217.99</ele>
        <time>2016-03-21T15:12:26Z</time>
      </trkpt>
      <trkpt lat="45.525" lon="6.72363">
        <ele>2214.01</ele>
        <time>2016-03-21T15:12:29Z</time>
      </trkpt>
      <trkpt lat="45.52481" lon="6.72359">
        <ele>2207.83</ele>
        <time>2016-03-21T15:12:33Z</time>
      </trkpt>
      <trkpt lat="45.52461" lon="6.72367">
        <ele>2200.17</ele>
        <time>2016-03-21T15:12:48Z</time>
      </trkpt>
      <trkpt lat="45.52445" lon="6.72384">
        <ele>2192.11</ele>
        <time>2016-03-21T15:12:51Z</time>
      </trkpt>
      <trkpt lat="45.52421" lon="6.72398">
        <ele>2188.82</ele>
        <time>2016-03-21T15:12:54Z</time>
      </trkpt>
      <trkpt lat="45.52409" lon="6.72419">
        <ele>2184.86</ele>
        <time>2016-03-21T15:12:56Z</time>
      </trkpt>
      <trkpt lat="45.52397" lon="6.72438">
        <ele>2181.82</ele>
        <time>2016-03-21T15:12:58Z</time>
      </trkpt>
      <trkpt lat="45.52382" lon="6.72464">
        <ele>2178.78</ele>
        <time>2016-03-21T15:13:01Z</time>
      </trkpt>
      <trkpt lat="45.52367" lon="6.72494">
        <ele>2179.49</ele>
        <time>2016-03-21T15:13:04Z</time>
      </trkpt>
      <trkpt lat="45.52361" lon="6.72524">
        <ele>2175.98</ele>
        <time>2016-03-21T15:13:07Z</time>
      </trkpt>
      <trkpt lat="45.52358" lon="6.72562">
        <ele>2170.99</ele>
        <time>2016-03-21T15:13:10Z</time>
      </trkpt>
      <trkpt lat="45.52358" lon="6.72599">
        <ele>2166.79</ele>
        <time>2016-03-21T15:13:13Z</time>
      </trkpt>
      <trkpt lat="45.52358" lon="6.72633">
        <ele>2160.07</ele>
        <time>2016-03-21T15:13:16Z</time>
      </trkpt>
      <trkpt lat="45.52368" lon="6.72664">
        <ele>2146.13</ele>
        <time>2016-03-21T15:13:20Z</time>
      </trkpt>
      <trkpt lat="45.52356" lon="6.72682">
        <ele>2137.06</ele>
        <time>2016-03-21T15:13:23Z</time>
      </trkpt>
      <trkpt lat="45.52353" lon="6.72712">
        <ele>2134.74</ele>
        <time>2016-03-21T15:13:26Z</time>
      </trkpt>
      <trkpt lat="45.52348" lon="6.72742">
        <ele>2132.77</ele>
        <time>2016-03-21T15:13:29Z</time>
      </trkpt>
      <trkpt lat="45.52348" lon="6.72774">
        <ele>2122.77</ele>
        <time>2016-03-21T15:13:34Z</time>
      </trkpt>
      <trkpt lat="45.52347" lon="6.728">
        <ele>2115.08</ele>
        <time>2016-03-21T15:13:37Z</time>
      </trkpt>
      <trkpt lat="45.5234" lon="6.7284">
        <ele>2111.94</ele>
        <time>2016-03-21T15:13:40Z</time>
      </trkpt>
      <trkpt lat="45.52331" lon="6.72874">
        <ele>2105.2</ele>
        <time>2016-03-21T15:13:43Z</time>
      </trkpt>
      <trkpt lat="45.52323" lon="6.72899">
        <ele>2102.8</ele>
        <time>2016-03-21T15:13:45Z</time>
      </trkpt>
      <trkpt lat="45.52312" lon="6.7293">
        <ele>2095.91</ele>
        <time>2016-03-21T15:13:48Z</time>
      </trkpt>
      <trkpt lat="45.523" lon="6.72952">
        <ele>2078.92</ele>
        <time>2016-03-21T15:13:57Z</time>
      </trkpt>
      <trkpt lat="45.52287" lon="6.72973">
        <ele>2071.78</ele>
        <time>2016-03-21T15:14:02Z</time>
      </trkpt>
      <trkpt lat="45.5228" lon="6.73003">
        <ele>2066.78</ele>
        <time>2016-03-21T15:14:06Z</time>
      </trkpt>
      <trkpt lat="45.52292" lon="6.73031">
        <ele>2061.06</ele>
        <time>2016-03-21T15:14:09Z</time>
      </trkpt>
      <trkpt lat="45.5231" lon="6.73045">
        <ele>2058.57</ele>
        <time>2016-03-21T15:14:13Z</time>
      </trkpt>
      <trkpt lat="45.52303" lon="6.73022">
        <ele>2050.25</ele>
        <time>2016-03-21T15:14:44Z</time>
      </trkpt>
      <trkpt lat="45.52291" lon="6.72997">
        <ele>2052.32</ele>
        <time>2016-03-21T15:14:56Z</time>
      </trkpt>
      <trkpt lat="45.5228" lon="6.72977">
        <ele>2060.47</ele>
        <time>2016-03-21T15:15:05Z</time>
      </trkpt>
      <trkpt lat="45.52268" lon="6.72955">
        <ele>2069.51</ele>
        <time>2016-03-21T15:15:15Z</time>
      </trkpt>
      <trkpt lat="45.52258" lon="6.72934">
        <ele>2072.53</ele>
        <time>2016-03-21T15:15:25Z</time>
      </trkpt>
      <trkpt lat="45.52247" lon="6.72911">
        <ele>2077.32</ele>
        <time>2016-03-21T15:15:35Z</time>
      </trkpt>
      <trkpt lat="45.52234" lon="6.72889">
        <ele>2081.49</ele>
        <time>2016-03-21T15:15:45Z</time>
      </trkpt>
      <trkpt lat="45.52223" lon="6.72866">
        <ele>2086.32</ele>
        <time>2016-03-21T15:15:56Z</time>
      </trkpt>
      <trkpt lat="45.52213" lon="6.72844">
        <ele>2094.29</ele>
        <time>2016-03-21T15:16:07Z</time>
      </trkpt>
      <trkpt lat="45.52201" lon="6.72822">
        <ele>2100.29</ele>
        <time>2016-03-21T15:16:18Z</time>
      </trkpt>
      <trkpt lat="45.52191" lon="6.728">
        <ele>2105.48</ele>
        <time>2016-03-21T15:16:29Z</time>
      </trkpt>
      <trkpt lat="45.5218" lon="6.72778">
        <ele>2111.29</ele>
        <time>2016-03-21T15:16:39Z</time>
      </trkpt>
      <trkpt lat="45.5217" lon="6.72756">
        <ele>2116.33</ele>
        <time>2016-03-21T15:16:50Z</time>
      </trkpt>
      <trkpt lat="45.52159" lon="6.72735">
        <ele>2122.29</ele>
        <time>2016-03-21T15:17:01Z</time>
      </trkpt>
      <trkpt lat="45.52148" lon="6.72712">
        <ele>2129.29</ele>
        <time>2016-03-21T15:17:12Z</time>
      </trkpt>
      <trkpt lat="45.52138" lon="6.72689">
        <ele>2138.25</ele>
        <time>2016-03-21T15:17:23Z</time>
      </trkpt>
      <trkpt lat="45.52127" lon="6.72668">
        <ele>2146.28</ele>
        <time>2016-03-21T15:17:33Z</time>
      </trkpt>
      <trkpt lat="45.52116" lon="6.72645">
        <ele>2156.28</ele>
        <time>2016-03-21T15:17:44Z</time>
      </trkpt>
      <trkpt lat="45.52105" lon="6.72623">
        <ele>2165.32</ele>
        <time>2016-03-21T15:17:55Z</time>
      </trkpt>
      <trkpt lat="45.52094" lon="6.72602">
        <ele>2176.24</ele>
        <time>2016-03-21T15:18:06Z</time>
      </trkpt>
      <trkpt lat="45.52082" lon="6.7258">
        <ele>2186.29</ele>
        <time>2016-03-21T15:18:18Z</time>
      </trkpt>
      <trkpt lat="45.5207" lon="6.72557">
        <ele>2196.28</ele>
        <time>2016-03-21T15:18:30Z</time>
      </trkpt>
      <trkpt lat="45.52059" lon="6.72534">
        <ele>2204.32</ele>
        <time>2016-03-21T15:18:41Z</time>
      </trkpt>
      <trkpt lat="45.52047" lon="6.72512">
        <ele>2212.28</ele>
        <time>2016-03-21T15:18:52Z</time>
      </trkpt>
      <trkpt lat="45.52037" lon="6.72489">
        <ele>2220.32</ele>
        <time>2016-03-21T15:19:03Z</time>
      </trkpt>
      <trkpt lat="45.52027" lon="6.72467">
        <ele>2223.52</ele>
        <time>2016-03-21T15:19:13Z</time>
      </trkpt>
      <trkpt lat="45.52016" lon="6.72445">
        <ele>2228.52</ele>
        <time>2016-03-21T15:19:24Z</time>
      </trkpt>
      <trkpt lat="45.52004" lon="6.72423">
        <ele>2235.32</ele>
        <time>2016-03-21T15:19:35Z</time>
      </trkpt>
      <trkpt lat="45.51993" lon="6.72402">
        <ele>2241.33</ele>
        <time>2016-03-21T15:19:45Z</time>
      </trkpt>
      <trkpt lat="45.51983" lon="6.72379">
        <ele>2247.32</ele>
        <time>2016-03-21T15:19:56Z</time>
      </trkpt>
      <trkpt lat="45.51972" lon="6.72357">
        <ele>2251.48</ele>
        <time>2016-03-21T15:20:06Z</time>
      </trkpt>
      <trkpt lat="45.51961" lon="6.72334">
        <ele>2257.29</ele>
        <time>2016-03-21T15:20:17Z</time>
      </trkpt>
      <trkpt lat="45.5195" lon="6.72312">
        <ele>2265.29</ele>
        <time>2016-03-21T15:20:28Z</time>
      </trkpt>
      <trkpt lat="45.5194" lon="6.7229">
        <ele>2269.29</ele>
        <time>2016-03-21T15:20:38Z</time>
      </trkpt>
      <trkpt lat="45.5193" lon="6.72269">
        <ele>2273.52</ele>
        <time>2016-03-21T15:20:48Z</time>
      </trkpt>
      <trkpt lat="45.51919" lon="6.72246">
        <ele>2279.33</ele>
        <time>2016-03-21T15:20:58Z</time>
      </trkpt>
      <trkpt lat="45.51908" lon="6.72224">
        <ele>2283.49</ele>
        <time>2016-03-21T15:21:09Z</time>
      </trkpt>
      <trkpt lat="45.51898" lon="6.72202">
        <ele>2289.48</ele>
        <time>2016-03-21T15:21:19Z</time>
      </trkpt>
      <trkpt lat="45.51887" lon="6.7218">
        <ele>2292.49</ele>
        <time>2016-03-21T15:21:29Z</time>
      </trkpt>
      <trkpt lat="45.51875" lon="6.72158">
        <ele>2292.56</ele>
        <time>2016-03-21T15:21:40Z</time>
      </trkpt>
      <trkpt lat="45.51865" lon="6.72134">
        <ele>2295.32</ele>
        <time>2016-03-21T15:21:50Z</time>
      </trkpt>
      <trkpt lat="45.51853" lon="6.72112">
        <ele>2295.53</ele>
        <time>2016-03-21T15:22:00Z</time>
      </trkpt>
      <trkpt lat="45.51844" lon="6.7209">
        <ele>2296.53</ele>
        <time>2016-03-21T15:22:10Z</time>
      </trkpt>
      <trkpt lat="45.51831" lon="6.72069">
        <ele>2296.33</ele>
        <time>2016-03-21T15:22:21Z</time>
      </trkpt>
      <trkpt lat="45.51822" lon="6.72045">
        <ele>2303.28</ele>
        <time>2016-03-21T15:22:32Z</time>
      </trkpt>
      <trkpt lat="45.51814" lon="6.72022">
        <ele>2312.24</ele>
        <time>2016-03-21T15:22:42Z</time>
      </trkpt>
      <trkpt lat="45.51805" lon="6.71999">
        <ele>2322.28</ele>
        <time>2016-03-21T15:22:53Z</time>
      </trkpt>
      <trkpt lat="45.51794" lon="6.71977">
        <ele>2332.28</ele>
        <time>2016-03-21T15:23:04Z</time>
      </trkpt>
      <trkpt lat="45.51781" lon="6.71957">
        <ele>2343.28</ele>
        <time>2016-03-21T15:23:15Z</time>
      </trkpt>
      <trkpt lat="45.51768" lon="6.71938">
        <ele>2353.28</ele>
        <time>2016-03-21T15:23:25Z</time>
      </trkpt>
      <trkpt lat="45.51756" lon="6.71917">
        <ele>2364.32</ele>
        <time>2016-03-21T15:23:38Z</time>
      </trkpt>
      <trkpt lat="45.51746" lon="6.71893">
        <ele>2372.32</ele>
        <time>2016-03-21T15:23:50Z</time>
      </trkpt>
      <trkpt lat="45.51744" lon="6.71867">
        <ele>2371.69</ele>
        <time>2016-03-21T15:24:45Z</time>
      </trkpt>
      <trkpt lat="45.51759" lon="6.71849">
        <ele>2369.88</ele>
        <time>2016-03-21T15:24:56Z</time>
      </trkpt>
      <trkpt lat="45.51777" lon="6.71834">
        <ele>2371.52</ele>
        <time>2016-03-21T15:25:02Z</time>
      </trkpt>
      <trkpt lat="45.51796" lon="6.71824">
        <ele>2368.62</ele>
        <time>2016-03-21T15:25:07Z</time>
      </trkpt>
      <trkpt lat="45.51814" lon="6.71811">
        <ele>2367.41</ele>
        <time>2016-03-21T15:25:10Z</time>
      </trkpt>
      <trkpt lat="45.51839" lon="6.71803">
        <ele>2364.01</ele>
        <time>2016-03-21T15:25:13Z</time>
      </trkpt>
      <trkpt lat="45.51863" lon="6.71791">
        <ele>2362.77</ele>
        <time>2016-03-21T15:25:16Z</time>
      </trkpt>
      <trkpt lat="45.51881" lon="6.71784">
        <ele>2359.98</ele>
        <time>2016-03-21T15:25:18Z</time>
      </trkpt>
      <trkpt lat="45.51902" lon="6.71781">
        <ele>2357.79</ele>
        <time>2016-03-21T15:25:20Z</time>
      </trkpt>
      <trkpt lat="45.51922" lon="6.71785">
        <ele>2355.78</ele>
        <time>2016-03-21T15:25:22Z</time>
      </trkpt>
      <trkpt lat="45.51944" lon="6.7179">
        <ele>2354.74</ele>
        <time>2016-03-21T15:25:24Z</time>
      </trkpt>
      <trkpt lat="45.51967" lon="6.71793">
        <ele>2353.74</ele>
        <time>2016-03-21T15:25:26Z</time>
      </trkpt>
      <trkpt lat="45.51987" lon="6.71792">
        <ele>2352.1</ele>
        <time>2016-03-21T15:25:28Z</time>
      </trkpt>
      <trkpt lat="45.52006" lon="6.71785">
        <ele>2348.99</ele>
        <time>2016-03-21T15:25:30Z</time>
      </trkpt>
      <trkpt lat="45.52025" lon="6.71775">
        <ele>2345.03</ele>
        <time>2016-03-21T15:25:32Z</time>
      </trkpt>
      <trkpt lat="45.52044" lon="6.71762">
        <ele>2341.99</ele>
        <time>2016-03-21T15:25:34Z</time>
      </trkpt>
      <trkpt lat="45.52059" lon="6.71745">
        <ele>2337.87</ele>
        <time>2016-03-21T15:25:36Z</time>
      </trkpt>
      <trkpt lat="45.52072" lon="6.71724">
        <ele>2335.78</ele>
        <time>2016-03-21T15:25:38Z</time>
      </trkpt>
      <trkpt lat="45.52083" lon="6.71703">
        <ele>2334.58</ele>
        <time>2016-03-21T15:25:40Z</time>
      </trkpt>
      <trkpt lat="45.52087" lon="6.71673">
        <ele>2332.77</ele>
        <time>2016-03-21T15:25:42Z</time>
      </trkpt>
      <trkpt lat="45.52071" lon="6.71641">
        <ele>2322.36</ele>
        <time>2016-03-21T15:25:45Z</time>
      </trkpt>
      <trkpt lat="45.52053" lon="6.71619">
        <ele>2316.28</ele>
        <time>2016-03-21T15:25:47Z</time>
      </trkpt>
      <trkpt lat="45.52034" lon="6.71598">
        <ele>2312.04</ele>
        <time>2016-03-21T15:25:49Z</time>
      </trkpt>
      <trkpt lat="45.52017" lon="6.71576">
        <ele>2310.59</ele>
        <time>2016-03-21T15:25:51Z</time>
      </trkpt>
      <trkpt lat="45.52" lon="6.71555">
        <ele>2307.97</ele>
        <time>2016-03-21T15:25:53Z</time>
      </trkpt>
      <trkpt lat="45.51982" lon="6.71534">
        <ele>2304.83</ele>
        <time>2016-03-21T15:25:55Z</time>
      </trkpt>
      <trkpt lat="45.51965" lon="6.71516">
        <ele>2302.78</ele>
        <time>2016-03-21T15:25:57Z</time>
      </trkpt>
      <trkpt lat="45.51948" lon="6.71501">
        <ele>2302.54</ele>
        <time>2016-03-21T15:25:59Z</time>
      </trkpt>
      <trkpt lat="45.51927" lon="6.71489">
        <ele>2302.53</ele>
        <time>2016-03-21T15:26:02Z</time>
      </trkpt>
      <trkpt lat="45.51907" lon="6.71485">
        <ele>2301.73</ele>
        <time>2016-03-21T15:26:05Z</time>
      </trkpt>
      <trkpt lat="45.51886" lon="6.71482">
        <ele>2300.57</ele>
        <time>2016-03-21T15:26:08Z</time>
      </trkpt>
      <trkpt lat="45.51866" lon="6.71482">
        <ele>2299.54</ele>
        <time>2016-03-21T15:26:11Z</time>
      </trkpt>
      <trkpt lat="45.51846" lon="6.71482">
        <ele>2298.53</ele>
        <time>2016-03-21T15:26:15Z</time>
      </trkpt>
      <trkpt lat="45.51827" lon="6.7148">
        <ele>2298.53</ele>
        <time>2016-03-21T15:26:19Z</time>
      </trkpt>
      <trkpt lat="45.51808" lon="6.71479">
        <ele>2295.74</ele>
        <time>2016-03-21T15:26:23Z</time>
      </trkpt>
      <trkpt lat="45.51789" lon="6.71475">
        <ele>2293.77</ele>
        <time>2016-03-21T15:26:26Z</time>
      </trkpt>
      <trkpt lat="45.5177" lon="6.71466">
        <ele>2290.59</ele>
        <time>2016-03-21T15:26:29Z</time>
      </trkpt>
      <trkpt lat="45.51751" lon="6.7145">
        <ele>2285.99</ele>
        <time>2016-03-21T15:26:32Z</time>
      </trkpt>
      <trkpt lat="45.51742" lon="6.71422">
        <ele>2283.74</ele>
        <time>2016-03-21T15:26:35Z</time>
      </trkpt>
      <trkpt lat="45.51741" lon="6.71388">
        <ele>2279.86</ele>
        <time>2016-03-21T15:26:37Z</time>
      </trkpt>
      <trkpt lat="45.51737" lon="6.71351">
        <ele>2277.78</ele>
        <time>2016-03-21T15:26:39Z</time>
      </trkpt>
      <trkpt lat="45.51727" lon="6.71319">
        <ele>2274.98</ele>
        <time>2016-03-21T15:26:41Z</time>
      </trkpt>
      <trkpt lat="45.51719" lon="6.71296">
        <ele>2270.39</ele>
        <time>2016-03-21T15:26:43Z</time>
      </trkpt>
      <trkpt lat="45.51709" lon="6.71266">
        <ele>2265.89</ele>
        <time>2016-03-21T15:26:45Z</time>
      </trkpt>
      <trkpt lat="45.51707" lon="6.7123">
        <ele>2262.19</ele>
        <time>2016-03-21T15:26:47Z</time>
      </trkpt>
      <trkpt lat="45.51694" lon="6.71203">
        <ele>2253.88</ele>
        <time>2016-03-21T15:26:49Z</time>
      </trkpt>
      <trkpt lat="45.51684" lon="6.71173">
        <ele>2247.46</ele>
        <time>2016-03-21T15:26:51Z</time>
      </trkpt>
      <trkpt lat="45.51678" lon="6.71138">
        <ele>2242.41</ele>
        <time>2016-03-21T15:26:53Z</time>
      </trkpt>
      <trkpt lat="45.51663" lon="6.71108">
        <ele>2236.29</ele>
        <time>2016-03-21T15:26:55Z</time>
      </trkpt>
      <trkpt lat="45.51656" lon="6.71078">
        <ele>2232.04</ele>
        <time>2016-03-21T15:26:57Z</time>
      </trkpt>
      <trkpt lat="45.51642" lon="6.71046">
        <ele>2223.25</ele>
        <time>2016-03-21T15:27:00Z</time>
      </trkpt>
      <trkpt lat="45.51623" lon="6.71025">
        <ele>2216.23</ele>
        <time>2016-03-21T15:27:03Z</time>
      </trkpt>
      <trkpt lat="45.51603" lon="6.71003">
        <ele>2209.87</ele>
        <time>2016-03-21T15:27:06Z</time>
      </trkpt>
      <trkpt lat="45.51581" lon="6.70987">
        <ele>2202.11</ele>
        <time>2016-03-21T15:27:09Z</time>
      </trkpt>
      <trkpt lat="45.51563" lon="6.70989">
        <ele>2194.51</ele>
        <time>2016-03-21T15:27:11Z</time>
      </trkpt>
      <trkpt lat="45.51546" lon="6.70978">
        <ele>2189.25</ele>
        <time>2016-03-21T15:27:13Z</time>
      </trkpt>
      <trkpt lat="45.51524" lon="6.70976">
        <ele>2185.2</ele>
        <time>2016-03-21T15:27:15Z</time>
      </trkpt>
      <trkpt lat="45.515" lon="6.70965">
        <ele>2181.04</ele>
        <time>2016-03-21T15:27:17Z</time>
      </trkpt>
      <trkpt lat="45.51477" lon="6.70956">
        <ele>2177.83</ele>
        <time>2016-03-21T15:27:19Z</time>
      </trkpt>
      <trkpt lat="45.51458" lon="6.70945">
        <ele>2174.82</ele>
        <time>2016-03-21T15:27:21Z</time>
      </trkpt>
      <trkpt lat="45.51442" lon="6.70931">
        <ele>2172.78</ele>
        <time>2016-03-21T15:27:23Z</time>
      </trkpt>
      <trkpt lat="45.51423" lon="6.70907">
        <ele>2168.79</ele>
        <time>2016-03-21T15:27:26Z</time>
      </trkpt>
      <trkpt lat="45.51403" lon="6.70885">
        <ele>2164.98</ele>
        <time>2016-03-21T15:27:29Z</time>
      </trkpt>
      <trkpt lat="45.51382" lon="6.70866">
        <ele>2160.98</ele>
        <time>2016-03-21T15:27:32Z</time>
      </trkpt>
      <trkpt lat="45.51366" lon="6.70849">
        <ele>2157.19</ele>
        <time>2016-03-21T15:27:34Z</time>
      </trkpt>
      <trkpt lat="45.51353" lon="6.70829">
        <ele>2154.8</ele>
        <time>2016-03-21T15:27:36Z</time>
      </trkpt>
      <trkpt lat="45.51336" lon="6.70801">
        <ele>2150.82</ele>
        <time>2016-03-21T15:27:39Z</time>
      </trkpt>
      <trkpt lat="45.51323" lon="6.70778">
        <ele>2150.69</ele>
        <time>2016-03-21T15:27:42Z</time>
      </trkpt>
      <trkpt lat="45.51308" lon="6.70762">
        <ele>2147.58</ele>
        <time>2016-03-21T15:27:46Z</time>
      </trkpt>
      <trkpt lat="45.5129" lon="6.70749">
        <ele>2144.73</ele>
        <time>2016-03-21T15:27:53Z</time>
      </trkpt>
      <trkpt lat="45.51281" lon="6.70724">
        <ele>2137.71</ele>
        <time>2016-03-21T15:28:17Z</time>
      </trkpt>
      <trkpt lat="45.51265" lon="6.70709">
        <ele>2131.99</ele>
        <time>2016-03-21T15:28:21Z</time>
      </trkpt>
      <trkpt lat="45.51244" lon="6.70708">
        <ele>2130.76</ele>
        <time>2016-03-21T15:28:25Z</time>
      </trkpt>
      <trkpt lat="45.51223" lon="6.70716">
        <ele>2126.82</ele>
        <time>2016-03-21T15:28:28Z</time>
      </trkpt>
      <trkpt lat="45.51199" lon="6.7072">
        <ele>2120.04</ele>
        <time>2016-03-21T15:28:31Z</time>
      </trkpt>
      <trkpt lat="45.51174" lon="6.70706">
        <ele>2117.94</ele>
        <time>2016-03-21T15:28:34Z</time>
      </trkpt>
      <trkpt lat="45.51151" lon="6.707">
        <ele>2113.98</ele>
        <time>2016-03-21T15:28:37Z</time>
      </trkpt>
      <trkpt lat="45.51134" lon="6.7069">
        <ele>2109.07</ele>
        <time>2016-03-21T15:28:39Z</time>
      </trkpt>
      <trkpt lat="45.51116" lon="6.70685">
        <ele>2105.03</ele>
        <time>2016-03-21T15:28:41Z</time>
      </trkpt>
      <trkpt lat="45.51097" lon="6.70673">
        <ele>2099.99</ele>
        <time>2016-03-21T15:28:44Z</time>
      </trkpt>
      <trkpt lat="45.51082" lon="6.7065">
        <ele>2091.83</ele>
        <time>2016-03-21T15:28:48Z</time>
      </trkpt>
      <trkpt lat="45.51078" lon="6.70619">
        <ele>2086.25</ele>
        <time>2016-03-21T15:28:51Z</time>
      </trkpt>
      <trkpt lat="45.51072" lon="6.70588">
        <ele>2081.78</ele>
        <time>2016-03-21T15:28:55Z</time>
      </trkpt>
      <trkpt lat="45.51058" lon="6.7057">
        <ele>2077.98</ele>
        <time>2016-03-21T15:28:58Z</time>
      </trkpt>
      <trkpt lat="45.51053" lon="6.70542">
        <ele>2072.17</ele>
        <time>2016-03-21T15:29:02Z</time>
      </trkpt>
      <trkpt lat="45.51053" lon="6.70505">
        <ele>2067.98</ele>
        <time>2016-03-21T15:29:05Z</time>
      </trkpt>
      <trkpt lat="45.5106" lon="6.70473">
        <ele>2060.05</ele>
        <time>2016-03-21T15:29:08Z</time>
      </trkpt>
      <trkpt lat="45.51068" lon="6.7045">
        <ele>2053.1</ele>
        <time>2016-03-21T15:29:11Z</time>
      </trkpt>
      <trkpt lat="45.51084" lon="6.70424">
        <ele>2046.2</ele>
        <time>2016-03-21T15:29:14Z</time>
      </trkpt>
      <trkpt lat="45.51102" lon="6.70399">
        <ele>2040.8</ele>
        <time>2016-03-21T15:29:17Z</time>
      </trkpt>
      <trkpt lat="45.51114" lon="6.70371">
        <ele>2037.69</ele>
        <time>2016-03-21T15:29:20Z</time>
      </trkpt>
      <trkpt lat="45.51126" lon="6.70349">
        <ele>2031.55</ele>
        <time>2016-03-21T15:29:23Z</time>
      </trkpt>
      <trkpt lat="45.51143" lon="6.70328">
        <ele>2026.19</ele>
        <time>2016-03-21T15:29:26Z</time>
      </trkpt>
      <trkpt lat="45.5116" lon="6.703">
        <ele>2020.03</ele>
        <time>2016-03-21T15:29:29Z</time>
      </trkpt>
      <trkpt lat="45.51175" lon="6.70271">
        <ele>2017.52</ele>
        <time>2016-03-21T15:29:32Z</time>
      </trkpt>
      <trkpt lat="45.51185" lon="6.70247">
        <ele>2016.73</ele>
        <time>2016-03-21T15:29:34Z</time>
      </trkpt>
      <trkpt lat="45.51197" lon="6.70222">
        <ele>2013.18</ele>
        <time>2016-03-21T15:29:36Z</time>
      </trkpt>
      <trkpt lat="45.51206" lon="6.70196">
        <ele>2010</ele>
        <time>2016-03-21T15:29:38Z</time>
      </trkpt>
      <trkpt lat="45.51215" lon="6.7017">
        <ele>2006.99</ele>
        <time>2016-03-21T15:29:40Z</time>
      </trkpt>
      <trkpt lat="45.51216" lon="6.7014">
        <ele>1998.85</ele>
        <time>2016-03-21T15:29:43Z</time>
      </trkpt>
      <trkpt lat="45.51224" lon="6.70105">
        <ele>1990.81</ele>
        <time>2016-03-21T15:30:03Z</time>
      </trkpt>
      <trkpt lat="45.51222" lon="6.70075">
        <ele>1988.94</ele>
        <time>2016-03-21T15:30:05Z</time>
      </trkpt>
      <trkpt lat="45.51224" lon="6.70047">
        <ele>1985.99</ele>
        <time>2016-03-21T15:30:07Z</time>
      </trkpt>
      <trkpt lat="45.51219" lon="6.70019">
        <ele>1982.83</ele>
        <time>2016-03-21T15:30:09Z</time>
      </trkpt>
      <trkpt lat="45.51218" lon="6.6999">
        <ele>1982.54</ele>
        <time>2016-03-21T15:30:11Z</time>
      </trkpt>
      <trkpt lat="45.51215" lon="6.69964">
        <ele>1978.85</ele>
        <time>2016-03-21T15:30:13Z</time>
      </trkpt>
      <trkpt lat="45.51209" lon="6.69939">
        <ele>1977.58</ele>
        <time>2016-03-21T15:30:15Z</time>
      </trkpt>
      <trkpt lat="45.51203" lon="6.69907">
        <ele>1974.59</ele>
        <time>2016-03-21T15:30:18Z</time>
      </trkpt>
      <trkpt lat="45.51206" lon="6.69876">
        <ele>1969.06</ele>
        <time>2016-03-21T15:30:21Z</time>
      </trkpt>
      <trkpt lat="45.51205" lon="6.6985">
        <ele>1962.23</ele>
        <time>2016-03-21T15:30:24Z</time>
      </trkpt>
      <trkpt lat="45.51196" lon="6.69825">
        <ele>1957.77</ele>
        <time>2016-03-21T15:30:29Z</time>
      </trkpt>
      <trkpt lat="45.51186" lon="6.69804">
        <ele>1939.73</ele>
        <time>2016-03-21T15:31:04Z</time>
      </trkpt>
      <trkpt lat="45.51172" lon="6.69788">
        <ele>1932.34</ele>
        <time>2016-03-21T15:33:11Z</time>
      </trkpt>
      <trkpt lat="45.51153" lon="6.69783">
        <ele>1924.56</ele>
        <time>2016-03-21T15:33:56Z</time>
      </trkpt>
      <trkpt lat="45.51134" lon="6.69777">
        <ele>1924.56</ele>
        <time>2016-03-21T15:34:00Z</time>
      </trkpt>
      <trkpt lat="45.51112" lon="6.6977">
        <ele>1931.48</ele>
        <time>2016-03-21T15:34:05Z</time>
      </trkpt>
      <trkpt lat="45.51091" lon="6.69767">
        <ele>1933.34</ele>
        <time>2016-03-21T15:34:10Z</time>
      </trkpt>
      <trkpt lat="45.5107" lon="6.6976">
        <ele>1943.08</ele>
        <time>2016-03-21T15:34:15Z</time>
      </trkpt>
      <trkpt lat="45.51049" lon="6.69753">
        <ele>1950.26</ele>
        <time>2016-03-21T15:34:20Z</time>
      </trkpt>
      <trkpt lat="45.51031" lon="6.69749">
        <ele>1959.23</ele>
        <time>2016-03-21T15:34:25Z</time>
      </trkpt>
      <trkpt lat="45.51011" lon="6.69743">
        <ele>1971.98</ele>
        <time>2016-03-21T15:34:30Z</time>
      </trkpt>
      <trkpt lat="45.50994" lon="6.69735">
        <ele>1976.09</ele>
        <time>2016-03-21T15:34:34Z</time>
      </trkpt>
      <trkpt lat="45.50974" lon="6.69728">
        <ele>1982.43</ele>
        <time>2016-03-21T15:34:39Z</time>
      </trkpt>
      <trkpt lat="45.50953" lon="6.69721">
        <ele>1991.83</ele>
        <time>2016-03-21T15:34:44Z</time>
      </trkpt>
      <trkpt lat="45.50932" lon="6.69713">
        <ele>2003.18</ele>
        <time>2016-03-21T15:34:49Z</time>
      </trkpt>
      <trkpt lat="45.50912" lon="6.69708">
        <ele>2015.98</ele>
        <time>2016-03-21T15:34:54Z</time>
      </trkpt>
      <trkpt lat="45.50894" lon="6.69703">
        <ele>2026.83</ele>
        <time>2016-03-21T15:34:59Z</time>
      </trkpt>
      <trkpt lat="45.50873" lon="6.69699">
        <ele>2037.11</ele>
        <time>2016-03-21T15:35:05Z</time>
      </trkpt>
      <trkpt lat="45.50855" lon="6.69692">
        <ele>2048.97</ele>
        <time>2016-03-21T15:35:09Z</time>
      </trkpt>
      <trkpt lat="45.50835" lon="6.69685">
        <ele>2059.03</ele>
        <time>2016-03-21T15:35:14Z</time>
      </trkpt>
      <trkpt lat="45.50817" lon="6.69679">
        <ele>2065.88</ele>
        <time>2016-03-21T15:35:18Z</time>
      </trkpt>
      <trkpt lat="45.50798" lon="6.69672">
        <ele>2072.08</ele>
        <time>2016-03-21T15:35:22Z</time>
      </trkpt>
      <trkpt lat="45.50777" lon="6.69665">
        <ele>2079.85</ele>
        <time>2016-03-21T15:35:27Z</time>
      </trkpt>
      <trkpt lat="45.50759" lon="6.69662">
        <ele>2087.88</ele>
        <time>2016-03-21T15:35:31Z</time>
      </trkpt>
      <trkpt lat="45.5074" lon="6.69654">
        <ele>2095.31</ele>
        <time>2016-03-21T15:35:35Z</time>
      </trkpt>
      <trkpt lat="45.50719" lon="6.69649">
        <ele>2096.32</ele>
        <time>2016-03-21T15:35:40Z</time>
      </trkpt>
      <trkpt lat="45.507" lon="6.69642">
        <ele>2102.24</ele>
        <time>2016-03-21T15:35:44Z</time>
      </trkpt>
      <trkpt lat="45.50682" lon="6.69635">
        <ele>2106.28</ele>
        <time>2016-03-21T15:35:48Z</time>
      </trkpt>
      <trkpt lat="45.5066" lon="6.69629">
        <ele>2111.12</ele>
        <time>2016-03-21T15:35:53Z</time>
      </trkpt>
      <trkpt lat="45.50639" lon="6.69623">
        <ele>2117.09</ele>
        <time>2016-03-21T15:35:58Z</time>
      </trkpt>
      <trkpt lat="45.5062" lon="6.69616">
        <ele>2118.49</ele>
        <time>2016-03-21T15:36:02Z</time>
      </trkpt>
      <trkpt lat="45.50602" lon="6.6961">
        <ele>2118.69</ele>
        <time>2016-03-21T15:36:06Z</time>
      </trkpt>
      <trkpt lat="45.50583" lon="6.69603">
        <ele>2119.54</ele>
        <time>2016-03-21T15:36:10Z</time>
      </trkpt>
      <trkpt lat="45.50564" lon="6.69596">
        <ele>2122.29</ele>
        <time>2016-03-21T15:36:14Z</time>
      </trkpt>
      <trkpt lat="45.50543" lon="6.69591">
        <ele>2122.53</ele>
        <time>2016-03-21T15:36:19Z</time>
      </trkpt>
      <trkpt lat="45.50522" lon="6.69584">
        <ele>2121.56</ele>
        <time>2016-03-21T15:36:24Z</time>
      </trkpt>
      <trkpt lat="45.505" lon="6.69578">
        <ele>2121.53</ele>
        <time>2016-03-21T15:36:29Z</time>
      </trkpt>
      <trkpt lat="45.50479" lon="6.69573">
        <ele>2122.49</ele>
        <time>2016-03-21T15:36:34Z</time>
      </trkpt>
      <trkpt lat="45.50461" lon="6.69567">
        <ele>2125.29</ele>
        <time>2016-03-21T15:36:38Z</time>
      </trkpt>
      <trkpt lat="45.50439" lon="6.69561">
        <ele>2128.28</ele>
        <time>2016-03-21T15:36:43Z</time>
      </trkpt>
      <trkpt lat="45.50422" lon="6.69554">
        <ele>2130.32</ele>
        <time>2016-03-21T15:36:47Z</time>
      </trkpt>
      <trkpt lat="45.504" lon="6.69547">
        <ele>2133.48</ele>
        <time>2016-03-21T15:36:52Z</time>
      </trkpt>
      <trkpt lat="45.50381" lon="6.69543">
        <ele>2137.06</ele>
        <time>2016-03-21T15:36:57Z</time>
      </trkpt>
      <trkpt lat="45.50363" lon="6.69537">
        <ele>2137.72</ele>
        <time>2016-03-21T15:37:01Z</time>
      </trkpt>
      <trkpt lat="45.50345" lon="6.69531">
        <ele>2138.34</ele>
        <time>2016-03-21T15:37:05Z</time>
      </trkpt>
      <trkpt lat="45.50327" lon="6.69526">
        <ele>2139.32</ele>
        <time>2016-03-21T15:37:09Z</time>
      </trkpt>
      <trkpt lat="45.5031" lon="6.6952">
        <ele>2140.5</ele>
        <time>2016-03-21T15:37:13Z</time>
      </trkpt>
      <trkpt lat="45.50287" lon="6.69514">
        <ele>2143.48</ele>
        <time>2016-03-21T15:37:18Z</time>
      </trkpt>
      <trkpt lat="45.50265" lon="6.69507">
        <ele>2146.32</ele>
        <time>2016-03-21T15:37:23Z</time>
      </trkpt>
      <trkpt lat="45.50248" lon="6.69501">
        <ele>2150.24</ele>
        <time>2016-03-21T15:37:27Z</time>
      </trkpt>
      <trkpt lat="45.50227" lon="6.69494">
        <ele>2153.32</ele>
        <time>2016-03-21T15:37:32Z</time>
      </trkpt>
      <trkpt lat="45.50206" lon="6.69489">
        <ele>2156.36</ele>
        <time>2016-03-21T15:37:37Z</time>
      </trkpt>
      <trkpt lat="45.50187" lon="6.69482">
        <ele>2160.28</ele>
        <time>2016-03-21T15:37:41Z</time>
      </trkpt>
      <trkpt lat="45.50167" lon="6.69477">
        <ele>2165.49</ele>
        <time>2016-03-21T15:37:46Z</time>
      </trkpt>
      <trkpt lat="45.50145" lon="6.69471">
        <ele>2171.08</ele>
        <time>2016-03-21T15:37:51Z</time>
      </trkpt>
      <trkpt lat="45.50126" lon="6.69465">
        <ele>2176.27</ele>
        <time>2016-03-21T15:37:56Z</time>
      </trkpt>
      <trkpt lat="45.50107" lon="6.69459">
        <ele>2180.29</ele>
        <time>2016-03-21T15:38:00Z</time>
      </trkpt>
      <trkpt lat="45.50089" lon="6.69457">
        <ele>2183.29</ele>
        <time>2016-03-21T15:38:05Z</time>
      </trkpt>
      <trkpt lat="45.5007" lon="6.6945">
        <ele>2188.44</ele>
        <time>2016-03-21T15:38:09Z</time>
      </trkpt>
      <trkpt lat="45.50049" lon="6.69443">
        <ele>2195.12</ele>
        <time>2016-03-21T15:38:14Z</time>
      </trkpt>
      <trkpt lat="45.5003" lon="6.69436">
        <ele>2197.35</ele>
        <time>2016-03-21T15:38:18Z</time>
      </trkpt>
      <trkpt lat="45.50008" lon="6.69428">
        <ele>2199.32</ele>
        <time>2016-03-21T15:38:23Z</time>
      </trkpt>
      <trkpt lat="45.4999" lon="6.69422">
        <ele>2202.31</ele>
        <time>2016-03-21T15:38:27Z</time>
      </trkpt>
      <trkpt lat="45.4997" lon="6.69417">
        <ele>2206.65</ele>
        <time>2016-03-21T15:38:32Z</time>
      </trkpt>
      <trkpt lat="45.49949" lon="6.69411">
        <ele>2210.32</ele>
        <time>2016-03-21T15:38:37Z</time>
      </trkpt>
      <trkpt lat="45.49932" lon="6.69405">
        <ele>2216.24</ele>
        <time>2016-03-21T15:38:41Z</time>
      </trkpt>
      <trkpt lat="45.49911" lon="6.69399">
        <ele>2223.08</ele>
        <time>2016-03-21T15:38:46Z</time>
      </trkpt>
      <trkpt lat="45.49889" lon="6.69392">
        <ele>2228.24</ele>
        <time>2016-03-21T15:38:51Z</time>
      </trkpt>
      <trkpt lat="45.49871" lon="6.69387">
        <ele>2232.12</ele>
        <time>2016-03-21T15:38:55Z</time>
      </trkpt>
      <trkpt lat="45.4985" lon="6.69381">
        <ele>2237.87</ele>
        <time>2016-03-21T15:39:00Z</time>
      </trkpt>
      <trkpt lat="45.49828" lon="6.69377">
        <ele>2244.28</ele>
        <time>2016-03-21T15:39:05Z</time>
      </trkpt>
      <trkpt lat="45.4981" lon="6.69372">
        <ele>2246.5</ele>
        <time>2016-03-21T15:39:10Z</time>
      </trkpt>
      <trkpt lat="45.49792" lon="6.69364">
        <ele>2246.46</ele>
        <time>2016-03-21T15:39:18Z</time>
      </trkpt>
      <trkpt lat="45.49777" lon="6.69348">
        <ele>2247.53</ele>
        <time>2016-03-21T15:39:33Z</time>
      </trkpt>
      <trkpt lat="45.49759" lon="6.69332">
        <ele>2244.54</ele>
        <time>2016-03-21T15:39:55Z</time>
      </trkpt>
      <trkpt lat="45.49748" lon="6.69309">
        <ele>2241.58</ele>
        <time>2016-03-21T15:39:59Z</time>
      </trkpt>
      <trkpt lat="45.49749" lon="6.69277">
        <ele>2240.57</ele>
        <time>2016-03-21T15:40:02Z</time>
      </trkpt>
      <trkpt lat="45.49757" lon="6.69249">
        <ele>2238.55</ele>
        <time>2016-03-21T15:40:05Z</time>
      </trkpt>
      <trkpt lat="45.49771" lon="6.69223">
        <ele>2238.7</ele>
        <time>2016-03-21T15:40:09Z</time>
      </trkpt>
      <trkpt lat="45.49788" lon="6.69205">
        <ele>2237.57</ele>
        <time>2016-03-21T15:40:13Z</time>
      </trkpt>
      <trkpt lat="45.49805" lon="6.6919">
        <ele>2236.53</ele>
        <time>2016-03-21T15:40:17Z</time>
      </trkpt>
      <trkpt lat="45.49822" lon="6.69173">
        <ele>2234.93</ele>
        <time>2016-03-21T15:40:21Z</time>
      </trkpt>
      <trkpt lat="45.49842" lon="6.69159">
        <ele>2233.73</ele>
        <time>2016-03-21T15:40:25Z</time>
      </trkpt>
      <trkpt lat="45.49859" lon="6.69147">
        <ele>2232.57</ele>
        <time>2016-03-21T15:40:28Z</time>
      </trkpt>
      <trkpt lat="45.49875" lon="6.69134">
        <ele>2229.65</ele>
        <time>2016-03-21T15:40:32Z</time>
      </trkpt>
      <trkpt lat="45.49895" lon="6.69117">
        <ele>2227.57</ele>
        <time>2016-03-21T15:40:36Z</time>
      </trkpt>
      <trkpt lat="45.49914" lon="6.69105">
        <ele>2227.53</ele>
        <time>2016-03-21T15:40:39Z</time>
      </trkpt>
      <trkpt lat="45.49933" lon="6.69088">
        <ele>2228.33</ele>
        <time>2016-03-21T15:40:42Z</time>
      </trkpt>
      <trkpt lat="45.49953" lon="6.69081">
        <ele>2223.67</ele>
        <time>2016-03-21T15:40:45Z</time>
      </trkpt>
      <trkpt lat="45.49975" lon="6.69078">
        <ele>2211.24</ele>
        <time>2016-03-21T15:40:49Z</time>
      </trkpt>
      <trkpt lat="45.49997" lon="6.69086">
        <ele>2205.99</ele>
        <time>2016-03-21T15:40:52Z</time>
      </trkpt>
      <trkpt lat="45.50023" lon="6.69085">
        <ele>2200.83</ele>
        <time>2016-03-21T15:40:55Z</time>
      </trkpt>
      <trkpt lat="45.50048" lon="6.69078">
        <ele>2196.63</ele>
        <time>2016-03-21T15:40:58Z</time>
      </trkpt>
      <trkpt lat="45.5007" lon="6.69059">
        <ele>2192.79</ele>
        <time>2016-03-21T15:41:01Z</time>
      </trkpt>
      <trkpt lat="45.5009" lon="6.69051">
        <ele>2191.74</ele>
        <time>2016-03-21T15:41:03Z</time>
      </trkpt>
      <trkpt lat="45.50106" lon="6.69031">
        <ele>2189.78</ele>
        <time>2016-03-21T15:41:05Z</time>
      </trkpt>
      <trkpt lat="45.50126" lon="6.69019">
        <ele>2186.02</ele>
        <time>2016-03-21T15:41:07Z</time>
      </trkpt>
      <trkpt lat="45.50141" lon="6.69002">
        <ele>2182.83</ele>
        <time>2016-03-21T15:41:09Z</time>
      </trkpt>
      <trkpt lat="45.50153" lon="6.68982">
        <ele>2180.94</ele>
        <time>2016-03-21T15:41:11Z</time>
      </trkpt>
      <trkpt lat="45.50171" lon="6.68955">
        <ele>2178.58</ele>
        <time>2016-03-21T15:41:14Z</time>
      </trkpt>
      <trkpt lat="45.50178" lon="6.6893">
        <ele>2175.01</ele>
        <time>2016-03-21T15:41:16Z</time>
      </trkpt>
      <trkpt lat="45.50192" lon="6.6891">
        <ele>2171.03</ele>
        <time>2016-03-21T15:41:18Z</time>
      </trkpt>
      <trkpt lat="45.50208" lon="6.68895">
        <ele>2167.83</ele>
        <time>2016-03-21T15:41:20Z</time>
      </trkpt>
      <trkpt lat="45.50222" lon="6.68875">
        <ele>2164.82</ele>
        <time>2016-03-21T15:41:22Z</time>
      </trkpt>
      <trkpt lat="45.50237" lon="6.68858">
        <ele>2163.74</ele>
        <time>2016-03-21T15:41:24Z</time>
      </trkpt>
      <trkpt lat="45.50252" lon="6.68839">
        <ele>2159.22</ele>
        <time>2016-03-21T15:41:26Z</time>
      </trkpt>
      <trkpt lat="45.50266" lon="6.68811">
        <ele>2155.94</ele>
        <time>2016-03-21T15:41:29Z</time>
      </trkpt>
      <trkpt lat="45.50273" lon="6.68785">
        <ele>2154.54</ele>
        <time>2016-03-21T15:41:32Z</time>
      </trkpt>
      <trkpt lat="45.5029" lon="6.68767">
        <ele>2150.18</ele>
        <time>2016-03-21T15:41:35Z</time>
      </trkpt>
      <trkpt lat="45.50309" lon="6.6874">
        <ele>2147.94</ele>
        <time>2016-03-21T15:41:38Z</time>
      </trkpt>
      <trkpt lat="45.50324" lon="6.6872">
        <ele>2142.91</ele>
        <time>2016-03-21T15:41:40Z</time>
      </trkpt>
      <trkpt lat="45.50339" lon="6.68699">
        <ele>2139.03</ele>
        <time>2016-03-21T15:41:42Z</time>
      </trkpt>
      <trkpt lat="45.5035" lon="6.68674">
        <ele>2136.63</ele>
        <time>2016-03-21T15:41:44Z</time>
      </trkpt>
      <trkpt lat="45.50357" lon="6.68647">
        <ele>2133.98</ele>
        <time>2016-03-21T15:41:46Z</time>
      </trkpt>
      <trkpt lat="45.50368" lon="6.6862">
        <ele>2131.74</ele>
        <time>2016-03-21T15:41:49Z</time>
      </trkpt>
      <trkpt lat="45.50373" lon="6.68592">
        <ele>2125.82</ele>
        <time>2016-03-21T15:42:07Z</time>
      </trkpt>
      <trkpt lat="45.50383" lon="6.68569">
        <ele>2120.62</ele>
        <time>2016-03-21T15:42:11Z</time>
      </trkpt>
      <trkpt lat="45.50391" lon="6.68538">
        <ele>2116.56</ele>
        <time>2016-03-21T15:42:14Z</time>
      </trkpt>
      <trkpt lat="45.50398" lon="6.68503">
        <ele>2111.99</ele>
        <time>2016-03-21T15:42:17Z</time>
      </trkpt>
      <trkpt lat="45.50406" lon="6.68474">
        <ele>2109.77</ele>
        <time>2016-03-21T15:42:20Z</time>
      </trkpt>
      <trkpt lat="45.50411" lon="6.68449">
        <ele>2110.49</ele>
        <time>2016-03-21T15:42:23Z</time>
      </trkpt>
      <trkpt lat="45.50413" lon="6.68416">
        <ele>2109.54</ele>
        <time>2016-03-21T15:42:27Z</time>
      </trkpt>
      <trkpt lat="45.50412" lon="6.6839">
        <ele>2108.54</ele>
        <time>2016-03-21T15:42:30Z</time>
      </trkpt>
      <trkpt lat="45.50403" lon="6.68361">
        <ele>2107.76</ele>
        <time>2016-03-21T15:42:34Z</time>
      </trkpt>
      <trkpt lat="45.50393" lon="6.6833">
        <ele>2101.03</ele>
        <time>2016-03-21T15:42:38Z</time>
      </trkpt>
      <trkpt lat="45.50382" lon="6.68304">
        <ele>2097.98</ele>
        <time>2016-03-21T15:42:41Z</time>
      </trkpt>
      <trkpt lat="45.50375" lon="6.68269">
        <ele>2095.77</ele>
        <time>2016-03-21T15:42:44Z</time>
      </trkpt>
      <trkpt lat="45.50366" lon="6.68236">
        <ele>2092.78</ele>
        <time>2016-03-21T15:42:47Z</time>
      </trkpt>
      <trkpt lat="45.50355" lon="6.68215">
        <ele>2087.06</ele>
        <time>2016-03-21T15:42:50Z</time>
      </trkpt>
      <trkpt lat="45.50349" lon="6.68183">
        <ele>2085.75</ele>
        <time>2016-03-21T15:42:52Z</time>
      </trkpt>
      <trkpt lat="45.50341" lon="6.68154">
        <ele>2080.9</ele>
        <time>2016-03-21T15:42:54Z</time>
      </trkpt>
      <trkpt lat="45.50332" lon="6.68127">
        <ele>2077.81</ele>
        <time>2016-03-21T15:42:57Z</time>
      </trkpt>
      <trkpt lat="45.50332" lon="6.68095">
        <ele>2076.38</ele>
        <time>2016-03-21T15:43:00Z</time>
      </trkpt>
      <trkpt lat="45.50338" lon="6.6807">
        <ele>2074.93</ele>
        <time>2016-03-21T15:43:02Z</time>
      </trkpt>
      <trkpt lat="45.50344" lon="6.68045">
        <ele>2069.09</ele>
        <time>2016-03-21T15:43:05Z</time>
      </trkpt>
      <trkpt lat="45.50352" lon="6.68014">
        <ele>2064.02</ele>
        <time>2016-03-21T15:43:08Z</time>
      </trkpt>
      <trkpt lat="45.5037" lon="6.67996">
        <ele>2057.07</ele>
        <time>2016-03-21T15:43:11Z</time>
      </trkpt>
      <trkpt lat="45.50363" lon="6.67967">
        <ele>2051.96</ele>
        <time>2016-03-21T15:43:14Z</time>
      </trkpt>
      <trkpt lat="45.50379" lon="6.67951">
        <ele>2050.54</ele>
        <time>2016-03-21T15:43:18Z</time>
      </trkpt>
      <trkpt lat="45.50375" lon="6.67919">
        <ele>2045.38</ele>
        <time>2016-03-21T15:43:21Z</time>
      </trkpt>
      <trkpt lat="45.50372" lon="6.67882">
        <ele>2038.43</ele>
        <time>2016-03-21T15:43:24Z</time>
      </trkpt>
      <trkpt lat="45.50381" lon="6.67857">
        <ele>2030.08</ele>
        <time>2016-03-21T15:43:27Z</time>
      </trkpt>
      <trkpt lat="45.50389" lon="6.67827">
        <ele>2020.31</ele>
        <time>2016-03-21T15:43:31Z</time>
      </trkpt>
      <trkpt lat="45.50402" lon="6.67806">
        <ele>2014.99</ele>
        <time>2016-03-21T15:43:34Z</time>
      </trkpt>
      <trkpt lat="45.50416" lon="6.67783">
        <ele>2012.77</ele>
        <time>2016-03-21T15:43:37Z</time>
      </trkpt>
      <trkpt lat="45.50429" lon="6.67762">
        <ele>2008.79</ele>
        <time>2016-03-21T15:43:41Z</time>
      </trkpt>
      <trkpt lat="45.50442" lon="6.67742">
        <ele>2003.03</ele>
        <time>2016-03-21T15:43:49Z</time>
      </trkpt>
      <trkpt lat="45.50458" lon="6.67727">
        <ele>1993.74</ele>
        <time>2016-03-21T15:44:11Z</time>
      </trkpt>
      <trkpt lat="45.50477" lon="6.67713">
        <ele>1989.85</ele>
        <time>2016-03-21T15:44:15Z</time>
      </trkpt>
      <trkpt lat="45.50499" lon="6.67704">
        <ele>1988.54</ele>
        <time>2016-03-21T15:44:19Z</time>
      </trkpt>
      <trkpt lat="45.50513" lon="6.67687">
        <ele>1984.66</ele>
        <time>2016-03-21T15:44:22Z</time>
      </trkpt>
      <trkpt lat="45.50511" lon="6.6766">
        <ele>1983.73</ele>
        <time>2016-03-21T15:44:25Z</time>
      </trkpt>
      <trkpt lat="45.50507" lon="6.67633">
        <ele>1982.57</ele>
        <time>2016-03-21T15:44:28Z</time>
      </trkpt>
      <trkpt lat="45.50502" lon="6.67608">
        <ele>1983.49</ele>
        <time>2016-03-21T15:44:32Z</time>
      </trkpt>
      <trkpt lat="45.50495" lon="6.67583">
        <ele>1981.54</ele>
        <time>2016-03-21T15:44:39Z</time>
      </trkpt>
      <trkpt lat="45.50486" lon="6.67559">
        <ele>1981.49</ele>
        <time>2016-03-21T15:44:46Z</time>
      </trkpt>
      <trkpt lat="45.5048" lon="6.67534">
        <ele>1982.72</ele>
        <time>2016-03-21T15:44:56Z</time>
      </trkpt>
      <trkpt lat="45.50473" lon="6.67508">
        <ele>1982.53</ele>
        <time>2016-03-21T15:45:08Z</time>
      </trkpt>
      <trkpt lat="45.50472" lon="6.67483">
        <ele>1984.19</ele>
        <time>2016-03-21T15:45:30Z</time>
      </trkpt>
      <trkpt lat="45.50461" lon="6.67462">
        <ele>1984.77</ele>
        <time>2016-03-21T15:45:59Z</time>
      </trkpt>
      <trkpt lat="45.5045" lon="6.67439">
        <ele>1973.97</ele>
        <time>2016-03-21T15:46:38Z</time>
      </trkpt>
      <trkpt lat="45.50442" lon="6.67414">
        <ele>1968.38</ele>
        <time>2016-03-21T15:46:44Z</time>
      </trkpt>
      <trkpt lat="45.50433" lon="6.67384">
        <ele>1969.28</ele>
        <time>2016-03-21T15:46:49Z</time>
      </trkpt>
      <trkpt lat="45.50431" lon="6.67357">
        <ele>1975.77</ele>
        <time>2016-03-21T15:46:52Z</time>
      </trkpt>
      <trkpt lat="45.50425" lon="6.67327">
        <ele>1981.32</ele>
        <time>2016-03-21T15:46:56Z</time>
      </trkpt>
      <trkpt lat="45.50418" lon="6.67298">
        <ele>1983.52</ele>
        <time>2016-03-21T15:47:00Z</time>
      </trkpt>
      <trkpt lat="45.50413" lon="6.67272">
        <ele>1987.08</ele>
        <time>2016-03-21T15:47:04Z</time>
      </trkpt>
      <trkpt lat="45.50407" lon="6.67241">
        <ele>1997.19</ele>
        <time>2016-03-21T15:47:09Z</time>
      </trkpt>
      <trkpt lat="45.50401" lon="6.67211">
        <ele>2005.07</ele>
        <time>2016-03-21T15:47:14Z</time>
      </trkpt>
      <trkpt lat="45.50395" lon="6.67182">
        <ele>2012.26</ele>
        <time>2016-03-21T15:47:19Z</time>
      </trkpt>
      <trkpt lat="45.50388" lon="6.67153">
        <ele>2019</ele>
        <time>2016-03-21T15:47:24Z</time>
      </trkpt>
      <trkpt lat="45.50383" lon="6.67125">
        <ele>2031.77</ele>
        <time>2016-03-21T15:47:29Z</time>
      </trkpt>
      <trkpt lat="45.50378" lon="6.671">
        <ele>2046.75</ele>
        <time>2016-03-21T15:47:34Z</time>
      </trkpt>
      <trkpt lat="45.50373" lon="6.67071">
        <ele>2056.83</ele>
        <time>2016-03-21T15:47:39Z</time>
      </trkpt>
      <trkpt lat="45.50366" lon="6.67042">
        <ele>2064.44</ele>
        <time>2016-03-21T15:47:44Z</time>
      </trkpt>
      <trkpt lat="45.5036" lon="6.67012">
        <ele>2071.27</ele>
        <time>2016-03-21T15:47:49Z</time>
      </trkpt>
      <trkpt lat="45.50352" lon="6.66983">
        <ele>2077.28</ele>
        <time>2016-03-21T15:47:54Z</time>
      </trkpt>
      <trkpt lat="45.50346" lon="6.66953">
        <ele>2085.04</ele>
        <time>2016-03-21T15:47:59Z</time>
      </trkpt>
      <trkpt lat="45.50339" lon="6.66926">
        <ele>2094.2</ele>
        <time>2016-03-21T15:48:04Z</time>
      </trkpt>
      <trkpt lat="45.50333" lon="6.66899">
        <ele>2103</ele>
        <time>2016-03-21T15:48:09Z</time>
      </trkpt>
      <trkpt lat="45.50327" lon="6.66875">
        <ele>2108.89</ele>
        <time>2016-03-21T15:48:13Z</time>
      </trkpt>
      <trkpt lat="45.5032" lon="6.66846">
        <ele>2116.08</ele>
        <time>2016-03-21T15:48:18Z</time>
      </trkpt>
      <trkpt lat="45.50313" lon="6.66818">
        <ele>2123.27</ele>
        <time>2016-03-21T15:48:23Z</time>
      </trkpt>
      <trkpt lat="45.50307" lon="6.6679">
        <ele>2130.68</ele>
        <time>2016-03-21T15:48:28Z</time>
      </trkpt>
      <trkpt lat="45.50302" lon="6.6676">
        <ele>2141.06</ele>
        <time>2016-03-21T15:48:33Z</time>
      </trkpt>
      <trkpt lat="45.50297" lon="6.66732">
        <ele>2150.24</ele>
        <time>2016-03-21T15:48:38Z</time>
      </trkpt>
      <trkpt lat="45.50293" lon="6.66706">
        <ele>2155.28</ele>
        <time>2016-03-21T15:48:42Z</time>
      </trkpt>
      <trkpt lat="45.50286" lon="6.66676">
        <ele>2158.49</ele>
        <time>2016-03-21T15:48:47Z</time>
      </trkpt>
      <trkpt lat="45.50279" lon="6.66646">
        <ele>2162.48</ele>
        <time>2016-03-21T15:48:52Z</time>
      </trkpt>
      <trkpt lat="45.50274" lon="6.66621">
        <ele>2166.28</ele>
        <time>2016-03-21T15:48:56Z</time>
      </trkpt>
      <trkpt lat="45.50268" lon="6.66592">
        <ele>2172.08</ele>
        <time>2016-03-21T15:49:01Z</time>
      </trkpt>
      <trkpt lat="45.50262" lon="6.66563">
        <ele>2179.28</ele>
        <time>2016-03-21T15:49:06Z</time>
      </trkpt>
      <trkpt lat="45.50256" lon="6.66533">
        <ele>2186.2</ele>
        <time>2016-03-21T15:49:11Z</time>
      </trkpt>
      <trkpt lat="45.5025" lon="6.66504">
        <ele>2195.03</ele>
        <time>2016-03-21T15:49:16Z</time>
      </trkpt>
      <trkpt lat="45.50245" lon="6.66476">
        <ele>2204.19</ele>
        <time>2016-03-21T15:49:21Z</time>
      </trkpt>
      <trkpt lat="45.50238" lon="6.66447">
        <ele>2212.23</ele>
        <time>2016-03-21T15:49:26Z</time>
      </trkpt>
      <trkpt lat="45.50231" lon="6.66419">
        <ele>2216.25</ele>
        <time>2016-03-21T15:49:31Z</time>
      </trkpt>
      <trkpt lat="45.50225" lon="6.66394">
        <ele>2226.81</ele>
        <time>2016-03-21T15:49:37Z</time>
      </trkpt>
      <trkpt lat="45.50222" lon="6.66368">
        <ele>2245.32</ele>
        <time>2016-03-21T15:50:49Z</time>
      </trkpt>
      <trkpt lat="45.50216" lon="6.6634">
        <ele>2257.24</ele>
        <time>2016-03-21T15:50:59Z</time>
      </trkpt>
      <trkpt lat="45.5021" lon="6.66313">
        <ele>2266</ele>
        <time>2016-03-21T15:51:05Z</time>
      </trkpt>
      <trkpt lat="45.50203" lon="6.66287">
        <ele>2276.07</ele>
        <time>2016-03-21T15:51:10Z</time>
      </trkpt>
      <trkpt lat="45.50196" lon="6.6626">
        <ele>2285.07</ele>
        <time>2016-03-21T15:51:15Z</time>
      </trkpt>
      <trkpt lat="45.50191" lon="6.66233">
        <ele>2297.99</ele>
        <time>2016-03-21T15:51:20Z</time>
      </trkpt>
      <trkpt lat="45.50186" lon="6.66207">
        <ele>2311.95</ele>
        <time>2016-03-21T15:51:25Z</time>
      </trkpt>
      <trkpt lat="45.50184" lon="6.66181">
        <ele>2322.23</ele>
        <time>2016-03-21T15:51:30Z</time>
      </trkpt>
      <trkpt lat="45.50178" lon="6.66156">
        <ele>2327.28</ele>
        <time>2016-03-21T15:51:36Z</time>
      </trkpt>
      <trkpt lat="45.50185" lon="6.66129">
        <ele>2333.47</ele>
        <time>2016-03-21T15:51:44Z</time>
      </trkpt>
      <trkpt lat="45.50202" lon="6.66118">
        <ele>2338.57</ele>
        <time>2016-03-21T15:52:40Z</time>
      </trkpt>
      <trkpt lat="45.5022" lon="6.66118">
        <ele>2335.53</ele>
        <time>2016-03-21T15:52:47Z</time>
      </trkpt>
      <trkpt lat="45.50243" lon="6.66119">
        <ele>2333.57</ele>
        <time>2016-03-21T15:52:52Z</time>
      </trkpt>
      <trkpt lat="45.50265" lon="6.66112">
        <ele>2331.73</ele>
        <time>2016-03-21T15:52:56Z</time>
      </trkpt>
      <trkpt lat="45.50283" lon="6.66105">
        <ele>2330.92</ele>
        <time>2016-03-21T15:52:59Z</time>
      </trkpt>
      <trkpt lat="45.50305" lon="6.66096">
        <ele>2328.57</ele>
        <time>2016-03-21T15:53:03Z</time>
      </trkpt>
      <trkpt lat="45.50329" lon="6.66095">
        <ele>2324.78</ele>
        <time>2016-03-21T15:53:07Z</time>
      </trkpt>
      <trkpt lat="45.50354" lon="6.66089">
        <ele>2319.79</ele>
        <time>2016-03-21T15:53:11Z</time>
      </trkpt>
      <trkpt lat="45.50373" lon="6.66086">
        <ele>2318.57</ele>
        <time>2016-03-21T15:53:14Z</time>
      </trkpt>
      <trkpt lat="45.50396" lon="6.66082">
        <ele>2316.54</ele>
        <time>2016-03-21T15:53:18Z</time>
      </trkpt>
      <trkpt lat="45.50417" lon="6.66078">
        <ele>2313.74</ele>
        <time>2016-03-21T15:53:23Z</time>
      </trkpt>
      <trkpt lat="45.50438" lon="6.66077">
        <ele>2312.54</ele>
        <time>2016-03-21T15:53:29Z</time>
      </trkpt>
      <trkpt lat="45.50458" lon="6.66078">
        <ele>2310.54</ele>
        <time>2016-03-21T15:53:36Z</time>
      </trkpt>
      <trkpt lat="45.50477" lon="6.66079">
        <ele>2307.53</ele>
        <time>2016-03-21T15:53:48Z</time>
      </trkpt>
      <trkpt lat="45.50497" lon="6.66085">
        <ele>2305.37</ele>
        <time>2016-03-21T15:53:54Z</time>
      </trkpt>
      <trkpt lat="45.50516" lon="6.66092">
        <ele>2302.78</ele>
        <time>2016-03-21T15:53:57Z</time>
      </trkpt>
      <trkpt lat="45.5054" lon="6.66098">
        <ele>2297</ele>
        <time>2016-03-21T15:54:00Z</time>
      </trkpt>
      <trkpt lat="45.50567" lon="6.66102">
        <ele>2294.42</ele>
        <time>2016-03-21T15:54:03Z</time>
      </trkpt>
      <trkpt lat="45.50592" lon="6.66106">
        <ele>2289.83</ele>
        <time>2016-03-21T15:54:06Z</time>
      </trkpt>
      <trkpt lat="45.50615" lon="6.66113">
        <ele>2286.78</ele>
        <time>2016-03-21T15:54:09Z</time>
      </trkpt>
      <trkpt lat="45.50639" lon="6.66117">
        <ele>2283.78</ele>
        <time>2016-03-21T15:54:12Z</time>
      </trkpt>
      <trkpt lat="45.50658" lon="6.6613">
        <ele>2281.61</ele>
        <time>2016-03-21T15:54:15Z</time>
      </trkpt>
      <trkpt lat="45.50674" lon="6.6615">
        <ele>2277.01</ele>
        <time>2016-03-21T15:54:19Z</time>
      </trkpt>
      <trkpt lat="45.5069" lon="6.66166">
        <ele>2273.78</ele>
        <time>2016-03-21T15:54:22Z</time>
      </trkpt>
      <trkpt lat="45.50694" lon="6.66201">
        <ele>2270.01</ele>
        <time>2016-03-21T15:54:25Z</time>
      </trkpt>
      <trkpt lat="45.507" lon="6.66229">
        <ele>2262.59</ele>
        <time>2016-03-21T15:54:29Z</time>
      </trkpt>
      <trkpt lat="45.50698" lon="6.6626">
        <ele>2253.12</ele>
        <time>2016-03-21T15:54:32Z</time>
      </trkpt>
      <trkpt lat="45.50713" lon="6.66285">
        <ele>2247.86</ele>
        <time>2016-03-21T15:54:35Z</time>
      </trkpt>
      <trkpt lat="45.50709" lon="6.6632">
        <ele>2246.38</ele>
        <time>2016-03-21T15:54:38Z</time>
      </trkpt>
      <trkpt lat="45.50707" lon="6.66347">
        <ele>2243.01</ele>
        <time>2016-03-21T15:54:40Z</time>
      </trkpt>
      <trkpt lat="45.5073" lon="6.66358">
        <ele>2237.83</ele>
        <time>2016-03-21T15:54:43Z</time>
      </trkpt>
      <trkpt lat="45.50751" lon="6.66352">
        <ele>2232.19</ele>
        <time>2016-03-21T15:54:46Z</time>
      </trkpt>
      <trkpt lat="45.5077" lon="6.66353">
        <ele>2225.98</ele>
        <time>2016-03-21T15:54:52Z</time>
      </trkpt>
      <trkpt lat="45.50783" lon="6.66372">
        <ele>2221.79</ele>
        <time>2016-03-21T15:54:55Z</time>
      </trkpt>
      <trkpt lat="45.50799" lon="6.66348">
        <ele>2207.61</ele>
        <time>2016-03-21T15:54:58Z</time>
      </trkpt>
      <trkpt lat="45.50816" lon="6.66362">
        <ele>2200.04</ele>
        <time>2016-03-21T15:55:01Z</time>
      </trkpt>
      <trkpt lat="45.50834" lon="6.6637">
        <ele>2194.19</ele>
        <time>2016-03-21T15:55:04Z</time>
      </trkpt>
      <trkpt lat="45.5085" lon="6.66354">
        <ele>2191</ele>
        <time>2016-03-21T15:55:06Z</time>
      </trkpt>
      <trkpt lat="45.5087" lon="6.66348">
        <ele>2189.75</ele>
        <time>2016-03-21T15:55:08Z</time>
      </trkpt>
      <trkpt lat="45.50886" lon="6.6638">
        <ele>2183.26</ele>
        <time>2016-03-21T15:55:11Z</time>
      </trkpt>
      <trkpt lat="45.50903" lon="6.66401">
        <ele>2178.95</ele>
        <time>2016-03-21T15:55:14Z</time>
      </trkpt>
      <trkpt lat="45.50934" lon="6.66401">
        <ele>2174.39</ele>
        <time>2016-03-21T15:55:16Z</time>
      </trkpt>
      <trkpt lat="45.50957" lon="6.66411">
        <ele>2171.01</ele>
        <time>2016-03-21T15:55:18Z</time>
      </trkpt>
      <trkpt lat="45.50981" lon="6.66404">
        <ele>2167.03</ele>
        <time>2016-03-21T15:55:20Z</time>
      </trkpt>
      <trkpt lat="45.51002" lon="6.66416">
        <ele>2158.18</ele>
        <time>2016-03-21T15:55:23Z</time>
      </trkpt>
      <trkpt lat="45.5102" lon="6.66435">
        <ele>2152.06</ele>
        <time>2016-03-21T15:55:26Z</time>
      </trkpt>
      <trkpt lat="45.51039" lon="6.66433">
        <ele>2145.23</ele>
        <time>2016-03-21T15:55:29Z</time>
      </trkpt>
      <trkpt lat="45.51061" lon="6.66437">
        <ele>2137.23</ele>
        <time>2016-03-21T15:55:33Z</time>
      </trkpt>
      <trkpt lat="45.51083" lon="6.66442">
        <ele>2131.79</ele>
        <time>2016-03-21T15:55:37Z</time>
      </trkpt>
      <trkpt lat="45.51099" lon="6.66459">
        <ele>2125.05</ele>
        <time>2016-03-21T15:55:41Z</time>
      </trkpt>
      <trkpt lat="45.51119" lon="6.66475">
        <ele>2120.78</ele>
        <time>2016-03-21T15:55:45Z</time>
      </trkpt>
      <trkpt lat="45.51137" lon="6.66484">
        <ele>2116.63</ele>
        <time>2016-03-21T15:55:48Z</time>
      </trkpt>
      <trkpt lat="45.51154" lon="6.66503">
        <ele>2110.04</ele>
        <time>2016-03-21T15:55:51Z</time>
      </trkpt>
      <trkpt lat="45.51169" lon="6.66527">
        <ele>2104.99</ele>
        <time>2016-03-21T15:55:54Z</time>
      </trkpt>
      <trkpt lat="45.5119" lon="6.66526">
        <ele>2099.03</ele>
        <time>2016-03-21T15:55:57Z</time>
      </trkpt>
      <trkpt lat="45.51202" lon="6.66549">
        <ele>2093.81</ele>
        <time>2016-03-21T15:56:01Z</time>
      </trkpt>
      <trkpt lat="45.51219" lon="6.66576">
        <ele>2086.95</ele>
        <time>2016-03-21T15:56:05Z</time>
      </trkpt>
      <trkpt lat="45.51234" lon="6.66592">
        <ele>2082.79</ele>
        <time>2016-03-21T15:56:08Z</time>
      </trkpt>
      <trkpt lat="45.51242" lon="6.66615">
        <ele>2078.82</ele>
        <time>2016-03-21T15:56:11Z</time>
      </trkpt>
      <trkpt lat="45.51241" lon="6.66644">
        <ele>2074.79</ele>
        <time>2016-03-21T15:56:14Z</time>
      </trkpt>
      <trkpt lat="45.5123" lon="6.66666">
        <ele>2070.34</ele>
        <time>2016-03-21T15:56:18Z</time>
      </trkpt>
      <trkpt lat="45.51218" lon="6.66694">
        <ele>2066.95</ele>
        <time>2016-03-21T15:56:21Z</time>
      </trkpt>
    </trkseg>
  </trk>
</gpx>